<?xml version='1.0' encoding='UTF-8'?><gpx version="1.1" creator="JPX - https://github.com/jenetics/jpx" xmlns="http://www.topografix.com/GPX/1/1"><trk><trkseg><trkpt lat="44.037567524753506" lon="10.8427231299056"><ele>783.0</ele><time>2026-04-05T12:32:31.84Z</time></trkpt><trkpt lat="44.037512513451354" lon="10.842795335703597"><ele>783.0</ele><time>2026-04-05T12:32:34.799Z</time></trkpt><trkpt lat="44.03741391428993" lon="10.842811890946663"><ele>783.0</ele><time>2026-04-05T12:33:18.798Z</time></trkpt><trkpt lat="44.03739247505467" lon="10.842905899606604"><ele>783.0</ele><time>2026-04-05T12:33:35.798Z</time></trkpt><trkpt lat="44.03745279118338" lon="10.842783974482707"><ele>783.0</ele><time>2026-04-05T12:34:53.797Z</time></trkpt><trkpt lat="44.03745734496678" lon="10.8426803225454"><ele>783.0</ele><time>2026-04-05T12:35:10.796Z</time></trkpt><trkpt lat="44.03740617528476" lon="10.8427842092402"><ele>783.0</ele><time>2026-04-05T12:35:25.796Z</time></trkpt><trkpt lat="44.037408234845024" lon="10.842884246825015"><ele>783.0</ele><time>2026-04-05T12:35:28.796Z</time></trkpt><trkpt lat="44.03750153720511" lon="10.84287212076457"><ele>783.0</ele><time>2026-04-05T12:36:09.796Z</time></trkpt><trkpt lat="44.03757133395044" lon="10.8428041820257"><ele>783.0</ele><time>2026-04-05T12:36:14.796Z</time></trkpt><trkpt lat="44.037634323956524" lon="10.842790604191729"><ele>783.0</ele><time>2026-04-05T12:36:19.796Z</time></trkpt><trkpt lat="44.03769129977032" lon="10.842646085076263"><ele>783.0</ele><time>2026-04-05T12:37:36.795Z</time></trkpt><trkpt lat="44.03775567072761" lon="10.842667898992024"><ele>783.0</ele><time>2026-04-05T12:37:44.794Z</time></trkpt><trkpt lat="44.03780531709818" lon="10.842608378236633"><ele>783.0</ele><time>2026-04-05T12:37:51.794Z</time></trkpt><trkpt lat="44.03787891143126" lon="10.842570503817601"><ele>783.0</ele><time>2026-04-05T12:37:54.794Z</time></trkpt><trkpt lat="44.03795961988379" lon="10.842543963849177"><ele>783.0</ele><time>2026-04-05T12:37:58.794Z</time></trkpt><trkpt lat="44.03800274822543" lon="10.842623696157306"><ele>783.0</ele><time>2026-04-05T12:38:00.794Z</time></trkpt><trkpt lat="44.03803724008619" lon="10.842711501147122"><ele>783.0</ele><time>2026-04-05T12:38:02.794Z</time></trkpt><trkpt lat="44.038093075306094" lon="10.842754664072999"><ele>783.0</ele><time>2026-04-05T12:38:05.794Z</time></trkpt><trkpt lat="44.03814550923586" lon="10.842820542042684"><ele>783.0</ele><time>2026-04-05T12:38:07.794Z</time></trkpt><trkpt lat="44.038214105953934" lon="10.842891348037321"><ele>783.0</ele><time>2026-04-05T12:38:10.794Z</time></trkpt><trkpt lat="44.03829795838853" lon="10.842918376717648"><ele>783.0</ele><time>2026-04-05T12:38:12.794Z</time></trkpt><trkpt lat="44.03836175020274" lon="10.84290743826245"><ele>783.0</ele><time>2026-04-05T12:38:14.794Z</time></trkpt><trkpt lat="44.038422945036444" lon="10.84287863404026"><ele>783.0</ele><time>2026-04-05T12:38:16.794Z</time></trkpt><trkpt lat="44.03850943321851" lon="10.842876825752512"><ele>783.0</ele><time>2026-04-05T12:38:19.794Z</time></trkpt><trkpt lat="44.03858150580358" lon="10.842868186358007"><ele>780.8571428571428</ele><time>2026-04-05T12:38:21.794Z</time></trkpt><trkpt lat="44.03865103048289" lon="10.842864467801007"><ele>778.7142857142858</ele><time>2026-04-05T12:38:24.794Z</time></trkpt><trkpt lat="44.038720302599266" lon="10.842863758755549"><ele>776.5714285714286</ele><time>2026-04-05T12:38:27.794Z</time></trkpt><trkpt lat="44.03881270475991" lon="10.842892825717021"><ele>774.4285714285713</ele><time>2026-04-05T12:38:30.794Z</time></trkpt><trkpt lat="44.03887494193738" lon="10.842910221926527"><ele>772.2857142857142</ele><time>2026-04-05T12:38:33.794Z</time></trkpt><trkpt lat="44.0389555219795" lon="10.842921888235361"><ele>770.1428571428571</ele><time>2026-04-05T12:38:36.794Z</time></trkpt><trkpt lat="44.039020129577246" lon="10.842938789556689"><ele>768.0</ele><time>2026-04-05T12:38:38.794Z</time></trkpt><trkpt lat="44.039129286873425" lon="10.842973086575336"><ele>765.8333333333334</ele><time>2026-04-05T12:38:40.794Z</time></trkpt><trkpt lat="44.03921043867384" lon="10.843000102287332"><ele>763.6666666666666</ele><time>2026-04-05T12:38:42.794Z</time></trkpt><trkpt lat="44.039286669424584" lon="10.84306161631271"><ele>761.5</ele><time>2026-04-05T12:38:44.794Z</time></trkpt><trkpt lat="44.03935803106764" lon="10.843136599236246"><ele>759.3333333333333</ele><time>2026-04-05T12:38:46.794Z</time></trkpt><trkpt lat="44.0394159103117" lon="10.8431960066192"><ele>757.1666666666666</ele><time>2026-04-05T12:38:49.794Z</time></trkpt><trkpt lat="44.03945185503767" lon="10.843308113158198"><ele>755.0</ele><time>2026-04-05T12:38:52.795Z</time></trkpt><trkpt lat="44.039500909915866" lon="10.843407532490353"><ele>755.0</ele><time>2026-04-05T12:38:56.794Z</time></trkpt><trkpt lat="44.03955296875005" lon="10.843457791823196"><ele>755.0</ele><time>2026-04-05T12:38:58.794Z</time></trkpt><trkpt lat="44.039605615784424" lon="10.843517980613607"><ele>755.0</ele><time>2026-04-05T12:39:00.794Z</time></trkpt><trkpt lat="44.0396592810323" lon="10.843578248938188"><ele>755.0</ele><time>2026-04-05T12:39:02.795Z</time></trkpt><trkpt lat="44.03971515454224" lon="10.843649420012575"><ele>755.0</ele><time>2026-04-05T12:39:04.795Z</time></trkpt><trkpt lat="44.039772780193516" lon="10.843714396838616"><ele>755.0</ele><time>2026-04-05T12:39:06.794Z</time></trkpt><trkpt lat="44.03983783463126" lon="10.843779757270147"><ele>755.0</ele><time>2026-04-05T12:39:08.794Z</time></trkpt><trkpt lat="44.0399044462795" lon="10.843831401250707"><ele>754.0</ele><time>2026-04-05T12:39:10.794Z</time></trkpt><trkpt lat="44.03995799779721" lon="10.843888520685942"><ele>753.0</ele><time>2026-04-05T12:39:12.794Z</time></trkpt><trkpt lat="44.040020382775594" lon="10.843941655849965"><ele>752.0</ele><time>2026-04-05T12:39:15.794Z</time></trkpt><trkpt lat="44.040111089849994" lon="10.843955970317358"><ele>751.0</ele><time>2026-04-05T12:39:18.794Z</time></trkpt><trkpt lat="44.040185866254554" lon="10.84394749413623"><ele>750.0</ele><time>2026-04-05T12:39:21.794Z</time></trkpt><trkpt lat="44.04026947246767" lon="10.843958887923613"><ele>749.0</ele><time>2026-04-05T12:39:24.794Z</time></trkpt><trkpt lat="44.04031662097244" lon="10.844047209575486"><ele>747.0</ele><time>2026-04-05T12:39:29.794Z</time></trkpt><trkpt lat="44.0403529911961" lon="10.844140775572042"><ele>745.0</ele><time>2026-04-05T12:39:32.794Z</time></trkpt><trkpt lat="44.04037807784183" lon="10.844229039080252"><ele>743.0</ele><time>2026-04-05T12:39:34.794Z</time></trkpt><trkpt lat="44.04039386087328" lon="10.844322679920547"><ele>741.0</ele><time>2026-04-05T12:39:36.794Z</time></trkpt><trkpt lat="44.04041010149128" lon="10.844411303101102"><ele>739.0</ele><time>2026-04-05T12:39:38.794Z</time></trkpt><trkpt lat="44.0404018896704" lon="10.844537124578162"><ele>737.0</ele><time>2026-04-05T12:39:41.794Z</time></trkpt><trkpt lat="44.04038825512724" lon="10.844638234788334"><ele>735.0</ele><time>2026-04-05T12:39:43.794Z</time></trkpt><trkpt lat="44.040369209405405" lon="10.844748273509662"><ele>734.3333333333334</ele><time>2026-04-05T12:39:45.794Z</time></trkpt><trkpt lat="44.0403481988219" lon="10.844837393379017"><ele>733.6666666666666</ele><time>2026-04-05T12:39:47.794Z</time></trkpt><trkpt lat="44.04033792963417" lon="10.844932123078186"><ele>733.0</ele><time>2026-04-05T12:39:49.794Z</time></trkpt><trkpt lat="44.04031328352122" lon="10.84503228252592"><ele>732.3333333333333</ele><time>2026-04-05T12:39:51.794Z</time></trkpt><trkpt lat="44.0402727422741" lon="10.845138519201445"><ele>731.6666666666666</ele><time>2026-04-05T12:39:53.794Z</time></trkpt><trkpt lat="44.040223659510104" lon="10.845242870105556"><ele>731.0</ele><time>2026-04-05T12:39:55.794Z</time></trkpt><trkpt lat="44.04017890441554" lon="10.845340522838558"><ele>731.0</ele><time>2026-04-05T12:39:57.794Z</time></trkpt><trkpt lat="44.040126614794225" lon="10.845430168627022"><ele>731.0</ele><time>2026-04-05T12:39:59.794Z</time></trkpt><trkpt lat="44.04007010319065" lon="10.84553265218087"><ele>731.0</ele><time>2026-04-05T12:40:02.794Z</time></trkpt><trkpt lat="44.040019826759355" lon="10.845622622710701"><ele>731.0</ele><time>2026-04-05T12:40:04.794Z</time></trkpt><trkpt lat="44.03998329259904" lon="10.845729640315568"><ele>731.0</ele><time>2026-04-05T12:40:06.794Z</time></trkpt><trkpt lat="44.03994727922457" lon="10.845818614396434"><ele>731.0</ele><time>2026-04-05T12:40:08.794Z</time></trkpt><trkpt lat="44.0399089636077" lon="10.845920123555974"><ele>730.0</ele><time>2026-04-05T12:40:10.794Z</time></trkpt><trkpt lat="44.039849368084845" lon="10.846042150945916"><ele>729.0</ele><time>2026-04-05T12:40:12.794Z</time></trkpt><trkpt lat="44.03981486827019" lon="10.846165264951852"><ele>728.0</ele><time>2026-04-05T12:40:14.794Z</time></trkpt><trkpt lat="44.039780125350724" lon="10.846261372225236"><ele>727.0</ele><time>2026-04-05T12:40:16.794Z</time></trkpt><trkpt lat="44.03973475290836" lon="10.846355303765574"><ele>726.0</ele><time>2026-04-05T12:40:18.794Z</time></trkpt><trkpt lat="44.03968954624351" lon="10.846448723342862"><ele>725.0</ele><time>2026-04-05T12:40:20.794Z</time></trkpt><trkpt lat="44.039624639448974" lon="10.846538402084873"><ele>725.0</ele><time>2026-04-05T12:40:22.794Z</time></trkpt><trkpt lat="44.03956052070205" lon="10.846627692043109"><ele>725.0</ele><time>2026-04-05T12:40:24.794Z</time></trkpt><trkpt lat="44.0394946007113" lon="10.846717408301881"><ele>725.0</ele><time>2026-04-05T12:40:26.794Z</time></trkpt><trkpt lat="44.0394263476146" lon="10.846814327765568"><ele>725.0</ele><time>2026-04-05T12:40:28.794Z</time></trkpt><trkpt lat="44.039363984630405" lon="10.846904375443827"><ele>725.0</ele><time>2026-04-05T12:40:30.794Z</time></trkpt><trkpt lat="44.03931657978775" lon="10.846988126184128"><ele>725.0</ele><time>2026-04-05T12:40:32.794Z</time></trkpt><trkpt lat="44.03925463140216" lon="10.847078324742673"><ele>725.5</ele><time>2026-04-05T12:40:34.794Z</time></trkpt><trkpt lat="44.03920158601568" lon="10.847144619886535"><ele>726.0</ele><time>2026-04-05T12:40:36.794Z</time></trkpt><trkpt lat="44.03913052629757" lon="10.847236979051166"><ele>726.5</ele><time>2026-04-05T12:40:38.794Z</time></trkpt><trkpt lat="44.039079150824094" lon="10.847334820503658"><ele>727.0</ele><time>2026-04-05T12:40:40.794Z</time></trkpt><trkpt lat="44.0390451389404" lon="10.847435331328253"><ele>727.5</ele><time>2026-04-05T12:40:42.794Z</time></trkpt><trkpt lat="44.039031345108555" lon="10.847531390320597"><ele>728.0</ele><time>2026-04-05T12:40:44.794Z</time></trkpt><trkpt lat="44.03899910367172" lon="10.847639006025075"><ele>726.2</ele><time>2026-04-05T12:40:46.794Z</time></trkpt><trkpt lat="44.03896588611334" lon="10.847737491081599"><ele>724.4</ele><time>2026-04-05T12:40:48.794Z</time></trkpt><trkpt lat="44.038931983503076" lon="10.847829037999018"><ele>722.6</ele><time>2026-04-05T12:40:50.794Z</time></trkpt><trkpt lat="44.03887461396113" lon="10.847946287258223"><ele>720.8000000000001</ele><time>2026-04-05T12:40:52.794Z</time></trkpt><trkpt lat="44.038813265792" lon="10.848081445931115"><ele>719.0</ele><time>2026-04-05T12:40:54.794Z</time></trkpt><trkpt lat="44.03874573897918" lon="10.848234312626635"><ele>719.0</ele><time>2026-04-05T12:40:56.793Z</time></trkpt><trkpt lat="44.038706027286416" lon="10.848322788265103"><ele>719.0</ele><time>2026-04-05T12:40:57.793Z</time></trkpt><trkpt lat="44.03866640888413" lon="10.848411929380608"><ele>719.0</ele><time>2026-04-05T12:40:58.794Z</time></trkpt><trkpt lat="44.03862622094125" lon="10.848501051680403"><ele>719.0</ele><time>2026-04-05T12:40:59.793Z</time></trkpt><trkpt lat="44.038584140460856" lon="10.848591526198955"><ele>719.0</ele><time>2026-04-05T12:41:00.793Z</time></trkpt><trkpt lat="44.038531479311565" lon="10.848688961084838"><ele>719.0</ele><time>2026-04-05T12:41:01.794Z</time></trkpt><trkpt lat="44.03848745259453" lon="10.848787124397308"><ele>719.6666666666666</ele><time>2026-04-05T12:41:02.793Z</time></trkpt><trkpt lat="44.03843872759432" lon="10.848882824876137"><ele>720.3333333333333</ele><time>2026-04-05T12:41:03.793Z</time></trkpt><trkpt lat="44.03838737842252" lon="10.848978458459483"><ele>721.0</ele><time>2026-04-05T12:41:04.793Z</time></trkpt><trkpt lat="44.038338939072204" lon="10.849082912274595"><ele>721.6666666666666</ele><time>2026-04-05T12:41:05.793Z</time></trkpt><trkpt lat="44.03828266457542" lon="10.849189466925049"><ele>722.3333333333334</ele><time>2026-04-05T12:41:06.793Z</time></trkpt><trkpt lat="44.03823062830467" lon="10.849295052140103"><ele>723.0</ele><time>2026-04-05T12:41:07.793Z</time></trkpt><trkpt lat="44.03817775507441" lon="10.849407995533584"><ele>721.0</ele><time>2026-04-05T12:41:08.792Z</time></trkpt><trkpt lat="44.03812623858684" lon="10.849514143576767"><ele>719.0</ele><time>2026-04-05T12:41:09.792Z</time></trkpt><trkpt lat="44.03807736595031" lon="10.849623344805224"><ele>717.0</ele><time>2026-04-05T12:41:10.792Z</time></trkpt><trkpt lat="44.038013074935385" lon="10.849729497134698"><ele>715.0</ele><time>2026-04-05T12:41:11.792Z</time></trkpt><trkpt lat="44.0379611903397" lon="10.849839056426475"><ele>713.0</ele><time>2026-04-05T12:41:12.792Z</time></trkpt><trkpt lat="44.03791192401114" lon="10.849961438685014"><ele>713.0</ele><time>2026-04-05T12:41:13.792Z</time></trkpt><trkpt lat="44.03786940053176" lon="10.850084292022526"><ele>713.0</ele><time>2026-04-05T12:41:14.792Z</time></trkpt><trkpt lat="44.037830725703785" lon="10.850226790168767"><ele>713.0</ele><time>2026-04-05T12:41:15.792Z</time></trkpt><trkpt lat="44.03779716364324" lon="10.85036301081494"><ele>713.0</ele><time>2026-04-05T12:41:16.792Z</time></trkpt><trkpt lat="44.0377560123641" lon="10.850506252703532"><ele>713.0</ele><time>2026-04-05T12:41:17.792Z</time></trkpt><trkpt lat="44.03771269127232" lon="10.850651259087808"><ele>713.0</ele><time>2026-04-05T12:41:18.792Z</time></trkpt><trkpt lat="44.03767508962015" lon="10.850795674762486"><ele>713.0</ele><time>2026-04-05T12:41:19.792Z</time></trkpt><trkpt lat="44.03764146703511" lon="10.850937910403106"><ele>713.0</ele><time>2026-04-05T12:41:20.792Z</time></trkpt><trkpt lat="44.03760849454796" lon="10.851072696654406"><ele>713.0</ele><time>2026-04-05T12:41:21.792Z</time></trkpt><trkpt lat="44.03758028255307" lon="10.8512068900045"><ele>713.0</ele><time>2026-04-05T12:41:22.792Z</time></trkpt><trkpt lat="44.03756510443709" lon="10.851336201954771"><ele>712.8</ele><time>2026-04-05T12:41:23.792Z</time></trkpt><trkpt lat="44.037575854752376" lon="10.851470189857325"><ele>712.5999999999999</ele><time>2026-04-05T12:41:24.792Z</time></trkpt><trkpt lat="44.03759519678837" lon="10.851594234955893"><ele>712.4000000000001</ele><time>2026-04-05T12:41:25.792Z</time></trkpt><trkpt lat="44.03762557185453" lon="10.851714377807106"><ele>712.2</ele><time>2026-04-05T12:41:26.792Z</time></trkpt><trkpt lat="44.03764522162765" lon="10.851831507227276"><ele>712.0</ele><time>2026-04-05T12:41:27.792Z</time></trkpt><trkpt lat="44.03766753441177" lon="10.851947264950557"><ele>712.0</ele><time>2026-04-05T12:41:28.792Z</time></trkpt><trkpt lat="44.037684934983375" lon="10.85206309743745"><ele>712.0</ele><time>2026-04-05T12:41:29.792Z</time></trkpt><trkpt lat="44.03770471429389" lon="10.852166845491263"><ele>712.0</ele><time>2026-04-05T12:41:30.792Z</time></trkpt><trkpt lat="44.03772699975786" lon="10.85226915297549"><ele>712.0</ele><time>2026-04-05T12:41:31.792Z</time></trkpt><trkpt lat="44.03774498446085" lon="10.852371311626309"><ele>712.0</ele><time>2026-04-05T12:41:32.792Z</time></trkpt><trkpt lat="44.03776748450678" lon="10.852465717846822"><ele>712.0</ele><time>2026-04-05T12:41:33.792Z</time></trkpt><trkpt lat="44.03778529753817" lon="10.852558111001624"><ele>711.3333333333334</ele><time>2026-04-05T12:41:34.792Z</time></trkpt><trkpt lat="44.03779938833155" lon="10.852659014367925"><ele>710.6666666666667</ele><time>2026-04-05T12:41:35.792Z</time></trkpt><trkpt lat="44.037808736765555" lon="10.852746603185075"><ele>710.0</ele><time>2026-04-05T12:41:36.792Z</time></trkpt><trkpt lat="44.03781355295358" lon="10.85283964735919"><ele>709.3333333333334</ele><time>2026-04-05T12:41:37.792Z</time></trkpt><trkpt lat="44.03779716766226" lon="10.85300528489089"><ele>708.6666666666666</ele><time>2026-04-05T12:41:39.792Z</time></trkpt><trkpt lat="44.0377667387396" lon="10.853087093138486"><ele>708.0</ele><time>2026-04-05T12:41:40.792Z</time></trkpt><trkpt lat="44.03768820833433" lon="10.853211314326217"><ele>708.0</ele><time>2026-04-05T12:41:42.792Z</time></trkpt><trkpt lat="44.03757802631708" lon="10.853322588924943"><ele>708.0</ele><time>2026-04-05T12:41:44.792Z</time></trkpt><trkpt lat="44.03752398000261" lon="10.853373987507181"><ele>708.0</ele><time>2026-04-05T12:41:45.792Z</time></trkpt><trkpt lat="44.037441264173026" lon="10.853501598825344"><ele>708.0</ele><time>2026-04-05T12:41:47.792Z</time></trkpt><trkpt lat="44.03741248757066" lon="10.853590158117989"><ele>708.0</ele><time>2026-04-05T12:41:48.792Z</time></trkpt><trkpt lat="44.037397516752776" lon="10.853676372758683"><ele>709.0</ele><time>2026-04-05T12:41:49.792Z</time></trkpt><trkpt lat="44.03737180133407" lon="10.853842099247492"><ele>710.0</ele><time>2026-04-05T12:41:51.792Z</time></trkpt><trkpt lat="44.037361554675044" lon="10.853928624161261"><ele>711.0</ele><time>2026-04-05T12:41:52.792Z</time></trkpt><trkpt lat="44.03737679107267" lon="10.854091536023645"><ele>712.0</ele><time>2026-04-05T12:41:54.792Z</time></trkpt><trkpt lat="44.03742897442008" lon="10.854224711827476"><ele>713.0</ele><time>2026-04-05T12:41:56.792Z</time></trkpt><trkpt lat="44.03748958601884" lon="10.85436329516085"><ele>713.0</ele><time>2026-04-05T12:41:58.792Z</time></trkpt><trkpt lat="44.03754883200247" lon="10.854493618489947"><ele>713.0</ele><time>2026-04-05T12:42:00.792Z</time></trkpt><trkpt lat="44.0376175736876" lon="10.854627970138155"><ele>713.0</ele><time>2026-04-05T12:42:02.792Z</time></trkpt><trkpt lat="44.037682309461154" lon="10.854775928558112"><ele>713.0</ele><time>2026-04-05T12:42:04.792Z</time></trkpt><trkpt lat="44.03770173578612" lon="10.854859455261805"><ele>713.0</ele><time>2026-04-05T12:42:05.792Z</time></trkpt><trkpt lat="44.03773008001458" lon="10.855025548387399"><ele>713.4</ele><time>2026-04-05T12:42:07.792Z</time></trkpt><trkpt lat="44.03773394324205" lon="10.855122021387507"><ele>713.8</ele><time>2026-04-05T12:42:08.792Z</time></trkpt><trkpt lat="44.03775826150342" lon="10.855284553551646"><ele>714.2</ele><time>2026-04-05T12:42:10.792Z</time></trkpt><trkpt lat="44.03777048274195" lon="10.855444860890692"><ele>714.6</ele><time>2026-04-05T12:42:12.792Z</time></trkpt><trkpt lat="44.03778936413011" lon="10.85559490551259"><ele>715.0</ele><time>2026-04-05T12:42:14.792Z</time></trkpt><trkpt lat="44.03781626748389" lon="10.855764310211107"><ele>715.0</ele><time>2026-04-05T12:42:16.792Z</time></trkpt><trkpt lat="44.03781733074869" lon="10.85592072824521"><ele>715.0</ele><time>2026-04-05T12:42:18.792Z</time></trkpt><trkpt lat="44.03783518706664" lon="10.85608516676532"><ele>715.0</ele><time>2026-04-05T12:42:20.792Z</time></trkpt><trkpt lat="44.03784791924646" lon="10.856173076278012"><ele>715.0</ele><time>2026-04-05T12:42:21.792Z</time></trkpt><trkpt lat="44.03785413561764" lon="10.856271996309763"><ele>715.0</ele><time>2026-04-05T12:42:22.792Z</time></trkpt><trkpt lat="44.037860516817844" lon="10.856365608713999"><ele>715.0</ele><time>2026-04-05T12:42:23.792Z</time></trkpt><trkpt lat="44.03787293082663" lon="10.856461601786705"><ele>715.0</ele><time>2026-04-05T12:42:24.792Z</time></trkpt><trkpt lat="44.037877421759156" lon="10.85655537819382"><ele>715.0</ele><time>2026-04-05T12:42:25.792Z</time></trkpt><trkpt lat="44.03789196215263" lon="10.856645183110103"><ele>715.0</ele><time>2026-04-05T12:42:26.792Z</time></trkpt><trkpt lat="44.03790122703837" lon="10.856733400343545"><ele>715.0</ele><time>2026-04-05T12:42:27.792Z</time></trkpt><trkpt lat="44.03794172972398" lon="10.856908081748012"><ele>715.0</ele><time>2026-04-05T12:42:29.792Z</time></trkpt><trkpt lat="44.038019547568325" lon="10.857040265994607"><ele>715.4</ele><time>2026-04-05T12:42:31.792Z</time></trkpt><trkpt lat="44.03810940186653" lon="10.857112145956659"><ele>715.8</ele><time>2026-04-05T12:42:33.792Z</time></trkpt><trkpt lat="44.03820598609005" lon="10.857178614773735"><ele>716.2</ele><time>2026-04-05T12:42:35.792Z</time></trkpt><trkpt lat="44.03829025236451" lon="10.857296313278598"><ele>716.6</ele><time>2026-04-05T12:42:37.792Z</time></trkpt><trkpt lat="44.038330609770625" lon="10.857372694669488"><ele>717.0</ele><time>2026-04-05T12:42:38.792Z</time></trkpt><trkpt lat="44.03836151206489" lon="10.857468165544372"><ele>715.2</ele><time>2026-04-05T12:42:39.792Z</time></trkpt><trkpt lat="44.03838939447606" lon="10.85754861083472"><ele>713.4000000000001</ele><time>2026-04-05T12:42:40.792Z</time></trkpt><trkpt lat="44.03842554813702" lon="10.857725586434283"><ele>711.5999999999999</ele><time>2026-04-05T12:42:42.792Z</time></trkpt><trkpt lat="44.03846396861678" lon="10.857896453906354"><ele>709.8</ele><time>2026-04-05T12:42:44.792Z</time></trkpt><trkpt lat="44.03848166622373" lon="10.857998442676319"><ele>708.0</ele><time>2026-04-05T12:42:45.792Z</time></trkpt><trkpt lat="44.03850033424021" lon="10.85809140920012"><ele>708.0</ele><time>2026-04-05T12:42:46.791Z</time></trkpt><trkpt lat="44.038524123099606" lon="10.858176726476076"><ele>708.0</ele><time>2026-04-05T12:42:47.791Z</time></trkpt><trkpt lat="44.03854136236136" lon="10.858267884412712"><ele>708.0</ele><time>2026-04-05T12:42:48.791Z</time></trkpt><trkpt lat="44.03856460378946" lon="10.85835053839587"><ele>708.0</ele><time>2026-04-05T12:42:49.791Z</time></trkpt><trkpt lat="44.03857740636518" lon="10.858438628455724"><ele>708.0</ele><time>2026-04-05T12:42:50.791Z</time></trkpt><trkpt lat="44.0385996155207" lon="10.85853086042474"><ele>708.0</ele><time>2026-04-05T12:42:51.791Z</time></trkpt><trkpt lat="44.038642484380425" lon="10.85868605965789"><ele>708.2</ele><time>2026-04-05T12:42:53.791Z</time></trkpt><trkpt lat="44.038674180908174" lon="10.85883849716819"><ele>708.4</ele><time>2026-04-05T12:42:55.791Z</time></trkpt><trkpt lat="44.03870961904687" lon="10.859025275822251"><ele>708.6</ele><time>2026-04-05T12:42:57.791Z</time></trkpt><trkpt lat="44.03872081092053" lon="10.859122940156805"><ele>708.8000000000001</ele><time>2026-04-05T12:42:58.791Z</time></trkpt><trkpt lat="44.03874911487963" lon="10.85927692564595"><ele>709.0</ele><time>2026-04-05T12:43:00.791Z</time></trkpt><trkpt lat="44.03876285866002" lon="10.859454205626017"><ele>707.2</ele><time>2026-04-05T12:43:02.792Z</time></trkpt><trkpt lat="44.03878532633528" lon="10.859604736627968"><ele>705.4000000000001</ele><time>2026-04-05T12:43:04.792Z</time></trkpt><trkpt lat="44.038776562075995" lon="10.859776655222166"><ele>703.6</ele><time>2026-04-05T12:43:06.792Z</time></trkpt><trkpt lat="44.0387740845047" lon="10.859873948057635"><ele>701.8</ele><time>2026-04-05T12:43:07.792Z</time></trkpt><trkpt lat="44.03876933097206" lon="10.86004244521656"><ele>700.0</ele><time>2026-04-05T12:43:09.792Z</time></trkpt><trkpt lat="44.038779921977685" lon="10.860202248450694"><ele>698.8333333333334</ele><time>2026-04-05T12:43:11.792Z</time></trkpt><trkpt lat="44.03879617721965" lon="10.860294098800646"><ele>697.6666666666667</ele><time>2026-04-05T12:43:12.792Z</time></trkpt><trkpt lat="44.03881603696734" lon="10.860381909831032"><ele>696.5</ele><time>2026-04-05T12:43:13.791Z</time></trkpt><trkpt lat="44.03883780492034" lon="10.860467365347713"><ele>695.3333333333334</ele><time>2026-04-05T12:43:14.792Z</time></trkpt><trkpt lat="44.0388827399563" lon="10.860627861892688"><ele>694.1666666666666</ele><time>2026-04-05T12:43:16.792Z</time></trkpt><trkpt lat="44.0389007888726" lon="10.860714529188892"><ele>693.0</ele><time>2026-04-05T12:43:17.792Z</time></trkpt><trkpt lat="44.038904544667126" lon="10.860880104111503"><ele>693.0</ele><time>2026-04-05T12:43:19.792Z</time></trkpt><trkpt lat="44.038890049389025" lon="10.860968025549907"><ele>693.0</ele><time>2026-04-05T12:43:20.792Z</time></trkpt><trkpt lat="44.03886084380029" lon="10.861046585236675"><ele>693.0</ele><time>2026-04-05T12:43:21.792Z</time></trkpt><trkpt lat="44.038821916390056" lon="10.861178154811867"><ele>693.0</ele><time>2026-04-05T12:43:23.792Z</time></trkpt><trkpt lat="44.0387728912119" lon="10.861276199305436"><ele>693.0</ele><time>2026-04-05T12:43:25.792Z</time></trkpt><trkpt lat="44.0387388650633" lon="10.861389858480134"><ele>693.0</ele><time>2026-04-05T12:43:27.792Z</time></trkpt><trkpt lat="44.03871306852524" lon="10.861492936998447"><ele>693.0</ele><time>2026-04-05T12:43:29.792Z</time></trkpt><trkpt lat="44.038680677008294" lon="10.861618887761438"><ele>693.0</ele><time>2026-04-05T12:43:31.792Z</time></trkpt><trkpt lat="44.03866298245046" lon="10.861744341039845"><ele>693.0</ele><time>2026-04-05T12:43:33.792Z</time></trkpt><trkpt lat="44.038645558038375" lon="10.861863766410277"><ele>693.0</ele><time>2026-04-05T12:43:35.792Z</time></trkpt><trkpt lat="44.038646364385805" lon="10.862000299525445"><ele>693.0</ele><time>2026-04-05T12:43:37.792Z</time></trkpt><trkpt lat="44.03865254922691" lon="10.862130671977527"><ele>693.1666666666666</ele><time>2026-04-05T12:43:39.792Z</time></trkpt><trkpt lat="44.03866364439457" lon="10.862238342182673"><ele>693.3333333333334</ele><time>2026-04-05T12:43:41.792Z</time></trkpt><trkpt lat="44.038680388168025" lon="10.862357690724707"><ele>693.5</ele><time>2026-04-05T12:43:43.792Z</time></trkpt><trkpt lat="44.03869197400234" lon="10.86246453364129"><ele>693.6666666666667</ele><time>2026-04-05T12:43:45.792Z</time></trkpt><trkpt lat="44.03870298126816" lon="10.862579730611698"><ele>693.8333333333334</ele><time>2026-04-05T12:43:47.792Z</time></trkpt><trkpt lat="44.038716528964954" lon="10.862697755547952"><ele>694.0</ele><time>2026-04-05T12:43:49.792Z</time></trkpt><trkpt lat="44.038734880432756" lon="10.862810540096028"><ele>694.2857142857143</ele><time>2026-04-05T12:43:51.791Z</time></trkpt><trkpt lat="44.03873818265484" lon="10.862927688758754"><ele>694.5714285714286</ele><time>2026-04-05T12:43:53.791Z</time></trkpt><trkpt lat="44.038749104049174" lon="10.863017662176462"><ele>694.8571428571429</ele><time>2026-04-05T12:43:55.791Z</time></trkpt><trkpt lat="44.03874770094906" lon="10.86311202822381"><ele>695.1428571428571</ele><time>2026-04-05T12:43:57.791Z</time></trkpt><trkpt lat="44.03873697555059" lon="10.863215281761075"><ele>695.4285714285714</ele><time>2026-04-05T12:43:59.791Z</time></trkpt><trkpt lat="44.03873803419444" lon="10.86331123514489"><ele>695.7142857142857</ele><time>2026-04-05T12:44:01.791Z</time></trkpt><trkpt lat="44.03872766533071" lon="10.863407624380963"><ele>696.0</ele><time>2026-04-05T12:44:03.791Z</time></trkpt><trkpt lat="44.03871814294959" lon="10.863524628984567"><ele>696.2857142857142</ele><time>2026-04-05T12:44:05.791Z</time></trkpt><trkpt lat="44.0387132336778" lon="10.86362488363623"><ele>696.5714285714286</ele><time>2026-04-05T12:44:07.791Z</time></trkpt><trkpt lat="44.03869958123054" lon="10.86372243576102"><ele>696.8571428571429</ele><time>2026-04-05T12:44:09.791Z</time></trkpt><trkpt lat="44.038676953716084" lon="10.863833314838194"><ele>697.1428571428571</ele><time>2026-04-05T12:44:11.791Z</time></trkpt><trkpt lat="44.03865537513746" lon="10.863929983595789"><ele>697.4285714285714</ele><time>2026-04-05T12:44:13.791Z</time></trkpt><trkpt lat="44.038643906055704" lon="10.864033652522508"><ele>697.7142857142857</ele><time>2026-04-05T12:44:15.791Z</time></trkpt><trkpt lat="44.03863934950469" lon="10.864130035107106"><ele>698.0</ele><time>2026-04-05T12:44:17.791Z</time></trkpt><trkpt lat="44.03862878878437" lon="10.864248640934166"><ele>698.0</ele><time>2026-04-05T12:44:19.791Z</time></trkpt><trkpt lat="44.0386177792819" lon="10.86436356131667"><ele>698.0</ele><time>2026-04-05T12:44:21.791Z</time></trkpt><trkpt lat="44.03860837879865" lon="10.864483080709542"><ele>698.0</ele><time>2026-04-05T12:44:23.791Z</time></trkpt><trkpt lat="44.03859848248821" lon="10.864594476194506"><ele>698.0</ele><time>2026-04-05T12:44:25.791Z</time></trkpt><trkpt lat="44.03858714536991" lon="10.864727527415175"><ele>698.0</ele><time>2026-04-05T12:44:27.791Z</time></trkpt><trkpt lat="44.03858072094131" lon="10.864849347041519"><ele>698.0</ele><time>2026-04-05T12:44:29.791Z</time></trkpt><trkpt lat="44.03856832911431" lon="10.8649806830479"><ele>698.0</ele><time>2026-04-05T12:44:31.791Z</time></trkpt><trkpt lat="44.038547692673696" lon="10.865128178215626"><ele>698.0</ele><time>2026-04-05T12:44:33.791Z</time></trkpt><trkpt lat="44.03853449510155" lon="10.865266952451183"><ele>698.0</ele><time>2026-04-05T12:44:35.791Z</time></trkpt><trkpt lat="44.03851966783515" lon="10.865404631237503"><ele>698.0</ele><time>2026-04-05T12:44:37.791Z</time></trkpt><trkpt lat="44.03849843384974" lon="10.865539249560253"><ele>698.0</ele><time>2026-04-05T12:44:39.791Z</time></trkpt><trkpt lat="44.038483101855086" lon="10.86566888146017"><ele>698.0</ele><time>2026-04-05T12:44:41.791Z</time></trkpt><trkpt lat="44.03846383477593" lon="10.865815802283741"><ele>698.0</ele><time>2026-04-05T12:44:43.791Z</time></trkpt><trkpt lat="44.03845318084786" lon="10.865956455757345"><ele>698.0</ele><time>2026-04-05T12:44:45.791Z</time></trkpt><trkpt lat="44.038441474531226" lon="10.866105389471306"><ele>698.0</ele><time>2026-04-05T12:44:47.791Z</time></trkpt><trkpt lat="44.03843166133085" lon="10.86624070758607"><ele>698.0</ele><time>2026-04-05T12:44:49.791Z</time></trkpt><trkpt lat="44.0384289282456" lon="10.866376177710485"><ele>698.25</ele><time>2026-04-05T12:44:51.791Z</time></trkpt><trkpt lat="44.03842223713689" lon="10.86653900353039"><ele>698.5</ele><time>2026-04-05T12:44:53.791Z</time></trkpt><trkpt lat="44.038421485588785" lon="10.86669456320755"><ele>698.75</ele><time>2026-04-05T12:44:55.791Z</time></trkpt><trkpt lat="44.038411398164456" lon="10.866853234100962"><ele>699.0</ele><time>2026-04-05T12:44:57.791Z</time></trkpt><trkpt lat="44.038398391509936" lon="10.867015257962752"><ele>698.0</ele><time>2026-04-05T12:44:59.791Z</time></trkpt><trkpt lat="44.038378971486814" lon="10.867195143766665"><ele>697.0</ele><time>2026-04-05T12:45:01.791Z</time></trkpt><trkpt lat="44.03837028396137" lon="10.86728310824355"><ele>696.0</ele><time>2026-04-05T12:45:02.791Z</time></trkpt><trkpt lat="44.03834429095682" lon="10.8674585941617"><ele>695.0</ele><time>2026-04-05T12:45:04.791Z</time></trkpt><trkpt lat="44.03832305246985" lon="10.867548923767044"><ele>694.0</ele><time>2026-04-05T12:45:05.791Z</time></trkpt><trkpt lat="44.03829939144762" lon="10.867637067552355"><ele>693.4285714285714</ele><time>2026-04-05T12:45:06.791Z</time></trkpt><trkpt lat="44.03827491204538" lon="10.867723504115842"><ele>692.8571428571428</ele><time>2026-04-05T12:45:07.791Z</time></trkpt><trkpt lat="44.038255902871505" lon="10.86781624157118"><ele>692.2857142857142</ele><time>2026-04-05T12:45:08.79Z</time></trkpt><trkpt lat="44.0382489997921" lon="10.867903797112515"><ele>691.7142857142858</ele><time>2026-04-05T12:45:09.79Z</time></trkpt><trkpt lat="44.038244149574275" lon="10.86799682729458"><ele>691.1428571428571</ele><time>2026-04-05T12:45:10.791Z</time></trkpt><trkpt lat="44.03823314627539" lon="10.868109017369967"><ele>690.5714285714286</ele><time>2026-04-05T12:45:11.79Z</time></trkpt><trkpt lat="44.03820659047688" lon="10.868197058418025"><ele>690.0</ele><time>2026-04-05T12:45:12.79Z</time></trkpt><trkpt lat="44.03819232584701" lon="10.868286772417344"><ele>690.0</ele><time>2026-04-05T12:45:13.79Z</time></trkpt><trkpt lat="44.03818326181239" lon="10.86838371764504"><ele>690.0</ele><time>2026-04-05T12:45:14.791Z</time></trkpt><trkpt lat="44.03816601742761" lon="10.868493670978697"><ele>690.0</ele><time>2026-04-05T12:45:15.791Z</time></trkpt><trkpt lat="44.03814935413921" lon="10.868592225656474"><ele>690.0</ele><time>2026-04-05T12:45:16.79Z</time></trkpt><trkpt lat="44.0381318213181" lon="10.86869281375097"><ele>690.0</ele><time>2026-04-05T12:45:17.79Z</time></trkpt><trkpt lat="44.03811961011748" lon="10.868796392990605"><ele>690.0</ele><time>2026-04-05T12:45:18.79Z</time></trkpt><trkpt lat="44.03810384295504" lon="10.8689054810119"><ele>689.3333333333334</ele><time>2026-04-05T12:45:19.791Z</time></trkpt><trkpt lat="44.038092131484056" lon="10.869009336295077"><ele>688.6666666666666</ele><time>2026-04-05T12:45:20.791Z</time></trkpt><trkpt lat="44.0380913750232" lon="10.86909921732767"><ele>688.0</ele><time>2026-04-05T12:45:21.791Z</time></trkpt><trkpt lat="44.03809121776314" lon="10.86919549442678"><ele>687.3333333333333</ele><time>2026-04-05T12:45:22.791Z</time></trkpt><trkpt lat="44.038094469703196" lon="10.869297443676581"><ele>686.6666666666666</ele><time>2026-04-05T12:45:23.791Z</time></trkpt><trkpt lat="44.03810876800246" lon="10.869463201723745"><ele>686.0</ele><time>2026-04-05T12:45:25.791Z</time></trkpt><trkpt lat="44.03811920818588" lon="10.869632509140125"><ele>685.4</ele><time>2026-04-05T12:45:27.791Z</time></trkpt><trkpt lat="44.03813978933673" lon="10.86977306578049"><ele>684.8</ele><time>2026-04-05T12:45:29.795Z</time></trkpt><trkpt lat="44.03811571936006" lon="10.869865816272245"><ele>684.1999999999999</ele><time>2026-04-05T12:45:31.8Z</time></trkpt><trkpt lat="44.03811463485676" lon="10.869956497027452"><ele>683.5999999999999</ele><time>2026-04-05T12:45:32.802Z</time></trkpt><trkpt lat="44.03810909049313" lon="10.870098980583494"><ele>683.0</ele><time>2026-04-05T12:45:34.806Z</time></trkpt><trkpt lat="44.03810158858645" lon="10.870261107028334"><ele>682.4285714285714</ele><time>2026-04-05T12:45:36.809Z</time></trkpt><trkpt lat="44.03809690449836" lon="10.870349411684067"><ele>681.8571428571429</ele><time>2026-04-05T12:45:37.81Z</time></trkpt><trkpt lat="44.03808989462208" lon="10.870444974034676"><ele>681.2857142857142</ele><time>2026-04-05T12:45:38.812Z</time></trkpt><trkpt lat="44.03808383817245" lon="10.870543159440135"><ele>680.7142857142858</ele><time>2026-04-05T12:45:39.813Z</time></trkpt><trkpt lat="44.03808029558107" lon="10.87063592969691"><ele>680.1428571428571</ele><time>2026-04-05T12:45:40.814Z</time></trkpt><trkpt lat="44.0380757497279" lon="10.87072611296928"><ele>679.5714285714286</ele><time>2026-04-05T12:45:41.816Z</time></trkpt><trkpt lat="44.038068723913995" lon="10.870819356697218"><ele>679.0</ele><time>2026-04-05T12:45:42.817Z</time></trkpt><trkpt lat="44.038065939817116" lon="10.87090944436839"><ele>678.8333333333334</ele><time>2026-04-05T12:45:43.818Z</time></trkpt><trkpt lat="44.0380603809814" lon="10.871008647572216"><ele>678.6666666666667</ele><time>2026-04-05T12:45:44.819Z</time></trkpt><trkpt lat="44.038065917492624" lon="10.871118248572918"><ele>678.5</ele><time>2026-04-05T12:45:45.82Z</time></trkpt><trkpt lat="44.038072848532586" lon="10.871213214000672"><ele>678.3333333333334</ele><time>2026-04-05T12:45:46.82Z</time></trkpt><trkpt lat="44.03809420334318" lon="10.871302861827893"><ele>678.1666666666666</ele><time>2026-04-05T12:45:47.821Z</time></trkpt><trkpt lat="44.03812135118608" lon="10.871394174213895"><ele>678.0</ele><time>2026-04-05T12:45:48.822Z</time></trkpt><trkpt lat="44.03815953791414" lon="10.871534783929729"><ele>678.0</ele><time>2026-04-05T12:45:50.823Z</time></trkpt><trkpt lat="44.03819239942754" lon="10.871671017674732"><ele>678.0</ele><time>2026-04-05T12:45:52.825Z</time></trkpt><trkpt lat="44.03823781173632" lon="10.871802787707056"><ele>678.0</ele><time>2026-04-05T12:45:54.826Z</time></trkpt><trkpt lat="44.03828148404365" lon="10.871917975761725"><ele>678.0</ele><time>2026-04-05T12:45:56.826Z</time></trkpt><trkpt lat="44.038321338085005" lon="10.872011035575403"><ele>678.0</ele><time>2026-04-05T12:45:58.827Z</time></trkpt><trkpt lat="44.038354884561706" lon="10.87210909404053"><ele>678.5714285714286</ele><time>2026-04-05T12:46:00.828Z</time></trkpt><trkpt lat="44.03837889886202" lon="10.872193024966961"><ele>679.1428571428572</ele><time>2026-04-05T12:46:02.829Z</time></trkpt><trkpt lat="44.03840865426886" lon="10.872275566227904"><ele>679.7142857142858</ele><time>2026-04-05T12:46:04.829Z</time></trkpt><trkpt lat="44.03843872421018" lon="10.87236467335295"><ele>680.2857142857142</ele><time>2026-04-05T12:46:06.83Z</time></trkpt><trkpt lat="44.038481039052535" lon="10.872448787304176"><ele>680.8571428571429</ele><time>2026-04-05T12:46:08.83Z</time></trkpt><trkpt lat="44.03852283407701" lon="10.87252416768307"><ele>681.4285714285714</ele><time>2026-04-05T12:46:10.83Z</time></trkpt><trkpt lat="44.03860104123084" lon="10.872593738576587"><ele>682.0</ele><time>2026-04-05T12:46:13.831Z</time></trkpt><trkpt lat="44.038660878950445" lon="10.8726373006237"><ele>682.0</ele><time>2026-04-05T12:46:15.831Z</time></trkpt><trkpt lat="44.03872081826937" lon="10.872716787064087"><ele>682.0</ele><time>2026-04-05T12:46:18.831Z</time></trkpt><trkpt lat="44.03875214417685" lon="10.872803584888034"><ele>682.0</ele><time>2026-04-05T12:46:21.832Z</time></trkpt><trkpt lat="44.03875940279246" lon="10.872920260235103"><ele>682.0</ele><time>2026-04-05T12:46:24.832Z</time></trkpt><trkpt lat="44.03873518893223" lon="10.873025864827868"><ele>682.0</ele><time>2026-04-05T12:46:26.832Z</time></trkpt><trkpt lat="44.03868793425087" lon="10.873121456239204"><ele>682.0</ele><time>2026-04-05T12:46:28.832Z</time></trkpt><trkpt lat="44.03863074484243" lon="10.873228786962336"><ele>682.0</ele><time>2026-04-05T12:46:30.832Z</time></trkpt><trkpt lat="44.0385600739664" lon="10.873325139739865"><ele>682.0</ele><time>2026-04-05T12:46:32.832Z</time></trkpt><trkpt lat="44.03852817870156" lon="10.873406268941407"><ele>682.0</ele><time>2026-04-05T12:46:34.832Z</time></trkpt><trkpt lat="44.03845508679808" lon="10.873521204914299"><ele>682.0</ele><time>2026-04-05T12:46:36.832Z</time></trkpt><trkpt lat="44.038407021508675" lon="10.873639798223415"><ele>682.0</ele><time>2026-04-05T12:46:38.833Z</time></trkpt><trkpt lat="44.03841695661618" lon="10.87380444430428"><ele>681.0</ele><time>2026-04-05T12:46:40.833Z</time></trkpt><trkpt lat="44.03844951787349" lon="10.873881007663917"><ele>680.0</ele><time>2026-04-05T12:46:41.833Z</time></trkpt><trkpt lat="44.0385263387116" lon="10.873992645263469"><ele>679.0</ele><time>2026-04-05T12:46:43.833Z</time></trkpt><trkpt lat="44.0385890553592" lon="10.874068655218718"><ele>678.0</ele><time>2026-04-05T12:46:45.833Z</time></trkpt><trkpt lat="44.03860934286037" lon="10.874168623604922"><ele>677.0</ele><time>2026-04-05T12:46:48.833Z</time></trkpt><trkpt lat="44.03853952302208" lon="10.874289639300674"><ele>676.0</ele><time>2026-04-05T12:46:51.833Z</time></trkpt><trkpt lat="44.03852775763981" lon="10.87445359204704"><ele>675.6666666666667</ele><time>2026-04-05T12:46:53.833Z</time></trkpt><trkpt lat="44.03860088675104" lon="10.874588230795066"><ele>675.3333333333334</ele><time>2026-04-05T12:46:55.833Z</time></trkpt><trkpt lat="44.038679047663955" lon="10.874669882507327"><ele>675.0</ele><time>2026-04-05T12:46:57.833Z</time></trkpt><trkpt lat="44.03871887900178" lon="10.874745687466195"><ele>674.6666666666666</ele><time>2026-04-05T12:46:59.833Z</time></trkpt><trkpt lat="44.038753177463676" lon="10.874820614594073"><ele>674.3333333333333</ele><time>2026-04-05T12:47:01.833Z</time></trkpt><trkpt lat="44.03878725459595" lon="10.874901300710873"><ele>674.0</ele><time>2026-04-05T12:47:03.833Z</time></trkpt><trkpt lat="44.03878351100034" lon="10.875002368628849"><ele>673.5</ele><time>2026-04-05T12:47:05.833Z</time></trkpt><trkpt lat="44.03880131520219" lon="10.87512497552122"><ele>673.0</ele><time>2026-04-05T12:47:07.833Z</time></trkpt><trkpt lat="44.03885372269519" lon="10.875235302428145"><ele>672.5</ele><time>2026-04-05T12:47:09.833Z</time></trkpt><trkpt lat="44.03889697032871" lon="10.875325348887438"><ele>672.0</ele><time>2026-04-05T12:47:11.833Z</time></trkpt><trkpt lat="44.03893808324413" lon="10.875405582960662"><ele>671.5</ele><time>2026-04-05T12:47:13.833Z</time></trkpt><trkpt lat="44.03897944099358" lon="10.875480736600283"><ele>671.0</ele><time>2026-04-05T12:47:15.832Z</time></trkpt><trkpt lat="44.03901914298815" lon="10.875551252645133"><ele>671.0</ele><time>2026-04-05T12:47:17.832Z</time></trkpt><trkpt lat="44.03904138542324" lon="10.875647316144093"><ele>671.0</ele><time>2026-04-05T12:47:20.832Z</time></trkpt><trkpt lat="44.03900826705669" lon="10.875736126615386"><ele>671.0</ele><time>2026-04-05T12:47:22.832Z</time></trkpt><trkpt lat="44.03893199651997" lon="10.875824885653797"><ele>671.0</ele><time>2026-04-05T12:47:24.832Z</time></trkpt><trkpt lat="44.03886729968753" lon="10.87589780641103"><ele>671.0</ele><time>2026-04-05T12:47:26.832Z</time></trkpt><trkpt lat="44.03879091375888" lon="10.87595787864915"><ele>671.0</ele><time>2026-04-05T12:47:28.832Z</time></trkpt><trkpt lat="44.038739072094394" lon="10.876035100454441"><ele>671.0</ele><time>2026-04-05T12:47:31.832Z</time></trkpt><trkpt lat="44.03873528600237" lon="10.876133587367482"><ele>671.0</ele><time>2026-04-05T12:47:35.832Z</time></trkpt><trkpt lat="44.038796261928866" lon="10.876234876344276"><ele>671.0</ele><time>2026-04-05T12:47:38.832Z</time></trkpt><trkpt lat="44.03885674236524" lon="10.876333238850465"><ele>671.0</ele><time>2026-04-05T12:47:41.832Z</time></trkpt><trkpt lat="44.03890823314119" lon="10.876410266861576"><ele>671.0</ele><time>2026-04-05T12:47:43.832Z</time></trkpt><trkpt lat="44.03896526756716" lon="10.876521710734462"><ele>671.0</ele><time>2026-04-05T12:47:46.832Z</time></trkpt><trkpt lat="44.0390026121479" lon="10.876596663111107"><ele>671.0</ele><time>2026-04-05T12:47:48.832Z</time></trkpt><trkpt lat="44.03905218162328" lon="10.876699802842113"><ele>671.0</ele><time>2026-04-05T12:47:51.832Z</time></trkpt><trkpt lat="44.03907452106267" lon="10.8768271325118"><ele>671.0</ele><time>2026-04-05T12:47:54.832Z</time></trkpt><trkpt lat="44.03905205907687" lon="10.87694500744204"><ele>671.0</ele><time>2026-04-05T12:47:57.832Z</time></trkpt><trkpt lat="44.03903490184213" lon="10.877050057134387"><ele>671.0</ele><time>2026-04-05T12:47:59.832Z</time></trkpt><trkpt lat="44.039024047511894" lon="10.877155030036063"><ele>671.0</ele><time>2026-04-05T12:48:01.832Z</time></trkpt><trkpt lat="44.03903234256944" lon="10.877264582400592"><ele>672.0</ele><time>2026-04-05T12:48:03.832Z</time></trkpt><trkpt lat="44.03903774074787" lon="10.87737787315"><ele>673.0</ele><time>2026-04-05T12:48:05.832Z</time></trkpt><trkpt lat="44.039037714848604" lon="10.877485423598134"><ele>674.0</ele><time>2026-04-05T12:48:07.832Z</time></trkpt><trkpt lat="44.0390378583693" lon="10.877615667341624"><ele>675.0</ele><time>2026-04-05T12:48:09.832Z</time></trkpt><trkpt lat="44.03904351973401" lon="10.877721376752723"><ele>676.0</ele><time>2026-04-05T12:48:11.832Z</time></trkpt><trkpt lat="44.03904913541757" lon="10.877839575020493"><ele>677.0</ele><time>2026-04-05T12:48:13.832Z</time></trkpt><trkpt lat="44.039051268863105" lon="10.877945469176218"><ele>677.0</ele><time>2026-04-05T12:48:15.832Z</time></trkpt><trkpt lat="44.03905738978685" lon="10.878047634588125"><ele>677.0</ele><time>2026-04-05T12:48:17.831Z</time></trkpt><trkpt lat="44.03903347919932" lon="10.878150165625907"><ele>677.0</ele><time>2026-04-05T12:48:19.831Z</time></trkpt><trkpt lat="44.039008526074795" lon="10.878254555849756"><ele>677.0</ele><time>2026-04-05T12:48:21.831Z</time></trkpt><trkpt lat="44.03899843728855" lon="10.878354476194682"><ele>677.0</ele><time>2026-04-05T12:48:23.831Z</time></trkpt><trkpt lat="44.038992116946254" lon="10.878442859593001"><ele>677.0</ele><time>2026-04-05T12:48:25.831Z</time></trkpt><trkpt lat="44.038981674018956" lon="10.87857366654597"><ele>677.0</ele><time>2026-04-05T12:48:28.831Z</time></trkpt><trkpt lat="44.03897769914027" lon="10.878693497127548"><ele>677.0</ele><time>2026-04-05T12:48:31.831Z</time></trkpt><trkpt lat="44.03898269485397" lon="10.87878809896425"><ele>677.0</ele><time>2026-04-05T12:48:33.831Z</time></trkpt><trkpt lat="44.03898565133605" lon="10.878893985979593"><ele>677.0</ele><time>2026-04-05T12:48:35.831Z</time></trkpt><trkpt lat="44.03898287918565" lon="10.879020732369383"><ele>677.0</ele><time>2026-04-05T12:48:37.831Z</time></trkpt><trkpt lat="44.038970604118404" lon="10.879149194376025"><ele>677.0</ele><time>2026-04-05T12:48:39.831Z</time></trkpt><trkpt lat="44.03894388839857" lon="10.879244947854351"><ele>675.8</ele><time>2026-04-05T12:48:41.831Z</time></trkpt><trkpt lat="44.038967479276685" lon="10.879461117805942"><ele>674.6</ele><time>2026-04-05T12:48:44.831Z</time></trkpt><trkpt lat="44.03897041115406" lon="10.879595662612093"><ele>673.4</ele><time>2026-04-05T12:48:45.831Z</time></trkpt><trkpt lat="44.03897227580657" lon="10.879693832537791"><ele>672.1999999999999</ele><time>2026-04-05T12:48:46.831Z</time></trkpt><trkpt lat="44.03898402606835" lon="10.87985395576886"><ele>671.0</ele><time>2026-04-05T12:48:48.831Z</time></trkpt><trkpt lat="44.03899243523077" lon="10.879941458124113"><ele>671.0</ele><time>2026-04-05T12:48:49.831Z</time></trkpt><trkpt lat="44.0389933511913" lon="10.880030069053813"><ele>671.0</ele><time>2026-04-05T12:48:50.831Z</time></trkpt><trkpt lat="44.03899369160323" lon="10.880152700017009"><ele>671.0</ele><time>2026-04-05T12:48:51.831Z</time></trkpt><trkpt lat="44.038988130913296" lon="10.880283507222513"><ele>671.0</ele><time>2026-04-05T12:48:52.831Z</time></trkpt><trkpt lat="44.03899412602585" lon="10.880398623042359"><ele>671.0</ele><time>2026-04-05T12:48:53.831Z</time></trkpt><trkpt lat="44.03899593179184" lon="10.880494841154931"><ele>671.0</ele><time>2026-04-05T12:48:54.831Z</time></trkpt><trkpt lat="44.03901367109781" lon="10.880651068951343"><ele>670.3333333333333</ele><time>2026-04-05T12:48:56.831Z</time></trkpt><trkpt lat="44.03903087313727" lon="10.880792353669186"><ele>669.6666666666666</ele><time>2026-04-05T12:48:57.831Z</time></trkpt><trkpt lat="44.039058722990845" lon="10.88090104647988"><ele>669.0</ele><time>2026-04-05T12:48:58.831Z</time></trkpt><trkpt lat="44.03909232379214" lon="10.881009333074397"><ele>668.3333333333334</ele><time>2026-04-05T12:48:59.831Z</time></trkpt><trkpt lat="44.03912916972818" lon="10.881124991348033"><ele>667.6666666666667</ele><time>2026-04-05T12:49:00.831Z</time></trkpt><trkpt lat="44.03915188591878" lon="10.88124233031168"><ele>667.0</ele><time>2026-04-05T12:49:01.831Z</time></trkpt><trkpt lat="44.0391674490677" lon="10.881344534757044"><ele>667.0</ele><time>2026-04-05T12:49:02.831Z</time></trkpt><trkpt lat="44.039176174876346" lon="10.881448155993462"><ele>667.0</ele><time>2026-04-05T12:49:03.831Z</time></trkpt><trkpt lat="44.039183719699736" lon="10.88155045876264"><ele>667.0</ele><time>2026-04-05T12:49:04.831Z</time></trkpt><trkpt lat="44.03918200108704" lon="10.881643144227658"><ele>667.0</ele><time>2026-04-05T12:49:05.831Z</time></trkpt><trkpt lat="44.03919515699392" lon="10.881815658904165"><ele>667.0</ele><time>2026-04-05T12:49:07.831Z</time></trkpt><trkpt lat="44.0392043497239" lon="10.881914705745514"><ele>667.0</ele><time>2026-04-05T12:49:08.831Z</time></trkpt><trkpt lat="44.039214675312" lon="10.88201414116586"><ele>665.8</ele><time>2026-04-05T12:49:09.831Z</time></trkpt><trkpt lat="44.03924329336524" lon="10.882173933534313"><ele>664.6</ele><time>2026-04-05T12:49:11.831Z</time></trkpt><trkpt lat="44.03928781161548" lon="10.882314452364195"><ele>663.4</ele><time>2026-04-05T12:49:13.831Z</time></trkpt><trkpt lat="44.03932902172596" lon="10.882438738716303"><ele>662.1999999999999</ele><time>2026-04-05T12:49:15.831Z</time></trkpt><trkpt lat="44.03936009952559" lon="10.882528741082801"><ele>661.0</ele><time>2026-04-05T12:49:17.831Z</time></trkpt><trkpt lat="44.039370592125685" lon="10.882661896086496"><ele>661.1428571428571</ele><time>2026-04-05T12:49:20.831Z</time></trkpt><trkpt lat="44.039332269405584" lon="10.882793414082577"><ele>661.2857142857143</ele><time>2026-04-05T12:49:22.832Z</time></trkpt><trkpt lat="44.039285070524144" lon="10.882865804929281"><ele>661.4285714285714</ele><time>2026-04-05T12:49:24.832Z</time></trkpt><trkpt lat="44.039222290342366" lon="10.882918146030883"><ele>661.5714285714286</ele><time>2026-04-05T12:49:26.831Z</time></trkpt><trkpt lat="44.039152812893434" lon="10.88295225200097"><ele>661.7142857142857</ele><time>2026-04-05T12:49:28.832Z</time></trkpt><trkpt lat="44.03908914168198" lon="10.882970134401841"><ele>661.8571428571429</ele><time>2026-04-05T12:49:30.831Z</time></trkpt><trkpt lat="44.03902603816533" lon="10.882972058870296"><ele>662.0</ele><time>2026-04-05T12:49:32.832Z</time></trkpt><trkpt lat="44.03895525470452" lon="10.882970182584474"><ele>662.0</ele><time>2026-04-05T12:49:35.832Z</time></trkpt><trkpt lat="44.03888384971698" lon="10.88296935387669"><ele>662.0</ele><time>2026-04-05T12:49:40.832Z</time></trkpt><trkpt lat="44.03882163913546" lon="10.882996384947317"><ele>662.0</ele><time>2026-04-05T12:49:44.832Z</time></trkpt><trkpt lat="44.03881464748795" lon="10.883085664608245"><ele>662.0</ele><time>2026-04-05T12:49:49.832Z</time></trkpt><trkpt lat="44.0388101646186" lon="10.883180346778644"><ele>662.0</ele><time>2026-04-05T12:49:53.832Z</time></trkpt><trkpt lat="44.038781824707236" lon="10.883272943812871"><ele>662.0</ele><time>2026-04-05T12:49:59.832Z</time></trkpt><trkpt lat="44.03876732951817" lon="10.883364636149869"><ele>662.0</ele><time>2026-04-05T12:50:02.832Z</time></trkpt><trkpt lat="44.038777392781476" lon="10.883460817501247"><ele>661.6666666666666</ele><time>2026-04-05T12:50:06.832Z</time></trkpt><trkpt lat="44.03878509577974" lon="10.883554116845609"><ele>661.3333333333333</ele><time>2026-04-05T12:50:10.831Z</time></trkpt><trkpt lat="44.03879653288107" lon="10.883647156621036"><ele>661.0</ele><time>2026-04-05T12:50:13.831Z</time></trkpt><trkpt lat="44.03883159722351" lon="10.883732384975733"><ele>660.6666666666666</ele><time>2026-04-05T12:50:17.831Z</time></trkpt><trkpt lat="44.03883652482864" lon="10.883819954098135"><ele>660.3333333333334</ele><time>2026-04-05T12:50:19.831Z</time></trkpt><trkpt lat="44.038819431127195" lon="10.883953424855315"><ele>660.0</ele><time>2026-04-05T12:50:22.831Z</time></trkpt><trkpt lat="44.03879453138531" lon="10.88408088247124"><ele>660.0</ele><time>2026-04-05T12:50:24.831Z</time></trkpt><trkpt lat="44.03871756268405" lon="10.884193018225382"><ele>660.0</ele><time>2026-04-05T12:50:26.831Z</time></trkpt><trkpt lat="44.03866797310852" lon="10.88427420077975"><ele>660.0</ele><time>2026-04-05T12:50:27.831Z</time></trkpt><trkpt lat="44.03862306828536" lon="10.884345670143546"><ele>660.0</ele><time>2026-04-05T12:50:28.831Z</time></trkpt><trkpt lat="44.038576238627535" lon="10.88443238855681"><ele>660.0</ele><time>2026-04-05T12:50:29.831Z</time></trkpt><trkpt lat="44.038527615253244" lon="10.88451307920633"><ele>660.0</ele><time>2026-04-05T12:50:30.831Z</time></trkpt><trkpt lat="44.038482776461834" lon="10.884581730202488"><ele>660.1666666666666</ele><time>2026-04-05T12:50:31.831Z</time></trkpt><trkpt lat="44.038375028956686" lon="10.884656811055192"><ele>660.3333333333334</ele><time>2026-04-05T12:50:33.831Z</time></trkpt><trkpt lat="44.038303827847635" lon="10.884681798855164"><ele>660.5</ele><time>2026-04-05T12:50:35.831Z</time></trkpt><trkpt lat="44.0382361511835" lon="10.884725461346909"><ele>660.6666666666667</ele><time>2026-04-05T12:50:39.831Z</time></trkpt><trkpt lat="44.03816416889189" lon="10.884768376912092"><ele>660.8333333333334</ele><time>2026-04-05T12:50:43.831Z</time></trkpt><trkpt lat="44.03809834566334" lon="10.884795884097429"><ele>661.0</ele><time>2026-04-05T12:50:48.831Z</time></trkpt><trkpt lat="44.03802320642084" lon="10.884832102597938"><ele>662.1428571428571</ele><time>2026-04-05T12:50:52.831Z</time></trkpt><trkpt lat="44.03796153992384" lon="10.884849859175903"><ele>663.2857142857143</ele><time>2026-04-05T12:50:57.831Z</time></trkpt><trkpt lat="44.03788739553604" lon="10.884868590072637"><ele>664.4285714285714</ele><time>2026-04-05T12:51:01.831Z</time></trkpt><trkpt lat="44.0378086760178" lon="10.884898246825063"><ele>665.5714285714286</ele><time>2026-04-05T12:51:05.831Z</time></trkpt><trkpt lat="44.0377467725786" lon="10.88493010849467"><ele>666.7142857142857</ele><time>2026-04-05T12:51:09.831Z</time></trkpt><trkpt lat="44.03768260710866" lon="10.884946244547816"><ele>667.8571428571429</ele><time>2026-04-05T12:51:14.831Z</time></trkpt><trkpt lat="44.03760441530378" lon="10.884970140506045"><ele>669.0</ele><time>2026-04-05T12:51:18.831Z</time></trkpt><trkpt lat="44.03753383213503" lon="10.884982579011117"><ele>669.0</ele><time>2026-04-05T12:51:22.831Z</time></trkpt><trkpt lat="44.037480513010124" lon="10.884919640132988"><ele>669.0</ele><time>2026-04-05T12:51:29.831Z</time></trkpt><trkpt lat="44.03745684735094" lon="10.884833936863357"><ele>669.0</ele><time>2026-04-05T12:51:36.831Z</time></trkpt><trkpt lat="44.037426353324264" lon="10.884727812734328"><ele>669.0</ele><time>2026-04-05T12:51:41.83Z</time></trkpt><trkpt lat="44.03739872598234" lon="10.884647057610401"><ele>669.0</ele><time>2026-04-05T12:51:45.83Z</time></trkpt><trkpt lat="44.03737170755566" lon="10.884557283442149"><ele>669.0</ele><time>2026-04-05T12:51:49.83Z</time></trkpt><trkpt lat="44.03734523463761" lon="10.884461025613705"><ele>669.0</ele><time>2026-04-05T12:51:54.83Z</time></trkpt><trkpt lat="44.037319265109254" lon="10.884367967165108"><ele>671.7142857142858</ele><time>2026-04-05T12:51:58.83Z</time></trkpt><trkpt lat="44.03728095159303" lon="10.884294669092478"><ele>674.4285714285714</ele><time>2026-04-05T12:52:02.83Z</time></trkpt><trkpt lat="44.03723695287128" lon="10.884212702367073"><ele>677.1428571428571</ele><time>2026-04-05T12:52:06.83Z</time></trkpt><trkpt lat="44.0371865785919" lon="10.884145607525292"><ele>679.8571428571429</ele><time>2026-04-05T12:52:10.83Z</time></trkpt><trkpt lat="44.03712706061307" lon="10.884084646026098"><ele>682.5714285714286</ele><time>2026-04-05T12:52:14.83Z</time></trkpt><trkpt lat="44.037104604695635" lon="10.88400255752519"><ele>685.2857142857143</ele><time>2026-04-05T12:52:19.83Z</time></trkpt><trkpt lat="44.03706980973413" lon="10.88392121154189"><ele>688.0</ele><time>2026-04-05T12:52:25.83Z</time></trkpt><trkpt lat="44.037047560535854" lon="10.883823222394952"><ele>688.0000000000001</ele><time>2026-04-05T12:52:27.83Z</time></trkpt><trkpt lat="44.03705935454767" lon="10.88370423051098"><ele>688.0</ele><time>2026-04-05T12:52:29.83Z</time></trkpt><trkpt lat="44.03704060980986" lon="10.88360203136384"><ele>688.0</ele><time>2026-04-05T12:52:31.83Z</time></trkpt><trkpt lat="44.03699879563557" lon="10.883534287643595"><ele>688.0</ele><time>2026-04-05T12:52:35.83Z</time></trkpt><trkpt lat="44.03694529014706" lon="10.883464267442067"><ele>688.0</ele><time>2026-04-05T12:52:39.83Z</time></trkpt><trkpt lat="44.036873074488696" lon="10.883422510161035"><ele>688.0000000000001</ele><time>2026-04-05T12:52:44.83Z</time></trkpt><trkpt lat="44.03680578899249" lon="10.883396651380785"><ele>688.0</ele><time>2026-04-05T12:52:48.83Z</time></trkpt><trkpt lat="44.036737577616265" lon="10.883349923715919"><ele>686.4285714285714</ele><time>2026-04-05T12:52:52.83Z</time></trkpt><trkpt lat="44.036675663199276" lon="10.883326518783223"><ele>684.8571428571429</ele><time>2026-04-05T12:52:55.83Z</time></trkpt><trkpt lat="44.036609172530476" lon="10.883292334978195"><ele>683.2857142857142</ele><time>2026-04-05T12:52:59.83Z</time></trkpt><trkpt lat="44.0365308637907" lon="10.8832612491181"><ele>681.7142857142858</ele><time>2026-04-05T12:53:03.83Z</time></trkpt><trkpt lat="44.03646495384371" lon="10.883213917833842"><ele>680.1428571428571</ele><time>2026-04-05T12:53:06.83Z</time></trkpt><trkpt lat="44.03640711665836" lon="10.883160396389483"><ele>678.5714285714286</ele><time>2026-04-05T12:53:11.83Z</time></trkpt><trkpt lat="44.036355510549726" lon="10.883080862501311"><ele>677.0</ele><time>2026-04-05T12:53:15.83Z</time></trkpt><trkpt lat="44.03634525441202" lon="10.8829776522924"><ele>680.4285714285713</ele><time>2026-04-05T12:53:19.83Z</time></trkpt><trkpt lat="44.03634297207871" lon="10.882888243697506"><ele>683.8571428571429</ele><time>2026-04-05T12:53:23.829Z</time></trkpt><trkpt lat="44.03631494258889" lon="10.882781679960543"><ele>687.2857142857142</ele><time>2026-04-05T12:53:28.829Z</time></trkpt><trkpt lat="44.03631062889023" lon="10.882687809202494"><ele>690.7142857142857</ele><time>2026-04-05T12:53:32.83Z</time></trkpt><trkpt lat="44.03629600720359" lon="10.88257280780929"><ele>694.1428571428571</ele><time>2026-04-05T12:53:36.83Z</time></trkpt><trkpt lat="44.036274042996425" lon="10.882490725393566"><ele>697.5714285714286</ele><time>2026-04-05T12:53:39.83Z</time></trkpt><trkpt lat="44.036250864574676" lon="10.882391288202424"><ele>701.0</ele><time>2026-04-05T12:53:43.83Z</time></trkpt><trkpt lat="44.03622989789353" lon="10.882308581294543"><ele>701.0</ele><time>2026-04-05T12:53:46.829Z</time></trkpt><trkpt lat="44.03619952847555" lon="10.882228814022612"><ele>701.0</ele><time>2026-04-05T12:53:50.829Z</time></trkpt><trkpt lat="44.03615938433504" lon="10.88215088301859"><ele>701.0</ele><time>2026-04-05T12:53:54.829Z</time></trkpt><trkpt lat="44.036120967743095" lon="10.882070040585429"><ele>701.0</ele><time>2026-04-05T12:53:58.829Z</time></trkpt><trkpt lat="44.0360854474355" lon="10.88196464143889"><ele>701.0</ele><time>2026-04-05T12:54:03.829Z</time></trkpt><trkpt lat="44.03605822151922" lon="10.881866694584287"><ele>701.0</ele><time>2026-04-05T12:54:08.829Z</time></trkpt><trkpt lat="44.03601032687137" lon="10.88178230905071"><ele>701.0</ele><time>2026-04-05T12:54:12.829Z</time></trkpt><trkpt lat="44.035988035024715" lon="10.881693249763378"><ele>700.2857142857143</ele><time>2026-04-05T12:54:16.829Z</time></trkpt><trkpt lat="44.03595167744029" lon="10.881598212789493"><ele>699.5714285714286</ele><time>2026-04-05T12:54:20.829Z</time></trkpt><trkpt lat="44.03592304876616" lon="10.881509292260427"><ele>698.8571428571429</ele><time>2026-04-05T12:54:24.829Z</time></trkpt><trkpt lat="44.03588018712255" lon="10.881423548457809"><ele>698.1428571428571</ele><time>2026-04-05T12:54:29.829Z</time></trkpt><trkpt lat="44.03583310693096" lon="10.881359437169367"><ele>697.4285714285714</ele><time>2026-04-05T12:54:33.829Z</time></trkpt><trkpt lat="44.03579734869887" lon="10.881280503426323"><ele>696.7142857142857</ele><time>2026-04-05T12:54:37.829Z</time></trkpt><trkpt lat="44.03572844398188" lon="10.881241020967375"><ele>696.0</ele><time>2026-04-05T12:54:41.829Z</time></trkpt><trkpt lat="44.03575332721206" lon="10.881333228180704"><ele>696.0</ele><time>2026-04-05T12:54:55.829Z</time></trkpt><trkpt lat="44.03580955022559" lon="10.881388047674672"><ele>696.0</ele><time>2026-04-05T12:55:03.829Z</time></trkpt><trkpt lat="44.03584472378271" lon="10.88147430801617"><ele>696.0</ele><time>2026-04-05T12:55:10.829Z</time></trkpt><trkpt lat="44.03583174503748" lon="10.88157203970253"><ele>696.0</ele><time>2026-04-05T12:55:14.829Z</time></trkpt><trkpt lat="44.0358051221799" lon="10.881652373783085"><ele>696.0</ele><time>2026-04-05T12:55:17.829Z</time></trkpt><trkpt lat="44.03578104796748" lon="10.881748336475198"><ele>696.0</ele><time>2026-04-05T12:55:21.829Z</time></trkpt><trkpt lat="44.03577566012277" lon="10.88184621806183"><ele>696.0</ele><time>2026-04-05T12:55:26.829Z</time></trkpt><trkpt lat="44.03577220605109" lon="10.881950813748709"><ele>701.4285714285714</ele><time>2026-04-05T12:55:31.829Z</time></trkpt><trkpt lat="44.0357783565898" lon="10.882058487758073"><ele>706.8571428571429</ele><time>2026-04-05T12:55:37.829Z</time></trkpt><trkpt lat="44.03578387079397" lon="10.882160252917"><ele>712.2857142857142</ele><time>2026-04-05T12:55:42.829Z</time></trkpt><trkpt lat="44.0357508204806" lon="10.882254714448255"><ele>717.7142857142858</ele><time>2026-04-05T12:55:46.83Z</time></trkpt><trkpt lat="44.03572504336441" lon="10.882150022610247"><ele>723.1428571428572</ele><time>2026-04-05T12:55:57.829Z</time></trkpt><trkpt lat="44.03571191545978" lon="10.882062312734014"><ele>728.5714285714286</ele><time>2026-04-05T12:56:03.829Z</time></trkpt><trkpt lat="44.03568555515262" lon="10.881971610359445"><ele>734.0</ele><time>2026-04-05T12:56:08.829Z</time></trkpt><trkpt lat="44.03564552354984" lon="10.881890981739371"><ele>734.0</ele><time>2026-04-05T12:56:13.829Z</time></trkpt><trkpt lat="44.03561310776393" lon="10.88178850648294"><ele>734.0</ele><time>2026-04-05T12:56:17.829Z</time></trkpt><trkpt lat="44.03556966038522" lon="10.881713586288502"><ele>734.0</ele><time>2026-04-05T12:56:22.829Z</time></trkpt><trkpt lat="44.03552870950024" lon="10.881631819063863"><ele>734.0</ele><time>2026-04-05T12:56:26.829Z</time></trkpt><trkpt lat="44.035477568066845" lon="10.881574795055466"><ele>734.0</ele><time>2026-04-05T12:56:29.829Z</time></trkpt><trkpt lat="44.0354190337308" lon="10.881511641061573"><ele>734.0</ele><time>2026-04-05T12:56:32.829Z</time></trkpt><trkpt lat="44.03533666995546" lon="10.88147002315074"><ele>734.0</ele><time>2026-04-05T12:56:35.829Z</time></trkpt><trkpt lat="44.03525195340483" lon="10.881442349885186"><ele>732.3333333333333</ele><time>2026-04-05T12:56:38.829Z</time></trkpt><trkpt lat="44.03516864921333" lon="10.88141006525633"><ele>730.6666666666666</ele><time>2026-04-05T12:56:41.829Z</time></trkpt><trkpt lat="44.035092571975426" lon="10.881376225573444"><ele>729.0</ele><time>2026-04-05T12:56:44.829Z</time></trkpt><trkpt lat="44.03502454180856" lon="10.881321877389482"><ele>727.3333333333334</ele><time>2026-04-05T12:56:46.829Z</time></trkpt><trkpt lat="44.03499552864593" lon="10.881224599785195"><ele>725.6666666666667</ele><time>2026-04-05T12:56:49.829Z</time></trkpt><trkpt lat="44.03497421460016" lon="10.881139176416763"><ele>724.0</ele><time>2026-04-05T12:56:54.829Z</time></trkpt><trkpt lat="44.03496721870737" lon="10.881047119400709"><ele>721.6666666666667</ele><time>2026-04-05T12:56:58.828Z</time></trkpt><trkpt lat="44.03497039836415" lon="10.880934582096318"><ele>719.3333333333334</ele><time>2026-04-05T12:57:02.828Z</time></trkpt><trkpt lat="44.034976172621285" lon="10.880826970851947"><ele>717.0</ele><time>2026-04-05T12:57:06.828Z</time></trkpt><trkpt lat="44.034975292942285" lon="10.880705826721115"><ele>714.6666666666666</ele><time>2026-04-05T12:57:10.828Z</time></trkpt><trkpt lat="44.03496465367683" lon="10.880609804869886"><ele>712.3333333333333</ele><time>2026-04-05T12:57:13.828Z</time></trkpt><trkpt lat="44.0349373299335" lon="10.880530427100654"><ele>710.0</ele><time>2026-04-05T12:57:16.828Z</time></trkpt><trkpt lat="44.03490085767391" lon="10.880438868614988"><ele>713.8333333333333</ele><time>2026-04-05T12:57:19.828Z</time></trkpt><trkpt lat="44.03485610727279" lon="10.880362018492551"><ele>717.6666666666666</ele><time>2026-04-05T12:57:22.828Z</time></trkpt><trkpt lat="44.034806475022165" lon="10.880288367030632"><ele>721.5</ele><time>2026-04-05T12:57:26.828Z</time></trkpt><trkpt lat="44.034766381211945" lon="10.880194887302075"><ele>725.3333333333334</ele><time>2026-04-05T12:57:30.828Z</time></trkpt><trkpt lat="44.034708319250804" lon="10.880115597824425"><ele>729.1666666666667</ele><time>2026-04-05T12:57:34.828Z</time></trkpt><trkpt lat="44.03464631873818" lon="10.880048912865583"><ele>733.0</ele><time>2026-04-05T12:57:38.828Z</time></trkpt><trkpt lat="44.03458306290944" lon="10.879986827488644"><ele>732.9999999999999</ele><time>2026-04-05T12:57:42.828Z</time></trkpt><trkpt lat="44.03452680096628" lon="10.879937692719057"><ele>733.0</ele><time>2026-04-05T12:57:45.829Z</time></trkpt><trkpt lat="44.03445528244437" lon="10.879886604570887"><ele>733.0</ele><time>2026-04-05T12:57:49.829Z</time></trkpt><trkpt lat="44.03438269575716" lon="10.879826507162687"><ele>733.0</ele><time>2026-04-05T12:57:53.828Z</time></trkpt><trkpt lat="44.03431445624556" lon="10.87978739902933"><ele>733.0</ele><time>2026-04-05T12:57:57.828Z</time></trkpt><trkpt lat="44.0342471958615" lon="10.879743876414818"><ele>732.9999999999999</ele><time>2026-04-05T12:58:01.828Z</time></trkpt><trkpt lat="44.03418708724256" lon="10.879707750548897"><ele>733.0</ele><time>2026-04-05T12:58:05.828Z</time></trkpt><trkpt lat="44.03411865231808" lon="10.879686602883005"><ele>738.1666666666667</ele><time>2026-04-05T12:58:09.828Z</time></trkpt><trkpt lat="44.03405469161638" lon="10.879639361698196"><ele>743.3333333333334</ele><time>2026-04-05T12:58:14.828Z</time></trkpt><trkpt lat="44.03398521834871" lon="10.879591778312806"><ele>748.5</ele><time>2026-04-05T12:58:19.828Z</time></trkpt><trkpt lat="44.033924573756174" lon="10.879539776233665"><ele>753.6666666666666</ele><time>2026-04-05T12:58:25.828Z</time></trkpt><trkpt lat="44.033854780749444" lon="10.879472120320987"><ele>758.8333333333333</ele><time>2026-04-05T12:58:30.828Z</time></trkpt><trkpt lat="44.03378645508716" lon="10.879431556819508"><ele>764.0</ele><time>2026-04-05T12:58:35.828Z</time></trkpt><trkpt lat="44.033722757414644" lon="10.879393523044122"><ele>764.0</ele><time>2026-04-05T12:58:39.828Z</time></trkpt><trkpt lat="44.0336571800351" lon="10.87935164100744"><ele>764.0</ele><time>2026-04-05T12:58:43.828Z</time></trkpt><trkpt lat="44.0335963804286" lon="10.879307068910329"><ele>764.0</ele><time>2026-04-05T12:58:47.828Z</time></trkpt><trkpt lat="44.03354015861097" lon="10.879242935568232"><ele>764.0</ele><time>2026-04-05T12:58:52.828Z</time></trkpt><trkpt lat="44.03347722380763" lon="10.879199807925442"><ele>764.0</ele><time>2026-04-05T12:58:56.828Z</time></trkpt><trkpt lat="44.03341546639417" lon="10.879160180062351"><ele>764.0</ele><time>2026-04-05T12:58:59.828Z</time></trkpt><trkpt lat="44.03334818906607" lon="10.879105115785412"><ele>764.0</ele><time>2026-04-05T12:59:03.828Z</time></trkpt><trkpt lat="44.033275545431444" lon="10.879044499295604"><ele>764.0</ele><time>2026-04-05T12:59:06.828Z</time></trkpt><trkpt lat="44.033212586291164" lon="10.878983441143749"><ele>764.0</ele><time>2026-04-05T12:59:10.828Z</time></trkpt><trkpt lat="44.03315083338226" lon="10.878910796276866"><ele>764.0</ele><time>2026-04-05T12:59:14.828Z</time></trkpt><trkpt lat="44.0330792700139" lon="10.878854883019804"><ele>764.0</ele><time>2026-04-05T12:59:18.828Z</time></trkpt><trkpt lat="44.033028198434856" lon="10.87878688286431"><ele>764.0</ele><time>2026-04-05T12:59:22.828Z</time></trkpt><trkpt lat="44.03296726987531" lon="10.87872674514999"><ele>764.0</ele><time>2026-04-05T12:59:26.827Z</time></trkpt><trkpt lat="44.03290253874189" lon="10.878661685633885"><ele>764.0</ele><time>2026-04-05T12:59:30.827Z</time></trkpt><trkpt lat="44.03284481794358" lon="10.87859873820332"><ele>764.0</ele><time>2026-04-05T12:59:34.827Z</time></trkpt><trkpt lat="44.03278699812108" lon="10.878529762645387"><ele>764.0</ele><time>2026-04-05T12:59:37.827Z</time></trkpt><trkpt lat="44.032727255935264" lon="10.878462321214275"><ele>764.0</ele><time>2026-04-05T12:59:40.827Z</time></trkpt><trkpt lat="44.03266544704437" lon="10.878419680235078"><ele>764.0</ele><time>2026-04-05T12:59:44.827Z</time></trkpt><trkpt lat="44.03260071934981" lon="10.878376992049299"><ele>764.0</ele><time>2026-04-05T12:59:47.827Z</time></trkpt><trkpt lat="44.03253539807093" lon="10.878342615588235"><ele>764.0</ele><time>2026-04-05T12:59:50.827Z</time></trkpt><trkpt lat="44.032455757919024" lon="10.878310298399635"><ele>759.8333333333333</ele><time>2026-04-05T12:59:54.828Z</time></trkpt><trkpt lat="44.03237881424594" lon="10.878287088138727"><ele>755.6666666666666</ele><time>2026-04-05T12:59:57.828Z</time></trkpt><trkpt lat="44.03229440313295" lon="10.878267226504674"><ele>751.5</ele><time>2026-04-05T13:00:00.828Z</time></trkpt><trkpt lat="44.03222192267814" lon="10.878248946801643"><ele>747.3333333333334</ele><time>2026-04-05T13:00:03.827Z</time></trkpt><trkpt lat="44.03215438114776" lon="10.878246216650885"><ele>743.1666666666667</ele><time>2026-04-05T13:00:06.827Z</time></trkpt><trkpt lat="44.03207150098976" lon="10.87824385243271"><ele>739.0</ele><time>2026-04-05T13:00:10.827Z</time></trkpt><trkpt lat="44.031999810181446" lon="10.878245434488921"><ele>739.0</ele><time>2026-04-05T13:00:12.827Z</time></trkpt><trkpt lat="44.031908771908135" lon="10.878263469004683"><ele>739.0</ele><time>2026-04-05T13:00:15.827Z</time></trkpt><trkpt lat="44.03183049773293" lon="10.878304298628029"><ele>739.0</ele><time>2026-04-05T13:00:17.827Z</time></trkpt><trkpt lat="44.03176616349524" lon="10.878396650654441"><ele>739.0</ele><time>2026-04-05T13:00:19.827Z</time></trkpt><trkpt lat="44.03169200505048" lon="10.878410755680452"><ele>739.0</ele><time>2026-04-05T13:00:21.827Z</time></trkpt><trkpt lat="44.03162006511169" lon="10.878438074512406"><ele>739.0</ele><time>2026-04-05T13:00:25.827Z</time></trkpt><trkpt lat="44.03155554328909" lon="10.878432243791025"><ele>738.4285714285714</ele><time>2026-04-05T13:00:29.827Z</time></trkpt><trkpt lat="44.03149140181089" lon="10.878415355004153"><ele>737.8571428571429</ele><time>2026-04-05T13:00:32.827Z</time></trkpt><trkpt lat="44.03142492996092" lon="10.878401824760305"><ele>737.2857142857142</ele><time>2026-04-05T13:00:35.827Z</time></trkpt><trkpt lat="44.03135949384366" lon="10.87838133502369"><ele>736.7142857142858</ele><time>2026-04-05T13:00:38.827Z</time></trkpt><trkpt lat="44.031284176913985" lon="10.878355286177294"><ele>736.1428571428571</ele><time>2026-04-05T13:00:41.827Z</time></trkpt><trkpt lat="44.03120887515924" lon="10.878371608799407"><ele>735.5714285714286</ele><time>2026-04-05T13:00:43.827Z</time></trkpt><trkpt lat="44.031118520827434" lon="10.87841513368396"><ele>735.0</ele><time>2026-04-05T13:00:46.827Z</time></trkpt><trkpt lat="44.03105275238226" lon="10.878486614666382"><ele>740.2</ele><time>2026-04-05T13:00:48.827Z</time></trkpt><trkpt lat="44.03099130727902" lon="10.878571983676597"><ele>745.4</ele><time>2026-04-05T13:00:50.827Z</time></trkpt><trkpt lat="44.03091471358507" lon="10.87864662284666"><ele>750.5999999999999</ele><time>2026-04-05T13:00:52.827Z</time></trkpt><trkpt lat="44.0308011410681" lon="10.878684492062927"><ele>755.8</ele><time>2026-04-05T13:00:54.827Z</time></trkpt><trkpt lat="44.030734527529596" lon="10.878643181409329"><ele>761.0</ele><time>2026-04-05T13:00:55.827Z</time></trkpt><trkpt lat="44.030778396455986" lon="10.878492669220794"><ele>759.1666666666666</ele><time>2026-04-05T13:00:57.827Z</time></trkpt><trkpt lat="44.03074467477039" lon="10.878404500063793"><ele>757.3333333333333</ele><time>2026-04-05T13:01:01.827Z</time></trkpt><trkpt lat="44.03072031160777" lon="10.878304053537729"><ele>755.5</ele><time>2026-04-05T13:01:05.827Z</time></trkpt><trkpt lat="44.03068422342372" lon="10.878210399227449"><ele>753.6666666666666</ele><time>2026-04-05T13:01:08.827Z</time></trkpt><trkpt lat="44.030650335876736" lon="10.878126855428537"><ele>751.8333333333334</ele><time>2026-04-05T13:01:11.827Z</time></trkpt><trkpt lat="44.030594656810486" lon="10.878047795710316"><ele>750.0</ele><time>2026-04-05T13:01:14.827Z</time></trkpt><trkpt lat="44.03054961627947" lon="10.87795720770792"><ele>750.0</ele><time>2026-04-05T13:01:17.827Z</time></trkpt><trkpt lat="44.030476868306515" lon="10.877906764672947"><ele>750.0</ele><time>2026-04-05T13:01:20.827Z</time></trkpt><trkpt lat="44.03039155069608" lon="10.877855951053016"><ele>750.0</ele><time>2026-04-05T13:01:24.827Z</time></trkpt><trkpt lat="44.03031040893053" lon="10.877844829233869"><ele>750.0</ele><time>2026-04-05T13:01:27.894Z</time></trkpt><trkpt lat="44.03022809092703" lon="10.877843922702551"><ele>750.0</ele><time>2026-04-05T13:01:30.895Z</time></trkpt><trkpt lat="44.030143594753326" lon="10.87783417013834"><ele>750.0</ele><time>2026-04-05T13:01:33.895Z</time></trkpt><trkpt lat="44.03006386694007" lon="10.877862827169642"><ele>750.0</ele><time>2026-04-05T13:01:36.895Z</time></trkpt><trkpt lat="44.03000018820591" lon="10.877865723745677"><ele>750.0</ele><time>2026-04-05T13:01:39.895Z</time></trkpt><trkpt lat="44.02992362460524" lon="10.877915287109536"><ele>750.0</ele><time>2026-04-05T13:01:44.895Z</time></trkpt><trkpt lat="44.029848034412275" lon="10.877939046429688"><ele>750.0</ele><time>2026-04-05T13:01:47.895Z</time></trkpt><trkpt lat="44.02978836444926" lon="10.877976295202203"><ele>750.0</ele><time>2026-04-05T13:01:50.895Z</time></trkpt><trkpt lat="44.029716140778376" lon="10.87802146037769"><ele>750.0</ele><time>2026-04-05T13:01:53.895Z</time></trkpt><trkpt lat="44.0296532202773" lon="10.878078262761807"><ele>750.0</ele><time>2026-04-05T13:01:57.895Z</time></trkpt><trkpt lat="44.02957243267006" lon="10.878136639178376"><ele>750.1428571428572</ele><time>2026-04-05T13:02:01.895Z</time></trkpt><trkpt lat="44.029509081607046" lon="10.87819650338635"><ele>750.2857142857142</ele><time>2026-04-05T13:02:04.895Z</time></trkpt><trkpt lat="44.029444077863566" lon="10.878258747883235"><ele>750.4285714285714</ele><time>2026-04-05T13:02:08.895Z</time></trkpt><trkpt lat="44.02938700310361" lon="10.878311484096104"><ele>750.5714285714287</ele><time>2026-04-05T13:02:11.895Z</time></trkpt><trkpt lat="44.02932967804959" lon="10.87838484266218"><ele>750.7142857142858</ele><time>2026-04-05T13:02:14.895Z</time></trkpt><trkpt lat="44.02928337350364" lon="10.87846053044132"><ele>750.8571428571429</ele><time>2026-04-05T13:02:17.895Z</time></trkpt><trkpt lat="44.02923002031176" lon="10.878533703966314"><ele>751.0</ele><time>2026-04-05T13:02:20.895Z</time></trkpt><trkpt lat="44.02917628581035" lon="10.878627515434554"><ele>751.7142857142858</ele><time>2026-04-05T13:02:23.895Z</time></trkpt><trkpt lat="44.0291399486272" lon="10.878706065175724"><ele>752.4285714285714</ele><time>2026-04-05T13:02:25.895Z</time></trkpt><trkpt lat="44.02911421664238" lon="10.878794679963534"><ele>753.1428571428571</ele><time>2026-04-05T13:02:27.895Z</time></trkpt><trkpt lat="44.02909633560473" lon="10.878881928338743"><ele>753.8571428571429</ele><time>2026-04-05T13:02:29.895Z</time></trkpt><trkpt lat="44.029102112329824" lon="10.8789879077817"><ele>754.5714285714286</ele><time>2026-04-05T13:02:31.895Z</time></trkpt><trkpt lat="44.029094975851294" lon="10.879076830780589"><ele>755.2857142857143</ele><time>2026-04-05T13:02:33.895Z</time></trkpt><trkpt lat="44.0290840937018" lon="10.879189631136887"><ele>756.0</ele><time>2026-04-05T13:02:38.895Z</time></trkpt><trkpt lat="44.0291013541576" lon="10.879288863868828"><ele>756.2857142857143</ele><time>2026-04-05T13:02:43.895Z</time></trkpt><trkpt lat="44.0291355587215" lon="10.87937111116426"><ele>756.5714285714286</ele><time>2026-04-05T13:02:48.895Z</time></trkpt><trkpt lat="44.02916022525936" lon="10.879474043150676"><ele>756.8571428571429</ele><time>2026-04-05T13:02:53.895Z</time></trkpt><trkpt lat="44.02915809733427" lon="10.879577033014078"><ele>757.1428571428571</ele><time>2026-04-05T13:02:57.895Z</time></trkpt><trkpt lat="44.029149376426226" lon="10.879673237716412"><ele>757.4285714285714</ele><time>2026-04-05T13:03:02.895Z</time></trkpt><trkpt lat="44.02913862333417" lon="10.879766365849646"><ele>757.7142857142858</ele><time>2026-04-05T13:03:06.895Z</time></trkpt><trkpt lat="44.02911630308148" lon="10.879879994736703"><ele>758.0</ele><time>2026-04-05T13:03:11.895Z</time></trkpt><trkpt lat="44.02908659441074" lon="10.879969775425495"><ele>758.0000000000001</ele><time>2026-04-05T13:03:15.895Z</time></trkpt><trkpt lat="44.02906457148831" lon="10.879876640906105"><ele>758.0</ele><time>2026-04-05T13:03:30.895Z</time></trkpt><trkpt lat="44.029051609541014" lon="10.879774194003796"><ele>758.0</ele><time>2026-04-05T13:03:38.895Z</time></trkpt><trkpt lat="44.02902711488976" lon="10.879684706996073"><ele>758.0</ele><time>2026-04-05T13:03:43.895Z</time></trkpt><trkpt lat="44.02896444036188" lon="10.879620677632806"><ele>758.0</ele><time>2026-04-05T13:03:48.895Z</time></trkpt><trkpt lat="44.02891111119405" lon="10.87954708176417"><ele>758.0000000000001</ele><time>2026-04-05T13:03:53.895Z</time></trkpt><trkpt lat="44.02885729531589" lon="10.879476283335595"><ele>758.0</ele><time>2026-04-05T13:03:58.895Z</time></trkpt><trkpt lat="44.02879469718625" lon="10.8794243349776"><ele>758.0000000000001</ele><time>2026-04-05T13:04:02.895Z</time></trkpt><trkpt lat="44.02871915813514" lon="10.879384863662402"><ele>758.0</ele><time>2026-04-05T13:04:07.896Z</time></trkpt><trkpt lat="44.028649855555024" lon="10.879349750714862"><ele>758.0</ele><time>2026-04-05T13:04:12.895Z</time></trkpt><trkpt lat="44.0285843618566" lon="10.879322146098524"><ele>758.0</ele><time>2026-04-05T13:04:16.895Z</time></trkpt><trkpt lat="44.028520806028396" lon="10.879301024962848"><ele>758.0</ele><time>2026-04-05T13:04:21.895Z</time></trkpt><trkpt lat="44.02846529604044" lon="10.879234151803551"><ele>758.0000000000001</ele><time>2026-04-05T13:04:26.895Z</time></trkpt><trkpt lat="44.02842420367949" lon="10.879163963689388"><ele>758.0</ele><time>2026-04-05T13:04:30.895Z</time></trkpt><trkpt lat="44.02838287125698" lon="10.879080580579348"><ele>757.7142857142858</ele><time>2026-04-05T13:04:33.895Z</time></trkpt><trkpt lat="44.02834438338512" lon="10.879005885937712"><ele>757.4285714285714</ele><time>2026-04-05T13:04:37.895Z</time></trkpt><trkpt lat="44.028295600983334" lon="10.878924251441399"><ele>757.1428571428571</ele><time>2026-04-05T13:04:41.895Z</time></trkpt><trkpt lat="44.02825564682849" lon="10.878848256184284"><ele>756.8571428571429</ele><time>2026-04-05T13:04:45.895Z</time></trkpt><trkpt lat="44.02821929905099" lon="10.878769388739272"><ele>756.5714285714286</ele><time>2026-04-05T13:04:49.895Z</time></trkpt><trkpt lat="44.02819267297427" lon="10.878683670047486"><ele>756.2857142857143</ele><time>2026-04-05T13:04:53.895Z</time></trkpt><trkpt lat="44.028158913028086" lon="10.87859217401848"><ele>756.0</ele><time>2026-04-05T13:04:57.895Z</time></trkpt><trkpt lat="44.02813269766004" lon="10.878510390903317"><ele>753.5714285714286</ele><time>2026-04-05T13:05:00.895Z</time></trkpt><trkpt lat="44.02810475758624" lon="10.878394646407113"><ele>751.1428571428571</ele><time>2026-04-05T13:05:04.895Z</time></trkpt><trkpt lat="44.028077520630916" lon="10.878305577386378"><ele>748.7142857142858</ele><time>2026-04-05T13:05:07.895Z</time></trkpt><trkpt lat="44.0280490700481" lon="10.878219336399932"><ele>746.2857142857142</ele><time>2026-04-05T13:05:10.895Z</time></trkpt><trkpt lat="44.0280298852896" lon="10.878134724991948"><ele>743.8571428571429</ele><time>2026-04-05T13:05:13.895Z</time></trkpt><trkpt lat="44.02801803054692" lon="10.878039658334767"><ele>741.4285714285714</ele><time>2026-04-05T13:05:16.895Z</time></trkpt><trkpt lat="44.02800184475574" lon="10.877943577888804"><ele>739.0</ele><time>2026-04-05T13:05:19.895Z</time></trkpt><trkpt lat="44.02795840031425" lon="10.877840957386194"><ele>739.0</ele><time>2026-04-05T13:05:22.895Z</time></trkpt><trkpt lat="44.027938949159974" lon="10.87775393567336"><ele>739.0</ele><time>2026-04-05T13:05:24.895Z</time></trkpt><trkpt lat="44.02790971292301" lon="10.877671757145821"><ele>739.0</ele><time>2026-04-05T13:05:26.895Z</time></trkpt><trkpt lat="44.02788310062503" lon="10.877579979736254"><ele>739.0</ele><time>2026-04-05T13:05:28.895Z</time></trkpt><trkpt lat="44.02785280976563" lon="10.877481193888132"><ele>739.0</ele><time>2026-04-05T13:05:30.895Z</time></trkpt><trkpt lat="44.02782536655425" lon="10.877367580624485"><ele>739.0</ele><time>2026-04-05T13:05:32.895Z</time></trkpt><trkpt lat="44.02780049833822" lon="10.877273466375101"><ele>739.0</ele><time>2026-04-05T13:05:34.895Z</time></trkpt><trkpt lat="44.027778192986375" lon="10.877157931659672"><ele>741.6666666666667</ele><time>2026-04-05T13:05:36.895Z</time></trkpt><trkpt lat="44.027759830202584" lon="10.877064606608737"><ele>744.3333333333334</ele><time>2026-04-05T13:05:38.895Z</time></trkpt><trkpt lat="44.027730713504674" lon="10.876966214920788"><ele>747.0</ele><time>2026-04-05T13:05:40.895Z</time></trkpt><trkpt lat="44.027702406581895" lon="10.876860932344938"><ele>749.6666666666666</ele><time>2026-04-05T13:05:42.895Z</time></trkpt><trkpt lat="44.02767879169859" lon="10.876768545672494"><ele>752.3333333333333</ele><time>2026-04-05T13:05:44.895Z</time></trkpt><trkpt lat="44.02762896130178" lon="10.876656179085769"><ele>755.0</ele><time>2026-04-05T13:05:47.895Z</time></trkpt><trkpt lat="44.02760646087099" lon="10.876541450369928"><ele>754.8333333333333</ele><time>2026-04-05T13:05:50.895Z</time></trkpt><trkpt lat="44.02758445469743" lon="10.876444604293754"><ele>754.6666666666666</ele><time>2026-04-05T13:05:53.895Z</time></trkpt><trkpt lat="44.02754635969355" lon="10.876363738679604"><ele>754.5</ele><time>2026-04-05T13:05:56.895Z</time></trkpt><trkpt lat="44.02750635962726" lon="10.876292745280471"><ele>754.3333333333334</ele><time>2026-04-05T13:05:59.895Z</time></trkpt><trkpt lat="44.027464380419936" lon="10.876218493457039"><ele>754.1666666666667</ele><time>2026-04-05T13:06:03.895Z</time></trkpt><trkpt lat="44.02740285316017" lon="10.87618384169722"><ele>754.0</ele><time>2026-04-05T13:06:07.896Z</time></trkpt><trkpt lat="44.02729416804244" lon="10.876164098149426"><ele>754.0</ele><time>2026-04-05T13:06:09.895Z</time></trkpt><trkpt lat="44.02719476904149" lon="10.876140362791503"><ele>754.0</ele><time>2026-04-05T13:06:12.895Z</time></trkpt><trkpt lat="44.027106670097886" lon="10.876115934521794"><ele>754.0</ele><time>2026-04-05T13:06:14.895Z</time></trkpt><trkpt lat="44.02699901331863" lon="10.876101195268408"><ele>754.0</ele><time>2026-04-05T13:06:16.895Z</time></trkpt><trkpt lat="44.026897300711994" lon="10.876102475661718"><ele>754.0</ele><time>2026-04-05T13:06:18.895Z</time></trkpt><trkpt lat="44.02681069416958" lon="10.876095037700681"><ele>754.0</ele><time>2026-04-05T13:06:20.895Z</time></trkpt><trkpt lat="44.026718571022336" lon="10.876090577923726"><ele>754.0</ele><time>2026-04-05T13:06:22.895Z</time></trkpt><trkpt lat="44.02660920338286" lon="10.876085708704894"><ele>754.0</ele><time>2026-04-05T13:06:25.895Z</time></trkpt><trkpt lat="44.02653875975102" lon="10.876061831623405"><ele>754.0</ele><time>2026-04-05T13:06:27.895Z</time></trkpt><trkpt lat="44.02645098569353" lon="10.876045523520885"><ele>754.0</ele><time>2026-04-05T13:06:30.895Z</time></trkpt><trkpt lat="44.026383868489276" lon="10.876046275056227"><ele>754.0</ele><time>2026-04-05T13:06:32.895Z</time></trkpt><trkpt lat="44.026313408323276" lon="10.87603600703056"><ele>755.1666666666667</ele><time>2026-04-05T13:06:34.895Z</time></trkpt><trkpt lat="44.02621855070854" lon="10.876022124531433"><ele>756.3333333333334</ele><time>2026-04-05T13:06:37.895Z</time></trkpt><trkpt lat="44.02614359512797" lon="10.876006666890685"><ele>757.5</ele><time>2026-04-05T13:06:39.895Z</time></trkpt><trkpt lat="44.02606556987162" lon="10.875980738501884"><ele>758.6666666666666</ele><time>2026-04-05T13:06:42.895Z</time></trkpt><trkpt lat="44.026007155667244" lon="10.875946327310686"><ele>759.8333333333333</ele><time>2026-04-05T13:06:44.895Z</time></trkpt><trkpt lat="44.0259228666479" lon="10.875915856710991"><ele>761.0</ele><time>2026-04-05T13:06:46.895Z</time></trkpt><trkpt lat="44.025823616903345" lon="10.875889141666216"><ele>757.3333333333333</ele><time>2026-04-05T13:06:49.895Z</time></trkpt><trkpt lat="44.02573147670853" lon="10.875851167953641"><ele>753.6666666666666</ele><time>2026-04-05T13:06:52.895Z</time></trkpt><trkpt lat="44.02566679663141" lon="10.875821545821774"><ele>750.0</ele><time>2026-04-05T13:06:54.895Z</time></trkpt><trkpt lat="44.02559667890135" lon="10.875796625392155"><ele>746.3333333333334</ele><time>2026-04-05T13:06:56.895Z</time></trkpt><trkpt lat="44.02550719830358" lon="10.87574820976166"><ele>742.6666666666667</ele><time>2026-04-05T13:06:58.895Z</time></trkpt><trkpt lat="44.02543357331703" lon="10.875704665678194"><ele>739.0</ele><time>2026-04-05T13:07:00.895Z</time></trkpt><trkpt lat="44.025372573628" lon="10.87564696151424"><ele>739.0</ele><time>2026-04-05T13:07:02.895Z</time></trkpt><trkpt lat="44.025295786858095" lon="10.875599164173584"><ele>739.0</ele><time>2026-04-05T13:07:04.895Z</time></trkpt><trkpt lat="44.0252350207025" lon="10.87553817486922"><ele>739.0</ele><time>2026-04-05T13:07:06.895Z</time></trkpt><trkpt lat="44.02518425098038" lon="10.875458062000163"><ele>739.0</ele><time>2026-04-05T13:07:08.895Z</time></trkpt><trkpt lat="44.025106713846526" lon="10.875378117871863"><ele>739.0</ele><time>2026-04-05T13:07:10.895Z</time></trkpt><trkpt lat="44.02503489271231" lon="10.875338133446258"><ele>739.0</ele><time>2026-04-05T13:07:12.895Z</time></trkpt><trkpt lat="44.02496139854553" lon="10.87527558014605"><ele>738.4000000000001</ele><time>2026-04-05T13:07:14.895Z</time></trkpt><trkpt lat="44.02486944655735" lon="10.875205368104435"><ele>737.8</ele><time>2026-04-05T13:07:16.895Z</time></trkpt><trkpt lat="44.02481545727565" lon="10.875150724996379"><ele>737.2</ele><time>2026-04-05T13:07:18.895Z</time></trkpt><trkpt lat="44.024744837199464" lon="10.875078277842066"><ele>736.5999999999999</ele><time>2026-04-05T13:07:20.895Z</time></trkpt><trkpt lat="44.0246966494166" lon="10.874958029583805"><ele>736.0</ele><time>2026-04-05T13:07:22.895Z</time></trkpt><trkpt lat="44.02467469487152" lon="10.874827331483951"><ele>736.0</ele><time>2026-04-05T13:07:24.895Z</time></trkpt><trkpt lat="44.02469441264652" lon="10.874693738134331"><ele>736.0</ele><time>2026-04-05T13:07:26.895Z</time></trkpt><trkpt lat="44.024711135296734" lon="10.874572785434694"><ele>736.0</ele><time>2026-04-05T13:07:28.895Z</time></trkpt><trkpt lat="44.024706667788756" lon="10.874444203853386"><ele>736.0</ele><time>2026-04-05T13:07:30.895Z</time></trkpt><trkpt lat="44.02466240978018" lon="10.87433861213388"><ele>736.0</ele><time>2026-04-05T13:07:33.895Z</time></trkpt><trkpt lat="44.02462862819204" lon="10.874252697309231"><ele>736.0</ele><time>2026-04-05T13:07:36.895Z</time></trkpt><trkpt lat="44.024590139587836" lon="10.874168499464272"><ele>738.8571428571429</ele><time>2026-04-05T13:07:39.895Z</time></trkpt><trkpt lat="44.02455745398067" lon="10.87408535537043"><ele>741.7142857142857</ele><time>2026-04-05T13:07:42.895Z</time></trkpt><trkpt lat="44.02451996894258" lon="10.874005144359264"><ele>744.5714285714286</ele><time>2026-04-05T13:07:45.895Z</time></trkpt><trkpt lat="44.02445878769833" lon="10.87395757957087"><ele>747.4285714285714</ele><time>2026-04-05T13:07:47.895Z</time></trkpt><trkpt lat="44.02441098842354" lon="10.873880592667449"><ele>750.2857142857142</ele><time>2026-04-05T13:07:50.895Z</time></trkpt><trkpt lat="44.024364512053204" lon="10.873778789685758"><ele>753.1428571428571</ele><time>2026-04-05T13:07:53.895Z</time></trkpt><trkpt lat="44.024321039876995" lon="10.873693678203106"><ele>756.0</ele><time>2026-04-05T13:07:56.895Z</time></trkpt><trkpt lat="44.02426356564103" lon="10.873612676096828"><ele>756.0</ele><time>2026-04-05T13:07:59.895Z</time></trkpt><trkpt lat="44.02422942417216" lon="10.873529252116013"><ele>756.0</ele><time>2026-04-05T13:08:02.895Z</time></trkpt><trkpt lat="44.02418530084954" lon="10.873446398385443"><ele>756.0</ele><time>2026-04-05T13:08:05.895Z</time></trkpt><trkpt lat="44.024162670136924" lon="10.873361226706027"><ele>756.0</ele><time>2026-04-05T13:08:08.895Z</time></trkpt><trkpt lat="44.024132089188576" lon="10.873269548414791"><ele>756.0</ele><time>2026-04-05T13:08:12.895Z</time></trkpt><trkpt lat="44.02410460687799" lon="10.873183175082836"><ele>756.0</ele><time>2026-04-05T13:08:15.895Z</time></trkpt><trkpt lat="44.02408570389334" lon="10.873051021762404"><ele>756.0</ele><time>2026-04-05T13:08:18.895Z</time></trkpt><trkpt lat="44.02404573676159" lon="10.872929781117033"><ele>760.5</ele><time>2026-04-05T13:08:21.895Z</time></trkpt><trkpt lat="44.0240168307245" lon="10.872838626656288"><ele>765.0</ele><time>2026-04-05T13:08:23.895Z</time></trkpt><trkpt lat="44.02399717793755" lon="10.872736661016601"><ele>769.5</ele><time>2026-04-05T13:08:26.894Z</time></trkpt><trkpt lat="44.023972199622484" lon="10.872649816108817"><ele>774.0</ele><time>2026-04-05T13:08:29.894Z</time></trkpt><trkpt lat="44.02393686266421" lon="10.872554607987029"><ele>778.5</ele><time>2026-04-05T13:08:32.894Z</time></trkpt><trkpt lat="44.02389999711327" lon="10.872469467818204"><ele>783.0</ele><time>2026-04-05T13:08:34.894Z</time></trkpt><trkpt lat="44.023869904470196" lon="10.872337057880083"><ele>783.0</ele><time>2026-04-05T13:08:37.894Z</time></trkpt><trkpt lat="44.02381584041104" lon="10.87223574041465"><ele>783.0</ele><time>2026-04-05T13:08:40.894Z</time></trkpt><trkpt lat="44.02377393073793" lon="10.872160658072849"><ele>783.0</ele><time>2026-04-05T13:08:43.894Z</time></trkpt><trkpt lat="44.02372518831289" lon="10.872100931771445"><ele>783.0</ele><time>2026-04-05T13:08:46.894Z</time></trkpt><trkpt lat="44.023668799563566" lon="10.872031529507726"><ele>783.0</ele><time>2026-04-05T13:08:49.894Z</time></trkpt><trkpt lat="44.02360176698784" lon="10.871947710327076"><ele>783.0</ele><time>2026-04-05T13:08:52.894Z</time></trkpt><trkpt lat="44.02355379210741" lon="10.87186367975593"><ele>783.8333333333334</ele><time>2026-04-05T13:08:55.894Z</time></trkpt><trkpt lat="44.02348717908599" lon="10.871762517673007"><ele>784.6666666666667</ele><time>2026-04-05T13:08:58.894Z</time></trkpt><trkpt lat="44.02343194140226" lon="10.87166835681211"><ele>785.5</ele><time>2026-04-05T13:09:01.894Z</time></trkpt><trkpt lat="44.023386276570065" lon="10.871573113732381"><ele>786.3333333333334</ele><time>2026-04-05T13:09:04.894Z</time></trkpt><trkpt lat="44.02335960366568" lon="10.871493082234831"><ele>787.1666666666667</ele><time>2026-04-05T13:09:06.894Z</time></trkpt><trkpt lat="44.02332239460897" lon="10.871386611002658"><ele>788.0</ele><time>2026-04-05T13:09:09.894Z</time></trkpt><trkpt lat="44.023300777019465" lon="10.871300478391943"><ele>788.0</ele><time>2026-04-05T13:09:11.894Z</time></trkpt><trkpt lat="44.023272271935994" lon="10.8712186610735"><ele>788.0</ele><time>2026-04-05T13:09:13.895Z</time></trkpt><trkpt lat="44.02324028741981" lon="10.871135140174653"><ele>788.0</ele><time>2026-04-05T13:09:15.895Z</time></trkpt><trkpt lat="44.023205526062036" lon="10.871055327743928"><ele>788.0</ele><time>2026-04-05T13:09:17.895Z</time></trkpt><trkpt lat="44.02316318056744" lon="10.870974887725312"><ele>788.0</ele><time>2026-04-05T13:09:19.895Z</time></trkpt><trkpt lat="44.02310961981897" lon="10.870898962860345"><ele>788.0</ele><time>2026-04-05T13:09:22.895Z</time></trkpt><trkpt lat="44.02304301857814" lon="10.870836202315457"><ele>788.0</ele><time>2026-04-05T13:09:25.895Z</time></trkpt><trkpt lat="44.022973157819216" lon="10.870771749964991"><ele>785.5000000000001</ele><time>2026-04-05T13:09:28.895Z</time></trkpt><trkpt lat="44.02292208771383" lon="10.870670578275035"><ele>783.0</ele><time>2026-04-05T13:09:31.895Z</time></trkpt><trkpt lat="44.02286578640611" lon="10.870614397370923"><ele>780.5</ele><time>2026-04-05T13:09:33.895Z</time></trkpt><trkpt lat="44.02281877262273" lon="10.870551454850945"><ele>778.0</ele><time>2026-04-05T13:09:35.895Z</time></trkpt><trkpt lat="44.02277078512535" lon="10.870489845369656"><ele>775.5000000000001</ele><time>2026-04-05T13:09:37.895Z</time></trkpt><trkpt lat="44.02272201331668" lon="10.870427619536498"><ele>773.0</ele><time>2026-04-05T13:09:39.895Z</time></trkpt><trkpt lat="44.022641009923234" lon="10.870351864002997"><ele>773.0</ele><time>2026-04-05T13:09:42.895Z</time></trkpt><trkpt lat="44.022587638861026" lon="10.87030039175218"><ele>773.0</ele><time>2026-04-05T13:09:44.895Z</time></trkpt><trkpt lat="44.022514878808465" lon="10.870230200974369"><ele>773.0</ele><time>2026-04-05T13:09:47.895Z</time></trkpt><trkpt lat="44.022457826285574" lon="10.870180642118887"><ele>773.0</ele><time>2026-04-05T13:09:49.895Z</time></trkpt><trkpt lat="44.022401551236825" lon="10.870133683954977"><ele>773.0</ele><time>2026-04-05T13:09:51.895Z</time></trkpt><trkpt lat="44.022342644469866" lon="10.8700829270494"><ele>773.0</ele><time>2026-04-05T13:09:53.895Z</time></trkpt><trkpt lat="44.02226986585072" lon="10.870015703302393"><ele>773.0</ele><time>2026-04-05T13:09:56.895Z</time></trkpt><trkpt lat="44.022199858942564" lon="10.869939258111126"><ele>773.7142857142857</ele><time>2026-04-05T13:09:59.895Z</time></trkpt><trkpt lat="44.022135071435706" lon="10.869882500300816"><ele>774.4285714285713</ele><time>2026-04-05T13:10:02.895Z</time></trkpt><trkpt lat="44.02208092230311" lon="10.869804142455447"><ele>775.1428571428571</ele><time>2026-04-05T13:10:05.895Z</time></trkpt><trkpt lat="44.02203508028526" lon="10.869729896023449"><ele>775.8571428571429</ele><time>2026-04-05T13:10:07.895Z</time></trkpt><trkpt lat="44.0219851536108" lon="10.869660685454008"><ele>776.5714285714286</ele><time>2026-04-05T13:10:09.895Z</time></trkpt><trkpt lat="44.02192693285168" lon="10.869577715833094"><ele>777.2857142857143</ele><time>2026-04-05T13:10:11.895Z</time></trkpt><trkpt lat="44.02187586425468" lon="10.869510227085115"><ele>778.0</ele><time>2026-04-05T13:10:13.895Z</time></trkpt><trkpt lat="44.02182962361964" lon="10.869438976540701"><ele>777.9999999999999</ele><time>2026-04-05T13:10:15.895Z</time></trkpt><trkpt lat="44.02178418059638" lon="10.869358992997372"><ele>778.0</ele><time>2026-04-05T13:10:17.895Z</time></trkpt><trkpt lat="44.021732531378355" lon="10.869294761506952"><ele>778.0</ele><time>2026-04-05T13:10:19.895Z</time></trkpt><trkpt lat="44.021680174909015" lon="10.869201384754316"><ele>778.0</ele><time>2026-04-05T13:10:22.895Z</time></trkpt><trkpt lat="44.02162455104379" lon="10.869110037534874"><ele>777.9999999999999</ele><time>2026-04-05T13:10:25.895Z</time></trkpt><trkpt lat="44.021565834637315" lon="10.86901990641471"><ele>778.0</ele><time>2026-04-05T13:10:28.895Z</time></trkpt><trkpt lat="44.02151796704476" lon="10.868957717901583"><ele>777.1428571428572</ele><time>2026-04-05T13:10:31.896Z</time></trkpt><trkpt lat="44.0214628289948" lon="10.868863237613215"><ele>776.2857142857142</ele><time>2026-04-05T13:10:34.896Z</time></trkpt><trkpt lat="44.021417547507866" lon="10.868797184804398"><ele>775.4285714285714</ele><time>2026-04-05T13:10:37.896Z</time></trkpt><trkpt lat="44.021372887483686" lon="10.868734152828113"><ele>774.5714285714287</ele><time>2026-04-05T13:10:40.896Z</time></trkpt><trkpt lat="44.02132403666359" lon="10.868663624656865"><ele>773.7142857142858</ele><time>2026-04-05T13:10:43.896Z</time></trkpt><trkpt lat="44.021264926790934" lon="10.868608069905076"><ele>772.8571428571429</ele><time>2026-04-05T13:10:47.896Z</time></trkpt><trkpt lat="44.02118007143067" lon="10.868577385161553"><ele>772.0</ele><time>2026-04-05T13:10:51.896Z</time></trkpt><trkpt lat="44.021090640676675" lon="10.868547347014198"><ele>771.9999999999999</ele><time>2026-04-05T13:10:55.896Z</time></trkpt><trkpt lat="44.02102368150719" lon="10.86856136444224"><ele>772.0</ele><time>2026-04-05T13:10:58.896Z</time></trkpt><trkpt lat="44.020948606401625" lon="10.868588866323211"><ele>772.0</ele><time>2026-04-05T13:11:01.896Z</time></trkpt><trkpt lat="44.02085375347531" lon="10.868626837469133"><ele>772.0</ele><time>2026-04-05T13:11:04.896Z</time></trkpt><trkpt lat="44.02075906315547" lon="10.868678293008825"><ele>771.9999999999999</ele><time>2026-04-05T13:11:06.896Z</time></trkpt><trkpt lat="44.0206663162718" lon="10.868720095831575"><ele>772.0</ele><time>2026-04-05T13:11:10.896Z</time></trkpt><trkpt lat="44.02055201825337" lon="10.868774289385428"><ele>773.4999999999999</ele><time>2026-04-05T13:11:12.896Z</time></trkpt><trkpt lat="44.0204820170339" lon="10.86875963087719"><ele>775.0</ele><time>2026-04-05T13:11:16.896Z</time></trkpt><trkpt lat="44.02040884268548" lon="10.868718381649602"><ele>776.5</ele><time>2026-04-05T13:11:19.896Z</time></trkpt><trkpt lat="44.02036313273989" lon="10.868631915949278"><ele>778.0</ele><time>2026-04-05T13:11:22.896Z</time></trkpt><trkpt lat="44.02032556127862" lon="10.86854417045124"><ele>779.4999999999999</ele><time>2026-04-05T13:11:24.896Z</time></trkpt><trkpt lat="44.020256080962334" lon="10.8684599214785"><ele>781.0</ele><time>2026-04-05T13:11:28.896Z</time></trkpt><trkpt lat="44.020201745496664" lon="10.868410181537232"><ele>779.4999999999999</ele><time>2026-04-05T13:11:31.896Z</time></trkpt><trkpt lat="44.02014642836963" lon="10.868362060156757"><ele>778.0</ele><time>2026-04-05T13:11:34.896Z</time></trkpt><trkpt lat="44.020073386520835" lon="10.868284697193687"><ele>776.5</ele><time>2026-04-05T13:11:38.896Z</time></trkpt><trkpt lat="44.01999677927249" lon="10.868238551461182"><ele>775.0</ele><time>2026-04-05T13:11:42.896Z</time></trkpt><trkpt lat="44.019933985119685" lon="10.868196625836179"><ele>773.4999999999999</ele><time>2026-04-05T13:11:45.896Z</time></trkpt><trkpt lat="44.01987320188478" lon="10.868161231414039"><ele>772.0</ele><time>2026-04-05T13:11:48.896Z</time></trkpt><trkpt lat="44.01979366772079" lon="10.868162065302153"><ele>772.0000000000001</ele><time>2026-04-05T13:11:51.896Z</time></trkpt><trkpt lat="44.019723514002656" lon="10.868158380988225"><ele>772.0</ele><time>2026-04-05T13:11:54.896Z</time></trkpt><trkpt lat="44.01964861876378" lon="10.868155742730062"><ele>772.0</ele><time>2026-04-05T13:11:57.896Z</time></trkpt><trkpt lat="44.01958234075426" lon="10.868150333156745"><ele>772.0</ele><time>2026-04-05T13:12:00.896Z</time></trkpt><trkpt lat="44.019511201954145" lon="10.868139042035189"><ele>772.0</ele><time>2026-04-05T13:12:04.896Z</time></trkpt><trkpt lat="44.01944284696479" lon="10.868132883114587"><ele>772.0000000000001</ele><time>2026-04-05T13:12:08.896Z</time></trkpt><trkpt lat="44.01935703449875" lon="10.868136406435584"><ele>772.0</ele><time>2026-04-05T13:12:12.896Z</time></trkpt><trkpt lat="44.01928145032238" lon="10.868149400253596"><ele>771.9999999999999</ele><time>2026-04-05T13:12:16.896Z</time></trkpt><trkpt lat="44.01921054982619" lon="10.868158262850226"><ele>772.0</ele><time>2026-04-05T13:12:19.896Z</time></trkpt><trkpt lat="44.019146604390286" lon="10.868174032340212"><ele>772.0</ele><time>2026-04-05T13:12:22.896Z</time></trkpt><trkpt lat="44.01903902448608" lon="10.868185787552367"><ele>772.0</ele><time>2026-04-05T13:12:26.895Z</time></trkpt><trkpt lat="44.018966198411206" lon="10.868234370207702"><ele>771.9999999999999</ele><time>2026-04-05T13:12:28.895Z</time></trkpt><trkpt lat="44.01889787099002" lon="10.868239642500683"><ele>772.0</ele><time>2026-04-05T13:12:32.896Z</time></trkpt><trkpt lat="44.01882270423914" lon="10.868316102006196"><ele>770.9999999999999</ele><time>2026-04-05T13:12:35.895Z</time></trkpt><trkpt lat="44.0187369330715" lon="10.868333720265209"><ele>770.0</ele><time>2026-04-05T13:12:38.895Z</time></trkpt><trkpt lat="44.01865644141037" lon="10.868346490410607"><ele>769.0</ele><time>2026-04-05T13:12:41.895Z</time></trkpt><trkpt lat="44.01858611714354" lon="10.868399798892414"><ele>768.0</ele><time>2026-04-05T13:12:45.895Z</time></trkpt><trkpt lat="44.018531120929204" lon="10.868454851080562"><ele>767.0</ele><time>2026-04-05T13:12:48.895Z</time></trkpt><trkpt lat="44.01845550441357" lon="10.868501916098271"><ele>766.0</ele><time>2026-04-05T13:12:51.895Z</time></trkpt><trkpt lat="44.018390615929604" lon="10.868554809849199"><ele>767.1666666666667</ele><time>2026-04-05T13:12:54.895Z</time></trkpt><trkpt lat="44.01833808479119" lon="10.868615599726915"><ele>768.3333333333334</ele><time>2026-04-05T13:12:57.895Z</time></trkpt><trkpt lat="44.018269977568686" lon="10.868662653319602"><ele>769.5</ele><time>2026-04-05T13:13:00.895Z</time></trkpt><trkpt lat="44.01820403973883" lon="10.868717294523638"><ele>770.6666666666667</ele><time>2026-04-05T13:13:04.895Z</time></trkpt><trkpt lat="44.01813711285372" lon="10.868755726298849"><ele>771.8333333333334</ele><time>2026-04-05T13:13:07.895Z</time></trkpt><trkpt lat="44.01806193219943" lon="10.868787810463546"><ele>773.0</ele><time>2026-04-05T13:13:11.895Z</time></trkpt><trkpt lat="44.01799594132353" lon="10.868856794863081"><ele>773.0000000000001</ele><time>2026-04-05T13:13:15.895Z</time></trkpt><trkpt lat="44.017928528041864" lon="10.868920531880185"><ele>773.0</ele><time>2026-04-05T13:13:18.895Z</time></trkpt><trkpt lat="44.01787270358062" lon="10.868961694240175"><ele>773.0</ele><time>2026-04-05T13:13:21.895Z</time></trkpt><trkpt lat="44.01780467208901" lon="10.869003525519505"><ele>773.0</ele><time>2026-04-05T13:13:24.895Z</time></trkpt><trkpt lat="44.01773404429264" lon="10.869072715335882"><ele>773.0000000000001</ele><time>2026-04-05T13:13:27.895Z</time></trkpt><trkpt lat="44.01765492296454" lon="10.869132197937002"><ele>773.0</ele><time>2026-04-05T13:13:30.895Z</time></trkpt><trkpt lat="44.01757443991665" lon="10.869199223517692"><ele>773.0</ele><time>2026-04-05T13:13:33.895Z</time></trkpt><trkpt lat="44.01751053506727" lon="10.869245359943282"><ele>773.0</ele><time>2026-04-05T13:13:35.895Z</time></trkpt><trkpt lat="44.01744774972144" lon="10.869277142731814"><ele>773.0</ele><time>2026-04-05T13:13:38.895Z</time></trkpt><trkpt lat="44.01738991455678" lon="10.869317778357757"><ele>773.0</ele><time>2026-04-05T13:13:42.895Z</time></trkpt><trkpt lat="44.0173217622452" lon="10.869350198939815"><ele>773.0</ele><time>2026-04-05T13:13:44.895Z</time></trkpt><trkpt lat="44.01723539231191" lon="10.869350982468191"><ele>773.0</ele><time>2026-04-05T13:13:47.895Z</time></trkpt><trkpt lat="44.017152244777904" lon="10.86933258955236"><ele>773.0</ele><time>2026-04-05T13:13:50.895Z</time></trkpt><trkpt lat="44.01707754485583" lon="10.869309822683618"><ele>773.8333333333334</ele><time>2026-04-05T13:13:53.895Z</time></trkpt><trkpt lat="44.01700612358988" lon="10.869292630608095"><ele>774.6666666666667</ele><time>2026-04-05T13:13:56.895Z</time></trkpt><trkpt lat="44.0169415584313" lon="10.869327056617285"><ele>775.5</ele><time>2026-04-05T13:14:03.895Z</time></trkpt><trkpt lat="44.01687011816036" lon="10.869369864911713"><ele>776.3333333333333</ele><time>2026-04-05T13:14:06.895Z</time></trkpt><trkpt lat="44.016792761395216" lon="10.869419636311564"><ele>777.1666666666666</ele><time>2026-04-05T13:14:09.895Z</time></trkpt><trkpt lat="44.01673935722005" lon="10.869479675578601"><ele>778.0</ele><time>2026-04-05T13:14:11.895Z</time></trkpt><trkpt lat="44.01666294246289" lon="10.869556166052869"><ele>779.8571428571429</ele><time>2026-04-05T13:14:13.895Z</time></trkpt><trkpt lat="44.01658548824951" lon="10.869599598491233"><ele>781.7142857142857</ele><time>2026-04-05T13:14:15.895Z</time></trkpt><trkpt lat="44.01650741928098" lon="10.86959750490137"><ele>783.5714285714286</ele><time>2026-04-05T13:14:17.895Z</time></trkpt><trkpt lat="44.01643753324703" lon="10.869619934162497"><ele>785.4285714285714</ele><time>2026-04-05T13:14:21.895Z</time></trkpt><trkpt lat="44.01636710484351" lon="10.869632460739263"><ele>787.2857142857142</ele><time>2026-04-05T13:14:24.895Z</time></trkpt><trkpt lat="44.01629409305308" lon="10.869618552388983"><ele>789.1428571428571</ele><time>2026-04-05T13:14:27.895Z</time></trkpt><trkpt lat="44.01622620702703" lon="10.86959773027254"><ele>791.0</ele><time>2026-04-05T13:14:31.895Z</time></trkpt><trkpt lat="44.01614957690345" lon="10.869561390275448"><ele>791.0</ele><time>2026-04-05T13:14:36.895Z</time></trkpt><trkpt lat="44.01608966418857" lon="10.869522668434511"><ele>791.0</ele><time>2026-04-05T13:14:40.895Z</time></trkpt><trkpt lat="44.01604006981278" lon="10.869458340813772"><ele>791.0</ele><time>2026-04-05T13:14:45.895Z</time></trkpt><trkpt lat="44.01602112741251" lon="10.869366865154625"><ele>791.0</ele><time>2026-04-05T13:14:49.895Z</time></trkpt><trkpt lat="44.0159916029246" lon="10.869257320961692"><ele>791.0</ele><time>2026-04-05T13:14:53.895Z</time></trkpt><trkpt lat="44.01593490024147" lon="10.869204910280159"><ele>791.0</ele><time>2026-04-05T13:14:57.895Z</time></trkpt><trkpt lat="44.015888312454216" lon="10.869120679815277"><ele>791.0</ele><time>2026-04-05T13:15:01.895Z</time></trkpt><trkpt lat="44.01586153570062" lon="10.86903841016862"><ele>792.1666666666667</ele><time>2026-04-05T13:15:05.895Z</time></trkpt><trkpt lat="44.015831242245945" lon="10.868945136491542"><ele>793.3333333333334</ele><time>2026-04-05T13:15:08.895Z</time></trkpt><trkpt lat="44.015793632004176" lon="10.868834095032803"><ele>794.5</ele><time>2026-04-05T13:15:12.895Z</time></trkpt><trkpt lat="44.015740914378156" lon="10.86872700339935"><ele>795.6666666666667</ele><time>2026-04-05T13:15:16.895Z</time></trkpt><trkpt lat="44.015695606104316" lon="10.868662863553448"><ele>796.8333333333334</ele><time>2026-04-05T13:15:19.895Z</time></trkpt><trkpt lat="44.01565290985912" lon="10.868576912785874"><ele>798.0</ele><time>2026-04-05T13:15:22.895Z</time></trkpt><trkpt lat="44.015603525831715" lon="10.86848324886821"><ele>799.1428571428571</ele><time>2026-04-05T13:15:26.895Z</time></trkpt><trkpt lat="44.01557752584972" lon="10.868385487854374"><ele>800.2857142857142</ele><time>2026-04-05T13:15:30.895Z</time></trkpt><trkpt lat="44.015570180504454" lon="10.868285213642825"><ele>801.4285714285714</ele><time>2026-04-05T13:15:34.895Z</time></trkpt><trkpt lat="44.01556949649541" lon="10.868186726044996"><ele>802.5714285714286</ele><time>2026-04-05T13:15:37.895Z</time></trkpt><trkpt lat="44.01556242207247" lon="10.868086568611567"><ele>803.7142857142857</ele><time>2026-04-05T13:15:41.895Z</time></trkpt><trkpt lat="44.01555628389124" lon="10.867990253916426"><ele>804.8571428571429</ele><time>2026-04-05T13:15:44.895Z</time></trkpt><trkpt lat="44.01553494213597" lon="10.867906261118629"><ele>806.0</ele><time>2026-04-05T13:15:47.895Z</time></trkpt><trkpt lat="44.01552632985061" lon="10.8678035194915"><ele>806.0000000000001</ele><time>2026-04-05T13:15:50.895Z</time></trkpt><trkpt lat="44.01553380263755" lon="10.86769604413643"><ele>806.0</ele><time>2026-04-05T13:15:54.895Z</time></trkpt><trkpt lat="44.015542035779625" lon="10.867578371291295"><ele>806.0</ele><time>2026-04-05T13:15:58.895Z</time></trkpt><trkpt lat="44.015531374722194" lon="10.867468967033389"><ele>806.0</ele><time>2026-04-05T13:16:02.895Z</time></trkpt><trkpt lat="44.01551106183312" lon="10.867385937913513"><ele>806.0000000000001</ele><time>2026-04-05T13:16:05.895Z</time></trkpt><trkpt lat="44.01546602284382" lon="10.867287349024886"><ele>806.0</ele><time>2026-04-05T13:16:09.895Z</time></trkpt><trkpt lat="44.0154009834513" lon="10.867216709110679"><ele>804.8571428571429</ele><time>2026-04-05T13:16:13.895Z</time></trkpt><trkpt lat="44.01533370773103" lon="10.867156001505634"><ele>803.7142857142857</ele><time>2026-04-05T13:16:17.895Z</time></trkpt><trkpt lat="44.01526617644304" lon="10.867101143635637"><ele>802.5714285714286</ele><time>2026-04-05T13:16:21.895Z</time></trkpt><trkpt lat="44.015209375596164" lon="10.867040786568579"><ele>801.4285714285714</ele><time>2026-04-05T13:16:24.895Z</time></trkpt><trkpt lat="44.015177324703004" lon="10.866962123828216"><ele>800.2857142857142</ele><time>2026-04-05T13:16:26.895Z</time></trkpt><trkpt lat="44.01519315425969" lon="10.866868975422"><ele>799.1428571428571</ele><time>2026-04-05T13:16:31.895Z</time></trkpt><trkpt lat="44.01523083746083" lon="10.866780891207556"><ele>798.0</ele><time>2026-04-05T13:16:36.895Z</time></trkpt><trkpt lat="44.01527077659711" lon="10.866696114119815"><ele>797.2857142857143</ele><time>2026-04-05T13:16:38.895Z</time></trkpt><trkpt lat="44.01531908370888" lon="10.866635774122516"><ele>796.5714285714286</ele><time>2026-04-05T13:16:42.895Z</time></trkpt><trkpt lat="44.01536483248983" lon="10.866557197921408"><ele>795.8571428571429</ele><time>2026-04-05T13:16:46.895Z</time></trkpt><trkpt lat="44.01541416395452" lon="10.866473173934871"><ele>795.1428571428571</ele><time>2026-04-05T13:16:49.895Z</time></trkpt><trkpt lat="44.01545900982302" lon="10.866390440571584"><ele>794.4285714285714</ele><time>2026-04-05T13:16:52.895Z</time></trkpt><trkpt lat="44.01550608525751" lon="10.866309987123193"><ele>793.7142857142858</ele><time>2026-04-05T13:16:55.895Z</time></trkpt><trkpt lat="44.01555103520148" lon="10.866210246699584"><ele>793.0</ele><time>2026-04-05T13:16:58.895Z</time></trkpt><trkpt lat="44.01560285127475" lon="10.86611327066082"><ele>792.9999999999999</ele><time>2026-04-05T13:17:01.895Z</time></trkpt><trkpt lat="44.01563332120329" lon="10.865999754614883"><ele>793.0</ele><time>2026-04-05T13:17:04.895Z</time></trkpt><trkpt lat="44.015663749618184" lon="10.865910254665927"><ele>793.0</ele><time>2026-04-05T13:17:07.895Z</time></trkpt><trkpt lat="44.0156818908978" lon="10.865800201471657"><ele>793.0</ele><time>2026-04-05T13:17:10.895Z</time></trkpt><trkpt lat="44.015694869429694" lon="10.865699051588098"><ele>792.9999999999999</ele><time>2026-04-05T13:17:13.895Z</time></trkpt><trkpt lat="44.01570248907155" lon="10.865576469859128"><ele>793.0</ele><time>2026-04-05T13:17:17.895Z</time></trkpt><trkpt lat="44.01570383899847" lon="10.865450504577888"><ele>794.1666666666666</ele><time>2026-04-05T13:17:21.895Z</time></trkpt><trkpt lat="44.01569745678799" lon="10.865350925940879"><ele>795.3333333333333</ele><time>2026-04-05T13:17:24.895Z</time></trkpt><trkpt lat="44.01568359830025" lon="10.865230268304655"><ele>796.5</ele><time>2026-04-05T13:17:27.895Z</time></trkpt><trkpt lat="44.01567118283008" lon="10.865143644058142"><ele>797.6666666666667</ele><time>2026-04-05T13:17:30.9Z</time></trkpt><trkpt lat="44.01564895658947" lon="10.865027547318027"><ele>798.8333333333334</ele><time>2026-04-05T13:17:33.904Z</time></trkpt><trkpt lat="44.01561342810503" lon="10.864904587877001"><ele>800.0</ele><time>2026-04-05T13:17:36.908Z</time></trkpt><trkpt lat="44.01557391594765" lon="10.864833633730772"><ele>800.0000000000001</ele><time>2026-04-05T13:17:38.91Z</time></trkpt><trkpt lat="44.015517073411985" lon="10.864760464274518"><ele>800.0</ele><time>2026-04-05T13:17:41.913Z</time></trkpt><trkpt lat="44.01546197106471" lon="10.864709854526149"><ele>800.0</ele><time>2026-04-05T13:17:44.915Z</time></trkpt><trkpt lat="44.015399648220196" lon="10.864662039553851"><ele>800.0</ele><time>2026-04-05T13:17:47.917Z</time></trkpt><trkpt lat="44.015335142156296" lon="10.864618445063561"><ele>800.0</ele><time>2026-04-05T13:17:51.919Z</time></trkpt><trkpt lat="44.015261027012116" lon="10.864567391596538"><ele>800.0000000000001</ele><time>2026-04-05T13:17:55.92Z</time></trkpt><trkpt lat="44.01520340377861" lon="10.86452636718398"><ele>800.0</ele><time>2026-04-05T13:17:58.921Z</time></trkpt><trkpt lat="44.015121592291635" lon="10.864503223264093"><ele>800.0000000000001</ele><time>2026-04-05T13:18:01.922Z</time></trkpt><trkpt lat="44.01505134437359" lon="10.86448384901792"><ele>800.0</ele><time>2026-04-05T13:18:04.923Z</time></trkpt><trkpt lat="44.01496717227016" lon="10.864466505703035"><ele>800.0</ele><time>2026-04-05T13:18:07.923Z</time></trkpt><trkpt lat="44.014875649648836" lon="10.864471374326891"><ele>800.0</ele><time>2026-04-05T13:18:10.924Z</time></trkpt><trkpt lat="44.014802609669154" lon="10.864459173358854"><ele>800.0000000000001</ele><time>2026-04-05T13:18:12.924Z</time></trkpt><trkpt lat="44.01472402696012" lon="10.864424017885083"><ele>800.0</ele><time>2026-04-05T13:18:16.924Z</time></trkpt><trkpt lat="44.01466049097999" lon="10.86439140644436"><ele>798.3333333333334</ele><time>2026-04-05T13:18:18.924Z</time></trkpt><trkpt lat="44.01457883491549" lon="10.86436855947848"><ele>796.6666666666667</ele><time>2026-04-05T13:18:21.925Z</time></trkpt><trkpt lat="44.0145139079312" lon="10.864350936420868"><ele>795.0</ele><time>2026-04-05T13:18:23.925Z</time></trkpt><trkpt lat="44.01444102511712" lon="10.864330564907597"><ele>793.3333333333333</ele><time>2026-04-05T13:18:25.925Z</time></trkpt><trkpt lat="44.01435695153724" lon="10.864309253483786"><ele>791.6666666666666</ele><time>2026-04-05T13:18:27.925Z</time></trkpt><trkpt lat="44.01429050596134" lon="10.864274429274605"><ele>790.0</ele><time>2026-04-05T13:18:29.925Z</time></trkpt><trkpt lat="44.01421740206483" lon="10.864236824564275"><ele>789.9999999999999</ele><time>2026-04-05T13:18:32.925Z</time></trkpt><trkpt lat="44.01415616772442" lon="10.864179378278921"><ele>790.0</ele><time>2026-04-05T13:18:34.925Z</time></trkpt><trkpt lat="44.014094862883184" lon="10.86409360337486"><ele>790.0</ele><time>2026-04-05T13:18:37.925Z</time></trkpt><trkpt lat="44.01405183031243" lon="10.864021842553926"><ele>790.0</ele><time>2026-04-05T13:18:39.925Z</time></trkpt><trkpt lat="44.01400714307692" lon="10.863942088052308"><ele>789.9999999999999</ele><time>2026-04-05T13:18:41.925Z</time></trkpt><trkpt lat="44.01394675405774" lon="10.863833700563125"><ele>790.0</ele><time>2026-04-05T13:18:44.926Z</time></trkpt><trkpt lat="44.01390903258358" lon="10.863760213939777"><ele>790.1666666666666</ele><time>2026-04-05T13:18:46.925Z</time></trkpt><trkpt lat="44.01386257175775" lon="10.86366004596607"><ele>790.3333333333333</ele><time>2026-04-05T13:18:49.925Z</time></trkpt><trkpt lat="44.013825874933595" lon="10.863580619847276"><ele>790.5</ele><time>2026-04-05T13:18:52.925Z</time></trkpt><trkpt lat="44.01378133146175" lon="10.863497043331014"><ele>790.6666666666667</ele><time>2026-04-05T13:18:55.925Z</time></trkpt><trkpt lat="44.013736031842605" lon="10.863420919029762"><ele>790.8333333333334</ele><time>2026-04-05T13:18:58.925Z</time></trkpt><trkpt lat="44.01366400481537" lon="10.863333546812576"><ele>791.0</ele><time>2026-04-05T13:19:01.925Z</time></trkpt><trkpt lat="44.01360727649166" lon="10.863288490021349"><ele>791.0</ele><time>2026-04-05T13:19:03.925Z</time></trkpt><trkpt lat="44.013519190174044" lon="10.863227510528388"><ele>791.0</ele><time>2026-04-05T13:19:06.925Z</time></trkpt><trkpt lat="44.01345450756069" lon="10.863195362610073"><ele>791.0</ele><time>2026-04-05T13:19:08.925Z</time></trkpt><trkpt lat="44.01338599544387" lon="10.863158818631895"><ele>791.0</ele><time>2026-04-05T13:19:10.925Z</time></trkpt><trkpt lat="44.013323548897816" lon="10.863124783526796"><ele>791.0</ele><time>2026-04-05T13:19:12.925Z</time></trkpt><trkpt lat="44.01325744165788" lon="10.863103733120502"><ele>791.0</ele><time>2026-04-05T13:19:14.925Z</time></trkpt><trkpt lat="44.01319749487288" lon="10.863048643496569"><ele>791.0</ele><time>2026-04-05T13:19:16.925Z</time></trkpt><trkpt lat="44.013125475635434" lon="10.86298817263206"><ele>790.6666666666667</ele><time>2026-04-05T13:19:18.925Z</time></trkpt><trkpt lat="44.01305966426394" lon="10.862920176897198"><ele>790.3333333333334</ele><time>2026-04-05T13:19:20.925Z</time></trkpt><trkpt lat="44.012987583413256" lon="10.86285669700168"><ele>790.0</ele><time>2026-04-05T13:19:22.925Z</time></trkpt><trkpt lat="44.012924362084405" lon="10.86280085661916"><ele>789.6666666666667</ele><time>2026-04-05T13:19:24.925Z</time></trkpt><trkpt lat="44.012864847455496" lon="10.862718333181176"><ele>789.3333333333334</ele><time>2026-04-05T13:19:26.925Z</time></trkpt><trkpt lat="44.01279597275159" lon="10.862646834414267"><ele>789.0</ele><time>2026-04-05T13:19:28.925Z</time></trkpt><trkpt lat="44.01274165079241" lon="10.862591338457742"><ele>785.6666666666666</ele><time>2026-04-05T13:19:30.925Z</time></trkpt><trkpt lat="44.01266895784849" lon="10.862529587100228"><ele>782.3333333333333</ele><time>2026-04-05T13:19:32.925Z</time></trkpt><trkpt lat="44.01260704824361" lon="10.86249870598622"><ele>779.0</ele><time>2026-04-05T13:19:34.925Z</time></trkpt><trkpt lat="44.012509667965325" lon="10.862521643027009"><ele>775.6666666666666</ele><time>2026-04-05T13:19:37.925Z</time></trkpt><trkpt lat="44.01243333437634" lon="10.862556962223318"><ele>772.3333333333333</ele><time>2026-04-05T13:19:39.925Z</time></trkpt><trkpt lat="44.012362609263874" lon="10.86256228316469"><ele>769.0</ele><time>2026-04-05T13:19:41.925Z</time></trkpt><trkpt lat="44.012285995296914" lon="10.862586931744206"><ele>768.5714285714286</ele><time>2026-04-05T13:19:43.925Z</time></trkpt><trkpt lat="44.01221052546098" lon="10.862611643452013"><ele>768.1428571428572</ele><time>2026-04-05T13:19:45.925Z</time></trkpt><trkpt lat="44.01214210855026" lon="10.862621813003447"><ele>767.7142857142858</ele><time>2026-04-05T13:19:47.925Z</time></trkpt><trkpt lat="44.01207762413856" lon="10.862643423729951"><ele>767.2857142857142</ele><time>2026-04-05T13:19:49.925Z</time></trkpt><trkpt lat="44.01200479524865" lon="10.862674498737425"><ele>766.8571428571429</ele><time>2026-04-05T13:19:52.925Z</time></trkpt><trkpt lat="44.01193473806229" lon="10.862636009265195"><ele>766.4285714285714</ele><time>2026-04-05T13:20:47.925Z</time></trkpt><trkpt lat="44.011872774588454" lon="10.862687699034511"><ele>766.0</ele><time>2026-04-05T13:20:50.925Z</time></trkpt><trkpt lat="44.01184118060448" lon="10.862794926758987"><ele>765.5</ele><time>2026-04-05T13:20:53.926Z</time></trkpt><trkpt lat="44.01180184240401" lon="10.862876455719885"><ele>765.0</ele><time>2026-04-05T13:20:57.926Z</time></trkpt><trkpt lat="44.01174774653942" lon="10.862964540659643"><ele>764.5</ele><time>2026-04-05T13:21:01.926Z</time></trkpt><trkpt lat="44.01168369742369" lon="10.863058067881594"><ele>764.0</ele><time>2026-04-05T13:21:04.926Z</time></trkpt><trkpt lat="44.01161650219343" lon="10.863076017344653"><ele>763.5</ele><time>2026-04-05T13:21:08.926Z</time></trkpt><trkpt lat="44.011543037757775" lon="10.863085665446263"><ele>763.0</ele><time>2026-04-05T13:21:10.926Z</time></trkpt><trkpt lat="44.011475451996304" lon="10.863094735279814"><ele>758.5999999999999</ele><time>2026-04-05T13:21:14.926Z</time></trkpt><trkpt lat="44.01138497268094" lon="10.86309682319346"><ele>754.1999999999999</ele><time>2026-04-05T13:21:17.926Z</time></trkpt><trkpt lat="44.01127313351152" lon="10.863083319698873"><ele>749.8</ele><time>2026-04-05T13:21:21.927Z</time></trkpt><trkpt lat="44.01119145591726" lon="10.863056746960341"><ele>745.4</ele><time>2026-04-05T13:21:24.927Z</time></trkpt><trkpt lat="44.01111759114998" lon="10.863059429736728"><ele>741.0</ele><time>2026-04-05T13:21:27.927Z</time></trkpt><trkpt lat="44.011028215125016" lon="10.863069606486961"><ele>741.0</ele><time>2026-04-05T13:21:30.927Z</time></trkpt><trkpt lat="44.0109207345724" lon="10.863042817420835"><ele>741.0</ele><time>2026-04-05T13:21:34.927Z</time></trkpt><trkpt lat="44.01083776361286" lon="10.86308448531262"><ele>741.0</ele><time>2026-04-05T13:21:37.927Z</time></trkpt><trkpt lat="44.01077398259963" lon="10.863138698941103"><ele>741.0</ele><time>2026-04-05T13:21:39.927Z</time></trkpt><trkpt lat="44.010714372123275" lon="10.863194697025172"><ele>741.0</ele><time>2026-04-05T13:21:41.927Z</time></trkpt><trkpt lat="44.010653806653124" lon="10.86325646525736"><ele>741.0</ele><time>2026-04-05T13:21:43.927Z</time></trkpt><trkpt lat="44.01059046002765" lon="10.863287483224866"><ele>738.8333333333334</ele><time>2026-04-05T13:21:46.927Z</time></trkpt><trkpt lat="44.01051188103544" lon="10.863313094287292"><ele>736.6666666666666</ele><time>2026-04-05T13:21:48.927Z</time></trkpt><trkpt lat="44.01044132661428" lon="10.863315994610055"><ele>734.5</ele><time>2026-04-05T13:21:50.927Z</time></trkpt><trkpt lat="44.01036503631239" lon="10.863322775631048"><ele>732.3333333333333</ele><time>2026-04-05T13:21:52.927Z</time></trkpt><trkpt lat="44.01026740534712" lon="10.863337075761129"><ele>730.1666666666666</ele><time>2026-04-05T13:21:54.927Z</time></trkpt><trkpt lat="44.010195191097196" lon="10.86334874003334"><ele>728.0</ele><time>2026-04-05T13:21:56.927Z</time></trkpt><trkpt lat="44.01012789471285" lon="10.863365068099036"><ele>728.0</ele><time>2026-04-05T13:21:58.927Z</time></trkpt><trkpt lat="44.010026008337476" lon="10.863383177064375"><ele>728.0</ele><time>2026-04-05T13:22:01.927Z</time></trkpt><trkpt lat="44.00995981082461" lon="10.863391604359212"><ele>728.0</ele><time>2026-04-05T13:22:03.927Z</time></trkpt><trkpt lat="44.0098605600797" lon="10.8634277479566"><ele>728.0</ele><time>2026-04-05T13:22:06.927Z</time></trkpt><trkpt lat="44.009779935210275" lon="10.863457108668085"><ele>728.0</ele><time>2026-04-05T13:22:08.927Z</time></trkpt><trkpt lat="44.009689914357345" lon="10.863489891065559"><ele>728.0</ele><time>2026-04-05T13:22:11.927Z</time></trkpt><trkpt lat="44.00961786461322" lon="10.863525533278615"><ele>716.6666666666666</ele><time>2026-04-05T13:22:14.927Z</time></trkpt><trkpt lat="44.009325805960145" lon="10.863622864852594"><ele>705.3333333333334</ele><time>2026-04-05T13:22:17.927Z</time></trkpt><trkpt lat="44.00923177750838" lon="10.863658435379984"><ele>694.0</ele><time>2026-04-05T13:22:19.927Z</time></trkpt><trkpt lat="44.00913174948747" lon="10.863700102966577"><ele>693.0</ele><time>2026-04-05T13:22:21.927Z</time></trkpt><trkpt lat="44.00902870213764" lon="10.863753440333044"><ele>692.0</ele><time>2026-04-05T13:22:23.927Z</time></trkpt><trkpt lat="44.008962556264834" lon="10.863804092324662"><ele>691.0</ele><time>2026-04-05T13:22:25.927Z</time></trkpt><trkpt lat="44.00888286786254" lon="10.863832952596473"><ele>690.0</ele><time>2026-04-05T13:22:27.927Z</time></trkpt><trkpt lat="44.00880488396525" lon="10.863861092131751"><ele>689.0</ele><time>2026-04-05T13:22:29.927Z</time></trkpt><trkpt lat="44.00873125550254" lon="10.863862543902945"><ele>688.0</ele><time>2026-04-05T13:22:32.927Z</time></trkpt><trkpt lat="44.00866350594609" lon="10.863832142072171"><ele>688.0</ele><time>2026-04-05T13:22:34.927Z</time></trkpt><trkpt lat="44.00859675619933" lon="10.863765077830488"><ele>688.0</ele><time>2026-04-05T13:22:36.927Z</time></trkpt><trkpt lat="44.0085255635993" lon="10.863678418235093"><ele>688.0</ele><time>2026-04-05T13:22:38.927Z</time></trkpt><trkpt lat="44.008579088639046" lon="10.863553080406552"><ele>688.0</ele><time>2026-04-05T13:22:40.927Z</time></trkpt><trkpt lat="44.008580350150154" lon="10.863459403749887"><ele>688.0</ele><time>2026-04-05T13:22:42.927Z</time></trkpt><trkpt lat="44.00852180298708" lon="10.863369569121396"><ele>688.0</ele><time>2026-04-05T13:22:46.927Z</time></trkpt><trkpt lat="44.00847228808809" lon="10.863283630875834"><ele>690.1666666666667</ele><time>2026-04-05T13:22:49.927Z</time></trkpt><trkpt lat="44.00846032297839" lon="10.863186769724965"><ele>692.3333333333334</ele><time>2026-04-05T13:22:51.927Z</time></trkpt><trkpt lat="44.00843824637244" lon="10.863090267398109"><ele>694.5</ele><time>2026-04-05T13:22:53.927Z</time></trkpt><trkpt lat="44.00844332101823" lon="10.86295697771788"><ele>696.6666666666666</ele><time>2026-04-05T13:22:55.927Z</time></trkpt><trkpt lat="44.008458486856306" lon="10.862846158739114"><ele>698.8333333333333</ele><time>2026-04-05T13:22:58.926Z</time></trkpt><trkpt lat="44.00846283313937" lon="10.862728006000362"><ele>701.0</ele><time>2026-04-05T13:23:01.926Z</time></trkpt><trkpt lat="44.00844376115499" lon="10.86261964480184"><ele>700.5</ele><time>2026-04-05T13:23:04.927Z</time></trkpt><trkpt lat="44.0084078928176" lon="10.862525162949145"><ele>700.0</ele><time>2026-04-05T13:23:07.927Z</time></trkpt><trkpt lat="44.008378735233094" lon="10.862436020944886"><ele>699.5</ele><time>2026-04-05T13:23:09.927Z</time></trkpt><trkpt lat="44.00835485322442" lon="10.862337371992961"><ele>699.0</ele><time>2026-04-05T13:23:11.927Z</time></trkpt><trkpt lat="44.00832318294975" lon="10.862249561774128"><ele>698.5</ele><time>2026-04-05T13:23:13.927Z</time></trkpt><trkpt lat="44.008267518048626" lon="10.862172165767126"><ele>698.0</ele><time>2026-04-05T13:23:15.927Z</time></trkpt><trkpt lat="44.00819478190043" lon="10.862111653480111"><ele>694.6666666666666</ele><time>2026-04-05T13:23:17.927Z</time></trkpt><trkpt lat="44.00813865792302" lon="10.862049474634736"><ele>691.3333333333333</ele><time>2026-04-05T13:23:19.927Z</time></trkpt><trkpt lat="44.00807380372073" lon="10.861979169767503"><ele>688.0</ele><time>2026-04-05T13:23:21.927Z</time></trkpt><trkpt lat="44.00799222788407" lon="10.861928775943522"><ele>684.6666666666666</ele><time>2026-04-05T13:23:23.927Z</time></trkpt><trkpt lat="44.00791924719345" lon="10.861889864988358"><ele>681.3333333333334</ele><time>2026-04-05T13:23:25.927Z</time></trkpt><trkpt lat="44.00785298185404" lon="10.861835697539828"><ele>678.0</ele><time>2026-04-05T13:23:27.927Z</time></trkpt><trkpt lat="44.00778738803284" lon="10.861791638751464"><ele>678.0</ele><time>2026-04-05T13:23:29.927Z</time></trkpt><trkpt lat="44.007700892011556" lon="10.861717926114057"><ele>678.0</ele><time>2026-04-05T13:23:32.927Z</time></trkpt><trkpt lat="44.00769544642558" lon="10.861806452506647"><ele>678.0</ele><time>2026-04-05T13:23:39.927Z</time></trkpt><trkpt lat="44.00771288328473" lon="10.861928090936681"><ele>678.0</ele><time>2026-04-05T13:23:42.927Z</time></trkpt><trkpt lat="44.007688091520336" lon="10.862044849743192"><ele>678.0</ele><time>2026-04-05T13:23:46.927Z</time></trkpt><trkpt lat="44.0077168838521" lon="10.862130654161161"><ele>678.0</ele><time>2026-04-05T13:23:48.927Z</time></trkpt><trkpt lat="44.007682641521846" lon="10.862233010873629"><ele>678.0</ele><time>2026-04-05T13:23:52.927Z</time></trkpt><trkpt lat="44.00763188024311" lon="10.86231822104935"><ele>678.0</ele><time>2026-04-05T13:23:54.927Z</time></trkpt><trkpt lat="44.00757682487897" lon="10.862406217397872"><ele>678.0</ele><time>2026-04-05T13:23:56.927Z</time></trkpt><trkpt lat="44.007514200027884" lon="10.862478272429367"><ele>678.0</ele><time>2026-04-05T13:23:58.927Z</time></trkpt><trkpt lat="44.007439541061196" lon="10.86256154051232"><ele>678.0</ele><time>2026-04-05T13:24:01.927Z</time></trkpt><trkpt lat="44.007391727970756" lon="10.862673354814378"><ele>678.0</ele><time>2026-04-05T13:24:03.927Z</time></trkpt><trkpt lat="44.00735029417072" lon="10.862773289209954"><ele>673.2857142857142</ele><time>2026-04-05T13:24:05.927Z</time></trkpt><trkpt lat="44.00729613204789" lon="10.862835500546037"><ele>668.5714285714287</ele><time>2026-04-05T13:24:07.927Z</time></trkpt><trkpt lat="44.00729292756559" lon="10.862740155817765"><ele>663.8571428571429</ele><time>2026-04-05T13:24:13.927Z</time></trkpt><trkpt lat="44.007323459043405" lon="10.862632195885322"><ele>659.1428571428571</ele><time>2026-04-05T13:24:16.927Z</time></trkpt><trkpt lat="44.007334675241545" lon="10.86254206246957"><ele>654.4285714285713</ele><time>2026-04-05T13:24:18.927Z</time></trkpt><trkpt lat="44.00735364252828" lon="10.862453725414655"><ele>649.7142857142858</ele><time>2026-04-05T13:24:22.927Z</time></trkpt><trkpt lat="44.007316210296395" lon="10.862371073634778"><ele>645.0</ele><time>2026-04-05T13:24:26.927Z</time></trkpt><trkpt lat="44.00725606139864" lon="10.862333871858668"><ele>645.0</ele><time>2026-04-05T13:24:29.927Z</time></trkpt><trkpt lat="44.007204335176944" lon="10.86228308073514"><ele>645.0</ele><time>2026-04-05T13:24:34.927Z</time></trkpt><trkpt lat="44.00715265856733" lon="10.862227536379322"><ele>645.0</ele><time>2026-04-05T13:24:36.927Z</time></trkpt><trkpt lat="44.00709026443802" lon="10.862178086152088"><ele>645.0</ele><time>2026-04-05T13:24:38.927Z</time></trkpt><trkpt lat="44.00702825554052" lon="10.86210247030284"><ele>645.0</ele><time>2026-04-05T13:24:40.927Z</time></trkpt><trkpt lat="44.00699340293539" lon="10.862014726666693"><ele>645.0</ele><time>2026-04-05T13:24:42.927Z</time></trkpt><trkpt lat="44.00695246686773" lon="10.861867477471145"><ele>646.8333333333334</ele><time>2026-04-05T13:24:44.927Z</time></trkpt><trkpt lat="44.00691533629418" lon="10.861753043203453"><ele>648.6666666666666</ele><time>2026-04-05T13:24:46.927Z</time></trkpt><trkpt lat="44.00685197866473" lon="10.861691638307867"><ele>650.5</ele><time>2026-04-05T13:24:48.927Z</time></trkpt><trkpt lat="44.0067932607639" lon="10.861608685215495"><ele>652.3333333333333</ele><time>2026-04-05T13:24:51.927Z</time></trkpt><trkpt lat="44.00672144243012" lon="10.861556518014714"><ele>654.1666666666666</ele><time>2026-04-05T13:24:54.927Z</time></trkpt><trkpt lat="44.00664335148074" lon="10.861519357506129"><ele>656.0</ele><time>2026-04-05T13:24:56.927Z</time></trkpt><trkpt lat="44.00655792679661" lon="10.861528928535963"><ele>656.3333333333333</ele><time>2026-04-05T13:24:59.927Z</time></trkpt><trkpt lat="44.00642464298397" lon="10.861469617270425"><ele>656.6666666666666</ele><time>2026-04-05T13:27:00.927Z</time></trkpt><trkpt lat="44.00635776936275" lon="10.861482404311369"><ele>657.0</ele><time>2026-04-05T13:27:24.928Z</time></trkpt><trkpt lat="44.00630075905422" lon="10.861542363759202"><ele>657.3333333333334</ele><time>2026-04-05T13:27:32.928Z</time></trkpt><trkpt lat="44.00625457557045" lon="10.861632357917916"><ele>657.6666666666667</ele><time>2026-04-05T13:27:34.928Z</time></trkpt><trkpt lat="44.00623535544194" lon="10.861726311170328"><ele>658.0</ele><time>2026-04-05T13:27:36.928Z</time></trkpt><trkpt lat="44.0061855560783" lon="10.861832370860503"><ele>654.1428571428571</ele><time>2026-04-05T13:27:39.928Z</time></trkpt><trkpt lat="44.00613546809062" lon="10.861894342816123"><ele>650.2857142857142</ele><time>2026-04-05T13:27:41.928Z</time></trkpt><trkpt lat="44.006072994222784" lon="10.861925094066885"><ele>646.4285714285714</ele><time>2026-04-05T13:27:43.928Z</time></trkpt><trkpt lat="44.0060005793631" lon="10.861949257848224"><ele>642.5714285714286</ele><time>2026-04-05T13:27:46.928Z</time></trkpt><trkpt lat="44.00592452827411" lon="10.861976003142207"><ele>638.7142857142857</ele><time>2026-04-05T13:27:49.928Z</time></trkpt><trkpt lat="44.005861108132564" lon="10.862008306718788"><ele>634.8571428571429</ele><time>2026-04-05T13:27:51.928Z</time></trkpt><trkpt lat="44.005766843061544" lon="10.862022183940812"><ele>631.0</ele><time>2026-04-05T13:27:54.928Z</time></trkpt><trkpt lat="44.00567604104855" lon="10.862061251375602"><ele>631.0</ele><time>2026-04-05T13:27:56.928Z</time></trkpt><trkpt lat="44.00561205664686" lon="10.862084900289153"><ele>631.0</ele><time>2026-04-05T13:27:58.928Z</time></trkpt><trkpt lat="44.00551373866311" lon="10.862111697358994"><ele>631.0</ele><time>2026-04-05T13:28:01.928Z</time></trkpt><trkpt lat="44.005416803161225" lon="10.862132265171654"><ele>631.0</ele><time>2026-04-05T13:28:04.928Z</time></trkpt><trkpt lat="44.00533849481094" lon="10.862180160900909"><ele>631.0</ele><time>2026-04-05T13:28:06.928Z</time></trkpt><trkpt lat="44.00527589485844" lon="10.86225415345439"><ele>631.0</ele><time>2026-04-05T13:28:09.928Z</time></trkpt><trkpt lat="44.00521549348956" lon="10.862333447321939"><ele>631.0</ele><time>2026-04-05T13:28:12.928Z</time></trkpt><trkpt lat="44.005151849051416" lon="10.862451794590662"><ele>631.0</ele><time>2026-04-05T13:28:14.928Z</time></trkpt><trkpt lat="44.00507352371465" lon="10.862549395719219"><ele>631.0</ele><time>2026-04-05T13:28:16.928Z</time></trkpt><trkpt lat="44.00499505789974" lon="10.862632887553344"><ele>631.0</ele><time>2026-04-05T13:28:19.928Z</time></trkpt><trkpt lat="44.00491767968588" lon="10.862687760025029"><ele>631.0</ele><time>2026-04-05T13:28:21.928Z</time></trkpt><trkpt lat="44.00482279706151" lon="10.862726050684692"><ele>626.6</ele><time>2026-04-05T13:28:23.928Z</time></trkpt><trkpt lat="44.00472508034323" lon="10.86274043277923"><ele>622.2</ele><time>2026-04-05T13:28:25.928Z</time></trkpt><trkpt lat="44.00461397929952" lon="10.862762965198812"><ele>617.8</ele><time>2026-04-05T13:28:27.928Z</time></trkpt><trkpt lat="44.00451625553278" lon="10.862817060465256"><ele>613.4</ele><time>2026-04-05T13:28:29.928Z</time></trkpt><trkpt lat="44.00440499143734" lon="10.862868273802162"><ele>609.0</ele><time>2026-04-05T13:28:31.928Z</time></trkpt><trkpt lat="44.004297582602995" lon="10.862888080853004"><ele>609.0</ele><time>2026-04-05T13:28:33.928Z</time></trkpt><trkpt lat="44.00420963948425" lon="10.86287060461316"><ele>609.0</ele><time>2026-04-05T13:28:35.928Z</time></trkpt><trkpt lat="44.004116621591265" lon="10.8628149373617"><ele>609.0</ele><time>2026-04-05T13:28:37.928Z</time></trkpt><trkpt lat="44.00402671734735" lon="10.86279836472499"><ele>609.0</ele><time>2026-04-05T13:28:39.928Z</time></trkpt><trkpt lat="44.0039498125974" lon="10.862803148861111"><ele>609.0</ele><time>2026-04-05T13:28:41.928Z</time></trkpt><trkpt lat="44.00388675533398" lon="10.862816148416242"><ele>609.0</ele><time>2026-04-05T13:28:43.928Z</time></trkpt><trkpt lat="44.00382211082524" lon="10.862830246111526"><ele>607.0</ele><time>2026-04-05T13:28:45.928Z</time></trkpt><trkpt lat="44.00376221521657" lon="10.862794004096859"><ele>605.0</ele><time>2026-04-05T13:28:47.928Z</time></trkpt><trkpt lat="44.00368902937704" lon="10.862760177269738"><ele>603.0</ele><time>2026-04-05T13:28:49.928Z</time></trkpt><trkpt lat="44.00361299691015" lon="10.862737321692249"><ele>601.0</ele><time>2026-04-05T13:28:51.928Z</time></trkpt><trkpt lat="44.00354477143978" lon="10.86270513480478"><ele>599.0</ele><time>2026-04-05T13:28:53.928Z</time></trkpt><trkpt lat="44.0034629388289" lon="10.862648201173615"><ele>597.0</ele><time>2026-04-05T13:28:55.928Z</time></trkpt><trkpt lat="44.003374983268486" lon="10.862605381383522"><ele>599.6666666666666</ele><time>2026-04-05T13:28:57.928Z</time></trkpt><trkpt lat="44.00329883170971" lon="10.862553689133115"><ele>602.3333333333334</ele><time>2026-04-05T13:28:59.928Z</time></trkpt><trkpt lat="44.00321899197841" lon="10.862497297187023"><ele>605.0</ele><time>2026-04-05T13:29:01.928Z</time></trkpt><trkpt lat="44.00315595405372" lon="10.862487324878847"><ele>607.6666666666667</ele><time>2026-04-05T13:29:04.928Z</time></trkpt><trkpt lat="44.00308153123412" lon="10.862521051328002"><ele>610.3333333333334</ele><time>2026-04-05T13:29:09.928Z</time></trkpt><trkpt lat="44.0029981579194" lon="10.86253816261824"><ele>613.0</ele><time>2026-04-05T13:29:13.928Z</time></trkpt><trkpt lat="44.00291959450267" lon="10.862530371687061"><ele>613.0</ele><time>2026-04-05T13:29:16.928Z</time></trkpt><trkpt lat="44.002839944293044" lon="10.862476006048032"><ele>613.0</ele><time>2026-04-05T13:29:18.928Z</time></trkpt><trkpt lat="44.00278896366033" lon="10.862417495968524"><ele>613.0</ele><time>2026-04-05T13:29:20.928Z</time></trkpt><trkpt lat="44.002736181049" lon="10.862319271305067"><ele>613.0</ele><time>2026-04-05T13:29:23.927Z</time></trkpt><trkpt lat="44.002670778785586" lon="10.862254869279258"><ele>613.0</ele><time>2026-04-05T13:29:25.928Z</time></trkpt><trkpt lat="44.0025866381407" lon="10.862252375623534"><ele>613.0</ele><time>2026-04-05T13:29:29.928Z</time></trkpt><trkpt lat="44.00252254856064" lon="10.86233848705069"><ele>613.3333333333334</ele><time>2026-04-05T13:29:32.928Z</time></trkpt><trkpt lat="44.00244824607433" lon="10.86240165331178"><ele>613.6666666666667</ele><time>2026-04-05T13:29:34.928Z</time></trkpt><trkpt lat="44.002386940107314" lon="10.862422759730833"><ele>614.0</ele><time>2026-04-05T13:29:35.928Z</time></trkpt><trkpt lat="44.002276768049" lon="10.86245244891011"><ele>614.3333333333334</ele><time>2026-04-05T13:29:37.928Z</time></trkpt><trkpt lat="44.002182192096704" lon="10.862461770991194"><ele>614.6666666666666</ele><time>2026-04-05T13:29:39.928Z</time></trkpt><trkpt lat="44.00211955519029" lon="10.862481733297022"><ele>615.0</ele><time>2026-04-05T13:29:40.928Z</time></trkpt><trkpt lat="44.00201310807606" lon="10.862521381830518"><ele>615.0</ele><time>2026-04-05T13:29:42.928Z</time></trkpt><trkpt lat="44.00191679744046" lon="10.862549342052194"><ele>615.0</ele><time>2026-04-05T13:29:44.928Z</time></trkpt><trkpt lat="44.00185253175215" lon="10.862580347363718"><ele>615.0</ele><time>2026-04-05T13:29:46.928Z</time></trkpt><trkpt lat="44.00179038639767" lon="10.862607228864695"><ele>615.0</ele><time>2026-04-05T13:29:48.928Z</time></trkpt><trkpt lat="44.00172571969116" lon="10.862627219662341"><ele>615.0</ele><time>2026-04-05T13:29:50.928Z</time></trkpt><trkpt lat="44.00165372348332" lon="10.86264124452619"><ele>615.0</ele><time>2026-04-05T13:29:52.928Z</time></trkpt><trkpt lat="44.00154584672873" lon="10.862686567031387"><ele>611.6666666666666</ele><time>2026-04-05T13:29:54.928Z</time></trkpt><trkpt lat="44.00146043638196" lon="10.862733269928246"><ele>608.3333333333334</ele><time>2026-04-05T13:29:56.928Z</time></trkpt><trkpt lat="44.00136310927329" lon="10.862794532712854"><ele>605.0</ele><time>2026-04-05T13:29:58.928Z</time></trkpt><trkpt lat="44.001305774867966" lon="10.862833108810406"><ele>601.6666666666667</ele><time>2026-04-05T13:30:00.928Z</time></trkpt><trkpt lat="44.00121177440705" lon="10.86284918361391"><ele>598.3333333333334</ele><time>2026-04-05T13:30:02.928Z</time></trkpt><trkpt lat="44.001131613904725" lon="10.862840018574348"><ele>595.0</ele><time>2026-04-05T13:30:04.928Z</time></trkpt><trkpt lat="44.001048944599205" lon="10.862810355632881"><ele>595.0</ele><time>2026-04-05T13:30:06.928Z</time></trkpt><trkpt lat="44.00097856282442" lon="10.862786824587173"><ele>595.0</ele><time>2026-04-05T13:30:08.928Z</time></trkpt><trkpt lat="44.00089167906924" lon="10.86275920399542"><ele>595.0</ele><time>2026-04-05T13:30:11.928Z</time></trkpt><trkpt lat="44.000807897732514" lon="10.862721381176245"><ele>595.0</ele><time>2026-04-05T13:30:14.928Z</time></trkpt><trkpt lat="44.00072515391937" lon="10.862662574013546"><ele>595.0</ele><time>2026-04-05T13:30:17.928Z</time></trkpt><trkpt lat="44.00066425001942" lon="10.862622499895876"><ele>595.0</ele><time>2026-04-05T13:30:19.928Z</time></trkpt><trkpt lat="44.00058850372505" lon="10.862574075624615"><ele>595.1666666666667</ele><time>2026-04-05T13:30:22.928Z</time></trkpt><trkpt lat="44.00052103625848" lon="10.86253060910825"><ele>595.3333333333334</ele><time>2026-04-05T13:30:25.928Z</time></trkpt><trkpt lat="44.00043837322405" lon="10.862510065334263"><ele>595.5</ele><time>2026-04-05T13:30:29.928Z</time></trkpt><trkpt lat="44.00044647854712" lon="10.862609054605096"><ele>595.6666666666666</ele><time>2026-04-05T13:30:35.928Z</time></trkpt><trkpt lat="44.00039131843206" lon="10.862702882395215"><ele>595.8333333333333</ele><time>2026-04-05T13:30:39.928Z</time></trkpt><trkpt lat="44.00034247888454" lon="10.862780250680474"><ele>596.0</ele><time>2026-04-05T13:30:42.928Z</time></trkpt><trkpt lat="44.00028750718222" lon="10.862847688663868"><ele>596.0</ele><time>2026-04-05T13:30:45.928Z</time></trkpt><trkpt lat="44.0002202543657" lon="10.862862168560468"><ele>596.0</ele><time>2026-04-05T13:30:47.928Z</time></trkpt><trkpt lat="44.000145016797454" lon="10.862860130958177"><ele>596.0</ele><time>2026-04-05T13:30:49.928Z</time></trkpt><trkpt lat="44.000082841594924" lon="10.862840606643008"><ele>596.0</ele><time>2026-04-05T13:30:52.928Z</time></trkpt><trkpt lat="44.00000306114204" lon="10.862805056293366"><ele>596.0</ele><time>2026-04-05T13:30:55.928Z</time></trkpt><trkpt lat="43.99993954630032" lon="10.862759369864468"><ele>596.0</ele><time>2026-04-05T13:30:58.928Z</time></trkpt><trkpt lat="43.99987614297801" lon="10.862733739783843"><ele>596.0</ele><time>2026-04-05T13:31:01.928Z</time></trkpt><trkpt lat="43.99980471402227" lon="10.862743884640853"><ele>596.0</ele><time>2026-04-05T13:31:04.928Z</time></trkpt><trkpt lat="43.99973518250043" lon="10.86275619634764"><ele>596.0</ele><time>2026-04-05T13:31:07.928Z</time></trkpt><trkpt lat="43.99966931436025" lon="10.862798279627718"><ele>596.0</ele><time>2026-04-05T13:31:10.928Z</time></trkpt><trkpt lat="43.999609725646" lon="10.86283361989164"><ele>596.0</ele><time>2026-04-05T13:31:13.928Z</time></trkpt><trkpt lat="43.99953009262965" lon="10.862885715426863"><ele>596.0</ele><time>2026-04-05T13:31:17.928Z</time></trkpt><trkpt lat="43.999475154265" lon="10.862940249657887"><ele>596.0</ele><time>2026-04-05T13:31:20.929Z</time></trkpt><trkpt lat="43.9994310534711" lon="10.863018262801749"><ele>596.0</ele><time>2026-04-05T13:31:23.928Z</time></trkpt><trkpt lat="43.99940047762401" lon="10.863111793775033"><ele>596.0</ele><time>2026-04-05T13:31:27.929Z</time></trkpt><trkpt lat="43.999350046022826" lon="10.863201876042403"><ele>596.0</ele><time>2026-04-05T13:31:32.928Z</time></trkpt><trkpt lat="43.999290522073885" lon="10.863233605170905"><ele>596.0</ele><time>2026-04-05T13:31:34.928Z</time></trkpt><trkpt lat="43.999206806508305" lon="10.863252941923985"><ele>596.0</ele><time>2026-04-05T13:31:36.928Z</time></trkpt><trkpt lat="43.999110431899965" lon="10.863264063100576"><ele>596.0</ele><time>2026-04-05T13:31:38.928Z</time></trkpt><trkpt lat="43.999024314774324" lon="10.863279506357298"><ele>596.0</ele><time>2026-04-05T13:31:40.928Z</time></trkpt><trkpt lat="43.998957517850826" lon="10.863309740979034"><ele>598.1428571428571</ele><time>2026-04-05T13:31:43.928Z</time></trkpt><trkpt lat="43.99888651217136" lon="10.863334448654324"><ele>600.2857142857142</ele><time>2026-04-05T13:31:45.928Z</time></trkpt><trkpt lat="43.998810283435105" lon="10.863353742959825"><ele>602.4285714285714</ele><time>2026-04-05T13:31:48.928Z</time></trkpt><trkpt lat="43.99874301922017" lon="10.863375623035513"><ele>604.5714285714286</ele><time>2026-04-05T13:31:51.928Z</time></trkpt><trkpt lat="43.99866957810502" lon="10.8633898622015"><ele>606.7142857142858</ele><time>2026-04-05T13:31:54.928Z</time></trkpt><trkpt lat="43.99859270436159" lon="10.863368177037943"><ele>608.8571428571429</ele><time>2026-04-05T13:31:58.928Z</time></trkpt><trkpt lat="43.9985171500434" lon="10.863348835880053"><ele>611.0</ele><time>2026-04-05T13:32:01.928Z</time></trkpt><trkpt lat="43.998397229733456" lon="10.86335164274715"><ele>611.5</ele><time>2026-04-05T13:32:03.928Z</time></trkpt><trkpt lat="43.998330816488384" lon="10.863244918990608"><ele>612.0</ele><time>2026-04-05T13:32:06.928Z</time></trkpt><trkpt lat="43.9982961242924" lon="10.863160909256893"><ele>612.5</ele><time>2026-04-05T13:32:08.928Z</time></trkpt><trkpt lat="43.99826569424309" lon="10.86306402164869"><ele>613.0</ele><time>2026-04-05T13:32:11.928Z</time></trkpt><trkpt lat="43.99823956881676" lon="10.862982227922549"><ele>613.5</ele><time>2026-04-05T13:32:14.928Z</time></trkpt><trkpt lat="43.99819995199543" lon="10.862875921079958"><ele>614.0</ele><time>2026-04-05T13:32:18.928Z</time></trkpt><trkpt lat="43.99816141958452" lon="10.862793708008319"><ele>614.0</ele><time>2026-04-05T13:32:21.929Z</time></trkpt><trkpt lat="43.998096946225296" lon="10.862715347631601"><ele>614.0</ele><time>2026-04-05T13:32:25.929Z</time></trkpt><trkpt lat="43.998033651343945" lon="10.86266314699355"><ele>614.0</ele><time>2026-04-05T13:32:28.929Z</time></trkpt><trkpt lat="43.99795761384167" lon="10.862628139974246"><ele>614.0</ele><time>2026-04-05T13:32:32.929Z</time></trkpt><trkpt lat="43.99789510046639" lon="10.862608705609821"><ele>614.0</ele><time>2026-04-05T13:32:36.929Z</time></trkpt><trkpt lat="43.99781343985884" lon="10.862576530276723"><ele>614.0</ele><time>2026-04-05T13:32:40.929Z</time></trkpt><trkpt lat="43.99775468198063" lon="10.862534466812848"><ele>614.1666666666666</ele><time>2026-04-05T13:32:42.929Z</time></trkpt><trkpt lat="43.99769607943238" lon="10.862480188843346"><ele>614.3333333333333</ele><time>2026-04-05T13:32:44.929Z</time></trkpt><trkpt lat="43.99764410370786" lon="10.86241643766307"><ele>614.5</ele><time>2026-04-05T13:32:46.929Z</time></trkpt><trkpt lat="43.997596174253125" lon="10.862302319783801"><ele>614.6666666666666</ele><time>2026-04-05T13:32:49.929Z</time></trkpt><trkpt lat="43.99756241203303" lon="10.862207972246583"><ele>614.8333333333334</ele><time>2026-04-05T13:32:51.929Z</time></trkpt><trkpt lat="43.997528871772445" lon="10.862110592432268"><ele>615.0</ele><time>2026-04-05T13:32:53.929Z</time></trkpt><trkpt lat="43.99749835324263" lon="10.862022084140998"><ele>615.0</ele><time>2026-04-05T13:32:55.929Z</time></trkpt><trkpt lat="43.997435958259224" lon="10.861935950778408"><ele>615.0</ele><time>2026-04-05T13:32:58.929Z</time></trkpt><trkpt lat="43.99739681728446" lon="10.861848923992733"><ele>615.0</ele><time>2026-04-05T13:33:01.929Z</time></trkpt><trkpt lat="43.99734553893723" lon="10.861763802010307"><ele>615.0</ele><time>2026-04-05T13:33:04.929Z</time></trkpt><trkpt lat="43.99729818970921" lon="10.861665601156657"><ele>615.0</ele><time>2026-04-05T13:33:07.929Z</time></trkpt><trkpt lat="43.997258772639114" lon="10.86159645947403"><ele>615.0</ele><time>2026-04-05T13:33:09.929Z</time></trkpt><trkpt lat="43.99720924810145" lon="10.861518603291996"><ele>618.7142857142857</ele><time>2026-04-05T13:33:12.929Z</time></trkpt><trkpt lat="43.99716276243583" lon="10.861447673675903"><ele>622.4285714285714</ele><time>2026-04-05T13:33:14.929Z</time></trkpt><trkpt lat="43.99711469057629" lon="10.861378102587748"><ele>626.1428571428571</ele><time>2026-04-05T13:33:16.929Z</time></trkpt><trkpt lat="43.99707231190794" lon="10.861304979232257"><ele>629.8571428571429</ele><time>2026-04-05T13:33:18.929Z</time></trkpt><trkpt lat="43.99701499505404" lon="10.861217221987182"><ele>633.5714285714286</ele><time>2026-04-05T13:33:21.929Z</time></trkpt><trkpt lat="43.996930732334945" lon="10.861163051249573"><ele>637.2857142857143</ele><time>2026-04-05T13:33:24.929Z</time></trkpt><trkpt lat="43.996872079438184" lon="10.861126785751386"><ele>641.0</ele><time>2026-04-05T13:33:27.929Z</time></trkpt><trkpt lat="43.99678910579258" lon="10.86110371564884"><ele>641.0</ele><time>2026-04-05T13:33:31.932Z</time></trkpt><trkpt lat="43.99671490952324" lon="10.86108724540102"><ele>641.0</ele><time>2026-04-05T13:33:35.934Z</time></trkpt><trkpt lat="43.99665040903693" lon="10.8610686819974"><ele>641.0</ele><time>2026-04-05T13:33:38.935Z</time></trkpt><trkpt lat="43.9965867024133" lon="10.861081530522549"><ele>641.0</ele><time>2026-04-05T13:33:40.935Z</time></trkpt><trkpt lat="43.99651589014965" lon="10.86108654076673"><ele>641.0</ele><time>2026-04-05T13:33:43.936Z</time></trkpt><trkpt lat="43.996434933816666" lon="10.861099630821306"><ele>641.0</ele><time>2026-04-05T13:33:46.937Z</time></trkpt><trkpt lat="43.99635601678564" lon="10.86111527699821"><ele>641.0</ele><time>2026-04-05T13:33:49.938Z</time></trkpt><trkpt lat="43.99629503674775" lon="10.86113802523933"><ele>636.5</ele><time>2026-04-05T13:33:51.938Z</time></trkpt><trkpt lat="43.99621658572417" lon="10.861151262176218"><ele>632.0</ele><time>2026-04-05T13:33:54.939Z</time></trkpt><trkpt lat="43.99613394458897" lon="10.861181154294428"><ele>627.5</ele><time>2026-04-05T13:33:57.939Z</time></trkpt><trkpt lat="43.99605491033447" lon="10.861203046622466"><ele>623.0</ele><time>2026-04-05T13:34:00.939Z</time></trkpt><trkpt lat="43.99599167672214" lon="10.861226453701502"><ele>618.5</ele><time>2026-04-05T13:34:02.939Z</time></trkpt><trkpt lat="43.99592114067028" lon="10.861250202488717"><ele>614.0</ele><time>2026-04-05T13:34:05.94Z</time></trkpt><trkpt lat="43.99584668693904" lon="10.861279187196235"><ele>614.8571428571428</ele><time>2026-04-05T13:34:08.94Z</time></trkpt><trkpt lat="43.995779495611565" lon="10.861312165527686"><ele>615.7142857142857</ele><time>2026-04-05T13:34:11.94Z</time></trkpt><trkpt lat="43.9957002213532" lon="10.861344492374815"><ele>616.5714285714286</ele><time>2026-04-05T13:34:14.94Z</time></trkpt><trkpt lat="43.995630755406246" lon="10.861378350564891"><ele>617.4285714285713</ele><time>2026-04-05T13:34:17.94Z</time></trkpt><trkpt lat="43.99555587571802" lon="10.861412617142378"><ele>618.2857142857142</ele><time>2026-04-05T13:34:20.94Z</time></trkpt><trkpt lat="43.99548829070385" lon="10.861445740965909"><ele>619.1428571428571</ele><time>2026-04-05T13:34:23.941Z</time></trkpt><trkpt lat="43.99542035797368" lon="10.861476439799855"><ele>620.0</ele><time>2026-04-05T13:34:26.941Z</time></trkpt><trkpt lat="43.995343547576155" lon="10.861528591767248"><ele>620.0</ele><time>2026-04-05T13:34:30.941Z</time></trkpt><trkpt lat="43.99526980914852" lon="10.861573703742108"><ele>620.0</ele><time>2026-04-05T13:34:34.941Z</time></trkpt><trkpt lat="43.995209705526165" lon="10.861613303873623"><ele>620.0</ele><time>2026-04-05T13:34:37.941Z</time></trkpt><trkpt lat="43.995145411703" lon="10.861684423285546"><ele>620.0</ele><time>2026-04-05T13:34:41.941Z</time></trkpt><trkpt lat="43.99508104168051" lon="10.86174657854386"><ele>620.0</ele><time>2026-04-05T13:34:45.941Z</time></trkpt><trkpt lat="43.99503070975827" lon="10.86180406329729"><ele>620.0</ele><time>2026-04-05T13:34:48.941Z</time></trkpt><trkpt lat="43.99496170016158" lon="10.861876667758972"><ele>619.2857142857143</ele><time>2026-04-05T13:34:52.941Z</time></trkpt><trkpt lat="43.99490419765177" lon="10.861925581555253"><ele>618.5714285714286</ele><time>2026-04-05T13:34:55.941Z</time></trkpt><trkpt lat="43.994845414559585" lon="10.861971379637605"><ele>617.8571428571429</ele><time>2026-04-05T13:34:58.941Z</time></trkpt><trkpt lat="43.9947699745546" lon="10.862026580190607"><ele>617.1428571428571</ele><time>2026-04-05T13:35:02.941Z</time></trkpt><trkpt lat="43.99470860284697" lon="10.862066749420919"><ele>616.4285714285714</ele><time>2026-04-05T13:35:05.941Z</time></trkpt><trkpt lat="43.99464072963765" lon="10.862115208556874"><ele>615.7142857142857</ele><time>2026-04-05T13:35:09.941Z</time></trkpt><trkpt lat="43.99456392647949" lon="10.862158058983622"><ele>615.0</ele><time>2026-04-05T13:35:13.941Z</time></trkpt><trkpt lat="43.99449404070913" lon="10.862200881622616"><ele>615.0</ele><time>2026-04-05T13:35:17.941Z</time></trkpt><trkpt lat="43.9944365174345" lon="10.862240842112444"><ele>615.0</ele><time>2026-04-05T13:35:20.941Z</time></trkpt><trkpt lat="43.994355869644586" lon="10.86226182911341"><ele>615.0</ele><time>2026-04-05T13:35:24.941Z</time></trkpt><trkpt lat="43.99428277451772" lon="10.86227492901987"><ele>615.0</ele><time>2026-04-05T13:35:28.941Z</time></trkpt><trkpt lat="43.99420000106563" lon="10.862282377615422"><ele>615.0</ele><time>2026-04-05T13:35:32.941Z</time></trkpt><trkpt lat="43.9941216822996" lon="10.862312175295624"><ele>615.0</ele><time>2026-04-05T13:35:36.942Z</time></trkpt><trkpt lat="43.99405513272669" lon="10.86235214010429"><ele>612.5</ele><time>2026-04-05T13:35:40.942Z</time></trkpt><trkpt lat="43.99400704266293" lon="10.862410099559618"><ele>610.0</ele><time>2026-04-05T13:35:44.942Z</time></trkpt><trkpt lat="43.99393864586873" lon="10.86247403563052"><ele>607.5</ele><time>2026-04-05T13:35:49.942Z</time></trkpt><trkpt lat="43.99388244697091" lon="10.862541667452065"><ele>605.0</ele><time>2026-04-05T13:35:53.942Z</time></trkpt><trkpt lat="43.993824071726316" lon="10.862625208789026"><ele>602.5</ele><time>2026-04-05T13:35:57.942Z</time></trkpt><trkpt lat="43.993763964351416" lon="10.862685273168251"><ele>600.0</ele><time>2026-04-05T13:36:00.942Z</time></trkpt><trkpt lat="43.99369168438387" lon="10.862753349866543"><ele>599.9999999999999</ele><time>2026-04-05T13:36:04.942Z</time></trkpt><trkpt lat="43.99361964801396" lon="10.862796056505385"><ele>600.0</ele><time>2026-04-05T13:36:07.942Z</time></trkpt><trkpt lat="43.99354212669083" lon="10.862828990183116"><ele>600.0</ele><time>2026-04-05T13:36:10.942Z</time></trkpt><trkpt lat="43.99347258186655" lon="10.86285998748696"><ele>600.0</ele><time>2026-04-05T13:36:13.942Z</time></trkpt><trkpt lat="43.993402435499725" lon="10.862883707991594"><ele>600.0</ele><time>2026-04-05T13:36:16.942Z</time></trkpt><trkpt lat="43.99333392407929" lon="10.862903702373384"><ele>599.9999999999999</ele><time>2026-04-05T13:36:19.942Z</time></trkpt><trkpt lat="43.99326238900084" lon="10.862925503293226"><ele>600.0</ele><time>2026-04-05T13:36:23.942Z</time></trkpt><trkpt lat="43.99318881815893" lon="10.862935650224989"><ele>606.0</ele><time>2026-04-05T13:36:27.942Z</time></trkpt><trkpt lat="43.993109532426125" lon="10.862934952854646"><ele>612.0</ele><time>2026-04-05T13:36:31.942Z</time></trkpt><trkpt lat="43.99303616885452" lon="10.862891712961291"><ele>618.0</ele><time>2026-04-05T13:36:35.942Z</time></trkpt><trkpt lat="43.992968785928" lon="10.862877556495866"><ele>624.0</ele><time>2026-04-05T13:36:38.942Z</time></trkpt><trkpt lat="43.9929162915655" lon="10.862805573826277"><ele>630.0</ele><time>2026-04-05T13:36:41.942Z</time></trkpt><trkpt lat="43.992900555246294" lon="10.862683176091137"><ele>636.0</ele><time>2026-04-05T13:36:43.942Z</time></trkpt><trkpt lat="43.99289425547515" lon="10.862584399418223"><ele>639.1666666666666</ele><time>2026-04-05T13:36:49.942Z</time></trkpt><trkpt lat="43.99290429091806" lon="10.86246350078192"><ele>642.3333333333334</ele><time>2026-04-05T13:36:53.942Z</time></trkpt><trkpt lat="43.992919548499664" lon="10.862354690784487"><ele>645.5</ele><time>2026-04-05T13:36:57.942Z</time></trkpt><trkpt lat="43.99294400625796" lon="10.862271355192775"><ele>648.6666666666667</ele><time>2026-04-05T13:37:00.942Z</time></trkpt><trkpt lat="43.99296736897729" lon="10.862189525592154"><ele>651.8333333333334</ele><time>2026-04-05T13:37:03.942Z</time></trkpt><trkpt lat="43.9929920769054" lon="10.862089947754932"><ele>655.0</ele><time>2026-04-05T13:37:08.943Z</time></trkpt><trkpt lat="43.99300124542544" lon="10.861972780291655"><ele>655.0</ele><time>2026-04-05T13:37:12.943Z</time></trkpt><trkpt lat="43.99301271060099" lon="10.861867705297616"><ele>655.0</ele><time>2026-04-05T13:37:15.943Z</time></trkpt><trkpt lat="43.99303018007547" lon="10.861770453826528"><ele>655.0</ele><time>2026-04-05T13:37:18.943Z</time></trkpt><trkpt lat="43.993030917757" lon="10.861653769808056"><ele>655.0</ele><time>2026-04-05T13:37:21.943Z</time></trkpt><trkpt lat="43.99303292596041" lon="10.86155453524741"><ele>655.0</ele><time>2026-04-05T13:37:23.943Z</time></trkpt><trkpt lat="43.99303737167105" lon="10.8614372944381"><ele>655.0</ele><time>2026-04-05T13:37:26.943Z</time></trkpt><trkpt lat="43.9930385598288" lon="10.86134527813419"><ele>657.1666666666667</ele><time>2026-04-05T13:37:28.943Z</time></trkpt><trkpt lat="43.99302526433442" lon="10.861225038668438"><ele>659.3333333333334</ele><time>2026-04-05T13:37:31.943Z</time></trkpt><trkpt lat="43.992997837757144" lon="10.861125632739846"><ele>661.5</ele><time>2026-04-05T13:37:34.943Z</time></trkpt><trkpt lat="43.99296617163807" lon="10.861036633651151"><ele>663.6666666666666</ele><time>2026-04-05T13:37:38.942Z</time></trkpt><trkpt lat="43.992969419157646" lon="10.86092032263809"><ele>665.8333333333333</ele><time>2026-04-05T13:37:40.942Z</time></trkpt><trkpt lat="43.99290850027518" lon="10.860869267328606"><ele>668.0</ele><time>2026-04-05T13:37:43.942Z</time></trkpt><trkpt lat="43.99284678382319" lon="10.860812505764457"><ele>669.5</ele><time>2026-04-05T13:37:46.942Z</time></trkpt><trkpt lat="43.99277946035372" lon="10.860756828851908"><ele>671.0</ele><time>2026-04-05T13:37:49.943Z</time></trkpt><trkpt lat="43.99272867363695" lon="10.860704615881374"><ele>672.5</ele><time>2026-04-05T13:37:51.943Z</time></trkpt><trkpt lat="43.99266485244503" lon="10.860648936510938"><ele>674.0</ele><time>2026-04-05T13:37:54.943Z</time></trkpt><trkpt lat="43.99258110713025" lon="10.860589446524738"><ele>675.5</ele><time>2026-04-05T13:37:57.943Z</time></trkpt><trkpt lat="43.992522259617736" lon="10.860539348304625"><ele>677.0</ele><time>2026-04-05T13:37:59.943Z</time></trkpt><trkpt lat="43.99245523256675" lon="10.860477887379227"><ele>673.9999999999999</ele><time>2026-04-05T13:38:01.943Z</time></trkpt><trkpt lat="43.99238920032101" lon="10.860422005625145"><ele>671.0</ele><time>2026-04-05T13:38:03.943Z</time></trkpt><trkpt lat="43.99233850044069" lon="10.860369344340302"><ele>668.0</ele><time>2026-04-05T13:38:05.943Z</time></trkpt><trkpt lat="43.99228837557853" lon="10.86030943754519"><ele>665.0</ele><time>2026-04-05T13:38:07.943Z</time></trkpt><trkpt lat="43.99221285486491" lon="10.86026660960981"><ele>662.0</ele><time>2026-04-05T13:38:10.943Z</time></trkpt><trkpt lat="43.992142525865596" lon="10.86024723363241"><ele>658.9999999999999</ele><time>2026-04-05T13:38:13.943Z</time></trkpt><trkpt lat="43.99207278344091" lon="10.86022851464095"><ele>656.0</ele><time>2026-04-05T13:38:16.943Z</time></trkpt><trkpt lat="43.99201028940978" lon="10.86021174116008"><ele>655.9999999999999</ele><time>2026-04-05T13:38:19.943Z</time></trkpt><trkpt lat="43.99194331337989" lon="10.860193763908434"><ele>656.0</ele><time>2026-04-05T13:38:22.943Z</time></trkpt><trkpt lat="43.99186333690612" lon="10.860152742789946"><ele>656.0</ele><time>2026-04-05T13:38:26.943Z</time></trkpt><trkpt lat="43.99182627575374" lon="10.860052483979564"><ele>656.0</ele><time>2026-04-05T13:38:30.943Z</time></trkpt><trkpt lat="43.99179865521654" lon="10.859963672943199"><ele>656.0</ele><time>2026-04-05T13:38:32.943Z</time></trkpt><trkpt lat="43.99178926121263" lon="10.859870441960322"><ele>655.9999999999999</ele><time>2026-04-05T13:38:34.943Z</time></trkpt><trkpt lat="43.99174263155439" lon="10.859796444714547"><ele>656.0</ele><time>2026-04-05T13:38:37.943Z</time></trkpt><trkpt lat="43.9916988016474" lon="10.859711669373612"><ele>656.6666666666666</ele><time>2026-04-05T13:38:41.943Z</time></trkpt><trkpt lat="43.99164125425095" lon="10.8596463573708"><ele>657.3333333333333</ele><time>2026-04-05T13:38:44.943Z</time></trkpt><trkpt lat="43.99156660098645" lon="10.859610889151448"><ele>658.0</ele><time>2026-04-05T13:38:48.943Z</time></trkpt><trkpt lat="43.991496275886874" lon="10.859565034784533"><ele>658.6666666666666</ele><time>2026-04-05T13:38:52.943Z</time></trkpt><trkpt lat="43.99142125503197" lon="10.859515903292623"><ele>659.3333333333334</ele><time>2026-04-05T13:38:55.943Z</time></trkpt><trkpt lat="43.99136210909958" lon="10.859484400610423"><ele>660.0</ele><time>2026-04-05T13:38:58.943Z</time></trkpt><trkpt lat="43.99128621626576" lon="10.859434441157195"><ele>660.0000000000001</ele><time>2026-04-05T13:39:01.943Z</time></trkpt><trkpt lat="43.99123984493811" lon="10.859354737331627"><ele>660.0</ele><time>2026-04-05T13:39:04.943Z</time></trkpt><trkpt lat="43.99124719585027" lon="10.85925870789904"><ele>660.0</ele><time>2026-04-05T13:39:09.943Z</time></trkpt><trkpt lat="43.99122930286077" lon="10.859173078538573"><ele>660.0</ele><time>2026-04-05T13:39:15.943Z</time></trkpt><trkpt lat="43.991264674712305" lon="10.859081178950607"><ele>660.0</ele><time>2026-04-05T13:39:21.943Z</time></trkpt><trkpt lat="43.9913116522125" lon="10.859022906335843"><ele>660.0000000000001</ele><time>2026-04-05T13:39:25.943Z</time></trkpt><trkpt lat="43.99137984321907" lon="10.85896665729306"><ele>660.0</ele><time>2026-04-05T13:39:30.943Z</time></trkpt><trkpt lat="43.99143194900607" lon="10.858907830060652"><ele>661.8333333333334</ele><time>2026-04-05T13:39:34.943Z</time></trkpt><trkpt lat="43.99149134932779" lon="10.858859656584682"><ele>663.6666666666666</ele><time>2026-04-05T13:39:38.944Z</time></trkpt><trkpt lat="43.9915530604964" lon="10.858814875420716"><ele>665.5</ele><time>2026-04-05T13:39:42.943Z</time></trkpt><trkpt lat="43.99162467552641" lon="10.858746914347902"><ele>667.3333333333333</ele><time>2026-04-05T13:39:46.943Z</time></trkpt><trkpt lat="43.99169706052772" lon="10.85869273728404"><ele>669.1666666666666</ele><time>2026-04-05T13:39:50.943Z</time></trkpt><trkpt lat="43.9917693487047" lon="10.858650409393439"><ele>671.0</ele><time>2026-04-05T13:39:54.943Z</time></trkpt><trkpt lat="43.99183979634146" lon="10.85861844816705"><ele>671.8571428571428</ele><time>2026-04-05T13:39:57.943Z</time></trkpt><trkpt lat="43.99190784102876" lon="10.858580856266482"><ele>672.7142857142858</ele><time>2026-04-05T13:40:01.943Z</time></trkpt><trkpt lat="43.991980935998136" lon="10.858538061865978"><ele>673.5714285714286</ele><time>2026-04-05T13:40:05.943Z</time></trkpt><trkpt lat="43.99205690665736" lon="10.858507606820512"><ele>674.4285714285713</ele><time>2026-04-05T13:40:09.943Z</time></trkpt><trkpt lat="43.99212387656676" lon="10.858480939490676"><ele>675.2857142857142</ele><time>2026-04-05T13:40:13.943Z</time></trkpt><trkpt lat="43.99219298017663" lon="10.85844723500253"><ele>676.1428571428571</ele><time>2026-04-05T13:40:17.943Z</time></trkpt><trkpt lat="43.992260646536344" lon="10.858417969130114"><ele>677.0</ele><time>2026-04-05T13:40:21.943Z</time></trkpt><trkpt lat="43.992329270293304" lon="10.858380360610164"><ele>676.9999999999999</ele><time>2026-04-05T13:40:25.943Z</time></trkpt><trkpt lat="43.992384553949" lon="10.858324640169846"><ele>677.0</ele><time>2026-04-05T13:40:29.943Z</time></trkpt><trkpt lat="43.99244510483252" lon="10.858280976326414"><ele>677.0</ele><time>2026-04-05T13:40:33.943Z</time></trkpt><trkpt lat="43.99250818031019" lon="10.858255800460912"><ele>677.0</ele><time>2026-04-05T13:40:36.943Z</time></trkpt><trkpt lat="43.99257022473163" lon="10.858217252631684"><ele>677.0</ele><time>2026-04-05T13:40:39.943Z</time></trkpt><trkpt lat="43.9926475142005" lon="10.858186367607216"><ele>676.9999999999999</ele><time>2026-04-05T13:40:42.943Z</time></trkpt><trkpt lat="43.99271214038065" lon="10.858151280581081"><ele>677.0</ele><time>2026-04-05T13:40:45.943Z</time></trkpt><trkpt lat="43.9927886623561" lon="10.85810954615262"><ele>679.2857142857142</ele><time>2026-04-05T13:40:49.943Z</time></trkpt><trkpt lat="43.992856740247866" lon="10.858078920971758"><ele>681.5714285714286</ele><time>2026-04-05T13:40:53.943Z</time></trkpt><trkpt lat="43.99292629056962" lon="10.858040897243267"><ele>683.8571428571429</ele><time>2026-04-05T13:40:57.943Z</time></trkpt><trkpt lat="43.992989766364836" lon="10.857997930020282"><ele>686.1428571428571</ele><time>2026-04-05T13:41:00.943Z</time></trkpt><trkpt lat="43.993061306519444" lon="10.857968530139017"><ele>688.4285714285714</ele><time>2026-04-05T13:41:04.943Z</time></trkpt><trkpt lat="43.993133679153786" lon="10.857941465470926"><ele>690.7142857142857</ele><time>2026-04-05T13:41:08.943Z</time></trkpt><trkpt lat="43.99320509246172" lon="10.857906424443383"><ele>693.0</ele><time>2026-04-05T13:41:13.943Z</time></trkpt><trkpt lat="43.993265342178645" lon="10.857877985452038"><ele>696.7142857142857</ele><time>2026-04-05T13:41:16.943Z</time></trkpt><trkpt lat="43.99334317449105" lon="10.857846291454777"><ele>700.4285714285714</ele><time>2026-04-05T13:41:20.943Z</time></trkpt><trkpt lat="43.99340319891294" lon="10.857819290780352"><ele>704.1428571428571</ele><time>2026-04-05T13:41:23.943Z</time></trkpt><trkpt lat="43.99347650681859" lon="10.857789296907855"><ele>707.8571428571429</ele><time>2026-04-05T13:41:27.943Z</time></trkpt><trkpt lat="43.99354119434492" lon="10.857761864008443"><ele>711.5714285714286</ele><time>2026-04-05T13:41:30.943Z</time></trkpt><trkpt lat="43.99360665643796" lon="10.857730212009661"><ele>715.2857142857142</ele><time>2026-04-05T13:41:33.943Z</time></trkpt><trkpt lat="43.993676102158055" lon="10.85770173040516"><ele>719.0</ele><time>2026-04-05T13:41:37.943Z</time></trkpt><trkpt lat="43.993762802926895" lon="10.857678860004876"><ele>718.9999999999999</ele><time>2026-04-05T13:41:41.944Z</time></trkpt><trkpt lat="43.99384669372453" lon="10.85765148557966"><ele>719.0</ele><time>2026-04-05T13:41:45.944Z</time></trkpt><trkpt lat="43.99392003776892" lon="10.85763158789486"><ele>719.0</ele><time>2026-04-05T13:41:49.943Z</time></trkpt><trkpt lat="43.99398528422906" lon="10.857619047083563"><ele>719.0</ele><time>2026-04-05T13:41:52.943Z</time></trkpt><trkpt lat="43.99405353203538" lon="10.85759100819891"><ele>719.0</ele><time>2026-04-05T13:41:56.944Z</time></trkpt><trkpt lat="43.994118620745525" lon="10.857591544643306"><ele>718.9999999999999</ele><time>2026-04-05T13:41:59.943Z</time></trkpt><trkpt lat="43.99419056534539" lon="10.857587927661669"><ele>719.0</ele><time>2026-04-05T13:42:03.944Z</time></trkpt><trkpt lat="43.99425383781284" lon="10.85757715413204"><ele>718.1666666666666</ele><time>2026-04-05T13:42:06.944Z</time></trkpt><trkpt lat="43.994318664873695" lon="10.857579532911581"><ele>717.3333333333333</ele><time>2026-04-05T13:42:09.944Z</time></trkpt><trkpt lat="43.99439506982833" lon="10.857583059981161"><ele>716.5</ele><time>2026-04-05T13:42:13.944Z</time></trkpt><trkpt lat="43.99447242727954" lon="10.857578074680616"><ele>715.6666666666666</ele><time>2026-04-05T13:42:18.944Z</time></trkpt><trkpt lat="43.994553041327066" lon="10.857543038343106"><ele>714.8333333333334</ele><time>2026-04-05T13:42:23.944Z</time></trkpt><trkpt lat="43.99464162555749" lon="10.857514090252726"><ele>714.0</ele><time>2026-04-05T13:42:28.944Z</time></trkpt><trkpt lat="43.99470404896272" lon="10.857464810021352"><ele>714.0</ele><time>2026-04-05T13:42:32.944Z</time></trkpt><trkpt lat="43.994761152037896" lon="10.857403713545361"><ele>714.0</ele><time>2026-04-05T13:42:36.944Z</time></trkpt><trkpt lat="43.99482884019533" lon="10.857355586705937"><ele>714.0</ele><time>2026-04-05T13:42:40.944Z</time></trkpt><trkpt lat="43.99489025259741" lon="10.857336139284238"><ele>714.0</ele><time>2026-04-05T13:42:43.944Z</time></trkpt><trkpt lat="43.994956324661466" lon="10.857328900703985"><ele>714.0</ele><time>2026-04-05T13:42:46.944Z</time></trkpt><trkpt lat="43.995019364823186" lon="10.85732573966283"><ele>714.0</ele><time>2026-04-05T13:42:49.944Z</time></trkpt><trkpt lat="43.99510134117684" lon="10.857299124099104"><ele>714.0</ele><time>2026-04-05T13:42:54.944Z</time></trkpt><trkpt lat="43.99516845488533" lon="10.857277493048331"><ele>717.2857142857143</ele><time>2026-04-05T13:42:57.944Z</time></trkpt><trkpt lat="43.995232945293694" lon="10.857236574180547"><ele>720.5714285714286</ele><time>2026-04-05T13:43:01.944Z</time></trkpt><trkpt lat="43.99530121457508" lon="10.857209282120245"><ele>723.8571428571429</ele><time>2026-04-05T13:43:05.944Z</time></trkpt><trkpt lat="43.9953720607003" lon="10.857176399355962"><ele>727.1428571428571</ele><time>2026-04-05T13:43:09.944Z</time></trkpt><trkpt lat="43.9954399677013" lon="10.857135314836007"><ele>730.4285714285714</ele><time>2026-04-05T13:43:13.944Z</time></trkpt><trkpt lat="43.99550130286274" lon="10.857084858319226"><ele>733.7142857142858</ele><time>2026-04-05T13:43:17.944Z</time></trkpt><trkpt lat="43.99556162637878" lon="10.857034628982051"><ele>737.0</ele><time>2026-04-05T13:43:21.944Z</time></trkpt><trkpt lat="43.99562640808191" lon="10.856982313912011"><ele>737.0000000000001</ele><time>2026-04-05T13:43:26.944Z</time></trkpt><trkpt lat="43.99568214997578" lon="10.856936017069259"><ele>737.0</ele><time>2026-04-05T13:43:29.944Z</time></trkpt><trkpt lat="43.995748769918094" lon="10.856879118883922"><ele>737.0</ele><time>2026-04-05T13:43:33.944Z</time></trkpt><trkpt lat="43.99580451227223" lon="10.856835321765292"><ele>737.0</ele><time>2026-04-05T13:43:36.944Z</time></trkpt><trkpt lat="43.99586640559496" lon="10.856792596892307"><ele>737.0</ele><time>2026-04-05T13:43:39.944Z</time></trkpt><trkpt lat="43.99592371921294" lon="10.856743388535804"><ele>737.0000000000001</ele><time>2026-04-05T13:43:42.944Z</time></trkpt><trkpt lat="43.99599868448452" lon="10.856690132566406"><ele>737.0</ele><time>2026-04-05T13:43:46.944Z</time></trkpt><trkpt lat="43.99606312667971" lon="10.856637351991518"><ele>737.2857142857143</ele><time>2026-04-05T13:43:50.944Z</time></trkpt><trkpt lat="43.99613246884904" lon="10.856595019060109"><ele>737.5714285714286</ele><time>2026-04-05T13:43:54.944Z</time></trkpt><trkpt lat="43.99619334685228" lon="10.856558287083395"><ele>737.8571428571429</ele><time>2026-04-05T13:43:58.944Z</time></trkpt><trkpt lat="43.99625909857452" lon="10.856511677283049"><ele>738.1428571428571</ele><time>2026-04-05T13:44:02.944Z</time></trkpt><trkpt lat="43.9963197985255" lon="10.8564556037591"><ele>738.4285714285714</ele><time>2026-04-05T13:44:06.945Z</time></trkpt><trkpt lat="43.996380873126746" lon="10.856403113068438"><ele>738.7142857142858</ele><time>2026-04-05T13:44:10.945Z</time></trkpt><trkpt lat="43.996451719340975" lon="10.856345901892706"><ele>739.0</ele><time>2026-04-05T13:44:14.945Z</time></trkpt><trkpt lat="43.99651722949717" lon="10.856280339802305"><ele>739.0</ele><time>2026-04-05T13:44:18.945Z</time></trkpt><trkpt lat="43.99657715931314" lon="10.856238355018531"><ele>739.0</ele><time>2026-04-05T13:44:21.945Z</time></trkpt><trkpt lat="43.99663880499132" lon="10.856211175836116"><ele>739.0</ele><time>2026-04-05T13:44:24.945Z</time></trkpt><trkpt lat="43.9966984892044" lon="10.856171879753612"><ele>739.0</ele><time>2026-04-05T13:44:28.945Z</time></trkpt><trkpt lat="43.996762733186394" lon="10.85613012650982"><ele>739.0</ele><time>2026-04-05T13:44:32.945Z</time></trkpt><trkpt lat="43.9968250564159" lon="10.856087658997513"><ele>739.0</ele><time>2026-04-05T13:44:36.945Z</time></trkpt><trkpt lat="43.99688296356917" lon="10.856028644130733"><ele>739.0</ele><time>2026-04-05T13:44:40.945Z</time></trkpt><trkpt lat="43.99694029689477" lon="10.85597451408847"><ele>740.1428571428571</ele><time>2026-04-05T13:44:44.945Z</time></trkpt><trkpt lat="43.99700282440904" lon="10.855895922334094"><ele>741.2857142857143</ele><time>2026-04-05T13:44:49.945Z</time></trkpt><trkpt lat="43.997065312996426" lon="10.855862794533268"><ele>742.4285714285713</ele><time>2026-04-05T13:44:52.945Z</time></trkpt><trkpt lat="43.997123096816466" lon="10.855810230444208"><ele>743.5714285714286</ele><time>2026-04-05T13:44:56.945Z</time></trkpt><trkpt lat="43.99717571561908" lon="10.855755455788794"><ele>744.7142857142857</ele><time>2026-04-05T13:45:00.945Z</time></trkpt><trkpt lat="43.99724049866508" lon="10.855692530104593"><ele>745.8571428571428</ele><time>2026-04-05T13:45:05.945Z</time></trkpt><trkpt lat="43.99729571201196" lon="10.855635459468052"><ele>747.0</ele><time>2026-04-05T13:45:10.945Z</time></trkpt><trkpt lat="43.997353720678674" lon="10.855575955794142"><ele>746.9999999999999</ele><time>2026-04-05T13:45:15.945Z</time></trkpt><trkpt lat="43.99740611065239" lon="10.855516602956769"><ele>747.0</ele><time>2026-04-05T13:45:21.945Z</time></trkpt><trkpt lat="43.997457478302216" lon="10.85544885324917"><ele>747.0</ele><time>2026-04-05T13:45:25.945Z</time></trkpt><trkpt lat="43.99750643478967" lon="10.855367544088189"><ele>747.0</ele><time>2026-04-05T13:45:29.945Z</time></trkpt><trkpt lat="43.997544349372475" lon="10.855296354866002"><ele>747.0</ele><time>2026-04-05T13:45:32.945Z</time></trkpt><trkpt lat="43.99759337650747" lon="10.85522757500501"><ele>746.9999999999999</ele><time>2026-04-05T13:45:35.945Z</time></trkpt><trkpt lat="43.99763230942861" lon="10.85515767209765"><ele>747.0</ele><time>2026-04-05T13:45:38.945Z</time></trkpt><trkpt lat="43.99767238772543" lon="10.855062118358681"><ele>749.9999999999999</ele><time>2026-04-05T13:45:42.945Z</time></trkpt><trkpt lat="43.997706326318394" lon="10.85497497668825"><ele>753.0</ele><time>2026-04-05T13:45:47.945Z</time></trkpt><trkpt lat="43.99774041187279" lon="10.854891854280893"><ele>756.0</ele><time>2026-04-05T13:45:50.945Z</time></trkpt><trkpt lat="43.99777880481608" lon="10.85481379158881"><ele>759.0</ele><time>2026-04-05T13:45:54.945Z</time></trkpt><trkpt lat="43.997827673828816" lon="10.854753116705021"><ele>762.0</ele><time>2026-04-05T13:45:58.945Z</time></trkpt><trkpt lat="43.99780114758768" lon="10.854848606327602"><ele>764.9999999999999</ele><time>2026-04-05T13:46:09.945Z</time></trkpt><trkpt lat="43.99776523909266" lon="10.854937420395496"><ele>768.0</ele><time>2026-04-05T13:46:16.945Z</time></trkpt><trkpt lat="43.99772565577588" lon="10.85503131385876"><ele>767.9999999999999</ele><time>2026-04-05T13:46:22.945Z</time></trkpt><trkpt lat="43.99768903259434" lon="10.855118137246201"><ele>768.0</ele><time>2026-04-05T13:46:28.945Z</time></trkpt><trkpt lat="43.99770087370948" lon="10.855205006931707"><ele>768.0</ele><time>2026-04-05T13:46:32.945Z</time></trkpt><trkpt lat="43.99774362621524" lon="10.855310451990638"><ele>768.0</ele><time>2026-04-05T13:46:36.945Z</time></trkpt><trkpt lat="43.997735390263195" lon="10.855416255394772"><ele>768.0</ele><time>2026-04-05T13:46:41.945Z</time></trkpt><trkpt lat="43.99773047480446" lon="10.855514787523505"><ele>767.9999999999999</ele><time>2026-04-05T13:46:46.945Z</time></trkpt><trkpt lat="43.99770327936111" lon="10.855610042493744"><ele>768.0</ele><time>2026-04-05T13:46:51.945Z</time></trkpt><trkpt lat="43.99768925172705" lon="10.855706452226201"><ele>769.2857142857142</ele><time>2026-04-05T13:46:55.945Z</time></trkpt><trkpt lat="43.99766244963568" lon="10.855792976221961"><ele>770.5714285714286</ele><time>2026-04-05T13:46:59.945Z</time></trkpt><trkpt lat="43.99764884219507" lon="10.855896318714922"><ele>771.8571428571429</ele><time>2026-04-05T13:47:04.945Z</time></trkpt><trkpt lat="43.99765430022846" lon="10.855987813639064"><ele>773.1428571428571</ele><time>2026-04-05T13:47:07.945Z</time></trkpt><trkpt lat="43.99764830077438" lon="10.85609470485904"><ele>774.4285714285714</ele><time>2026-04-05T13:47:12.945Z</time></trkpt><trkpt lat="43.997672242629534" lon="10.856178825161852"><ele>775.7142857142857</ele><time>2026-04-05T13:47:16.945Z</time></trkpt><trkpt lat="43.99768410465991" lon="10.856267266937483"><ele>777.0</ele><time>2026-04-05T13:47:21.945Z</time></trkpt><trkpt lat="43.997661721501416" lon="10.856362665875023"><ele>777.0</ele><time>2026-04-05T13:47:25.945Z</time></trkpt><trkpt lat="43.99764396458462" lon="10.856447345228629"><ele>777.0</ele><time>2026-04-05T13:47:28.945Z</time></trkpt><trkpt lat="43.997670018790885" lon="10.856552471250723"><ele>777.0</ele><time>2026-04-05T13:47:32.945Z</time></trkpt><trkpt lat="43.997695178673204" lon="10.85663936707347"><ele>777.0</ele><time>2026-04-05T13:47:35.945Z</time></trkpt><trkpt lat="43.997724433201014" lon="10.856725436575374"><ele>777.0</ele><time>2026-04-05T13:47:38.945Z</time></trkpt><trkpt lat="43.99776963725" lon="10.856821004337354"><ele>777.0</ele><time>2026-04-05T13:47:40.946Z</time></trkpt><trkpt lat="43.9978362563849" lon="10.856904414628566"><ele>775.0</ele><time>2026-04-05T13:47:43.946Z</time></trkpt><trkpt lat="43.99789566902712" lon="10.856948792501582"><ele>773.0</ele><time>2026-04-05T13:47:46.946Z</time></trkpt><trkpt lat="43.997949958925844" lon="10.857027656291647"><ele>771.0</ele><time>2026-04-05T13:47:49.946Z</time></trkpt><trkpt lat="43.997995787214116" lon="10.857148984316254"><ele>769.0</ele><time>2026-04-05T13:47:52.946Z</time></trkpt><trkpt lat="43.99803419138451" lon="10.857245480696024"><ele>767.0</ele><time>2026-04-05T13:47:55.946Z</time></trkpt><trkpt lat="43.99806138138116" lon="10.857371700966395"><ele>765.0</ele><time>2026-04-05T13:47:58.946Z</time></trkpt><trkpt lat="43.998078963934816" lon="10.857467839337794"><ele>765.0</ele><time>2026-04-05T13:48:00.946Z</time></trkpt><trkpt lat="43.998084437101085" lon="10.857579407966735"><ele>765.0</ele><time>2026-04-05T13:48:02.946Z</time></trkpt><trkpt lat="43.99809467520059" lon="10.85771823721138"><ele>765.0</ele><time>2026-04-05T13:48:04.946Z</time></trkpt><trkpt lat="43.99808431334253" lon="10.85782176392984"><ele>765.0</ele><time>2026-04-05T13:48:05.946Z</time></trkpt><trkpt lat="43.998072192407726" lon="10.85791708743662"><ele>765.0</ele><time>2026-04-05T13:48:07.946Z</time></trkpt><trkpt lat="43.99806948417274" lon="10.858017181221804"><ele>765.0</ele><time>2026-04-05T13:48:10.946Z</time></trkpt><trkpt lat="43.99808302125434" lon="10.858121854718151"><ele>764.1428571428572</ele><time>2026-04-05T13:48:14.946Z</time></trkpt><trkpt lat="43.99809444802859" lon="10.858224198901151"><ele>763.2857142857143</ele><time>2026-04-05T13:48:18.946Z</time></trkpt><trkpt lat="43.99811822881569" lon="10.858309033711453"><ele>762.4285714285714</ele><time>2026-04-05T13:48:21.946Z</time></trkpt><trkpt lat="43.99815114996648" lon="10.858407237805874"><ele>761.5714285714287</ele><time>2026-04-05T13:48:25.946Z</time></trkpt><trkpt lat="43.99818724426361" lon="10.858505880157514"><ele>760.7142857142857</ele><time>2026-04-05T13:48:28.946Z</time></trkpt><trkpt lat="43.998210365869916" lon="10.858589901333145"><ele>759.8571428571429</ele><time>2026-04-05T13:48:31.946Z</time></trkpt><trkpt lat="43.99823486914473" lon="10.858687220717346"><ele>759.0</ele><time>2026-04-05T13:48:34.946Z</time></trkpt><trkpt lat="43.998260504032785" lon="10.858794347183617"><ele>760.5</ele><time>2026-04-05T13:48:37.946Z</time></trkpt><trkpt lat="43.99830891536938" lon="10.858887404013776"><ele>762.0</ele><time>2026-04-05T13:48:39.946Z</time></trkpt><trkpt lat="43.99835268866167" lon="10.858978402732799"><ele>763.5</ele><time>2026-04-05T13:48:41.946Z</time></trkpt><trkpt lat="43.99840761012931" lon="10.859064791539932"><ele>765.0</ele><time>2026-04-05T13:48:43.946Z</time></trkpt><trkpt lat="43.9984684665609" lon="10.85914271215889"><ele>766.5</ele><time>2026-04-05T13:48:45.946Z</time></trkpt><trkpt lat="43.9985353508216" lon="10.859200905253319"><ele>768.0</ele><time>2026-04-05T13:48:47.946Z</time></trkpt><trkpt lat="43.99858118414166" lon="10.859265995692796"><ele>761.0</ele><time>2026-04-05T13:48:49.946Z</time></trkpt><trkpt lat="43.99865498106483" lon="10.859314145056388"><ele>754.0</ele><time>2026-04-05T13:48:51.946Z</time></trkpt><trkpt lat="43.99874106533788" lon="10.85937592084255"><ele>747.0</ele><time>2026-04-05T13:48:53.946Z</time></trkpt><trkpt lat="43.998826687003415" lon="10.85944157435204"><ele>740.0</ele><time>2026-04-05T13:48:55.946Z</time></trkpt><trkpt lat="43.99891456690093" lon="10.859520333272034"><ele>733.0</ele><time>2026-04-05T13:48:58.946Z</time></trkpt><trkpt lat="43.99899636442037" lon="10.85959644824149"><ele>733.0</ele><time>2026-04-05T13:49:00.946Z</time></trkpt><trkpt lat="43.99906183992608" lon="10.859651337160644"><ele>733.0</ele><time>2026-04-05T13:49:02.946Z</time></trkpt><trkpt lat="43.999140573610184" lon="10.859682780062663"><ele>733.0</ele><time>2026-04-05T13:49:04.946Z</time></trkpt><trkpt lat="43.99921870052285" lon="10.859704707363178"><ele>733.0</ele><time>2026-04-05T13:49:06.946Z</time></trkpt><trkpt lat="43.999317347292255" lon="10.859704193908785"><ele>733.0</ele><time>2026-04-05T13:49:08.946Z</time></trkpt><trkpt lat="43.99939834806605" lon="10.859692594699819"><ele>733.0</ele><time>2026-04-05T13:49:10.946Z</time></trkpt><trkpt lat="43.99948026751549" lon="10.859651672466928"><ele>732.1666666666667</ele><time>2026-04-05T13:49:12.946Z</time></trkpt><trkpt lat="43.99954057782732" lon="10.859607700686796"><ele>731.3333333333334</ele><time>2026-04-05T13:49:14.946Z</time></trkpt><trkpt lat="43.99961023906787" lon="10.859524138403447"><ele>730.5</ele><time>2026-04-05T13:49:16.946Z</time></trkpt><trkpt lat="43.999670984383286" lon="10.8594478773698"><ele>729.6666666666666</ele><time>2026-04-05T13:49:19.946Z</time></trkpt><trkpt lat="43.999738348287465" lon="10.859394062311681"><ele>728.8333333333333</ele><time>2026-04-05T13:49:23.946Z</time></trkpt><trkpt lat="43.999802181399765" lon="10.859375373073506"><ele>728.0</ele><time>2026-04-05T13:49:27.946Z</time></trkpt><trkpt lat="43.9998853311083" lon="10.85935265645691"><ele>728.0</ele><time>2026-04-05T13:50:47.906Z</time></trkpt><trkpt lat="43.99988025645712" lon="10.859255866027551"><ele>728.0</ele><time>2026-04-05T13:50:57.906Z</time></trkpt><trkpt lat="43.999936686035" lon="10.85915453973877"><ele>728.0</ele><time>2026-04-05T13:51:08.906Z</time></trkpt><trkpt lat="43.99990367378776" lon="10.859243652124817"><ele>728.0</ele><time>2026-04-05T13:52:32.905Z</time></trkpt><trkpt lat="43.99997005855535" lon="10.859227359557378"><ele>728.0</ele><time>2026-04-05T13:54:40.904Z</time></trkpt><trkpt lat="43.9999049585444" lon="10.859253115406947"><ele>728.0</ele><time>2026-04-05T13:54:47.904Z</time></trkpt><trkpt lat="43.99984895435497" lon="10.8593023175929"><ele>728.0</ele><time>2026-04-05T13:54:54.904Z</time></trkpt><trkpt lat="43.99983004654077" lon="10.859392340271102"><ele>728.0</ele><time>2026-04-05T13:55:00.904Z</time></trkpt><trkpt lat="43.999801403584655" lon="10.859472683579552"><ele>728.0</ele><time>2026-04-05T13:55:06.904Z</time></trkpt><trkpt lat="43.99975681576688" lon="10.85955129983943"><ele>728.0</ele><time>2026-04-05T13:55:11.904Z</time></trkpt><trkpt lat="43.99968444625037" lon="10.859615921866347"><ele>728.0</ele><time>2026-04-05T13:55:16.904Z</time></trkpt><trkpt lat="43.99962710442961" lon="10.85965988691869"><ele>728.0</ele><time>2026-04-05T13:55:20.904Z</time></trkpt><trkpt lat="43.99955458456354" lon="10.85968217376143"><ele>728.0</ele><time>2026-04-05T13:55:24.904Z</time></trkpt><trkpt lat="43.99948517254982" lon="10.859711900457992"><ele>728.0</ele><time>2026-04-05T13:55:28.904Z</time></trkpt><trkpt lat="43.9994210538881" lon="10.859710042149006"><ele>728.0</ele><time>2026-04-05T13:55:31.904Z</time></trkpt><trkpt lat="43.99935157157914" lon="10.859703346127391"><ele>728.0</ele><time>2026-04-05T13:55:34.904Z</time></trkpt><trkpt lat="43.99926802916181" lon="10.859679452207397"><ele>728.0</ele><time>2026-04-05T13:55:38.904Z</time></trkpt><trkpt lat="43.99919001392466" lon="10.859656006822398"><ele>728.0</ele><time>2026-04-05T13:55:42.904Z</time></trkpt><trkpt lat="43.99912422752561" lon="10.859637082479198"><ele>728.0</ele><time>2026-04-05T13:55:46.904Z</time></trkpt><trkpt lat="43.99905835162686" lon="10.8596076407274"><ele>728.0</ele><time>2026-04-05T13:55:50.904Z</time></trkpt><trkpt lat="43.99898228157961" lon="10.859581054049032"><ele>728.8333333333333</ele><time>2026-04-05T13:55:55.904Z</time></trkpt><trkpt lat="43.998915405633866" lon="10.859549887134818"><ele>729.6666666666666</ele><time>2026-04-05T13:55:59.904Z</time></trkpt><trkpt lat="43.99883930194185" lon="10.859520666664558"><ele>730.5</ele><time>2026-04-05T13:56:03.904Z</time></trkpt><trkpt lat="43.99876739447022" lon="10.859494169711235"><ele>731.3333333333334</ele><time>2026-04-05T13:56:07.904Z</time></trkpt><trkpt lat="43.99870096070937" lon="10.859447532482703"><ele>732.1666666666667</ele><time>2026-04-05T13:56:11.904Z</time></trkpt><trkpt lat="43.998632685955755" lon="10.859401177408007"><ele>733.0</ele><time>2026-04-05T13:56:15.904Z</time></trkpt><trkpt lat="43.99855628973761" lon="10.859347889958476"><ele>735.2857142857142</ele><time>2026-04-05T13:56:19.904Z</time></trkpt><trkpt lat="43.99849515501538" lon="10.859277040653012"><ele>737.5714285714286</ele><time>2026-04-05T13:56:23.904Z</time></trkpt><trkpt lat="43.99845033158422" lon="10.859211349993812"><ele>739.8571428571429</ele><time>2026-04-05T13:56:26.904Z</time></trkpt><trkpt lat="43.99841187686785" lon="10.859116740006343"><ele>742.1428571428571</ele><time>2026-04-05T13:56:31.903Z</time></trkpt><trkpt lat="43.99837390799039" lon="10.859033175190042"><ele>744.4285714285714</ele><time>2026-04-05T13:56:36.903Z</time></trkpt><trkpt lat="43.998334572174166" lon="10.858942998717332"><ele>746.7142857142857</ele><time>2026-04-05T13:56:41.903Z</time></trkpt><trkpt lat="43.99830088801476" lon="10.85884884740588"><ele>749.0</ele><time>2026-04-05T13:56:45.903Z</time></trkpt><trkpt lat="43.99827652876174" lon="10.858765888557292"><ele>749.0</ele><time>2026-04-05T13:56:48.903Z</time></trkpt><trkpt lat="43.99827153897081" lon="10.858662768301025"><ele>749.0</ele><time>2026-04-05T13:56:52.903Z</time></trkpt><trkpt lat="43.998272646045024" lon="10.858522442529825"><ele>749.0</ele><time>2026-04-05T13:56:56.903Z</time></trkpt><trkpt lat="43.99826321872295" lon="10.858416188068793"><ele>749.0</ele><time>2026-04-05T13:56:59.903Z</time></trkpt><trkpt lat="43.99825736854199" lon="10.858278331788789"><ele>749.0</ele><time>2026-04-05T13:57:01.903Z</time></trkpt><trkpt lat="43.99827464680696" lon="10.858179292039326"><ele>749.0</ele><time>2026-04-05T13:57:03.903Z</time></trkpt><trkpt lat="43.99826837127782" lon="10.858089685045027"><ele>750.4285714285714</ele><time>2026-04-05T13:57:06.903Z</time></trkpt><trkpt lat="43.99825515299096" lon="10.857993554899975"><ele>751.8571428571429</ele><time>2026-04-05T13:57:10.903Z</time></trkpt><trkpt lat="43.99825743108134" lon="10.85789914914314"><ele>753.2857142857142</ele><time>2026-04-05T13:57:14.903Z</time></trkpt><trkpt lat="43.9982506078891" lon="10.857803620841494"><ele>754.7142857142858</ele><time>2026-04-05T13:57:18.903Z</time></trkpt><trkpt lat="43.998232540117996" lon="10.85770669108015"><ele>756.1428571428571</ele><time>2026-04-05T13:57:22.903Z</time></trkpt><trkpt lat="43.998225275345426" lon="10.857604790464558"><ele>757.5714285714286</ele><time>2026-04-05T13:57:26.903Z</time></trkpt><trkpt lat="43.99820017915543" lon="10.857503533616747"><ele>759.0</ele><time>2026-04-05T13:57:30.903Z</time></trkpt><trkpt lat="43.99816093682032" lon="10.857400152663198"><ele>760.0</ele><time>2026-04-05T13:57:35.903Z</time></trkpt><trkpt lat="43.99811243199267" lon="10.857335911299115"><ele>761.0</ele><time>2026-04-05T13:57:41.903Z</time></trkpt><trkpt lat="43.9980504605817" lon="10.857292064448293"><ele>762.0</ele><time>2026-04-05T13:57:46.903Z</time></trkpt><trkpt lat="43.997996167640025" lon="10.857222481081648"><ele>763.0</ele><time>2026-04-05T13:57:50.903Z</time></trkpt><trkpt lat="43.997948860148554" lon="10.85713301205585"><ele>764.0</ele><time>2026-04-05T13:57:54.903Z</time></trkpt><trkpt lat="43.99789815009054" lon="10.85704436742094"><ele>765.0</ele><time>2026-04-05T13:57:59.903Z</time></trkpt><trkpt lat="43.99784238861527" lon="10.856964291983955"><ele>765.0000000000001</ele><time>2026-04-05T13:58:03.903Z</time></trkpt><trkpt lat="43.99779130313976" lon="10.856877730239633"><ele>765.0</ele><time>2026-04-05T13:58:07.903Z</time></trkpt><trkpt lat="43.99775081195777" lon="10.856785839896672"><ele>765.0</ele><time>2026-04-05T13:58:11.903Z</time></trkpt><trkpt lat="43.997757385577586" lon="10.856689350005125"><ele>765.0</ele><time>2026-04-05T13:58:16.903Z</time></trkpt><trkpt lat="43.9978076207903" lon="10.856621651266"><ele>765.0</ele><time>2026-04-05T13:58:21.903Z</time></trkpt><trkpt lat="43.99786406329845" lon="10.856556928679582"><ele>765.0000000000001</ele><time>2026-04-05T13:58:26.903Z</time></trkpt><trkpt lat="43.997909604961" lon="10.856489341591372"><ele>765.0</ele><time>2026-04-05T13:58:30.903Z</time></trkpt><trkpt lat="43.99797567919047" lon="10.856476293174083"><ele>766.7142857142858</ele><time>2026-04-05T13:58:35.903Z</time></trkpt><trkpt lat="43.99804061845723" lon="10.85649057650698"><ele>768.4285714285714</ele><time>2026-04-05T13:58:42.903Z</time></trkpt><trkpt lat="43.998114072534364" lon="10.856516153929181"><ele>770.1428571428571</ele><time>2026-04-05T13:58:47.903Z</time></trkpt><trkpt lat="43.998179392309545" lon="10.85655777670121"><ele>771.8571428571429</ele><time>2026-04-05T13:58:53.903Z</time></trkpt><trkpt lat="43.99824761128912" lon="10.856585921744871"><ele>773.5714285714286</ele><time>2026-04-05T13:58:58.903Z</time></trkpt><trkpt lat="43.99830914585841" lon="10.856609334455381"><ele>775.2857142857143</ele><time>2026-04-05T13:59:03.903Z</time></trkpt><trkpt lat="43.99838357860825" lon="10.856638197497535"><ele>777.0</ele><time>2026-04-05T13:59:08.903Z</time></trkpt><trkpt lat="43.99844055438511" lon="10.856676340255317"><ele>779.2857142857143</ele><time>2026-04-05T13:59:12.903Z</time></trkpt><trkpt lat="43.99849968087107" lon="10.85672309441677"><ele>781.5714285714286</ele><time>2026-04-05T13:59:17.903Z</time></trkpt><trkpt lat="43.998548642397004" lon="10.856782032616824"><ele>783.8571428571429</ele><time>2026-04-05T13:59:23.903Z</time></trkpt><trkpt lat="43.998602904943965" lon="10.85684439458328"><ele>786.1428571428571</ele><time>2026-04-05T13:59:27.903Z</time></trkpt><trkpt lat="43.998633385608386" lon="10.856939337697076"><ele>788.4285714285714</ele><time>2026-04-05T13:59:32.903Z</time></trkpt><trkpt lat="43.99865751544503" lon="10.857037274994232"><ele>790.7142857142858</ele><time>2026-04-05T13:59:37.903Z</time></trkpt><trkpt lat="43.99869088786887" lon="10.857112260057056"><ele>793.0</ele><time>2026-04-05T13:59:41.903Z</time></trkpt><trkpt lat="43.99873893250626" lon="10.857191714780619"><ele>792.9999999999999</ele><time>2026-04-05T13:59:46.903Z</time></trkpt><trkpt lat="43.99878483434323" lon="10.857254486798771"><ele>793.0</ele><time>2026-04-05T13:59:51.903Z</time></trkpt><trkpt lat="43.99883438685665" lon="10.857317886924703"><ele>793.0</ele><time>2026-04-05T13:59:55.903Z</time></trkpt><trkpt lat="43.9988827491237" lon="10.857388448794628"><ele>793.0</ele><time>2026-04-05T13:59:59.903Z</time></trkpt><trkpt lat="43.9989353825436" lon="10.857441470950546"><ele>792.9999999999999</ele><time>2026-04-05T14:00:03.903Z</time></trkpt><trkpt lat="43.99899240668896" lon="10.8575000331363"><ele>793.0</ele><time>2026-04-05T14:00:08.903Z</time></trkpt><trkpt lat="43.999117474566766" lon="10.857547866187161"><ele>794.4999999999999</ele><time>2026-04-05T14:01:12.903Z</time></trkpt><trkpt lat="43.99922333167779" lon="10.85764639682844"><ele>796.0</ele><time>2026-04-05T14:05:21.9Z</time></trkpt><trkpt lat="43.9992874029839" lon="10.857666607558793"><ele>797.5</ele><time>2026-04-05T14:05:25.9Z</time></trkpt><trkpt lat="43.999360988977585" lon="10.85768563716807"><ele>799.0</ele><time>2026-04-05T14:05:29.897Z</time></trkpt><trkpt lat="43.999438576814924" lon="10.857666894711175"><ele>800.4999999999999</ele><time>2026-04-05T14:05:34.89Z</time></trkpt><trkpt lat="43.999503437437255" lon="10.85762985189387"><ele>802.0</ele><time>2026-04-05T14:05:39.885Z</time></trkpt><trkpt lat="43.9995723288903" lon="10.857579900453365"><ele>801.9999999999999</ele><time>2026-04-05T14:05:43.882Z</time></trkpt><trkpt lat="43.99963561346569" lon="10.857510184501887"><ele>802.0</ele><time>2026-04-05T14:05:46.88Z</time></trkpt><trkpt lat="43.9996858557616" lon="10.85744688793456"><ele>802.0</ele><time>2026-04-05T14:05:50.878Z</time></trkpt><trkpt lat="43.99975675275574" lon="10.857351393097984"><ele>802.0</ele><time>2026-04-05T14:05:54.876Z</time></trkpt><trkpt lat="43.99983103994357" lon="10.8573287957051"><ele>801.9999999999999</ele><time>2026-04-05T14:05:57.875Z</time></trkpt><trkpt lat="43.99990820023333" lon="10.857331714113945"><ele>802.0</ele><time>2026-04-05T14:06:01.874Z</time></trkpt><trkpt lat="43.99998220404313" lon="10.857307200379612"><ele>801.9999999999999</ele><time>2026-04-05T14:06:05.874Z</time></trkpt><trkpt lat="44.000052574014994" lon="10.8572872710464"><ele>802.0</ele><time>2026-04-05T14:06:09.873Z</time></trkpt><trkpt lat="44.00013710941839" lon="10.857263964146613"><ele>802.0</ele><time>2026-04-05T14:06:13.873Z</time></trkpt><trkpt lat="44.00020889967757" lon="10.857242994197593"><ele>802.0</ele><time>2026-04-05T14:06:17.872Z</time></trkpt><trkpt lat="44.0002744579493" lon="10.85721532121268"><ele>801.9999999999999</ele><time>2026-04-05T14:06:20.872Z</time></trkpt><trkpt lat="44.00034805691755" lon="10.857178580972368"><ele>802.0</ele><time>2026-04-05T14:06:23.872Z</time></trkpt><trkpt lat="44.0004085720006" lon="10.85712128451302"><ele>802.0</ele><time>2026-04-05T14:06:26.872Z</time></trkpt><trkpt lat="44.000425948088235" lon="10.857033563282965"><ele>802.0</ele><time>2026-04-05T14:06:29.872Z</time></trkpt><trkpt lat="44.00043514731012" lon="10.856936770291139"><ele>802.0</ele><time>2026-04-05T14:06:34.871Z</time></trkpt><trkpt lat="44.00045591547067" lon="10.856845574992247"><ele>802.0</ele><time>2026-04-05T14:06:38.871Z</time></trkpt><trkpt lat="44.000466677697865" lon="10.856735960211104"><ele>802.0</ele><time>2026-04-05T14:06:42.871Z</time></trkpt><trkpt lat="44.00047359594411" lon="10.856627527547632"><ele>802.0</ele><time>2026-04-05T14:06:46.871Z</time></trkpt><trkpt lat="44.00048769034149" lon="10.856514188148568"><ele>802.0</ele><time>2026-04-05T14:06:51.871Z</time></trkpt><trkpt lat="44.00050306102667" lon="10.856424479020784"><ele>804.0</ele><time>2026-04-05T14:06:55.871Z</time></trkpt><trkpt lat="44.00051315272928" lon="10.856336231212207"><ele>806.0</ele><time>2026-04-05T14:06:59.999Z</time></trkpt><trkpt lat="44.00051925123659" lon="10.856238576213348"><ele>808.0</ele><time>2026-04-05T14:07:03.999Z</time></trkpt><trkpt lat="44.000504446742106" lon="10.8561423486861"><ele>810.0</ele><time>2026-04-05T14:07:07.999Z</time></trkpt><trkpt lat="44.000450579883285" lon="10.856086741645536"><ele>812.0</ele><time>2026-04-05T14:07:17.999Z</time></trkpt><trkpt lat="44.00038104987885" lon="10.856079223437382"><ele>814.0</ele><time>2026-04-05T14:07:20.999Z</time></trkpt><trkpt lat="44.00032336181187" lon="10.856122846992156"><ele>816.0</ele><time>2026-04-05T14:07:25Z</time></trkpt><trkpt lat="44.000251299098565" lon="10.856135616888176"><ele>816.0</ele><time>2026-04-05T14:07:30Z</time></trkpt><trkpt lat="44.000188137033845" lon="10.85614071404638"><ele>816.0</ele><time>2026-04-05T14:07:33Z</time></trkpt><trkpt lat="44.000121921159646" lon="10.85614236730328"><ele>816.0</ele><time>2026-04-05T14:07:36Z</time></trkpt><trkpt lat="44.000047936313436" lon="10.856108110385168"><ele>816.0</ele><time>2026-04-05T14:07:40Z</time></trkpt><trkpt lat="43.99998409957036" lon="10.856088555587009"><ele>816.0</ele><time>2026-04-05T14:07:43Z</time></trkpt><trkpt lat="43.99991852148246" lon="10.856068505817625"><ele>816.0</ele><time>2026-04-05T14:07:47Z</time></trkpt><trkpt lat="43.999830837174706" lon="10.856075072339076"><ele>816.0</ele><time>2026-04-05T14:07:51Z</time></trkpt><trkpt lat="43.99976009865958" lon="10.856076098724996"><ele>816.0</ele><time>2026-04-05T14:07:54Z</time></trkpt><trkpt lat="43.99968542435533" lon="10.856073760758758"><ele>816.0</ele><time>2026-04-05T14:07:57Z</time></trkpt><trkpt lat="43.99962879927504" lon="10.855990388129655"><ele>816.0</ele><time>2026-04-05T14:08:01Z</time></trkpt><trkpt lat="43.99960049643948" lon="10.85590918987736"><ele>816.0</ele><time>2026-04-05T14:08:06Z</time></trkpt><trkpt lat="43.99960423091176" lon="10.855817647063017"><ele>816.0</ele><time>2026-04-05T14:08:09Z</time></trkpt><trkpt lat="43.99960509564592" lon="10.855713164669424"><ele>816.0</ele><time>2026-04-05T14:08:13.001Z</time></trkpt><trkpt lat="43.99962846371455" lon="10.855615663277234"><ele>816.0</ele><time>2026-04-05T14:08:17.001Z</time></trkpt><trkpt lat="43.99964638487395" lon="10.855526331292305"><ele>816.7142857142858</ele><time>2026-04-05T14:08:21.001Z</time></trkpt><trkpt lat="43.999688858187845" lon="10.855449156072392"><ele>817.4285714285714</ele><time>2026-04-05T14:08:26.001Z</time></trkpt><trkpt lat="43.99973544658768" lon="10.855384827846109"><ele>818.1428571428571</ele><time>2026-04-05T14:08:30.001Z</time></trkpt><trkpt lat="43.99978487887712" lon="10.855328337137506"><ele>818.8571428571429</ele><time>2026-04-05T14:08:34.001Z</time></trkpt><trkpt lat="43.99982954695814" lon="10.855259595504682"><ele>819.5714285714286</ele><time>2026-04-05T14:08:38.001Z</time></trkpt><trkpt lat="43.99989030147179" lon="10.855193429949283"><ele>820.2857142857143</ele><time>2026-04-05T14:08:42.001Z</time></trkpt><trkpt lat="43.99994426805016" lon="10.855125188763228"><ele>821.0</ele><time>2026-04-05T14:08:46.001Z</time></trkpt><trkpt lat="44.00000020968898" lon="10.855069828317145"><ele>821.0000000000001</ele><time>2026-04-05T14:08:50.001Z</time></trkpt><trkpt lat="44.000052457497695" lon="10.85500968108724"><ele>821.0</ele><time>2026-04-05T14:08:54.001Z</time></trkpt><trkpt lat="44.000114127548706" lon="10.854944443009815"><ele>821.0</ele><time>2026-04-05T14:08:58.001Z</time></trkpt><trkpt lat="44.000171991196815" lon="10.854884539750016"><ele>821.0</ele><time>2026-04-05T14:09:02.001Z</time></trkpt><trkpt lat="44.00023582865115" lon="10.854825453510713"><ele>821.0</ele><time>2026-04-05T14:09:06.001Z</time></trkpt><trkpt lat="44.000273899424" lon="10.854733873528023"><ele>821.0000000000001</ele><time>2026-04-05T14:09:10.001Z</time></trkpt><trkpt lat="44.00028540546152" lon="10.854631607057158"><ele>821.0</ele><time>2026-04-05T14:09:22Z</time></trkpt><trkpt lat="44.00025737362986" lon="10.854552360195086"><ele>821.0000000000001</ele><time>2026-04-05T14:09:25Z</time></trkpt><trkpt lat="44.000204628885626" lon="10.854469744779426"><ele>821.0</ele><time>2026-04-05T14:09:28Z</time></trkpt><trkpt lat="44.00015455551563" lon="10.85439952703476"><ele>821.0</ele><time>2026-04-05T14:09:32Z</time></trkpt><trkpt lat="44.000148704988035" lon="10.854298278246562"><ele>821.0</ele><time>2026-04-05T14:18:15.006Z</time></trkpt><trkpt lat="44.00020112945043" lon="10.854379411885514"><ele>821.0</ele><time>2026-04-05T14:19:44.007Z</time></trkpt><trkpt lat="44.00026762591641" lon="10.854365407567052"><ele>821.0000000000001</ele><time>2026-04-05T14:19:50.007Z</time></trkpt><trkpt lat="44.00029274101184" lon="10.854459293216367"><ele>821.0</ele><time>2026-04-05T14:19:56.007Z</time></trkpt><trkpt lat="44.00035230384803" lon="10.85451708230815"><ele>821.0000000000001</ele><time>2026-04-05T14:20:00.007Z</time></trkpt><trkpt lat="44.00040632146954" lon="10.854575213898668"><ele>821.0</ele><time>2026-04-05T14:20:03.007Z</time></trkpt><trkpt lat="44.00047300366072" lon="10.854558986152128"><ele>821.0</ele><time>2026-04-05T14:20:09.007Z</time></trkpt><trkpt lat="44.00053623250715" lon="10.854517551280868"><ele>821.0</ele><time>2026-04-05T14:20:16.007Z</time></trkpt><trkpt lat="44.00058673987404" lon="10.854443544093739"><ele>821.0</ele><time>2026-04-05T14:20:23.007Z</time></trkpt><trkpt lat="44.000642209532295" lon="10.854390836802773"><ele>821.0000000000001</ele><time>2026-04-05T14:20:29.007Z</time></trkpt><trkpt lat="44.000706498438" lon="10.854349652580305"><ele>821.0</ele><time>2026-04-05T14:20:34.008Z</time></trkpt><trkpt lat="44.00076006358302" lon="10.854286491099876"><ele>822.4285714285714</ele><time>2026-04-05T14:20:39.008Z</time></trkpt><trkpt lat="44.00081653409937" lon="10.854232899213693"><ele>823.8571428571429</ele><time>2026-04-05T14:20:44.008Z</time></trkpt><trkpt lat="44.00086929844315" lon="10.854184318265197"><ele>825.2857142857142</ele><time>2026-04-05T14:20:49.008Z</time></trkpt><trkpt lat="44.000931012815094" lon="10.85413223254302"><ele>826.7142857142858</ele><time>2026-04-05T14:20:54.008Z</time></trkpt><trkpt lat="44.00098531807434" lon="10.854084598228182"><ele>828.1428571428571</ele><time>2026-04-05T14:20:57.008Z</time></trkpt><trkpt lat="44.00104216951301" lon="10.854046194980013"><ele>829.5714285714286</ele><time>2026-04-05T14:21:00.008Z</time></trkpt><trkpt lat="44.001119108306824" lon="10.854005948811341"><ele>831.0</ele><time>2026-04-05T14:21:03.008Z</time></trkpt><trkpt lat="44.00118975723926" lon="10.853935470290091"><ele>831.0</ele><time>2026-04-05T14:21:06.008Z</time></trkpt><trkpt lat="44.00126452285147" lon="10.853881137282745"><ele>831.0</ele><time>2026-04-05T14:21:09.008Z</time></trkpt><trkpt lat="44.00134753694417" lon="10.853840328880315"><ele>831.0</ele><time>2026-04-05T14:21:12.008Z</time></trkpt><trkpt lat="44.0014392876551" lon="10.853807171920975"><ele>831.0</ele><time>2026-04-05T14:21:15.008Z</time></trkpt><trkpt lat="44.001512745269814" lon="10.853765369178157"><ele>831.0</ele><time>2026-04-05T14:21:18.008Z</time></trkpt><trkpt lat="44.001586137844136" lon="10.853717125486094"><ele>831.0</ele><time>2026-04-05T14:21:21.008Z</time></trkpt><trkpt lat="44.00166291260211" lon="10.853696142231403"><ele>831.9999999999999</ele><time>2026-04-05T14:21:24.008Z</time></trkpt><trkpt lat="44.00173686865772" lon="10.853679571105697"><ele>833.0</ele><time>2026-04-05T14:21:26.008Z</time></trkpt><trkpt lat="44.00181658830318" lon="10.853634205223212"><ele>834.0</ele><time>2026-04-05T14:21:29.008Z</time></trkpt><trkpt lat="44.00188283429523" lon="10.853619843490424"><ele>835.0</ele><time>2026-04-05T14:21:31.008Z</time></trkpt><trkpt lat="44.001953246443854" lon="10.853613166321837"><ele>836.0</ele><time>2026-04-05T14:21:33.008Z</time></trkpt><trkpt lat="44.0020194004739" lon="10.853581448105336"><ele>836.9999999999999</ele><time>2026-04-05T14:21:35.008Z</time></trkpt><trkpt lat="44.002056615298166" lon="10.853508548111545"><ele>838.0</ele><time>2026-04-05T14:21:38.008Z</time></trkpt><trkpt lat="44.002080865559094" lon="10.853369374339602"><ele>835.6666666666666</ele><time>2026-04-05T14:21:41.008Z</time></trkpt><trkpt lat="44.00200184118118" lon="10.853282256888765"><ele>833.3333333333333</ele><time>2026-04-05T14:21:43.008Z</time></trkpt><trkpt lat="44.001918626615726" lon="10.85322896628003"><ele>831.0</ele><time>2026-04-05T14:21:45.008Z</time></trkpt><trkpt lat="44.001859464858086" lon="10.85318637043234"><ele>828.6666666666667</ele><time>2026-04-05T14:21:47.008Z</time></trkpt><trkpt lat="44.00179647592244" lon="10.853140732829356"><ele>826.3333333333334</ele><time>2026-04-05T14:21:50.008Z</time></trkpt><trkpt lat="44.00172793150902" lon="10.853106674016317"><ele>824.0</ele><time>2026-04-05T14:21:53.008Z</time></trkpt><trkpt lat="44.00165389271971" lon="10.853102560054253"><ele>822.2857142857142</ele><time>2026-04-05T14:21:56.008Z</time></trkpt><trkpt lat="44.00158561807816" lon="10.853094066095847"><ele>820.5714285714286</ele><time>2026-04-05T14:21:59.009Z</time></trkpt><trkpt lat="44.00151451674135" lon="10.853080531336978"><ele>818.8571428571429</ele><time>2026-04-05T14:22:02.009Z</time></trkpt><trkpt lat="44.0014513155055" lon="10.853073125621187"><ele>817.1428571428571</ele><time>2026-04-05T14:22:06.009Z</time></trkpt><trkpt lat="44.001443272455994" lon="10.852985409862875"><ele>815.4285714285714</ele><time>2026-04-05T14:22:10.009Z</time></trkpt><trkpt lat="44.00149484685322" lon="10.852919503198523"><ele>813.7142857142857</ele><time>2026-04-05T14:22:16.009Z</time></trkpt><trkpt lat="44.0015525422893" lon="10.852846108108238"><ele>812.0</ele><time>2026-04-05T14:22:19.009Z</time></trkpt><trkpt lat="44.00161754700263" lon="10.85276079839425"><ele>810.6666666666667</ele><time>2026-04-05T14:22:23.009Z</time></trkpt><trkpt lat="44.001675944687314" lon="10.852717544953627"><ele>809.3333333333334</ele><time>2026-04-05T14:22:25.009Z</time></trkpt><trkpt lat="44.00173222067575" lon="10.852671940285148"><ele>808.0</ele><time>2026-04-05T14:22:27.009Z</time></trkpt><trkpt lat="44.00180766469829" lon="10.852607862897958"><ele>806.6666666666667</ele><time>2026-04-05T14:22:30.009Z</time></trkpt><trkpt lat="44.001877710946104" lon="10.85256806421535"><ele>805.3333333333334</ele><time>2026-04-05T14:22:33.009Z</time></trkpt><trkpt lat="44.001966674926415" lon="10.852532606148635"><ele>804.0</ele><time>2026-04-05T14:22:36.009Z</time></trkpt><trkpt lat="44.00204431447348" lon="10.852488686030286"><ele>804.0</ele><time>2026-04-05T14:22:39.009Z</time></trkpt><trkpt lat="44.00213357545174" lon="10.852476881290318"><ele>804.0</ele><time>2026-04-05T14:22:42.009Z</time></trkpt><trkpt lat="44.00221178640633" lon="10.852423055470595"><ele>804.0</ele><time>2026-04-05T14:22:45.009Z</time></trkpt><trkpt lat="44.002234227233025" lon="10.85233893113472"><ele>804.0</ele><time>2026-04-05T14:22:47.009Z</time></trkpt><trkpt lat="44.00219750534812" lon="10.852243882696522"><ele>804.0</ele><time>2026-04-05T14:22:49.009Z</time></trkpt><trkpt lat="44.00214859237631" lon="10.852165331827623"><ele>804.0</ele><time>2026-04-05T14:22:52.009Z</time></trkpt><trkpt lat="44.00209964885466" lon="10.852065518618993"><ele>804.0</ele><time>2026-04-05T14:22:55.009Z</time></trkpt><trkpt lat="44.00203799082669" lon="10.851987970714376"><ele>804.0</ele><time>2026-04-05T14:22:58.009Z</time></trkpt><trkpt lat="44.001982666519126" lon="10.851895093149201"><ele>804.0</ele><time>2026-04-05T14:23:01.009Z</time></trkpt><trkpt lat="44.00192497314995" lon="10.85184963064312"><ele>804.0</ele><time>2026-04-05T14:23:03.009Z</time></trkpt><trkpt lat="44.001866134146006" lon="10.851792957828092"><ele>804.0</ele><time>2026-04-05T14:23:06.009Z</time></trkpt><trkpt lat="44.001771844587346" lon="10.851778739301931"><ele>804.0</ele><time>2026-04-05T14:23:10.009Z</time></trkpt><trkpt lat="44.00169864189159" lon="10.851777895601384"><ele>799.4000000000001</ele><time>2026-04-05T14:23:14.009Z</time></trkpt><trkpt lat="44.001623361095795" lon="10.851754115245383"><ele>794.8</ele><time>2026-04-05T14:23:17.009Z</time></trkpt><trkpt lat="44.00154950891004" lon="10.851698257029383"><ele>790.2</ele><time>2026-04-05T14:23:20.009Z</time></trkpt><trkpt lat="44.00148065589994" lon="10.851631591532222"><ele>785.5999999999999</ele><time>2026-04-05T14:23:22.009Z</time></trkpt><trkpt lat="44.001386797530024" lon="10.851532951115406"><ele>781.0</ele><time>2026-04-05T14:23:24.01Z</time></trkpt><trkpt lat="44.00127576233429" lon="10.851457754839183"><ele>780.9999999999999</ele><time>2026-04-05T14:23:27.01Z</time></trkpt><trkpt lat="44.001200276054234" lon="10.851357162962847"><ele>781.0</ele><time>2026-04-05T14:23:30.01Z</time></trkpt><trkpt lat="44.001199261089624" lon="10.85124410681976"><ele>781.0</ele><time>2026-04-05T14:23:33.01Z</time></trkpt><trkpt lat="44.001232180198734" lon="10.851146588531437"><ele>781.0</ele><time>2026-04-05T14:23:38.01Z</time></trkpt><trkpt lat="44.00125154756594" lon="10.851053931825732"><ele>780.9999999999999</ele><time>2026-04-05T14:23:44.01Z</time></trkpt><trkpt lat="44.00128831364256" lon="10.850972895039337"><ele>781.0</ele><time>2026-04-05T14:23:48.01Z</time></trkpt><trkpt lat="44.001325770107236" lon="10.850865582693443"><ele>780.5714285714286</ele><time>2026-04-05T14:23:52.01Z</time></trkpt><trkpt lat="44.00135048112521" lon="10.85077810318545"><ele>780.1428571428571</ele><time>2026-04-05T14:23:55.01Z</time></trkpt><trkpt lat="44.001391978846186" lon="10.850699542257626"><ele>779.7142857142858</ele><time>2026-04-05T14:23:58.01Z</time></trkpt><trkpt lat="44.00143259466776" lon="10.850626514899654"><ele>779.2857142857142</ele><time>2026-04-05T14:24:01.01Z</time></trkpt><trkpt lat="44.00145829104932" lon="10.850529109760247"><ele>778.8571428571428</ele><time>2026-04-05T14:24:04.01Z</time></trkpt><trkpt lat="44.001459983683915" lon="10.850407159170986"><ele>778.4285714285714</ele><time>2026-04-05T14:24:08.01Z</time></trkpt><trkpt lat="44.0014514335779" lon="10.85029571490024"><ele>778.0</ele><time>2026-04-05T14:24:12.01Z</time></trkpt><trkpt lat="44.00145426038635" lon="10.850196082907154"><ele>777.7142857142858</ele><time>2026-04-05T14:24:17.01Z</time></trkpt><trkpt lat="44.0014769250647" lon="10.850096303952112"><ele>777.4285714285713</ele><time>2026-04-05T14:24:21.01Z</time></trkpt><trkpt lat="44.00149769071554" lon="10.849989461743487"><ele>777.1428571428571</ele><time>2026-04-05T14:24:25.01Z</time></trkpt><trkpt lat="44.001546499548276" lon="10.849895244173302"><ele>776.8571428571429</ele><time>2026-04-05T14:24:29.01Z</time></trkpt><trkpt lat="44.00156827192026" lon="10.849810888311866"><ele>776.5714285714287</ele><time>2026-04-05T14:24:32.01Z</time></trkpt><trkpt lat="44.00161234972843" lon="10.849722529741342"><ele>776.2857142857142</ele><time>2026-04-05T14:24:36.01Z</time></trkpt><trkpt lat="44.001650899344725" lon="10.84964523010563"><ele>776.0</ele><time>2026-04-05T14:24:40.01Z</time></trkpt><trkpt lat="44.00169573548621" lon="10.849552004625496"><ele>776.0</ele><time>2026-04-05T14:24:43.01Z</time></trkpt><trkpt lat="44.00172883468237" lon="10.849449432712403"><ele>776.0</ele><time>2026-04-05T14:24:46.01Z</time></trkpt><trkpt lat="44.001759147498426" lon="10.849328975881823"><ele>776.0</ele><time>2026-04-05T14:24:48.01Z</time></trkpt><trkpt lat="44.00178724194678" lon="10.849200268368138"><ele>776.0</ele><time>2026-04-05T14:24:50.01Z</time></trkpt><trkpt lat="44.001803601693716" lon="10.849073172185946"><ele>776.0</ele><time>2026-04-05T14:24:52.011Z</time></trkpt><trkpt lat="44.00181366445459" lon="10.848949000374128"><ele>776.1666666666667</ele><time>2026-04-05T14:24:54.011Z</time></trkpt><trkpt lat="44.001828239310775" lon="10.848835090979023"><ele>776.3333333333334</ele><time>2026-04-05T14:24:57.011Z</time></trkpt><trkpt lat="44.001835520594504" lon="10.848745278351645"><ele>776.5</ele><time>2026-04-05T14:24:59.011Z</time></trkpt><trkpt lat="44.00182592698908" lon="10.84863795543397"><ele>776.6666666666667</ele><time>2026-04-05T14:25:02.011Z</time></trkpt><trkpt lat="44.00180246152986" lon="10.848528016435784"><ele>776.8333333333334</ele><time>2026-04-05T14:25:05.011Z</time></trkpt><trkpt lat="44.00177980318596" lon="10.848425972050684"><ele>777.0</ele><time>2026-04-05T14:25:09.011Z</time></trkpt><trkpt lat="44.00177311061588" lon="10.848306617710385"><ele>777.0</ele><time>2026-04-05T14:25:12.011Z</time></trkpt><trkpt lat="44.00175401745575" lon="10.848192206348338"><ele>777.0</ele><time>2026-04-05T14:25:15.011Z</time></trkpt><trkpt lat="44.00173068464958" lon="10.84809931365056"><ele>777.0</ele><time>2026-04-05T14:25:18.011Z</time></trkpt><trkpt lat="44.001708019614455" lon="10.847986914067551"><ele>777.0</ele><time>2026-04-05T14:25:22.011Z</time></trkpt><trkpt lat="44.00168247078286" lon="10.847890212124165"><ele>777.0</ele><time>2026-04-05T14:25:26.011Z</time></trkpt><trkpt lat="44.00165768620756" lon="10.847786216083243"><ele>777.0</ele><time>2026-04-05T14:25:30.011Z</time></trkpt><trkpt lat="44.00163033880121" lon="10.847683490328954"><ele>776.5714285714286</ele><time>2026-04-05T14:25:34.011Z</time></trkpt><trkpt lat="44.00158653396339" lon="10.847606461132397"><ele>776.1428571428571</ele><time>2026-04-05T14:25:38.011Z</time></trkpt><trkpt lat="44.00155760531161" lon="10.84752715661953"><ele>775.7142857142858</ele><time>2026-04-05T14:25:41.011Z</time></trkpt><trkpt lat="44.001526746302105" lon="10.847422938043488"><ele>775.2857142857142</ele><time>2026-04-05T14:25:45.011Z</time></trkpt><trkpt lat="44.00151097869725" lon="10.847337274066724"><ele>774.8571428571429</ele><time>2026-04-05T14:25:48.011Z</time></trkpt><trkpt lat="44.001512540544894" lon="10.847221056862727"><ele>774.4285714285714</ele><time>2026-04-05T14:25:52.011Z</time></trkpt><trkpt lat="44.00150391252776" lon="10.847133056551078"><ele>774.0</ele><time>2026-04-05T14:25:56.011Z</time></trkpt><trkpt lat="44.00146844053343" lon="10.84702960619532"><ele>774.0</ele><time>2026-04-05T14:26:00.011Z</time></trkpt><trkpt lat="44.001436896851125" lon="10.846930973280685"><ele>774.0</ele><time>2026-04-05T14:26:04.011Z</time></trkpt><trkpt lat="44.00140109004918" lon="10.84684596364012"><ele>774.0</ele><time>2026-04-05T14:26:07.011Z</time></trkpt><trkpt lat="44.00134831870826" lon="10.846761708751176"><ele>774.0</ele><time>2026-04-05T14:26:11.011Z</time></trkpt><trkpt lat="44.00130943934002" lon="10.846660250987863"><ele>774.0</ele><time>2026-04-05T14:26:15.011Z</time></trkpt><trkpt lat="44.00128672797" lon="10.84657406507923"><ele>774.0</ele><time>2026-04-05T14:26:18.012Z</time></trkpt><trkpt lat="44.001285788985676" lon="10.846466348907704"><ele>774.7142857142858</ele><time>2026-04-05T14:26:22.012Z</time></trkpt><trkpt lat="44.00127340512412" lon="10.846367358638949"><ele>775.4285714285714</ele><time>2026-04-05T14:26:25.012Z</time></trkpt><trkpt lat="44.001265214944205" lon="10.84628056291458"><ele>776.1428571428571</ele><time>2026-04-05T14:26:28.012Z</time></trkpt><trkpt lat="44.001233689761484" lon="10.84618276313984"><ele>776.8571428571429</ele><time>2026-04-05T14:26:32.012Z</time></trkpt><trkpt lat="44.001196257967436" lon="10.846089822750669"><ele>777.5714285714286</ele><time>2026-04-05T14:26:35.012Z</time></trkpt><trkpt lat="44.00115866830981" lon="10.845999416014628"><ele>778.2857142857143</ele><time>2026-04-05T14:26:38.012Z</time></trkpt><trkpt lat="44.00112798017882" lon="10.845906453946723"><ele>779.0</ele><time>2026-04-05T14:26:41.012Z</time></trkpt><trkpt lat="44.00113291359624" lon="10.845781403173381"><ele>780.1666666666667</ele><time>2026-04-05T14:26:45.012Z</time></trkpt><trkpt lat="44.001135214643746" lon="10.84566409188611"><ele>781.3333333333334</ele><time>2026-04-05T14:26:50.012Z</time></trkpt><trkpt lat="44.00116261812909" lon="10.845553213087193"><ele>782.5</ele><time>2026-04-05T14:26:54.012Z</time></trkpt><trkpt lat="44.001175118883445" lon="10.845465856405879"><ele>783.6666666666667</ele><time>2026-04-05T14:26:57.012Z</time></trkpt><trkpt lat="44.0011962200497" lon="10.845362079333933"><ele>784.8333333333334</ele><time>2026-04-05T14:27:00.012Z</time></trkpt><trkpt lat="44.00122597199145" lon="10.84525666268751"><ele>786.0</ele><time>2026-04-05T14:27:04.012Z</time></trkpt><trkpt lat="44.00123369486918" lon="10.845145484139474"><ele>786.4285714285714</ele><time>2026-04-05T14:27:09.012Z</time></trkpt><trkpt lat="44.001267671018525" lon="10.845071584989288"><ele>786.8571428571429</ele><time>2026-04-05T14:27:13.012Z</time></trkpt><trkpt lat="44.00129075656876" lon="10.844979062261421"><ele>787.2857142857142</ele><time>2026-04-05T14:27:17.012Z</time></trkpt><trkpt lat="44.00130716721675" lon="10.844876929796415"><ele>787.7142857142858</ele><time>2026-04-05T14:27:21.012Z</time></trkpt><trkpt lat="44.00131132067991" lon="10.844779630448171"><ele>788.1428571428571</ele><time>2026-04-05T14:27:24.012Z</time></trkpt><trkpt lat="44.001326281051" lon="10.844671221839745"><ele>788.5714285714286</ele><time>2026-04-05T14:27:28.012Z</time></trkpt><trkpt lat="44.00133913925353" lon="10.844573908255658"><ele>789.0</ele><time>2026-04-05T14:27:32.012Z</time></trkpt><trkpt lat="44.0013556025817" lon="10.844458064385064"><ele>789.0</ele><time>2026-04-05T14:27:36.012Z</time></trkpt><trkpt lat="44.00138011770882" lon="10.844363570839064"><ele>789.0</ele><time>2026-04-05T14:27:39.012Z</time></trkpt><trkpt lat="44.00139195790822" lon="10.844275462836892"><ele>789.0</ele><time>2026-04-05T14:27:42.013Z</time></trkpt><trkpt lat="44.00143693314172" lon="10.844155961730731"><ele>789.0</ele><time>2026-04-05T14:27:46.013Z</time></trkpt><trkpt lat="44.00147705159714" lon="10.84407952680523"><ele>789.0</ele><time>2026-04-05T14:27:50.013Z</time></trkpt><trkpt lat="44.00152675642252" lon="10.84401911415912"><ele>789.0</ele><time>2026-04-05T14:27:53.013Z</time></trkpt><trkpt lat="44.001582141655916" lon="10.8439323869059"><ele>788.1666666666666</ele><time>2026-04-05T14:27:57.013Z</time></trkpt><trkpt lat="44.00160665756121" lon="10.843836375304733"><ele>787.3333333333333</ele><time>2026-04-05T14:28:00.013Z</time></trkpt><trkpt lat="44.00156715137326" lon="10.843747597856856"><ele>786.5</ele><time>2026-04-05T14:28:03.013Z</time></trkpt><trkpt lat="44.0015303255965" lon="10.843642610611688"><ele>785.6666666666666</ele><time>2026-04-05T14:28:06.013Z</time></trkpt><trkpt lat="44.001493516556366" lon="10.84356195842611"><ele>784.8333333333333</ele><time>2026-04-05T14:28:09.013Z</time></trkpt><trkpt lat="44.00144509409147" lon="10.84345541383637"><ele>784.0</ele><time>2026-04-05T14:28:12.013Z</time></trkpt><trkpt lat="44.00141436507581" lon="10.843332812229242"><ele>782.0</ele><time>2026-04-05T14:28:15.013Z</time></trkpt><trkpt lat="44.00139267061595" lon="10.843226805882765"><ele>780.0</ele><time>2026-04-05T14:28:17.013Z</time></trkpt><trkpt lat="44.001358256241" lon="10.843086675864724"><ele>778.0</ele><time>2026-04-05T14:28:19.013Z</time></trkpt><trkpt lat="44.00136450564206" lon="10.842996923799719"><ele>776.0</ele><time>2026-04-05T14:28:20.013Z</time></trkpt><trkpt lat="44.001331135551965" lon="10.84287493245305"><ele>774.0</ele><time>2026-04-05T14:28:22.013Z</time></trkpt><trkpt lat="44.00128007623614" lon="10.84273780564453"><ele>773.8000000000001</ele><time>2026-04-05T14:28:24.013Z</time></trkpt><trkpt lat="44.001229084948186" lon="10.842603640272793"><ele>773.6</ele><time>2026-04-05T14:28:26.013Z</time></trkpt><trkpt lat="44.00120971330987" lon="10.842493731817045"><ele>773.4</ele><time>2026-04-05T14:28:28.013Z</time></trkpt><trkpt lat="44.001198052801676" lon="10.842373454314245"><ele>773.2</ele><time>2026-04-05T14:28:30.013Z</time></trkpt><trkpt lat="44.00122933455808" lon="10.842235888364621"><ele>773.0</ele><time>2026-04-05T14:28:33.013Z</time></trkpt><trkpt lat="44.00125330947273" lon="10.842130072221334"><ele>773.0000000000001</ele><time>2026-04-05T14:28:35.013Z</time></trkpt><trkpt lat="44.00126050767671" lon="10.842004927338868"><ele>773.0</ele><time>2026-04-05T14:28:38.013Z</time></trkpt><trkpt lat="44.001267635576866" lon="10.841894937605701"><ele>773.0</ele><time>2026-04-05T14:28:41.013Z</time></trkpt><trkpt lat="44.00129442839557" lon="10.84177434587033"><ele>773.0</ele><time>2026-04-05T14:28:44.013Z</time></trkpt><trkpt lat="44.00131747204989" lon="10.841648036602768"><ele>773.0000000000001</ele><time>2026-04-05T14:28:47.013Z</time></trkpt><trkpt lat="44.001295620945854" lon="10.841547118874113"><ele>773.0</ele><time>2026-04-05T14:28:49.013Z</time></trkpt><trkpt lat="44.00130003765801" lon="10.84142061007741"><ele>773.0000000000001</ele><time>2026-04-05T14:28:51.013Z</time></trkpt><trkpt lat="44.001297547470905" lon="10.841327042655688"><ele>773.0</ele><time>2026-04-05T14:28:53.013Z</time></trkpt><trkpt lat="44.00129732521626" lon="10.841218598140452"><ele>773.0</ele><time>2026-04-05T14:28:55.013Z</time></trkpt><trkpt lat="44.00130198296134" lon="10.84109509298345"><ele>773.0</ele><time>2026-04-05T14:28:57.013Z</time></trkpt><trkpt lat="44.00129566521803" lon="10.84099814634274"><ele>773.0000000000001</ele><time>2026-04-05T14:28:59.013Z</time></trkpt><trkpt lat="44.001289643333834" lon="10.840889874194996"><ele>773.0</ele><time>2026-04-05T14:29:01.013Z</time></trkpt><trkpt lat="44.00127691841084" lon="10.840771534169347"><ele>770.5999999999999</ele><time>2026-04-05T14:29:03.013Z</time></trkpt><trkpt lat="44.001287388141975" lon="10.840621561539717"><ele>768.1999999999999</ele><time>2026-04-05T14:29:06.013Z</time></trkpt><trkpt lat="44.001288725561714" lon="10.84046356905523"><ele>765.8</ele><time>2026-04-05T14:29:08.014Z</time></trkpt><trkpt lat="44.00128927064346" lon="10.840348306994576"><ele>763.4</ele><time>2026-04-05T14:29:10.014Z</time></trkpt><trkpt lat="44.00128065578199" lon="10.840181104196972"><ele>761.0</ele><time>2026-04-05T14:29:12.014Z</time></trkpt><trkpt lat="44.001237013016215" lon="10.840066188274402"><ele>760.3333333333333</ele><time>2026-04-05T14:29:14.014Z</time></trkpt><trkpt lat="44.001181013349395" lon="10.839966193815137"><ele>759.6666666666666</ele><time>2026-04-05T14:29:16.014Z</time></trkpt><trkpt lat="44.001127484283444" lon="10.83987101885911"><ele>759.0</ele><time>2026-04-05T14:29:19.008Z</time></trkpt><trkpt lat="44.00109358416651" lon="10.839740406348778"><ele>758.3333333333334</ele><time>2026-04-05T14:29:22.008Z</time></trkpt><trkpt lat="44.00109333030805" lon="10.83962097197902"><ele>757.6666666666667</ele><time>2026-04-05T14:29:25.008Z</time></trkpt><trkpt lat="44.00110769551096" lon="10.8395115428659"><ele>757.0</ele><time>2026-04-05T14:29:27.008Z</time></trkpt><trkpt lat="44.00109848891422" lon="10.839423532775275"><ele>757.0</ele><time>2026-04-05T14:29:29.008Z</time></trkpt><trkpt lat="44.00112598077552" lon="10.839322231649364"><ele>757.0</ele><time>2026-04-05T14:29:31.008Z</time></trkpt><trkpt lat="44.00113074615442" lon="10.839205466377374"><ele>757.0</ele><time>2026-04-05T14:29:33.008Z</time></trkpt><trkpt lat="44.001159513410606" lon="10.839105784500337"><ele>757.0</ele><time>2026-04-05T14:29:35.008Z</time></trkpt><trkpt lat="44.0011804946358" lon="10.839022770526698"><ele>757.0</ele><time>2026-04-05T14:29:37.008Z</time></trkpt><trkpt lat="44.0012352840045" lon="10.838928662741228"><ele>757.0</ele><time>2026-04-05T14:29:40.008Z</time></trkpt><trkpt lat="44.00128970247954" lon="10.838859507729664"><ele>757.1666666666667</ele><time>2026-04-05T14:29:42.008Z</time></trkpt><trkpt lat="44.00134174254155" lon="10.83877340002685"><ele>757.3333333333334</ele><time>2026-04-05T14:29:45.008Z</time></trkpt><trkpt lat="44.00139434664094" lon="10.838708394947428"><ele>757.5</ele><time>2026-04-05T14:29:47.008Z</time></trkpt><trkpt lat="44.001471746259156" lon="10.83862005306586"><ele>757.6666666666666</ele><time>2026-04-05T14:29:50.008Z</time></trkpt><trkpt lat="44.00153342515049" lon="10.83855603156257"><ele>757.8333333333333</ele><time>2026-04-05T14:29:53.008Z</time></trkpt><trkpt lat="44.00158966319656" lon="10.838467930796003"><ele>758.0</ele><time>2026-04-05T14:29:56.008Z</time></trkpt><trkpt lat="44.001644911716426" lon="10.838423271920206"><ele>759.2</ele><time>2026-04-05T14:29:58.008Z</time></trkpt><trkpt lat="44.00169357394596" lon="10.838363079196592"><ele>760.4</ele><time>2026-04-05T14:30:00.008Z</time></trkpt><trkpt lat="44.00175319447615" lon="10.838315210888721"><ele>761.6</ele><time>2026-04-05T14:30:02.008Z</time></trkpt><trkpt lat="44.001822579424456" lon="10.83825762970428"><ele>762.8000000000001</ele><time>2026-04-05T14:30:04.009Z</time></trkpt><trkpt lat="44.00190854107587" lon="10.838152547833202"><ele>764.0</ele><time>2026-04-05T14:30:06.008Z</time></trkpt><trkpt lat="44.00201293904168" lon="10.838030733667702"><ele>764.0</ele><time>2026-04-05T14:30:08.008Z</time></trkpt><trkpt lat="44.00205589778063" lon="10.837943990051395"><ele>764.0</ele><time>2026-04-05T14:30:09.008Z</time></trkpt><trkpt lat="44.00210004521002" lon="10.837859196338774"><ele>764.0</ele><time>2026-04-05T14:30:10.007Z</time></trkpt><trkpt lat="44.002143451541116" lon="10.837779095785143"><ele>764.0</ele><time>2026-04-05T14:30:11.007Z</time></trkpt><trkpt lat="44.00221565172041" lon="10.837630480661852"><ele>764.0</ele><time>2026-04-05T14:30:13.008Z</time></trkpt><trkpt lat="44.00227153211307" lon="10.837505723062932"><ele>764.5</ele><time>2026-04-05T14:30:15.008Z</time></trkpt><trkpt lat="44.002318226737806" lon="10.83741452514784"><ele>765.0</ele><time>2026-04-05T14:30:17.008Z</time></trkpt><trkpt lat="44.002384217711736" lon="10.837326382291957"><ele>765.5</ele><time>2026-04-05T14:30:19.007Z</time></trkpt><trkpt lat="44.00243657541587" lon="10.837273869299679"><ele>766.0</ele><time>2026-04-05T14:30:21.007Z</time></trkpt><trkpt lat="44.0025030056286" lon="10.837196306769366"><ele>766.5</ele><time>2026-04-05T14:30:25.008Z</time></trkpt><trkpt lat="44.00257114688091" lon="10.837130989798286"><ele>767.0</ele><time>2026-04-05T14:30:28.008Z</time></trkpt><trkpt lat="44.00263274820787" lon="10.837044793511419"><ele>767.0</ele><time>2026-04-05T14:30:32.008Z</time></trkpt><trkpt lat="44.00270131158351" lon="10.83697363291276"><ele>767.0</ele><time>2026-04-05T14:30:35.008Z</time></trkpt><trkpt lat="44.00274801363606" lon="10.836889618445099"><ele>767.0</ele><time>2026-04-05T14:30:37.008Z</time></trkpt><trkpt lat="44.00285018546612" lon="10.836865029611552"><ele>767.0</ele><time>2026-04-05T14:30:40.008Z</time></trkpt><trkpt lat="44.00293263872187" lon="10.836818005217072"><ele>767.0</ele><time>2026-04-05T14:30:42.008Z</time></trkpt><trkpt lat="44.00302671204585" lon="10.836793186081035"><ele>766.6</ele><time>2026-04-05T14:30:44.008Z</time></trkpt><trkpt lat="44.00311455963201" lon="10.836755739399988"><ele>766.2</ele><time>2026-04-05T14:30:46.008Z</time></trkpt><trkpt lat="44.00321240494248" lon="10.836705882557736"><ele>765.8</ele><time>2026-04-05T14:30:48.008Z</time></trkpt><trkpt lat="44.00332181176323" lon="10.836664208674335"><ele>765.4</ele><time>2026-04-05T14:30:50.008Z</time></trkpt><trkpt lat="44.00339271923125" lon="10.836631453461484"><ele>765.0</ele><time>2026-04-05T14:30:52.008Z</time></trkpt><trkpt lat="44.003463167913246" lon="10.836560804829627"><ele>764.0</ele><time>2026-04-05T14:30:55.008Z</time></trkpt><trkpt lat="44.003529309805536" lon="10.836523303634712"><ele>763.0</ele><time>2026-04-05T14:30:57.008Z</time></trkpt><trkpt lat="44.003605518640896" lon="10.836498852166219"><ele>762.0</ele><time>2026-04-05T14:30:59.008Z</time></trkpt><trkpt lat="44.003685528514666" lon="10.836484693432098"><ele>761.0</ele><time>2026-04-05T14:31:01.008Z</time></trkpt><trkpt lat="44.00376924279848" lon="10.836446891675456"><ele>760.0</ele><time>2026-04-05T14:31:03.008Z</time></trkpt><trkpt lat="44.00386711049263" lon="10.836420399228118"><ele>759.0</ele><time>2026-04-05T14:31:05.008Z</time></trkpt><trkpt lat="44.00395212271146" lon="10.83639908006374"><ele>759.0</ele><time>2026-04-05T14:31:07.008Z</time></trkpt><trkpt lat="44.00401667325188" lon="10.836384708314402"><ele>759.0</ele><time>2026-04-05T14:31:09.008Z</time></trkpt><trkpt lat="44.00407962316672" lon="10.836358384669893"><ele>759.0</ele><time>2026-04-05T14:31:11.008Z</time></trkpt><trkpt lat="44.00415601776661" lon="10.83633805290846"><ele>759.0</ele><time>2026-04-05T14:31:13.008Z</time></trkpt><trkpt lat="44.00422524595543" lon="10.836284950223686"><ele>759.0</ele><time>2026-04-05T14:31:15.008Z</time></trkpt><trkpt lat="44.00430884936681" lon="10.836284600448458"><ele>759.0</ele><time>2026-04-05T14:31:18.008Z</time></trkpt><trkpt lat="44.004370996253826" lon="10.836208572132039"><ele>758.8333333333334</ele><time>2026-04-05T14:31:21.008Z</time></trkpt><trkpt lat="44.00441603843399" lon="10.836117749019067"><ele>758.6666666666666</ele><time>2026-04-05T14:31:24.008Z</time></trkpt><trkpt lat="44.00447393078255" lon="10.836044475286434"><ele>758.5</ele><time>2026-04-05T14:31:27.008Z</time></trkpt><trkpt lat="44.004544308865476" lon="10.835989617904273"><ele>758.3333333333333</ele><time>2026-04-05T14:31:32.008Z</time></trkpt><trkpt lat="44.004613513790815" lon="10.83600034320668"><ele>758.1666666666666</ele><time>2026-04-05T14:31:34.008Z</time></trkpt><trkpt lat="44.00469000351113" lon="10.836005507582573"><ele>758.0</ele><time>2026-04-05T14:31:37.008Z</time></trkpt><trkpt lat="44.00475598980004" lon="10.836002846412772"><ele>758.0</ele><time>2026-04-05T14:31:39.008Z</time></trkpt><trkpt lat="44.00484544851502" lon="10.836062107456959"><ele>758.0</ele><time>2026-04-05T14:31:41.008Z</time></trkpt><trkpt lat="44.00495011488286" lon="10.83607378553208"><ele>758.0</ele><time>2026-04-05T14:31:43.008Z</time></trkpt><trkpt lat="44.00505201633714" lon="10.836093098213466"><ele>758.0</ele><time>2026-04-05T14:31:45.008Z</time></trkpt><trkpt lat="44.00515876691298" lon="10.836129531103252"><ele>758.0</ele><time>2026-04-05T14:31:47.008Z</time></trkpt><trkpt lat="44.00526215417845" lon="10.836168273289143"><ele>758.2</ele><time>2026-04-05T14:31:49.008Z</time></trkpt><trkpt lat="44.005334596064685" lon="10.836186664677461"><ele>758.4</ele><time>2026-04-05T14:31:50.009Z</time></trkpt><trkpt lat="44.005398726547014" lon="10.836207683271438"><ele>758.6</ele><time>2026-04-05T14:31:51.009Z</time></trkpt><trkpt lat="44.00550930181774" lon="10.836239878730694"><ele>758.8000000000001</ele><time>2026-04-05T14:31:53.009Z</time></trkpt><trkpt lat="44.005644066736295" lon="10.836271047147047"><ele>759.0</ele><time>2026-04-05T14:31:55.009Z</time></trkpt><trkpt lat="44.00572840378691" lon="10.836386947007197"><ele>759.0</ele><time>2026-04-05T14:31:57.009Z</time></trkpt><trkpt lat="44.005780138103056" lon="10.836517929835564"><ele>759.0</ele><time>2026-04-05T14:31:59.009Z</time></trkpt><trkpt lat="44.0057848450268" lon="10.836677153515012"><ele>759.0</ele><time>2026-04-05T14:32:01.009Z</time></trkpt><trkpt lat="44.00578743029748" lon="10.836787204924686"><ele>759.0</ele><time>2026-04-05T14:32:03.009Z</time></trkpt><trkpt lat="44.00578559719655" lon="10.836893044989566"><ele>759.0</ele><time>2026-04-05T14:32:05.009Z</time></trkpt><trkpt lat="44.00576821902032" lon="10.837006395110517"><ele>756.6</ele><time>2026-04-05T14:32:08.009Z</time></trkpt><trkpt lat="44.005757616240416" lon="10.8371066748801"><ele>754.2</ele><time>2026-04-05T14:32:10.009Z</time></trkpt><trkpt lat="44.00576208067254" lon="10.837223056207776"><ele>751.8000000000001</ele><time>2026-04-05T14:32:12.009Z</time></trkpt><trkpt lat="44.00579758944711" lon="10.837339196377524"><ele>749.4000000000001</ele><time>2026-04-05T14:32:14.008Z</time></trkpt><trkpt lat="44.00585826022503" lon="10.837491534359268"><ele>747.0</ele><time>2026-04-05T14:32:16.009Z</time></trkpt><trkpt lat="44.005858658631446" lon="10.83765012406563"><ele>747.0</ele><time>2026-04-05T14:32:18.008Z</time></trkpt><trkpt lat="44.00579391044551" lon="10.837738835314195"><ele>747.0</ele><time>2026-04-05T14:32:20.009Z</time></trkpt><trkpt lat="44.005793875275074" lon="10.83782762152046"><ele>747.0</ele><time>2026-04-05T14:32:22.009Z</time></trkpt><trkpt lat="44.00582897737927" lon="10.837906074427044"><ele>747.0</ele><time>2026-04-05T14:32:24.008Z</time></trkpt><trkpt lat="44.00583306222764" lon="10.83799875554337"><ele>747.0</ele><time>2026-04-05T14:32:27.008Z</time></trkpt><trkpt lat="44.00579888396004" lon="10.838108820730307"><ele>747.0</ele><time>2026-04-05T14:32:30.008Z</time></trkpt><trkpt lat="44.00581369538672" lon="10.83824609389424"><ele>747.0</ele><time>2026-04-05T14:32:33.008Z</time></trkpt><trkpt lat="44.0058157878673" lon="10.838351676046061"><ele>747.0</ele><time>2026-04-05T14:32:35.008Z</time></trkpt><trkpt lat="44.00582984618865" lon="10.838438444908626"><ele>747.0</ele><time>2026-04-05T14:32:37.008Z</time></trkpt><trkpt lat="44.00576224524789" lon="10.838578649857514"><ele>747.0</ele><time>2026-04-05T14:32:39.008Z</time></trkpt><trkpt lat="44.005722082943784" lon="10.838701016095529"><ele>747.0</ele><time>2026-04-05T14:32:41.008Z</time></trkpt><trkpt lat="44.00568716094378" lon="10.838787303004539"><ele>747.0</ele><time>2026-04-05T14:32:43.008Z</time></trkpt><trkpt lat="44.0056398693808" lon="10.838875531137592"><ele>752.8333333333334</ele><time>2026-04-05T14:32:47.008Z</time></trkpt><trkpt lat="44.00562930282697" lon="10.838985184765827"><ele>758.6666666666667</ele><time>2026-04-05T14:32:51.008Z</time></trkpt><trkpt lat="44.005655425127145" lon="10.839106244005551"><ele>764.5</ele><time>2026-04-05T14:32:54.008Z</time></trkpt><trkpt lat="44.005637824872586" lon="10.83920624804157"><ele>770.3333333333334</ele><time>2026-04-05T14:32:56.008Z</time></trkpt><trkpt lat="44.005624494155455" lon="10.839316180493421"><ele>776.1666666666667</ele><time>2026-04-05T14:32:58.009Z</time></trkpt><trkpt lat="44.00560815524493" lon="10.839411245114603"><ele>782.0</ele><time>2026-04-05T14:33:04.009Z</time></trkpt><trkpt lat="44.00563829290483" lon="10.839515835396293"><ele>783.6666666666667</ele><time>2026-04-05T14:33:16.009Z</time></trkpt><trkpt lat="44.00561516451499" lon="10.83960247685624"><ele>785.3333333333334</ele><time>2026-04-05T14:33:21.009Z</time></trkpt><trkpt lat="44.00559563741548" lon="10.839697941496775"><ele>787.0</ele><time>2026-04-05T14:33:25.009Z</time></trkpt><trkpt lat="44.00561781042883" lon="10.839796010409275"><ele>788.6666666666667</ele><time>2026-04-05T14:33:30.009Z</time></trkpt><trkpt lat="44.00565802282884" lon="10.839902709964443"><ele>790.3333333333334</ele><time>2026-04-05T14:33:34.009Z</time></trkpt><trkpt lat="44.00570653787829" lon="10.839991372048992"><ele>792.0</ele><time>2026-04-05T14:33:39.009Z</time></trkpt><trkpt lat="44.0057677875784" lon="10.84005606704999"><ele>787.0</ele><time>2026-04-05T14:33:43.009Z</time></trkpt><trkpt lat="44.00584398942581" lon="10.840100531214219"><ele>782.0</ele><time>2026-04-05T14:33:47.009Z</time></trkpt><trkpt lat="44.00591715640729" lon="10.840146921309508"><ele>777.0</ele><time>2026-04-05T14:33:52.009Z</time></trkpt><trkpt lat="44.00596843849503" lon="10.84022453637045"><ele>772.0</ele><time>2026-04-05T14:33:56.009Z</time></trkpt><trkpt lat="44.00601930590946" lon="10.84029027690373"><ele>767.0</ele><time>2026-04-05T14:33:59.009Z</time></trkpt><trkpt lat="44.006069028024534" lon="10.840352827566585"><ele>762.0</ele><time>2026-04-05T14:34:01.009Z</time></trkpt><trkpt lat="44.00614209790499" lon="10.840419503339588"><ele>762.0</ele><time>2026-04-05T14:34:03.009Z</time></trkpt><trkpt lat="44.006180722422265" lon="10.840499581638811"><ele>762.0</ele><time>2026-04-05T14:34:05.009Z</time></trkpt><trkpt lat="44.00618545237274" lon="10.840605056059184"><ele>762.0</ele><time>2026-04-05T14:34:07.009Z</time></trkpt><trkpt lat="44.006187099034356" lon="10.840719756951392"><ele>762.0</ele><time>2026-04-05T14:34:09.009Z</time></trkpt><trkpt lat="44.00618743685144" lon="10.840817874091485"><ele>762.0</ele><time>2026-04-05T14:34:11.009Z</time></trkpt><trkpt lat="44.00620162590205" lon="10.840959243126951"><ele>762.0</ele><time>2026-04-05T14:34:14.009Z</time></trkpt><trkpt lat="44.00616753937086" lon="10.841052852857942"><ele>761.8333333333334</ele><time>2026-04-05T14:34:17.009Z</time></trkpt><trkpt lat="44.006164288362136" lon="10.841153115329154"><ele>761.6666666666666</ele><time>2026-04-05T14:34:19.009Z</time></trkpt><trkpt lat="44.00613883178097" lon="10.841275957205891"><ele>761.5</ele><time>2026-04-05T14:34:22.009Z</time></trkpt><trkpt lat="44.00608742427828" lon="10.841380307424247"><ele>761.3333333333333</ele><time>2026-04-05T14:34:25.01Z</time></trkpt><trkpt lat="44.00612452857369" lon="10.841484455647397"><ele>761.1666666666666</ele><time>2026-04-05T14:34:28.009Z</time></trkpt><trkpt lat="44.00614328587413" lon="10.841595010699802"><ele>761.0</ele><time>2026-04-05T14:34:31.01Z</time></trkpt><trkpt lat="44.00618072309748" lon="10.841687928115292"><ele>761.0</ele><time>2026-04-05T14:34:34.01Z</time></trkpt><trkpt lat="44.006162314912594" lon="10.841786359303022"><ele>761.0</ele><time>2026-04-05T14:34:38.01Z</time></trkpt><trkpt lat="44.00612783926234" lon="10.84186932727856"><ele>761.0</ele><time>2026-04-05T14:34:40.01Z</time></trkpt><trkpt lat="44.006131898473896" lon="10.842010981443073"><ele>761.0</ele><time>2026-04-05T14:34:42.01Z</time></trkpt><trkpt lat="44.006110954255725" lon="10.842096316826371"><ele>761.0</ele><time>2026-04-05T14:34:46.01Z</time></trkpt><trkpt lat="44.0060905157066" lon="10.842199355986807"><ele>761.0</ele><time>2026-04-05T14:34:50.01Z</time></trkpt><trkpt lat="44.006065844775925" lon="10.842289151439541"><ele>758.6666666666666</ele><time>2026-04-05T14:34:55.01Z</time></trkpt><trkpt lat="44.00605274649196" lon="10.842411701048013"><ele>756.3333333333333</ele><time>2026-04-05T14:34:59.01Z</time></trkpt><trkpt lat="44.00603127661604" lon="10.842511061756701"><ele>754.0</ele><time>2026-04-05T14:35:01.01Z</time></trkpt><trkpt lat="44.005995131763946" lon="10.842586405995043"><ele>751.6666666666666</ele><time>2026-04-05T14:35:04.01Z</time></trkpt><trkpt lat="44.005939768750316" lon="10.842661204318674"><ele>749.3333333333334</ele><time>2026-04-05T14:35:06.01Z</time></trkpt><trkpt lat="44.00589688553874" lon="10.842733952892036"><ele>747.0</ele><time>2026-04-05T14:35:08.01Z</time></trkpt><trkpt lat="44.00585756098188" lon="10.842867271002705"><ele>751.0</ele><time>2026-04-05T14:35:10.01Z</time></trkpt><trkpt lat="44.005816661422" lon="10.842979870365136"><ele>755.0</ele><time>2026-04-05T14:35:12.01Z</time></trkpt><trkpt lat="44.005800612486006" lon="10.84315412957131"><ele>759.0</ele><time>2026-04-05T14:35:14.01Z</time></trkpt><trkpt lat="44.00574589908475" lon="10.843296325774649"><ele>763.0</ele><time>2026-04-05T14:35:16.01Z</time></trkpt><trkpt lat="44.005726828202555" lon="10.843443241159996"><ele>767.0</ele><time>2026-04-05T14:35:18.01Z</time></trkpt><trkpt lat="44.005735683297665" lon="10.843539072030486"><ele>767.0</ele><time>2026-04-05T14:35:20.01Z</time></trkpt><trkpt lat="44.00572397058011" lon="10.843629798223342"><ele>767.0</ele><time>2026-04-05T14:35:24.01Z</time></trkpt><trkpt lat="44.00568489920123" lon="10.843730682053252"><ele>767.0</ele><time>2026-04-05T14:35:28.01Z</time></trkpt><trkpt lat="44.00565745879595" lon="10.843816118312793"><ele>767.0</ele><time>2026-04-05T14:35:32.01Z</time></trkpt><trkpt lat="44.00565591705141" lon="10.843930345963745"><ele>767.0</ele><time>2026-04-05T14:35:36.01Z</time></trkpt><trkpt lat="44.005622003713235" lon="10.844058562544877"><ele>767.0</ele><time>2026-04-05T14:35:39.01Z</time></trkpt><trkpt lat="44.00559804024475" lon="10.844146539696176"><ele>767.0</ele><time>2026-04-05T14:35:41.01Z</time></trkpt><trkpt lat="44.00556190094968" lon="10.84424545405586"><ele>767.0</ele><time>2026-04-05T14:35:44.01Z</time></trkpt><trkpt lat="44.0055793853597" lon="10.844335392299223"><ele>767.0</ele><time>2026-04-05T14:35:46.011Z</time></trkpt><trkpt lat="44.00557179324291" lon="10.844449817161756"><ele>767.0</ele><time>2026-04-05T14:35:50.011Z</time></trkpt><trkpt lat="44.005583474320666" lon="10.844550708366555"><ele>767.0</ele><time>2026-04-05T14:35:56.011Z</time></trkpt><trkpt lat="44.005565278123456" lon="10.844640973475602"><ele>767.0</ele><time>2026-04-05T14:36:00.011Z</time></trkpt><trkpt lat="44.005583569910144" lon="10.844725051938156"><ele>767.0</ele><time>2026-04-05T14:36:07.011Z</time></trkpt><trkpt lat="44.00556205266716" lon="10.844818104698012"><ele>764.8571428571429</ele><time>2026-04-05T14:36:18.011Z</time></trkpt><trkpt lat="44.00553946075349" lon="10.844917891871567"><ele>762.7142857142858</ele><time>2026-04-05T14:36:22.011Z</time></trkpt><trkpt lat="44.005545383930574" lon="10.84501516069373"><ele>760.5714285714286</ele><time>2026-04-05T14:36:26.01Z</time></trkpt><trkpt lat="44.00553554602009" lon="10.84510938202406"><ele>758.4285714285714</ele><time>2026-04-05T14:36:29.01Z</time></trkpt><trkpt lat="44.00552872374226" lon="10.84520198767134"><ele>756.2857142857142</ele><time>2026-04-05T14:36:34.01Z</time></trkpt><trkpt lat="44.00552753648068" lon="10.845310843861183"><ele>754.1428571428571</ele><time>2026-04-05T14:36:39.011Z</time></trkpt><trkpt lat="44.00552814408557" lon="10.845399967072096"><ele>752.0</ele><time>2026-04-05T14:36:43.011Z</time></trkpt><trkpt lat="44.005541905158964" lon="10.845490493402169"><ele>751.6666666666666</ele><time>2026-04-05T14:36:47.011Z</time></trkpt><trkpt lat="44.00555799907675" lon="10.845619284776081"><ele>751.3333333333333</ele><time>2026-04-05T14:36:51.011Z</time></trkpt><trkpt lat="44.00557128343909" lon="10.84572513511374"><ele>751.0</ele><time>2026-04-05T14:36:54.011Z</time></trkpt><trkpt lat="44.005573707341604" lon="10.84581765599685"><ele>750.6666666666666</ele><time>2026-04-05T14:36:57.011Z</time></trkpt><trkpt lat="44.00555324036243" lon="10.84592104491737"><ele>750.3333333333334</ele><time>2026-04-05T14:37:04.011Z</time></trkpt><trkpt lat="44.005554534651985" lon="10.846018540543593"><ele>750.0</ele><time>2026-04-05T14:37:09.011Z</time></trkpt><trkpt lat="44.00558274583416" lon="10.846107581920474"><ele>752.0</ele><time>2026-04-05T14:37:14.011Z</time></trkpt><trkpt lat="44.00563231623275" lon="10.846184342170801"><ele>754.0</ele><time>2026-04-05T14:37:18.011Z</time></trkpt><trkpt lat="44.005678321578124" lon="10.846245557881334"><ele>756.0</ele><time>2026-04-05T14:37:22.011Z</time></trkpt><trkpt lat="44.005713945623164" lon="10.846322643033757"><ele>758.0</ele><time>2026-04-05T14:37:30.011Z</time></trkpt><trkpt lat="44.005649222305514" lon="10.846292454328214"><ele>760.0</ele><time>2026-04-05T14:37:49.011Z</time></trkpt><trkpt lat="44.005598323211885" lon="10.846225132762951"><ele>762.0</ele><time>2026-04-05T14:37:56.012Z</time></trkpt><trkpt lat="44.00557608817183" lon="10.846136007145892"><ele>764.0</ele><time>2026-04-05T14:38:02.012Z</time></trkpt><trkpt lat="44.005611903936234" lon="10.846061909883556"><ele>764.0</ele><time>2026-04-05T14:38:10.012Z</time></trkpt><trkpt lat="44.005599929197274" lon="10.845972855707352"><ele>764.0</ele><time>2026-04-05T14:38:20.012Z</time></trkpt><trkpt lat="44.00564370551122" lon="10.845908590219707"><ele>764.0</ele><time>2026-04-05T14:38:36.012Z</time></trkpt><trkpt lat="44.005684865083325" lon="10.845820161656746"><ele>764.0</ele><time>2026-04-05T14:38:42.012Z</time></trkpt><trkpt lat="44.00569371113363" lon="10.84572226360059"><ele>764.0</ele><time>2026-04-05T14:38:47.012Z</time></trkpt><trkpt lat="44.00570826694891" lon="10.845631305080682"><ele>764.0</ele><time>2026-04-05T14:38:51.012Z</time></trkpt><trkpt lat="44.005749091603306" lon="10.845726590807768"><ele>764.0</ele><time>2026-04-05T14:38:58.012Z</time></trkpt><trkpt lat="44.00577965998886" lon="10.845835619686499"><ele>761.2</ele><time>2026-04-05T14:39:01.012Z</time></trkpt><trkpt lat="44.00581391491116" lon="10.845943333087531"><ele>758.4000000000001</ele><time>2026-04-05T14:39:03.012Z</time></trkpt><trkpt lat="44.00584461301289" lon="10.846055238447349"><ele>755.6</ele><time>2026-04-05T14:39:05.012Z</time></trkpt><trkpt lat="44.005884908130064" lon="10.846193731902902"><ele>752.8</ele><time>2026-04-05T14:39:07.012Z</time></trkpt><trkpt lat="44.005923792083486" lon="10.846328956957857"><ele>750.0</ele><time>2026-04-05T14:39:09.012Z</time></trkpt><trkpt lat="44.005966868646766" lon="10.846470441412652"><ele>748.3333333333334</ele><time>2026-04-05T14:39:11.012Z</time></trkpt><trkpt lat="44.0060287244934" lon="10.84660137041492"><ele>746.6666666666666</ele><time>2026-04-05T14:39:13.012Z</time></trkpt><trkpt lat="44.00607370299203" lon="10.846665783344784"><ele>745.0</ele><time>2026-04-05T14:39:14.012Z</time></trkpt><trkpt lat="44.00617221556817" lon="10.846784063245055"><ele>743.3333333333333</ele><time>2026-04-05T14:39:16.012Z</time></trkpt><trkpt lat="44.006219629681404" lon="10.846848277385517"><ele>741.6666666666666</ele><time>2026-04-05T14:39:17.012Z</time></trkpt><trkpt lat="44.00626383398106" lon="10.846912499056362"><ele>740.0</ele><time>2026-04-05T14:39:18.012Z</time></trkpt><trkpt lat="44.00634977570742" lon="10.847041266215184"><ele>740.0</ele><time>2026-04-05T14:39:20.012Z</time></trkpt><trkpt lat="44.006431798785734" lon="10.847170492304352"><ele>740.0</ele><time>2026-04-05T14:39:22.012Z</time></trkpt><trkpt lat="44.00650186760252" lon="10.847301803522571"><ele>740.0</ele><time>2026-04-05T14:39:24.012Z</time></trkpt><trkpt lat="44.006559808490636" lon="10.847434360412938"><ele>740.0</ele><time>2026-04-05T14:39:26.012Z</time></trkpt><trkpt lat="44.00660859557743" lon="10.847558151820543"><ele>738.1666666666666</ele><time>2026-04-05T14:39:28.012Z</time></trkpt><trkpt lat="44.00664233461671" lon="10.847685487476982"><ele>736.3333333333333</ele><time>2026-04-05T14:39:30.012Z</time></trkpt><trkpt lat="44.00665835342004" lon="10.847810126440042"><ele>734.5</ele><time>2026-04-05T14:39:32.012Z</time></trkpt><trkpt lat="44.00667904219397" lon="10.84791938018505"><ele>732.6666666666666</ele><time>2026-04-05T14:39:34.012Z</time></trkpt><trkpt lat="44.006702770520185" lon="10.848035222689402"><ele>730.8333333333334</ele><time>2026-04-05T14:39:36.012Z</time></trkpt><trkpt lat="44.0067236025979" lon="10.848141922429267"><ele>729.0</ele><time>2026-04-05T14:39:38.012Z</time></trkpt><trkpt lat="44.006741255491036" lon="10.848244458252696"><ele>729.0</ele><time>2026-04-05T14:39:40.012Z</time></trkpt><trkpt lat="44.00675555025559" lon="10.848343826035608"><ele>729.0</ele><time>2026-04-05T14:39:42.012Z</time></trkpt><trkpt lat="44.00677513645763" lon="10.848440753038835"><ele>729.0</ele><time>2026-04-05T14:39:44.012Z</time></trkpt><trkpt lat="44.00680987888519" lon="10.848533509172938"><ele>729.0</ele><time>2026-04-05T14:39:46.012Z</time></trkpt><trkpt lat="44.00685413917477" lon="10.848621682312302"><ele>729.0</ele><time>2026-04-05T14:39:48.012Z</time></trkpt><trkpt lat="44.00691893404867" lon="10.848695632429333"><ele>729.0</ele><time>2026-04-05T14:39:50.012Z</time></trkpt><trkpt lat="44.00698690550773" lon="10.848763376251009"><ele>727.8000000000001</ele><time>2026-04-05T14:39:52.012Z</time></trkpt><trkpt lat="44.0070577007358" lon="10.84882202726246"><ele>726.6</ele><time>2026-04-05T14:39:54.012Z</time></trkpt><trkpt lat="44.00714200954656" lon="10.848891337918465"><ele>725.4</ele><time>2026-04-05T14:39:56.012Z</time></trkpt><trkpt lat="44.00722608927445" lon="10.848966247270198"><ele>724.2</ele><time>2026-04-05T14:39:58.013Z</time></trkpt><trkpt lat="44.00730863846157" lon="10.849037769532687"><ele>723.0</ele><time>2026-04-05T14:40:00.013Z</time></trkpt><trkpt lat="44.00739251401815" lon="10.849127418974316"><ele>723.0</ele><time>2026-04-05T14:40:02.013Z</time></trkpt><trkpt lat="44.00748614329638" lon="10.849208001079546"><ele>723.0</ele><time>2026-04-05T14:40:04.013Z</time></trkpt><trkpt lat="44.007574049479395" lon="10.849295739432208"><ele>723.0</ele><time>2026-04-05T14:40:06.013Z</time></trkpt><trkpt lat="44.007663470210495" lon="10.849382820748264"><ele>723.0</ele><time>2026-04-05T14:40:08.013Z</time></trkpt><trkpt lat="44.007758770083264" lon="10.849467154604007"><ele>723.0</ele><time>2026-04-05T14:40:10.013Z</time></trkpt><trkpt lat="44.00785341488357" lon="10.849558591515796"><ele>723.4</ele><time>2026-04-05T14:40:12.013Z</time></trkpt><trkpt lat="44.007948553959906" lon="10.849642839569741"><ele>723.8</ele><time>2026-04-05T14:40:14.013Z</time></trkpt><trkpt lat="44.00804042674253" lon="10.849730590181494"><ele>724.2</ele><time>2026-04-05T14:40:16.013Z</time></trkpt><trkpt lat="44.00813141423365" lon="10.849816332027672"><ele>724.6</ele><time>2026-04-05T14:40:18.013Z</time></trkpt><trkpt lat="44.008219003559674" lon="10.849903080669304"><ele>725.0</ele><time>2026-04-05T14:40:20.013Z</time></trkpt><trkpt lat="44.00830698797076" lon="10.84996822983781"><ele>725.2</ele><time>2026-04-05T14:40:22.013Z</time></trkpt><trkpt lat="44.00839849146282" lon="10.850043308483142"><ele>725.4</ele><time>2026-04-05T14:40:24.013Z</time></trkpt><trkpt lat="44.00848381585811" lon="10.850108387230888"><ele>725.5999999999999</ele><time>2026-04-05T14:40:26.013Z</time></trkpt><trkpt lat="44.00857576797327" lon="10.850177932270459"><ele>725.8</ele><time>2026-04-05T14:40:28.013Z</time></trkpt><trkpt lat="44.008674606897415" lon="10.850240369597312"><ele>726.0</ele><time>2026-04-05T14:40:30.013Z</time></trkpt><trkpt lat="44.00874901894061" lon="10.850327208453642"><ele>726.4</ele><time>2026-04-05T14:40:32.013Z</time></trkpt><trkpt lat="44.008830461081345" lon="10.850416271321555"><ele>726.8</ele><time>2026-04-05T14:40:34.013Z</time></trkpt><trkpt lat="44.00890935898144" lon="10.850498662839415"><ele>727.1999999999999</ele><time>2026-04-05T14:40:36.012Z</time></trkpt><trkpt lat="44.00898814590703" lon="10.850589734560154"><ele>727.5999999999999</ele><time>2026-04-05T14:40:38.012Z</time></trkpt><trkpt lat="44.009054804446926" lon="10.850694999308795"><ele>728.0</ele><time>2026-04-05T14:40:40.012Z</time></trkpt><trkpt lat="44.00912458710759" lon="10.850797948120583"><ele>727.5999999999999</ele><time>2026-04-05T14:40:42.013Z</time></trkpt><trkpt lat="44.00919690899645" lon="10.850886331092756"><ele>727.1999999999999</ele><time>2026-04-05T14:40:44.013Z</time></trkpt><trkpt lat="44.009269849612004" lon="10.850977302089177"><ele>726.8</ele><time>2026-04-05T14:40:46.012Z</time></trkpt><trkpt lat="44.00934879070803" lon="10.851061702317342"><ele>726.4</ele><time>2026-04-05T14:40:48.012Z</time></trkpt><trkpt lat="44.0094266557238" lon="10.851155300781771"><ele>726.0</ele><time>2026-04-05T14:40:50.012Z</time></trkpt><trkpt lat="44.00949469398292" lon="10.851251310195586"><ele>724.4</ele><time>2026-04-05T14:40:52.012Z</time></trkpt><trkpt lat="44.009568553216575" lon="10.851349285340339"><ele>722.8</ele><time>2026-04-05T14:40:54.012Z</time></trkpt><trkpt lat="44.009641526988005" lon="10.85145108577362"><ele>721.1999999999999</ele><time>2026-04-05T14:40:56.012Z</time></trkpt><trkpt lat="44.00969737498311" lon="10.851553168516805"><ele>719.5999999999999</ele><time>2026-04-05T14:40:58.012Z</time></trkpt><trkpt lat="44.009757199425955" lon="10.851663345462367"><ele>718.0</ele><time>2026-04-05T14:41:00.012Z</time></trkpt><trkpt lat="44.0098171520062" lon="10.851776938360608"><ele>717.8</ele><time>2026-04-05T14:41:02.012Z</time></trkpt><trkpt lat="44.00987412788273" lon="10.851888318499805"><ele>717.5999999999999</ele><time>2026-04-05T14:41:04.012Z</time></trkpt><trkpt lat="44.00992754443338" lon="10.852002947142193"><ele>717.4000000000001</ele><time>2026-04-05T14:41:06.012Z</time></trkpt><trkpt lat="44.00999016683868" lon="10.852119433107687"><ele>717.2</ele><time>2026-04-05T14:41:08.012Z</time></trkpt><trkpt lat="44.010048314021944" lon="10.852229862061307"><ele>717.0</ele><time>2026-04-05T14:41:10.012Z</time></trkpt><trkpt lat="44.01010929524589" lon="10.852342465333379"><ele>717.0</ele><time>2026-04-05T14:41:12.012Z</time></trkpt><trkpt lat="44.01016319381362" lon="10.852468405746503"><ele>717.0</ele><time>2026-04-05T14:41:14.013Z</time></trkpt><trkpt lat="44.01021368543168" lon="10.852590561219987"><ele>717.0</ele><time>2026-04-05T14:41:16.013Z</time></trkpt><trkpt lat="44.01025191715589" lon="10.85272877008285"><ele>717.0</ele><time>2026-04-05T14:41:18.013Z</time></trkpt><trkpt lat="44.01028143228232" lon="10.852863762890339"><ele>717.0</ele><time>2026-04-05T14:41:20.013Z</time></trkpt><trkpt lat="44.010319799076335" lon="10.852994417755776"><ele>716.2</ele><time>2026-04-05T14:41:22.013Z</time></trkpt><trkpt lat="44.010372871220305" lon="10.853129008385324"><ele>715.4000000000001</ele><time>2026-04-05T14:41:24.013Z</time></trkpt><trkpt lat="44.01043275634556" lon="10.853236507464597"><ele>714.5999999999999</ele><time>2026-04-05T14:41:26.013Z</time></trkpt><trkpt lat="44.01049290740133" lon="10.85334121817615"><ele>713.8</ele><time>2026-04-05T14:41:28.013Z</time></trkpt><trkpt lat="44.010561803701314" lon="10.853430682876557"><ele>713.0</ele><time>2026-04-05T14:41:30.013Z</time></trkpt><trkpt lat="44.010620185565955" lon="10.85353870905039"><ele>713.0</ele><time>2026-04-05T14:41:32.013Z</time></trkpt><trkpt lat="44.010688736491275" lon="10.853636387749571"><ele>713.0</ele><time>2026-04-05T14:41:34.013Z</time></trkpt><trkpt lat="44.01075862551355" lon="10.853727921364676"><ele>713.0</ele><time>2026-04-05T14:41:36.013Z</time></trkpt><trkpt lat="44.01082706102411" lon="10.853813770559855"><ele>713.0</ele><time>2026-04-05T14:41:38.013Z</time></trkpt><trkpt lat="44.01087387865335" lon="10.85389655279069"><ele>713.0</ele><time>2026-04-05T14:41:40.013Z</time></trkpt><trkpt lat="44.01091860725083" lon="10.853977404254868"><ele>713.0</ele><time>2026-04-05T14:41:42.013Z</time></trkpt><trkpt lat="44.01096639581333" lon="10.854073649029916"><ele>712.4</ele><time>2026-04-05T14:41:44.013Z</time></trkpt><trkpt lat="44.01101981582209" lon="10.85416905934227"><ele>711.8</ele><time>2026-04-05T14:41:46.013Z</time></trkpt><trkpt lat="44.01107851278247" lon="10.854271726237034"><ele>711.2</ele><time>2026-04-05T14:41:48.013Z</time></trkpt><trkpt lat="44.01112599724773" lon="10.85439268450913"><ele>710.6</ele><time>2026-04-05T14:41:50.013Z</time></trkpt><trkpt lat="44.011189613067494" lon="10.854517849724624"><ele>710.0</ele><time>2026-04-05T14:41:52.013Z</time></trkpt><trkpt lat="44.011240942931366" lon="10.85467557622805"><ele>709.4285714285714</ele><time>2026-04-05T14:41:54.013Z</time></trkpt><trkpt lat="44.01127451717308" lon="10.854750599164268"><ele>708.8571428571429</ele><time>2026-04-05T14:41:55.013Z</time></trkpt><trkpt lat="44.01130977903694" lon="10.854830035314803"><ele>708.2857142857142</ele><time>2026-04-05T14:41:56.013Z</time></trkpt><trkpt lat="44.01135955854695" lon="10.854903228848105"><ele>707.7142857142858</ele><time>2026-04-05T14:41:57.013Z</time></trkpt><trkpt lat="44.01139371244237" lon="10.854989155303052"><ele>707.1428571428572</ele><time>2026-04-05T14:41:58.013Z</time></trkpt><trkpt lat="44.011430193923566" lon="10.85507729266951"><ele>706.5714285714286</ele><time>2026-04-05T14:41:59.013Z</time></trkpt><trkpt lat="44.01146756317312" lon="10.855169614849324"><ele>706.0</ele><time>2026-04-05T14:42:00.013Z</time></trkpt><trkpt lat="44.01151163446391" lon="10.855261982707024"><ele>705.3333333333334</ele><time>2026-04-05T14:42:01.013Z</time></trkpt><trkpt lat="44.01155363704881" lon="10.855355315404736"><ele>704.6666666666667</ele><time>2026-04-05T14:42:02.013Z</time></trkpt><trkpt lat="44.0115969825065" lon="10.855450690879849"><ele>704.0</ele><time>2026-04-05T14:42:03.013Z</time></trkpt><trkpt lat="44.01162658927839" lon="10.855559993518817"><ele>703.3333333333334</ele><time>2026-04-05T14:42:04.013Z</time></trkpt><trkpt lat="44.01168439105669" lon="10.855650045702914"><ele>702.6666666666666</ele><time>2026-04-05T14:42:05.013Z</time></trkpt><trkpt lat="44.011715066352345" lon="10.855765716063399"><ele>702.0</ele><time>2026-04-05T14:42:06.013Z</time></trkpt><trkpt lat="44.0117705363464" lon="10.855862456197968"><ele>701.6</ele><time>2026-04-05T14:42:07.013Z</time></trkpt><trkpt lat="44.0118106794125" lon="10.855969944393141"><ele>701.2</ele><time>2026-04-05T14:42:08.013Z</time></trkpt><trkpt lat="44.01185463742719" lon="10.856080405951746"><ele>700.8</ele><time>2026-04-05T14:42:09.013Z</time></trkpt><trkpt lat="44.011879799842134" lon="10.85620296575553"><ele>700.4</ele><time>2026-04-05T14:42:10.013Z</time></trkpt><trkpt lat="44.01191906272421" lon="10.856317174769917"><ele>700.0</ele><time>2026-04-05T14:42:11.013Z</time></trkpt><trkpt lat="44.01197236559223" lon="10.856420806838699"><ele>700.0</ele><time>2026-04-05T14:42:12.013Z</time></trkpt><trkpt lat="44.01201379925112" lon="10.856536706580654"><ele>700.0</ele><time>2026-04-05T14:42:13.013Z</time></trkpt><trkpt lat="44.012060359422605" lon="10.856638667088705"><ele>700.0</ele><time>2026-04-05T14:42:14.013Z</time></trkpt><trkpt lat="44.0121166810308" lon="10.856737483083197"><ele>700.0</ele><time>2026-04-05T14:42:15.013Z</time></trkpt><trkpt lat="44.01217736086213" lon="10.85682801616563"><ele>700.0</ele><time>2026-04-05T14:42:16.013Z</time></trkpt><trkpt lat="44.012240804874146" lon="10.856905727521417"><ele>700.0</ele><time>2026-04-05T14:42:17.013Z</time></trkpt><trkpt lat="44.0123088395163" lon="10.856971187635999"><ele>699.8333333333334</ele><time>2026-04-05T14:42:18.013Z</time></trkpt><trkpt lat="44.01238066794365" lon="10.857031554776666"><ele>699.6666666666667</ele><time>2026-04-05T14:42:19.013Z</time></trkpt><trkpt lat="44.01244866586685" lon="10.857087249704762"><ele>699.5</ele><time>2026-04-05T14:42:20.013Z</time></trkpt><trkpt lat="44.01252116669363" lon="10.857131904743452"><ele>699.3333333333334</ele><time>2026-04-05T14:42:21.013Z</time></trkpt><trkpt lat="44.012582572096264" lon="10.857182949932248"><ele>699.1666666666666</ele><time>2026-04-05T14:42:22.013Z</time></trkpt><trkpt lat="44.012654562574255" lon="10.857222198686653"><ele>699.0</ele><time>2026-04-05T14:42:23.013Z</time></trkpt><trkpt lat="44.012726853522864" lon="10.857261138548589"><ele>699.0</ele><time>2026-04-05T14:42:24.013Z</time></trkpt><trkpt lat="44.01279728320707" lon="10.857301226914556"><ele>699.0</ele><time>2026-04-05T14:42:25.013Z</time></trkpt><trkpt lat="44.012857191456696" lon="10.857371740604396"><ele>699.0</ele><time>2026-04-05T14:42:26.013Z</time></trkpt><trkpt lat="44.01291890981761" lon="10.857421484239842"><ele>699.0</ele><time>2026-04-05T14:42:27.013Z</time></trkpt><trkpt lat="44.01297382381275" lon="10.857468168811431"><ele>699.0</ele><time>2026-04-05T14:42:28.013Z</time></trkpt><trkpt lat="44.01307200408202" lon="10.857561029618687"><ele>699.0</ele><time>2026-04-05T14:42:30.013Z</time></trkpt><trkpt lat="44.01313490180872" lon="10.85758851868621"><ele>699.1666666666666</ele><time>2026-04-05T14:42:31.013Z</time></trkpt><trkpt lat="44.01319017329418" lon="10.85764287910462"><ele>699.3333333333334</ele><time>2026-04-05T14:42:32.013Z</time></trkpt><trkpt lat="44.01328669844547" lon="10.857736977203931"><ele>699.5</ele><time>2026-04-05T14:42:34.013Z</time></trkpt><trkpt lat="44.013334934887816" lon="10.857794102351402"><ele>699.6666666666667</ele><time>2026-04-05T14:42:35.013Z</time></trkpt><trkpt lat="44.01342714585946" lon="10.85789509311636"><ele>699.8333333333334</ele><time>2026-04-05T14:42:37.013Z</time></trkpt><trkpt lat="44.01345300934131" lon="10.857976656964084"><ele>700.0</ele><time>2026-04-05T14:42:38.013Z</time></trkpt><trkpt lat="44.01351818647762" lon="10.858001660756347"><ele>700.0</ele><time>2026-04-05T14:42:39.013Z</time></trkpt><trkpt lat="44.013585850044116" lon="10.85812878232045"><ele>700.0</ele><time>2026-04-05T14:42:41.013Z</time></trkpt><trkpt lat="44.0136553014028" lon="10.858243685451622"><ele>700.0</ele><time>2026-04-05T14:42:43.014Z</time></trkpt><trkpt lat="44.013741486765696" lon="10.858340493878343"><ele>700.0</ele><time>2026-04-05T14:42:45.013Z</time></trkpt><trkpt lat="44.01382828707768" lon="10.858439434771464"><ele>700.0</ele><time>2026-04-05T14:42:47.014Z</time></trkpt><trkpt lat="44.01393517010948" lon="10.858515112943344"><ele>700.2</ele><time>2026-04-05T14:42:49.014Z</time></trkpt><trkpt lat="44.014037348821006" lon="10.858587239090143"><ele>700.4</ele><time>2026-04-05T14:42:51.014Z</time></trkpt><trkpt lat="44.014087919208926" lon="10.858641111399734"><ele>700.5999999999999</ele><time>2026-04-05T14:42:52.014Z</time></trkpt><trkpt lat="44.01418795400541" lon="10.858719442889539"><ele>700.8</ele><time>2026-04-05T14:42:54.013Z</time></trkpt><trkpt lat="44.014278511174446" lon="10.858797670497994"><ele>701.0</ele><time>2026-04-05T14:42:56.013Z</time></trkpt><trkpt lat="44.014334856578095" lon="10.858841187873178"><ele>700.0</ele><time>2026-04-05T14:42:57.013Z</time></trkpt><trkpt lat="44.01444068106554" lon="10.858927770455685"><ele>699.0</ele><time>2026-04-05T14:42:59.013Z</time></trkpt><trkpt lat="44.01454628826324" lon="10.85902002285683"><ele>698.0</ele><time>2026-04-05T14:43:01.013Z</time></trkpt><trkpt lat="44.0146355242636" lon="10.859123165731862"><ele>697.0</ele><time>2026-04-05T14:43:03.013Z</time></trkpt><trkpt lat="44.01472363276446" lon="10.859234913646233"><ele>697.25</ele><time>2026-04-05T14:43:05.013Z</time></trkpt><trkpt lat="44.01480135624527" lon="10.859349770753619"><ele>697.5</ele><time>2026-04-05T14:43:07.013Z</time></trkpt><trkpt lat="44.01488518813376" lon="10.85947404692785"><ele>697.75</ele><time>2026-04-05T14:43:09.013Z</time></trkpt><trkpt lat="44.014961512059074" lon="10.859601238232857"><ele>698.0</ele><time>2026-04-05T14:43:11.013Z</time></trkpt><trkpt lat="44.01503530305516" lon="10.859743680261287"><ele>698.0</ele><time>2026-04-05T14:43:13.013Z</time></trkpt><trkpt lat="44.01509625279448" lon="10.859883431494849"><ele>698.0</ele><time>2026-04-05T14:43:15.013Z</time></trkpt><trkpt lat="44.015167284469015" lon="10.860013050518123"><ele>698.0</ele><time>2026-04-05T14:43:17.013Z</time></trkpt><trkpt lat="44.015235667706236" lon="10.86014945650362"><ele>698.0</ele><time>2026-04-05T14:43:19.013Z</time></trkpt><trkpt lat="44.01529972298568" lon="10.860292765524166"><ele>696.75</ele><time>2026-04-05T14:43:21.013Z</time></trkpt><trkpt lat="44.01535870447452" lon="10.86043234676994"><ele>695.5</ele><time>2026-04-05T14:43:23.013Z</time></trkpt><trkpt lat="44.01542388248999" lon="10.86057303205409"><ele>694.25</ele><time>2026-04-05T14:43:25.013Z</time></trkpt><trkpt lat="44.015494423730274" lon="10.860711668437887"><ele>693.0</ele><time>2026-04-05T14:43:27.013Z</time></trkpt><trkpt lat="44.01555822864719" lon="10.860851843923557"><ele>693.0</ele><time>2026-04-05T14:43:29.013Z</time></trkpt><trkpt lat="44.01562890918678" lon="10.860977334959747"><ele>693.0</ele><time>2026-04-05T14:43:31.013Z</time></trkpt><trkpt lat="44.015701195407594" lon="10.86110815266738"><ele>693.0</ele><time>2026-04-05T14:43:33.013Z</time></trkpt><trkpt lat="44.015777214827295" lon="10.861230754443127"><ele>693.0</ele><time>2026-04-05T14:43:35.013Z</time></trkpt><trkpt lat="44.01585863240103" lon="10.861349917333154"><ele>693.0</ele><time>2026-04-05T14:43:37.013Z</time></trkpt><trkpt lat="44.015944848358195" lon="10.861467965730647"><ele>693.0</ele><time>2026-04-05T14:43:39.014Z</time></trkpt><trkpt lat="44.0160299991128" lon="10.861584378974305"><ele>693.0</ele><time>2026-04-05T14:43:41.014Z</time></trkpt><trkpt lat="44.0161164161087" lon="10.861701996056956"><ele>693.0</ele><time>2026-04-05T14:43:43.014Z</time></trkpt><trkpt lat="44.016192842737304" lon="10.861824143841947"><ele>694.5</ele><time>2026-04-05T14:43:45.014Z</time></trkpt><trkpt lat="44.01627557500016" lon="10.861938547560834"><ele>696.0</ele><time>2026-04-05T14:43:47.014Z</time></trkpt><trkpt lat="44.01636112441901" lon="10.862054478823113"><ele>697.5</ele><time>2026-04-05T14:43:49.014Z</time></trkpt><trkpt lat="44.01644312766622" lon="10.862167230347307"><ele>699.0</ele><time>2026-04-05T14:43:51.014Z</time></trkpt><trkpt lat="44.01651397573979" lon="10.862283844258636"><ele>699.0</ele><time>2026-04-05T14:43:53.014Z</time></trkpt><trkpt lat="44.01659834811692" lon="10.862382463461268"><ele>699.0</ele><time>2026-04-05T14:43:55.014Z</time></trkpt><trkpt lat="44.01665642007254" lon="10.862483510227257"><ele>699.0</ele><time>2026-04-05T14:43:57.014Z</time></trkpt><trkpt lat="44.01671654842057" lon="10.862581697217673"><ele>699.0</ele><time>2026-04-05T14:43:59.014Z</time></trkpt><trkpt lat="44.01678227472952" lon="10.862690379172319"><ele>699.0</ele><time>2026-04-05T14:44:01.014Z</time></trkpt><trkpt lat="44.01685189518376" lon="10.862794922004749"><ele>698.6</ele><time>2026-04-05T14:44:03.014Z</time></trkpt><trkpt lat="44.01692167933776" lon="10.862885462909237"><ele>698.2</ele><time>2026-04-05T14:44:05.014Z</time></trkpt><trkpt lat="44.016998393975676" lon="10.862998772992295"><ele>697.8000000000001</ele><time>2026-04-05T14:44:07.014Z</time></trkpt><trkpt lat="44.01708571443639" lon="10.863107148344428"><ele>697.4000000000001</ele><time>2026-04-05T14:44:09.014Z</time></trkpt><trkpt lat="44.01716815728772" lon="10.863173904009843"><ele>697.0</ele><time>2026-04-05T14:44:11.014Z</time></trkpt><trkpt lat="44.01725397969527" lon="10.863231284764526"><ele>697.0</ele><time>2026-04-05T14:44:13.014Z</time></trkpt><trkpt lat="44.01734720115354" lon="10.863305571239888"><ele>697.0</ele><time>2026-04-05T14:44:15.014Z</time></trkpt><trkpt lat="44.01741821844437" lon="10.863357970800697"><ele>697.0</ele><time>2026-04-05T14:44:17.014Z</time></trkpt><trkpt lat="44.017482688776155" lon="10.863389485789217"><ele>697.0</ele><time>2026-04-05T14:44:19.014Z</time></trkpt><trkpt lat="44.01756319947924" lon="10.863383055351198"><ele>697.0</ele><time>2026-04-05T14:44:22.014Z</time></trkpt><trkpt lat="44.01766730571511" lon="10.863360708194174"><ele>697.0</ele><time>2026-04-05T14:44:25.014Z</time></trkpt><trkpt lat="44.01777656228346" lon="10.863391261662297"><ele>697.3333333333334</ele><time>2026-04-05T14:44:27.014Z</time></trkpt><trkpt lat="44.017853805225116" lon="10.86344031526983"><ele>697.6666666666667</ele><time>2026-04-05T14:44:29.014Z</time></trkpt><trkpt lat="44.01792262065561" lon="10.863477449790027"><ele>698.0</ele><time>2026-04-05T14:44:31.014Z</time></trkpt><trkpt lat="44.01798203338854" lon="10.863527558856406"><ele>698.3333333333334</ele><time>2026-04-05T14:44:33.014Z</time></trkpt><trkpt lat="44.018053353982516" lon="10.863578386430659"><ele>698.6666666666666</ele><time>2026-04-05T14:44:34.014Z</time></trkpt><trkpt lat="44.01817648705092" lon="10.86364613296915"><ele>699.0</ele><time>2026-04-05T14:44:36.014Z</time></trkpt><trkpt lat="44.0182423355344" lon="10.863700254968494"><ele>697.8571428571428</ele><time>2026-04-05T14:44:37.014Z</time></trkpt><trkpt lat="44.018304864174674" lon="10.863733583171939"><ele>696.7142857142858</ele><time>2026-04-05T14:44:38.014Z</time></trkpt><trkpt lat="44.018366716678656" lon="10.863776777316009"><ele>695.5714285714286</ele><time>2026-04-05T14:44:39.014Z</time></trkpt><trkpt lat="44.0184266118195" lon="10.86382639982719"><ele>694.4285714285713</ele><time>2026-04-05T14:44:40.014Z</time></trkpt><trkpt lat="44.01848234709685" lon="10.86387987601985"><ele>693.2857142857142</ele><time>2026-04-05T14:44:41.014Z</time></trkpt><trkpt lat="44.01853501672675" lon="10.863942557142078"><ele>692.1428571428571</ele><time>2026-04-05T14:44:42.014Z</time></trkpt><trkpt lat="44.018580879773445" lon="10.864010618699826"><ele>691.0</ele><time>2026-04-05T14:44:43.014Z</time></trkpt><trkpt lat="44.0186698946302" lon="10.864133462099248"><ele>691.0</ele><time>2026-04-05T14:44:45.014Z</time></trkpt><trkpt lat="44.01875531285869" lon="10.864248289684848"><ele>691.0</ele><time>2026-04-05T14:44:47.014Z</time></trkpt><trkpt lat="44.01884995522413" lon="10.864360415642478"><ele>691.0</ele><time>2026-04-05T14:44:49.014Z</time></trkpt><trkpt lat="44.018931867369965" lon="10.864480609891144"><ele>691.0</ele><time>2026-04-05T14:44:51.014Z</time></trkpt><trkpt lat="44.01901850282557" lon="10.86460023675096"><ele>691.0</ele><time>2026-04-05T14:44:53.014Z</time></trkpt><trkpt lat="44.0191055404746" lon="10.864713635022518"><ele>691.0</ele><time>2026-04-05T14:44:55.014Z</time></trkpt><trkpt lat="44.01915110377408" lon="10.864775086061195"><ele>691.0</ele><time>2026-04-05T14:44:56.014Z</time></trkpt><trkpt lat="44.019235960632045" lon="10.864891840885766"><ele>691.0</ele><time>2026-04-05T14:44:58.014Z</time></trkpt><trkpt lat="44.01931189741451" lon="10.865007567773734"><ele>691.0</ele><time>2026-04-05T14:45:00.015Z</time></trkpt><trkpt lat="44.01940873672623" lon="10.865125376329859"><ele>692.25</ele><time>2026-04-05T14:45:02.015Z</time></trkpt><trkpt lat="44.01949613768122" lon="10.865253294126669"><ele>693.5</ele><time>2026-04-05T14:45:04.015Z</time></trkpt><trkpt lat="44.0195811469798" lon="10.865379544521609"><ele>694.75</ele><time>2026-04-05T14:45:06.015Z</time></trkpt><trkpt lat="44.01966852428736" lon="10.865482209326762"><ele>696.0</ele><time>2026-04-05T14:45:08.015Z</time></trkpt><trkpt lat="44.019751802119615" lon="10.865584795603425"><ele>696.0</ele><time>2026-04-05T14:45:10.015Z</time></trkpt><trkpt lat="44.019831425438326" lon="10.865714285985746"><ele>696.0</ele><time>2026-04-05T14:45:12.015Z</time></trkpt><trkpt lat="44.019928129421395" lon="10.865802356545798"><ele>696.0</ele><time>2026-04-05T14:45:14.015Z</time></trkpt><trkpt lat="44.02003214880471" lon="10.865875844213571"><ele>696.0</ele><time>2026-04-05T14:45:16.015Z</time></trkpt><trkpt lat="44.02013064726236" lon="10.865919688883496"><ele>697.0</ele><time>2026-04-05T14:45:18.015Z</time></trkpt><trkpt lat="44.02023402380897" lon="10.865973376651413"><ele>698.0</ele><time>2026-04-05T14:45:20.015Z</time></trkpt><trkpt lat="44.02029544229201" lon="10.865996718182252"><ele>699.0</ele><time>2026-04-05T14:45:21.015Z</time></trkpt><trkpt lat="44.020402651720545" lon="10.866033083340774"><ele>700.0</ele><time>2026-04-05T14:45:23.015Z</time></trkpt><trkpt lat="44.020522156512975" lon="10.866093593079498"><ele>701.0</ele><time>2026-04-05T14:45:25.015Z</time></trkpt><trkpt lat="44.02063457250893" lon="10.866144999341998"><ele>701.0</ele><time>2026-04-05T14:45:27.015Z</time></trkpt><trkpt lat="44.02075328192226" lon="10.866189985310836"><ele>701.0</ele><time>2026-04-05T14:45:29.015Z</time></trkpt><trkpt lat="44.02081638855805" lon="10.866206416498539"><ele>701.0</ele><time>2026-04-05T14:45:30.015Z</time></trkpt><trkpt lat="44.02088348078059" lon="10.866223744143372"><ele>701.0</ele><time>2026-04-05T14:45:31.015Z</time></trkpt><trkpt lat="44.02094691672092" lon="10.866235282171097"><ele>701.0</ele><time>2026-04-05T14:45:32.015Z</time></trkpt><trkpt lat="44.02106965311826" lon="10.866245344724142"><ele>701.0</ele><time>2026-04-05T14:45:34.015Z</time></trkpt><trkpt lat="44.0211358467666" lon="10.86624605708684"><ele>699.3333333333333</ele><time>2026-04-05T14:45:35.015Z</time></trkpt><trkpt lat="44.02119902226921" lon="10.866242391132607"><ele>697.6666666666666</ele><time>2026-04-05T14:45:36.015Z</time></trkpt><trkpt lat="44.02126201248058" lon="10.866237203688398"><ele>696.0</ele><time>2026-04-05T14:45:37.015Z</time></trkpt><trkpt lat="44.02132591057708" lon="10.866233720779743"><ele>694.3333333333334</ele><time>2026-04-05T14:45:38.015Z</time></trkpt><trkpt lat="44.021447381877174" lon="10.86622745021683"><ele>692.6666666666667</ele><time>2026-04-05T14:45:40.015Z</time></trkpt><trkpt lat="44.0215642744355" lon="10.866241192049513"><ele>691.0</ele><time>2026-04-05T14:45:42.015Z</time></trkpt><trkpt lat="44.02166660659943" lon="10.86626391001635"><ele>690.5999999999999</ele><time>2026-04-05T14:45:44.015Z</time></trkpt><trkpt lat="44.02172976671213" lon="10.86626122298986"><ele>690.2</ele><time>2026-04-05T14:45:45.015Z</time></trkpt><trkpt lat="44.02185495723079" lon="10.866252870350749"><ele>689.8</ele><time>2026-04-05T14:45:47.015Z</time></trkpt><trkpt lat="44.02197965899858" lon="10.86625386669092"><ele>689.4000000000001</ele><time>2026-04-05T14:45:49.015Z</time></trkpt><trkpt lat="44.02204176312373" lon="10.866268212656177"><ele>689.0</ele><time>2026-04-05T14:45:50.015Z</time></trkpt><trkpt lat="44.02215956739059" lon="10.866312304972974"><ele>689.0</ele><time>2026-04-05T14:45:52.015Z</time></trkpt><trkpt lat="44.02222178679409" lon="10.866333234215762"><ele>689.0</ele><time>2026-04-05T14:45:53.015Z</time></trkpt><trkpt lat="44.022337524486936" lon="10.866385479406713"><ele>689.0</ele><time>2026-04-05T14:45:55.015Z</time></trkpt><trkpt lat="44.022450722696334" lon="10.866442441073248"><ele>689.0</ele><time>2026-04-05T14:45:57.015Z</time></trkpt><trkpt lat="44.02255527419887" lon="10.866499508919025"><ele>689.0</ele><time>2026-04-05T14:45:59.015Z</time></trkpt><trkpt lat="44.02266057783754" lon="10.866567921591338"><ele>688.25</ele><time>2026-04-05T14:46:01.015Z</time></trkpt><trkpt lat="44.022775201000684" lon="10.866627734154818"><ele>687.5</ele><time>2026-04-05T14:46:03.015Z</time></trkpt><trkpt lat="44.02288464023132" lon="10.866689906491267"><ele>686.75</ele><time>2026-04-05T14:46:05.015Z</time></trkpt><trkpt lat="44.022998866603" lon="10.866760774011182"><ele>686.0</ele><time>2026-04-05T14:46:07.015Z</time></trkpt><trkpt lat="44.02311271831591" lon="10.866825260633274"><ele>685.6666666666666</ele><time>2026-04-05T14:46:09.015Z</time></trkpt><trkpt lat="44.023173541053666" lon="10.866859482502223"><ele>685.3333333333333</ele><time>2026-04-05T14:46:10.015Z</time></trkpt><trkpt lat="44.0232861977482" lon="10.866932436745874"><ele>685.0</ele><time>2026-04-05T14:46:12.015Z</time></trkpt><trkpt lat="44.02340088758945" lon="10.867007698558874"><ele>684.6666666666666</ele><time>2026-04-05T14:46:14.015Z</time></trkpt><trkpt lat="44.02346146846274" lon="10.867035600024249"><ele>684.3333333333334</ele><time>2026-04-05T14:46:15.015Z</time></trkpt><trkpt lat="44.02352138464294" lon="10.867063756916384"><ele>684.0</ele><time>2026-04-05T14:46:16.015Z</time></trkpt><trkpt lat="44.02358216534277" lon="10.867086898614819"><ele>684.0</ele><time>2026-04-05T14:46:17.015Z</time></trkpt><trkpt lat="44.02364501332019" lon="10.86710544986309"><ele>684.0</ele><time>2026-04-05T14:46:18.015Z</time></trkpt><trkpt lat="44.02376001173234" lon="10.86715599915508"><ele>684.0</ele><time>2026-04-05T14:46:20.015Z</time></trkpt><trkpt lat="44.023863780026254" lon="10.867216265192361"><ele>684.0</ele><time>2026-04-05T14:46:22.016Z</time></trkpt><trkpt lat="44.02397004589618" lon="10.867265800688797"><ele>684.0</ele><time>2026-04-05T14:46:24.016Z</time></trkpt><trkpt lat="44.02406969784364" lon="10.867320272146566"><ele>683.2</ele><time>2026-04-05T14:46:26.016Z</time></trkpt><trkpt lat="44.02416839988063" lon="10.867375030571253"><ele>682.4000000000001</ele><time>2026-04-05T14:46:28.016Z</time></trkpt><trkpt lat="44.024269773584834" lon="10.867428195407678"><ele>681.6</ele><time>2026-04-05T14:46:30.016Z</time></trkpt><trkpt lat="44.02437105992908" lon="10.867487966402203"><ele>680.8</ele><time>2026-04-05T14:46:32.016Z</time></trkpt><trkpt lat="44.02446608076884" lon="10.867554793588452"><ele>680.0</ele><time>2026-04-05T14:46:34.016Z</time></trkpt><trkpt lat="44.024570999185634" lon="10.867596289014937"><ele>679.4</ele><time>2026-04-05T14:46:36.016Z</time></trkpt><trkpt lat="44.02467193781409" lon="10.867641076457394"><ele>678.8</ele><time>2026-04-05T14:46:38.016Z</time></trkpt><trkpt lat="44.02477790162137" lon="10.867692324134419"><ele>678.2</ele><time>2026-04-05T14:46:40.016Z</time></trkpt><trkpt lat="44.024876593734625" lon="10.867742952686632"><ele>677.6</ele><time>2026-04-05T14:46:42.016Z</time></trkpt><trkpt lat="44.02497695877553" lon="10.867790267679764"><ele>677.0</ele><time>2026-04-05T14:46:44.016Z</time></trkpt><trkpt lat="44.02507830675003" lon="10.867854242252239"><ele>677.0</ele><time>2026-04-05T14:46:46.016Z</time></trkpt><trkpt lat="44.02517424707249" lon="10.867934081983668"><ele>677.0</ele><time>2026-04-05T14:46:48.016Z</time></trkpt><trkpt lat="44.02526286289756" lon="10.868020581283583"><ele>677.0</ele><time>2026-04-05T14:46:50.016Z</time></trkpt><trkpt lat="44.02534256875781" lon="10.868125206410419"><ele>677.0</ele><time>2026-04-05T14:46:52.016Z</time></trkpt><trkpt lat="44.02542224372135" lon="10.86822708226051"><ele>677.0</ele><time>2026-04-05T14:46:54.015Z</time></trkpt><trkpt lat="44.02549943089212" lon="10.868326263139759"><ele>677.0</ele><time>2026-04-05T14:46:56.016Z</time></trkpt><trkpt lat="44.02557605166435" lon="10.868432051376413"><ele>677.0</ele><time>2026-04-05T14:46:58.015Z</time></trkpt><trkpt lat="44.025651046564874" lon="10.868531992896777"><ele>677.0</ele><time>2026-04-05T14:47:00.015Z</time></trkpt><trkpt lat="44.02572751328049" lon="10.868637284397375"><ele>677.0</ele><time>2026-04-05T14:47:02.016Z</time></trkpt><trkpt lat="44.02579916422236" lon="10.868736357036948"><ele>677.0</ele><time>2026-04-05T14:47:04.015Z</time></trkpt><trkpt lat="44.02587384504062" lon="10.868841997292666"><ele>677.4000000000001</ele><time>2026-04-05T14:47:06.015Z</time></trkpt><trkpt lat="44.02594494313796" lon="10.868945032494825"><ele>677.8000000000001</ele><time>2026-04-05T14:47:08.015Z</time></trkpt><trkpt lat="44.02601862060229" lon="10.869048167489709"><ele>678.2</ele><time>2026-04-05T14:47:10.015Z</time></trkpt><trkpt lat="44.02609714834508" lon="10.869151722953175"><ele>678.6</ele><time>2026-04-05T14:47:12.015Z</time></trkpt><trkpt lat="44.02617007907581" lon="10.869250414003954"><ele>679.0</ele><time>2026-04-05T14:47:14.015Z</time></trkpt><trkpt lat="44.02624144130988" lon="10.869351121132137"><ele>678.2</ele><time>2026-04-05T14:47:16.015Z</time></trkpt><trkpt lat="44.026319186903955" lon="10.869457485019726"><ele>677.4000000000001</ele><time>2026-04-05T14:47:18.015Z</time></trkpt><trkpt lat="44.02640752457323" lon="10.869557559584985"><ele>676.6</ele><time>2026-04-05T14:47:20.015Z</time></trkpt><trkpt lat="44.026482338818354" lon="10.869664452252728"><ele>675.8</ele><time>2026-04-05T14:47:22.015Z</time></trkpt><trkpt lat="44.02656517178633" lon="10.869765337451637"><ele>675.0</ele><time>2026-04-05T14:47:24.015Z</time></trkpt><trkpt lat="44.02664159047876" lon="10.869870753729966"><ele>674.8</ele><time>2026-04-05T14:47:26.015Z</time></trkpt><trkpt lat="44.026720114462556" lon="10.869975880885018"><ele>674.6</ele><time>2026-04-05T14:47:28.015Z</time></trkpt><trkpt lat="44.02680522286646" lon="10.870072245623481"><ele>674.4000000000001</ele><time>2026-04-05T14:47:30.015Z</time></trkpt><trkpt lat="44.02688026629346" lon="10.870183662198604"><ele>674.2</ele><time>2026-04-05T14:47:32.015Z</time></trkpt><trkpt lat="44.02694947821295" lon="10.87026280759764"><ele>674.0</ele><time>2026-04-05T14:47:34.015Z</time></trkpt><trkpt lat="44.02702093098434" lon="10.870399738547919"><ele>674.0</ele><time>2026-04-05T14:47:36.015Z</time></trkpt><trkpt lat="44.0270929293863" lon="10.87049846751486"><ele>674.0</ele><time>2026-04-05T14:47:38.015Z</time></trkpt><trkpt lat="44.027170610149845" lon="10.870602063819845"><ele>674.0</ele><time>2026-04-05T14:47:40.015Z</time></trkpt><trkpt lat="44.02725407279743" lon="10.870732152940816"><ele>674.0</ele><time>2026-04-05T14:47:42.015Z</time></trkpt><trkpt lat="44.027329059767986" lon="10.870847619958827"><ele>674.0</ele><time>2026-04-05T14:47:44.015Z</time></trkpt><trkpt lat="44.02739404278082" lon="10.870952058088191"><ele>674.0</ele><time>2026-04-05T14:47:46.016Z</time></trkpt><trkpt lat="44.02748127096097" lon="10.871073513671416"><ele>674.0</ele><time>2026-04-05T14:47:48.016Z</time></trkpt><trkpt lat="44.02756302983402" lon="10.87119284864165"><ele>674.0</ele><time>2026-04-05T14:47:50.016Z</time></trkpt><trkpt lat="44.02764090311795" lon="10.871307016456436"><ele>674.0</ele><time>2026-04-05T14:47:52.016Z</time></trkpt><trkpt lat="44.02771947871401" lon="10.871421851980065"><ele>674.0</ele><time>2026-04-05T14:47:54.016Z</time></trkpt><trkpt lat="44.02780464993807" lon="10.87154600648083"><ele>674.0</ele><time>2026-04-05T14:47:56.016Z</time></trkpt><trkpt lat="44.02788326305642" lon="10.871648530928079"><ele>674.0</ele><time>2026-04-05T14:47:58.016Z</time></trkpt><trkpt lat="44.02797201117388" lon="10.871761641691087"><ele>674.0</ele><time>2026-04-05T14:48:00.016Z</time></trkpt><trkpt lat="44.02801689209516" lon="10.871823217397182"><ele>674.0</ele><time>2026-04-05T14:48:01.016Z</time></trkpt><trkpt lat="44.02810822233659" lon="10.871931088382029"><ele>673.6</ele><time>2026-04-05T14:48:03.016Z</time></trkpt><trkpt lat="44.028204996201815" lon="10.872015057814824"><ele>673.2</ele><time>2026-04-05T14:48:05.016Z</time></trkpt><trkpt lat="44.02831042182237" lon="10.87206848694908"><ele>672.8000000000001</ele><time>2026-04-05T14:48:07.016Z</time></trkpt><trkpt lat="44.02841512020511" lon="10.872101123437679"><ele>672.4000000000001</ele><time>2026-04-05T14:48:09.016Z</time></trkpt><trkpt lat="44.02852022974953" lon="10.872136011181594"><ele>672.0</ele><time>2026-04-05T14:48:11.016Z</time></trkpt><trkpt lat="44.028619925931565" lon="10.87216301225539"><ele>672.0</ele><time>2026-04-05T14:48:13.016Z</time></trkpt><trkpt lat="44.028723328709994" lon="10.872198311463139"><ele>672.0</ele><time>2026-04-05T14:48:15.016Z</time></trkpt><trkpt lat="44.028829281351044" lon="10.872230788819055"><ele>672.0</ele><time>2026-04-05T14:48:17.016Z</time></trkpt><trkpt lat="44.02893328439561" lon="10.872263869028364"><ele>672.0</ele><time>2026-04-05T14:48:19.016Z</time></trkpt><trkpt lat="44.02904481874688" lon="10.87230674674072"><ele>672.0</ele><time>2026-04-05T14:48:21.016Z</time></trkpt><trkpt lat="44.0291567034539" lon="10.872337087192625"><ele>672.25</ele><time>2026-04-05T14:48:23.016Z</time></trkpt><trkpt lat="44.0292697576784" lon="10.87237225316674"><ele>672.5</ele><time>2026-04-05T14:48:25.016Z</time></trkpt><trkpt lat="44.029384787466164" lon="10.872415604681981"><ele>672.75</ele><time>2026-04-05T14:48:27.016Z</time></trkpt><trkpt lat="44.02950372678388" lon="10.872446759699324"><ele>673.0</ele><time>2026-04-05T14:48:29.016Z</time></trkpt><trkpt lat="44.0296205882503" lon="10.872488344488415"><ele>673.0</ele><time>2026-04-05T14:48:31.016Z</time></trkpt><trkpt lat="44.02968147023773" lon="10.872512739164584"><ele>673.0</ele><time>2026-04-05T14:48:32.016Z</time></trkpt><trkpt lat="44.02979887533312" lon="10.872554768363113"><ele>673.0</ele><time>2026-04-05T14:48:34.016Z</time></trkpt><trkpt lat="44.02986159552065" lon="10.872569073951492"><ele>673.0</ele><time>2026-04-05T14:48:35.016Z</time></trkpt><trkpt lat="44.029976298017445" lon="10.872596244770888"><ele>673.0</ele><time>2026-04-05T14:48:37.016Z</time></trkpt><trkpt lat="44.03008195335993" lon="10.872638070566826"><ele>672.6666666666667</ele><time>2026-04-05T14:48:39.016Z</time></trkpt><trkpt lat="44.03018872532618" lon="10.872676735988916"><ele>672.3333333333334</ele><time>2026-04-05T14:48:41.016Z</time></trkpt><trkpt lat="44.03029518167147" lon="10.872704149716762"><ele>672.0</ele><time>2026-04-05T14:48:43.016Z</time></trkpt><trkpt lat="44.03035644892965" lon="10.87272934590002"><ele>671.6666666666666</ele><time>2026-04-05T14:48:44.016Z</time></trkpt><trkpt lat="44.030421529962766" lon="10.872758691009372"><ele>671.3333333333333</ele><time>2026-04-05T14:48:45.016Z</time></trkpt><trkpt lat="44.03048328564284" lon="10.872778772571984"><ele>671.0</ele><time>2026-04-05T14:48:46.016Z</time></trkpt><trkpt lat="44.03060130059802" lon="10.87280730806571"><ele>671.0</ele><time>2026-04-05T14:48:48.016Z</time></trkpt><trkpt lat="44.03072361883998" lon="10.87284449092995"><ele>671.0</ele><time>2026-04-05T14:48:50.016Z</time></trkpt><trkpt lat="44.03084066116676" lon="10.87289489913309"><ele>671.0</ele><time>2026-04-05T14:48:52.016Z</time></trkpt><trkpt lat="44.03090283395955" lon="10.872917125329582"><ele>671.0</ele><time>2026-04-05T14:48:53.016Z</time></trkpt><trkpt lat="44.03096730896711" lon="10.872932915077122"><ele>671.0</ele><time>2026-04-05T14:48:54.016Z</time></trkpt><trkpt lat="44.03108160256934" lon="10.873003786374"><ele>670.75</ele><time>2026-04-05T14:48:56.016Z</time></trkpt><trkpt lat="44.031187977642205" lon="10.8730958880069"><ele>670.5</ele><time>2026-04-05T14:48:58.016Z</time></trkpt><trkpt lat="44.031281175789545" lon="10.873206561758595"><ele>670.25</ele><time>2026-04-05T14:49:00.016Z</time></trkpt><trkpt lat="44.03136553567609" lon="10.873308489936012"><ele>670.0</ele><time>2026-04-05T14:49:02.017Z</time></trkpt><trkpt lat="44.03145142863773" lon="10.873424182044676"><ele>670.0</ele><time>2026-04-05T14:49:04.016Z</time></trkpt><trkpt lat="44.03153359357434" lon="10.873533887115839"><ele>670.0</ele><time>2026-04-05T14:49:06.016Z</time></trkpt><trkpt lat="44.03161371961422" lon="10.873649822479628"><ele>670.0</ele><time>2026-04-05T14:49:08.016Z</time></trkpt><trkpt lat="44.03169244338539" lon="10.87376765519978"><ele>670.0</ele><time>2026-04-05T14:49:10.016Z</time></trkpt><trkpt lat="44.03178106311159" lon="10.8738831633404"><ele>670.0</ele><time>2026-04-05T14:49:12.016Z</time></trkpt><trkpt lat="44.0318636525289" lon="10.874001382341117"><ele>670.0</ele><time>2026-04-05T14:49:14.016Z</time></trkpt><trkpt lat="44.03191510242034" lon="10.874054588783398"><ele>670.0</ele><time>2026-04-05T14:49:15.016Z</time></trkpt><trkpt lat="44.03200310090599" lon="10.874171682505274"><ele>670.0</ele><time>2026-04-05T14:49:17.016Z</time></trkpt><trkpt lat="44.03208660242213" lon="10.87429202338897"><ele>670.0</ele><time>2026-04-05T14:49:19.016Z</time></trkpt><trkpt lat="44.03216869357353" lon="10.874397608751323"><ele>670.0</ele><time>2026-04-05T14:49:21.016Z</time></trkpt><trkpt lat="44.032247180897016" lon="10.874497592196159"><ele>670.0</ele><time>2026-04-05T14:49:23.016Z</time></trkpt><trkpt lat="44.03231621019361" lon="10.874599127462037"><ele>670.0</ele><time>2026-04-05T14:49:25.016Z</time></trkpt><trkpt lat="44.032394014631436" lon="10.874693195295833"><ele>670.0</ele><time>2026-04-05T14:49:27.016Z</time></trkpt><trkpt lat="44.032473557461806" lon="10.874791512000195"><ele>670.0</ele><time>2026-04-05T14:49:29.016Z</time></trkpt><trkpt lat="44.03255361548008" lon="10.874898945560883"><ele>669.8</ele><time>2026-04-05T14:49:31.016Z</time></trkpt><trkpt lat="44.03262926757114" lon="10.875006364792107"><ele>669.6</ele><time>2026-04-05T14:49:33.016Z</time></trkpt><trkpt lat="44.03270928758282" lon="10.875112306322897"><ele>669.4000000000001</ele><time>2026-04-05T14:49:35.016Z</time></trkpt><trkpt lat="44.03279433238597" lon="10.875205067627428"><ele>669.2</ele><time>2026-04-05T14:49:37.016Z</time></trkpt><trkpt lat="44.03287357899303" lon="10.875304181474549"><ele>669.0</ele><time>2026-04-05T14:49:39.016Z</time></trkpt><trkpt lat="44.032952118548" lon="10.875407511143408"><ele>669.0</ele><time>2026-04-05T14:49:41.016Z</time></trkpt><trkpt lat="44.033030418651556" lon="10.875516755029455"><ele>669.0</ele><time>2026-04-05T14:49:43.016Z</time></trkpt><trkpt lat="44.03311244050332" lon="10.875630576500125"><ele>669.0</ele><time>2026-04-05T14:49:45.016Z</time></trkpt><trkpt lat="44.033196125352454" lon="10.875738365314747"><ele>669.0</ele><time>2026-04-05T14:49:47.016Z</time></trkpt><trkpt lat="44.03326902256953" lon="10.875838197443057"><ele>669.0</ele><time>2026-04-05T14:49:49.016Z</time></trkpt><trkpt lat="44.0333374639893" lon="10.875931919799186"><ele>670.0</ele><time>2026-04-05T14:49:51.016Z</time></trkpt><trkpt lat="44.033434850177485" lon="10.876026695555296"><ele>671.0</ele><time>2026-04-05T14:49:53.016Z</time></trkpt><trkpt lat="44.03350705872364" lon="10.87614434780646"><ele>672.0</ele><time>2026-04-05T14:49:55.016Z</time></trkpt><trkpt lat="44.033595801603816" lon="10.876251555090965"><ele>673.0</ele><time>2026-04-05T14:49:57.016Z</time></trkpt><trkpt lat="44.03368095992547" lon="10.876351132930614"><ele>673.0</ele><time>2026-04-05T14:49:59.016Z</time></trkpt><trkpt lat="44.03376755176345" lon="10.876453834855022"><ele>673.0</ele><time>2026-04-05T14:50:01.016Z</time></trkpt><trkpt lat="44.033847675950724" lon="10.876569659094063"><ele>673.0</ele><time>2026-04-05T14:50:03.016Z</time></trkpt><trkpt lat="44.03391347050048" lon="10.876687703472625"><ele>673.0</ele><time>2026-04-05T14:50:05.017Z</time></trkpt><trkpt lat="44.0339767542862" lon="10.876833117723933"><ele>672.0</ele><time>2026-04-05T14:50:07.017Z</time></trkpt><trkpt lat="44.03404373958223" lon="10.876968528423157"><ele>671.0</ele><time>2026-04-05T14:50:09.017Z</time></trkpt><trkpt lat="44.03412313860155" lon="10.877096023369077"><ele>670.0</ele><time>2026-04-05T14:50:11.017Z</time></trkpt><trkpt lat="44.03421519839139" lon="10.877204435146126"><ele>669.0</ele><time>2026-04-05T14:50:13.017Z</time></trkpt><trkpt lat="44.03430812447801" lon="10.87730093645863"><ele>669.0</ele><time>2026-04-05T14:50:15.017Z</time></trkpt><trkpt lat="44.0344114553342" lon="10.877391402896956"><ele>669.0</ele><time>2026-04-05T14:50:17.017Z</time></trkpt><trkpt lat="44.03451424774463" lon="10.877474561380453"><ele>669.0</ele><time>2026-04-05T14:50:19.017Z</time></trkpt><trkpt lat="44.03459972747287" lon="10.877555498345881"><ele>669.0</ele><time>2026-04-05T14:50:21.017Z</time></trkpt><trkpt lat="44.034664558573816" lon="10.87760981252262"><ele>669.0</ele><time>2026-04-05T14:50:23.017Z</time></trkpt><trkpt lat="44.03478136572166" lon="10.87768721967902"><ele>668.8000000000001</ele><time>2026-04-05T14:50:25.017Z</time></trkpt><trkpt lat="44.03486959355932" lon="10.877757345044548"><ele>668.6</ele><time>2026-04-05T14:50:27.017Z</time></trkpt><trkpt lat="44.03492733132094" lon="10.877800256339725"><ele>668.4</ele><time>2026-04-05T14:50:28.017Z</time></trkpt><trkpt lat="44.035033219069625" lon="10.87789073119521"><ele>668.2</ele><time>2026-04-05T14:50:30.017Z</time></trkpt><trkpt lat="44.03512998715558" lon="10.877965426991404"><ele>668.0</ele><time>2026-04-05T14:50:32.017Z</time></trkpt><trkpt lat="44.035235487876534" lon="10.878051917791911"><ele>668.0</ele><time>2026-04-05T14:50:34.017Z</time></trkpt><trkpt lat="44.03533156517194" lon="10.878146653069708"><ele>668.0</ele><time>2026-04-05T14:50:36.017Z</time></trkpt><trkpt lat="44.03542828328992" lon="10.87823199096737"><ele>668.0</ele><time>2026-04-05T14:50:38.017Z</time></trkpt><trkpt lat="44.035524043144406" lon="10.878319191972643"><ele>668.0</ele><time>2026-04-05T14:50:40.017Z</time></trkpt><trkpt lat="44.03561956589187" lon="10.878409631788923"><ele>668.4</ele><time>2026-04-05T14:50:42.017Z</time></trkpt><trkpt lat="44.03570679409298" lon="10.878511238732047"><ele>668.8</ele><time>2026-04-05T14:50:44.017Z</time></trkpt><trkpt lat="44.0357915772174" lon="10.878614108136448"><ele>669.2</ele><time>2026-04-05T14:50:46.017Z</time></trkpt><trkpt lat="44.03587123056716" lon="10.878723330817746"><ele>669.6</ele><time>2026-04-05T14:50:48.017Z</time></trkpt><trkpt lat="44.035950609338876" lon="10.878826653758578"><ele>670.0</ele><time>2026-04-05T14:50:50.017Z</time></trkpt><trkpt lat="44.036024498646235" lon="10.878940510653127"><ele>670.0</ele><time>2026-04-05T14:50:52.017Z</time></trkpt><trkpt lat="44.03610014570881" lon="10.879055070318234"><ele>670.0</ele><time>2026-04-05T14:50:54.017Z</time></trkpt><trkpt lat="44.03617766675449" lon="10.879172955733635"><ele>670.0</ele><time>2026-04-05T14:50:56.017Z</time></trkpt><trkpt lat="44.03625363154002" lon="10.879283492790735"><ele>670.0</ele><time>2026-04-05T14:50:58.017Z</time></trkpt><trkpt lat="44.03632358136947" lon="10.879395587609176"><ele>670.0</ele><time>2026-04-05T14:51:00.017Z</time></trkpt><trkpt lat="44.03639496717268" lon="10.879487008968548"><ele>670.2</ele><time>2026-04-05T14:51:02.017Z</time></trkpt><trkpt lat="44.03645544976517" lon="10.879593883639574"><ele>670.4</ele><time>2026-04-05T14:51:04.017Z</time></trkpt><trkpt lat="44.03653000579309" lon="10.879725087609769"><ele>670.5999999999999</ele><time>2026-04-05T14:51:06.017Z</time></trkpt><trkpt lat="44.03659659412807" lon="10.879838548925575"><ele>670.8</ele><time>2026-04-05T14:51:08.017Z</time></trkpt><trkpt lat="44.036661053300584" lon="10.879945085760015"><ele>671.0</ele><time>2026-04-05T14:51:10.017Z</time></trkpt><trkpt lat="44.0366817884625" lon="10.880065291886783"><ele>670.8</ele><time>2026-04-05T14:51:12.017Z</time></trkpt><trkpt lat="44.036692184380385" lon="10.880192253320931"><ele>670.5999999999999</ele><time>2026-04-05T14:51:14.017Z</time></trkpt><trkpt lat="44.036683654440594" lon="10.880345289349405"><ele>670.4</ele><time>2026-04-05T14:51:16.017Z</time></trkpt><trkpt lat="44.0366844390436" lon="10.880485495336265"><ele>670.2</ele><time>2026-04-05T14:51:18.017Z</time></trkpt><trkpt lat="44.0366904524219" lon="10.880619175006233"><ele>670.0</ele><time>2026-04-05T14:51:20.017Z</time></trkpt><trkpt lat="44.03671946150212" lon="10.880765033312496"><ele>670.0</ele><time>2026-04-05T14:51:22.017Z</time></trkpt><trkpt lat="44.036752310504774" lon="10.880898598297943"><ele>670.0</ele><time>2026-04-05T14:51:24.017Z</time></trkpt><trkpt lat="44.0367878913199" lon="10.881032903592542"><ele>670.0</ele><time>2026-04-05T14:51:26.017Z</time></trkpt><trkpt lat="44.03682128716428" lon="10.8811437449151"><ele>670.0</ele><time>2026-04-05T14:51:28.017Z</time></trkpt><trkpt lat="44.03683868499867" lon="10.881236751006746"><ele>670.0</ele><time>2026-04-05T14:51:30.017Z</time></trkpt><trkpt lat="44.036899974604204" lon="10.8813537044861"><ele>669.8</ele><time>2026-04-05T14:51:32.017Z</time></trkpt><trkpt lat="44.03694036507225" lon="10.881456299929697"><ele>669.6</ele><time>2026-04-05T14:51:34.017Z</time></trkpt><trkpt lat="44.03698737269934" lon="10.881568339381404"><ele>669.4000000000001</ele><time>2026-04-05T14:51:36.017Z</time></trkpt><trkpt lat="44.03703919601675" lon="10.881675155001277"><ele>669.2</ele><time>2026-04-05T14:51:38.017Z</time></trkpt><trkpt lat="44.037088608028014" lon="10.881781684469736"><ele>669.0</ele><time>2026-04-05T14:51:40.017Z</time></trkpt><trkpt lat="44.037146487576784" lon="10.881882866970196"><ele>669.0</ele><time>2026-04-05T14:51:42.017Z</time></trkpt><trkpt lat="44.03720746037793" lon="10.88197961998005"><ele>669.0</ele><time>2026-04-05T14:51:44.017Z</time></trkpt><trkpt lat="44.03726108276748" lon="10.882077098426075"><ele>669.0</ele><time>2026-04-05T14:51:46.017Z</time></trkpt><trkpt lat="44.0373274033625" lon="10.882161175067786"><ele>669.0</ele><time>2026-04-05T14:51:48.017Z</time></trkpt><trkpt lat="44.037389011912296" lon="10.88224642772826"><ele>669.0</ele><time>2026-04-05T14:51:50.017Z</time></trkpt><trkpt lat="44.03745175988892" lon="10.882333439932669"><ele>669.0</ele><time>2026-04-05T14:51:52.017Z</time></trkpt><trkpt lat="44.03751026939337" lon="10.882423421689763"><ele>668.5</ele><time>2026-04-05T14:51:54.017Z</time></trkpt><trkpt lat="44.03756373962744" lon="10.88249792337786"><ele>668.0</ele><time>2026-04-05T14:51:56.017Z</time></trkpt><trkpt lat="44.03761661756628" lon="10.882554987508446"><ele>667.5</ele><time>2026-04-05T14:51:58.017Z</time></trkpt><trkpt lat="44.037698712875006" lon="10.88263393147041"><ele>667.0</ele><time>2026-04-05T14:52:01.017Z</time></trkpt><trkpt lat="44.03775914313872" lon="10.882692389424282"><ele>666.5</ele><time>2026-04-05T14:52:03.017Z</time></trkpt><trkpt lat="44.037828411107235" lon="10.88274793673968"><ele>666.0</ele><time>2026-04-05T14:52:05.017Z</time></trkpt><trkpt lat="44.037894644609494" lon="10.88277525471432"><ele>665.3333333333334</ele><time>2026-04-05T14:52:07.017Z</time></trkpt><trkpt lat="44.037962081275076" lon="10.88276432965997"><ele>664.6666666666666</ele><time>2026-04-05T14:52:09.017Z</time></trkpt><trkpt lat="44.038062535495584" lon="10.882744705363297"><ele>664.0</ele><time>2026-04-05T14:52:12.017Z</time></trkpt><trkpt lat="44.03813886247395" lon="10.882734540746208"><ele>663.3333333333333</ele><time>2026-04-05T14:52:15.017Z</time></trkpt><trkpt lat="44.03820493531406" lon="10.882804929775192"><ele>662.6666666666666</ele><time>2026-04-05T14:52:17.017Z</time></trkpt><trkpt lat="44.03826992805355" lon="10.882809971778121"><ele>662.0</ele><time>2026-04-05T14:52:18.017Z</time></trkpt><trkpt lat="44.03833299880355" lon="10.882826865265049"><ele>662.0</ele><time>2026-04-05T14:52:19.017Z</time></trkpt><trkpt lat="44.03839643525186" lon="10.882856612701508"><ele>662.0</ele><time>2026-04-05T14:52:20.017Z</time></trkpt><trkpt lat="44.03846612891082" lon="10.88289045605049"><ele>662.0</ele><time>2026-04-05T14:52:21.017Z</time></trkpt><trkpt lat="44.0385695142833" lon="10.882964421257098"><ele>662.0</ele><time>2026-04-05T14:52:23.017Z</time></trkpt><trkpt lat="44.0386636996189" lon="10.883020721412427"><ele>662.0</ele><time>2026-04-05T14:52:25.017Z</time></trkpt><trkpt lat="44.03872827522022" lon="10.88302872825797"><ele>662.0</ele><time>2026-04-05T14:52:26.017Z</time></trkpt><trkpt lat="44.03880593482373" lon="10.883031564161097"><ele>662.0</ele><time>2026-04-05T14:52:27.017Z</time></trkpt><trkpt lat="44.0388936026815" lon="10.883036050870261"><ele>662.0</ele><time>2026-04-05T14:52:28.017Z</time></trkpt><trkpt lat="44.03897372605351" lon="10.883037574416617"><ele>662.0</ele><time>2026-04-05T14:52:29.017Z</time></trkpt><trkpt lat="44.03905364755131" lon="10.883029399388933"><ele>662.0</ele><time>2026-04-05T14:52:30.017Z</time></trkpt><trkpt lat="44.039140357028664" lon="10.883018360922382"><ele>662.0</ele><time>2026-04-05T14:52:31.017Z</time></trkpt><trkpt lat="44.03921450303062" lon="10.883018588684486"><ele>662.0</ele><time>2026-04-05T14:52:32.017Z</time></trkpt><trkpt lat="44.03929000951645" lon="10.8829790919802"><ele>661.8333333333333</ele><time>2026-04-05T14:52:33.017Z</time></trkpt><trkpt lat="44.03935379187813" lon="10.882921460290135"><ele>661.6666666666666</ele><time>2026-04-05T14:52:34.017Z</time></trkpt><trkpt lat="44.03938684128289" lon="10.882838580664691"><ele>661.5</ele><time>2026-04-05T14:52:35.017Z</time></trkpt><trkpt lat="44.03937750105598" lon="10.882686294950503"><ele>661.3333333333334</ele><time>2026-04-05T14:52:37.017Z</time></trkpt><trkpt lat="44.03935566503535" lon="10.88257153756823"><ele>661.1666666666667</ele><time>2026-04-05T14:52:39.018Z</time></trkpt><trkpt lat="44.039282712476535" lon="10.882469293440183"><ele>661.0</ele><time>2026-04-05T14:52:42.018Z</time></trkpt><trkpt lat="44.03928574830812" lon="10.882379343367278"><ele>661.0</ele><time>2026-04-05T14:52:44.018Z</time></trkpt><trkpt lat="44.03927035149995" lon="10.88226065076074"><ele>661.0</ele><time>2026-04-05T14:52:47.018Z</time></trkpt><trkpt lat="44.03924135679303" lon="10.88217153594001"><ele>661.0</ele><time>2026-04-05T14:52:50.018Z</time></trkpt><trkpt lat="44.03922778803449" lon="10.882047363990377"><ele>661.0</ele><time>2026-04-05T14:52:53.018Z</time></trkpt><trkpt lat="44.03923045378661" lon="10.881938109277435"><ele>661.0</ele><time>2026-04-05T14:52:55.018Z</time></trkpt><trkpt lat="44.039241168022635" lon="10.88182669874376"><ele>661.0</ele><time>2026-04-05T14:52:57.018Z</time></trkpt><trkpt lat="44.03924568136864" lon="10.881735891720593"><ele>661.7142857142857</ele><time>2026-04-05T14:52:59.018Z</time></trkpt><trkpt lat="44.03923660791334" lon="10.881621314229578"><ele>662.4285714285714</ele><time>2026-04-05T14:53:02.018Z</time></trkpt><trkpt lat="44.03921237389774" lon="10.88150797312104"><ele>663.1428571428571</ele><time>2026-04-05T14:53:05.018Z</time></trkpt><trkpt lat="44.039182889591686" lon="10.881421744145317"><ele>663.8571428571429</ele><time>2026-04-05T14:53:07.018Z</time></trkpt><trkpt lat="44.039158234372856" lon="10.881329454858449"><ele>664.5714285714286</ele><time>2026-04-05T14:53:09.018Z</time></trkpt><trkpt lat="44.039125021165574" lon="10.881248364904861"><ele>665.2857142857143</ele><time>2026-04-05T14:53:11.018Z</time></trkpt><trkpt lat="44.03908410682993" lon="10.881165120016565"><ele>666.0</ele><time>2026-04-05T14:53:13.018Z</time></trkpt><trkpt lat="44.03907967089696" lon="10.881063287999996"><ele>666.0</ele><time>2026-04-05T14:53:15.018Z</time></trkpt><trkpt lat="44.03907369805218" lon="10.880948996601965"><ele>666.0</ele><time>2026-04-05T14:53:17.018Z</time></trkpt><trkpt lat="44.039064850939894" lon="10.880860433884717"><ele>666.0</ele><time>2026-04-05T14:53:19.017Z</time></trkpt><trkpt lat="44.0390742300412" lon="10.880733290802958"><ele>666.0</ele><time>2026-04-05T14:53:22.018Z</time></trkpt><trkpt lat="44.03906318438105" lon="10.880586647583028"><ele>666.0</ele><time>2026-04-05T14:53:25.017Z</time></trkpt><trkpt lat="44.03905646354885" lon="10.880476743281944"><ele>666.0</ele><time>2026-04-05T14:53:27.017Z</time></trkpt><trkpt lat="44.03905634256669" lon="10.880366951289709"><ele>666.0</ele><time>2026-04-05T14:53:29.017Z</time></trkpt><trkpt lat="44.03905585187328" lon="10.880268205976964"><ele>666.0</ele><time>2026-04-05T14:53:31.017Z</time></trkpt><trkpt lat="44.03905279542689" lon="10.880153016051262"><ele>666.0</ele><time>2026-04-05T14:53:34.017Z</time></trkpt><trkpt lat="44.039066002347354" lon="10.880022350300532"><ele>666.0</ele><time>2026-04-05T14:53:37.017Z</time></trkpt><trkpt lat="44.039064683751015" lon="10.87987754431633"><ele>666.0</ele><time>2026-04-05T14:53:40.017Z</time></trkpt><trkpt lat="44.03905375828478" lon="10.87978344834868"><ele>666.0</ele><time>2026-04-05T14:53:42.018Z</time></trkpt><trkpt lat="44.03905408264775" lon="10.879671241018231"><ele>666.8333333333334</ele><time>2026-04-05T14:53:44.018Z</time></trkpt><trkpt lat="44.0390352174836" lon="10.87955155761171"><ele>667.6666666666666</ele><time>2026-04-05T14:53:48.018Z</time></trkpt><trkpt lat="44.03903453389799" lon="10.87942859386784"><ele>668.5</ele><time>2026-04-05T14:53:51.018Z</time></trkpt><trkpt lat="44.03903216000663" lon="10.879290033457579"><ele>669.3333333333333</ele><time>2026-04-05T14:53:54.018Z</time></trkpt><trkpt lat="44.03903902597076" lon="10.879156591577749"><ele>670.1666666666666</ele><time>2026-04-05T14:53:57.018Z</time></trkpt><trkpt lat="44.03903568580995" lon="10.879054115776917"><ele>671.0</ele><time>2026-04-05T14:54:00.018Z</time></trkpt><trkpt lat="44.0390426064582" lon="10.878963059826987"><ele>672.0</ele><time>2026-04-05T14:54:04.018Z</time></trkpt><trkpt lat="44.03904258184781" lon="10.87886210155172"><ele>673.0</ele><time>2026-04-05T14:54:08.018Z</time></trkpt><trkpt lat="44.03904067030142" lon="10.878757666336085"><ele>674.0</ele><time>2026-04-05T14:54:19.018Z</time></trkpt><trkpt lat="44.03905269928363" lon="10.87864130404173"><ele>675.0</ele><time>2026-04-05T14:54:22.018Z</time></trkpt><trkpt lat="44.03905640938235" lon="10.878519568555204"><ele>676.0</ele><time>2026-04-05T14:54:25.018Z</time></trkpt><trkpt lat="44.03906248583572" lon="10.878399704681112"><ele>677.0</ele><time>2026-04-05T14:54:27.018Z</time></trkpt><trkpt lat="44.03907455378112" lon="10.878283562096598"><ele>677.0</ele><time>2026-04-05T14:54:29.018Z</time></trkpt><trkpt lat="44.03908837120926" lon="10.878153592175625"><ele>677.0</ele><time>2026-04-05T14:54:31.018Z</time></trkpt><trkpt lat="44.03907635250429" lon="10.87802075125132"><ele>677.0</ele><time>2026-04-05T14:54:33.018Z</time></trkpt><trkpt lat="44.03904852529567" lon="10.877910812288572"><ele>677.0</ele><time>2026-04-05T14:54:35.018Z</time></trkpt><trkpt lat="44.03904592173356" lon="10.877802062265143"><ele>677.0</ele><time>2026-04-05T14:54:37.018Z</time></trkpt><trkpt lat="44.039030375311654" lon="10.877707683112494"><ele>677.0</ele><time>2026-04-05T14:54:39.018Z</time></trkpt><trkpt lat="44.039036231638576" lon="10.87759049149118"><ele>677.0</ele><time>2026-04-05T14:54:41.018Z</time></trkpt><trkpt lat="44.03904549632607" lon="10.877501169756707"><ele>677.0</ele><time>2026-04-05T14:54:43.018Z</time></trkpt><trkpt lat="44.03905674915032" lon="10.877364283294733"><ele>677.0</ele><time>2026-04-05T14:54:46.018Z</time></trkpt><trkpt lat="44.03906728465599" lon="10.87726737853079"><ele>677.0</ele><time>2026-04-05T14:54:48.018Z</time></trkpt><trkpt lat="44.03907989581805" lon="10.877180970421241"><ele>677.0</ele><time>2026-04-05T14:54:50.018Z</time></trkpt><trkpt lat="44.03910197528554" lon="10.8770558239294"><ele>677.0</ele><time>2026-04-05T14:54:53.018Z</time></trkpt><trkpt lat="44.03909234741768" lon="10.876946534137451"><ele>676.9999999999999</ele><time>2026-04-05T14:54:56.018Z</time></trkpt><trkpt lat="44.03904219010085" lon="10.876845967693086"><ele>677.0</ele><time>2026-04-05T14:54:59.018Z</time></trkpt><trkpt lat="44.03899805129501" lon="10.876779443213215"><ele>677.0</ele><time>2026-04-05T14:55:01.018Z</time></trkpt><trkpt lat="44.03896069031007" lon="10.87668433212435"><ele>677.0</ele><time>2026-04-05T14:55:03.018Z</time></trkpt><trkpt lat="44.038933209635026" lon="10.87660356964007"><ele>677.0</ele><time>2026-04-05T14:55:05.018Z</time></trkpt><trkpt lat="44.038898155200336" lon="10.876515465938581"><ele>676.9999999999999</ele><time>2026-04-05T14:55:07.018Z</time></trkpt><trkpt lat="44.03887221331383" lon="10.876423275097125"><ele>677.0</ele><time>2026-04-05T14:55:09.019Z</time></trkpt><trkpt lat="44.03883965561194" lon="10.87633858863837"><ele>676.1428571428571</ele><time>2026-04-05T14:55:11.019Z</time></trkpt><trkpt lat="44.03879845614163" lon="10.876271660825234"><ele>675.2857142857142</ele><time>2026-04-05T14:55:13.019Z</time></trkpt><trkpt lat="44.03878485841771" lon="10.876183708703426"><ele>674.4285714285713</ele><time>2026-04-05T14:55:15.019Z</time></trkpt><trkpt lat="44.03882785890916" lon="10.876117896472843"><ele>673.5714285714286</ele><time>2026-04-05T14:55:18.019Z</time></trkpt><trkpt lat="44.03889085871886" lon="10.876036770857475"><ele>672.7142857142858</ele><time>2026-04-05T14:55:21.018Z</time></trkpt><trkpt lat="44.03894599860486" lon="10.875975232690271"><ele>671.8571428571428</ele><time>2026-04-05T14:55:24.019Z</time></trkpt><trkpt lat="44.0390047275091" lon="10.87589317624665"><ele>671.0</ele><time>2026-04-05T14:55:27.019Z</time></trkpt><trkpt lat="44.039048139513994" lon="10.875819708853818"><ele>671.0</ele><time>2026-04-05T14:55:30.018Z</time></trkpt><trkpt lat="44.0390645179699" lon="10.875694726872432"><ele>671.0</ele><time>2026-04-05T14:55:35.019Z</time></trkpt><trkpt lat="44.03902777390487" lon="10.875609426926134"><ele>671.0</ele><time>2026-04-05T14:55:37.019Z</time></trkpt><trkpt lat="44.03898010119829" lon="10.875528225539385"><ele>671.0</ele><time>2026-04-05T14:55:40.019Z</time></trkpt><trkpt lat="44.03893534531641" lon="10.875448607561978"><ele>671.0</ele><time>2026-04-05T14:55:43.019Z</time></trkpt><trkpt lat="44.03889372727195" lon="10.87537457160361"><ele>671.0</ele><time>2026-04-05T14:55:45.019Z</time></trkpt><trkpt lat="44.03883954450403" lon="10.875279664339114"><ele>671.0</ele><time>2026-04-05T14:55:48.019Z</time></trkpt><trkpt lat="44.0388007377956" lon="10.875190688450532"><ele>671.0</ele><time>2026-04-05T14:55:51.019Z</time></trkpt><trkpt lat="44.03877554622846" lon="10.875097966110495"><ele>671.0</ele><time>2026-04-05T14:55:53.019Z</time></trkpt><trkpt lat="44.03877763559422" lon="10.875002289978623"><ele>671.0</ele><time>2026-04-05T14:55:56.019Z</time></trkpt><trkpt lat="44.03876864971665" lon="10.874904080007706"><ele>671.0</ele><time>2026-04-05T14:56:00.019Z</time></trkpt><trkpt lat="44.03873145790248" lon="10.874820930989442"><ele>671.0</ele><time>2026-04-05T14:56:02.019Z</time></trkpt><trkpt lat="44.03868530639996" lon="10.874753782564913"><ele>671.0</ele><time>2026-04-05T14:56:04.019Z</time></trkpt><trkpt lat="44.038612028750634" lon="10.874661152195868"><ele>671.5</ele><time>2026-04-05T14:56:06.019Z</time></trkpt><trkpt lat="44.038565465410926" lon="10.87459006476416"><ele>672.0</ele><time>2026-04-05T14:56:08.019Z</time></trkpt><trkpt lat="44.038528352425445" lon="10.87449498198794"><ele>672.5</ele><time>2026-04-05T14:56:11.019Z</time></trkpt><trkpt lat="44.03852996690335" lon="10.874389231436298"><ele>673.0</ele><time>2026-04-05T14:56:13.019Z</time></trkpt><trkpt lat="44.03855750847688" lon="10.874275909998211"><ele>673.5</ele><time>2026-04-05T14:56:15.019Z</time></trkpt><trkpt lat="44.03859751875709" lon="10.874204902931698"><ele>674.0</ele><time>2026-04-05T14:56:20.019Z</time></trkpt><trkpt lat="44.03854383106917" lon="10.874096000450834"><ele>674.3333333333333</ele><time>2026-04-05T14:56:24.019Z</time></trkpt><trkpt lat="44.03848729430199" lon="10.874016253278253"><ele>674.6666666666666</ele><time>2026-04-05T14:56:26.019Z</time></trkpt><trkpt lat="44.03843067373633" lon="10.873949654342574"><ele>675.0</ele><time>2026-04-05T14:56:28.019Z</time></trkpt><trkpt lat="44.038385212309755" lon="10.87387994283046"><ele>675.3333333333334</ele><time>2026-04-05T14:56:30.019Z</time></trkpt><trkpt lat="44.03839808883873" lon="10.87376557069102"><ele>675.6666666666667</ele><time>2026-04-05T14:56:35.019Z</time></trkpt><trkpt lat="44.03846773236199" lon="10.873631749340852"><ele>676.0</ele><time>2026-04-05T14:56:37.019Z</time></trkpt><trkpt lat="44.03850562199179" lon="10.873561502362769"><ele>676.0</ele><time>2026-04-05T14:56:40.019Z</time></trkpt><trkpt lat="44.03855944167034" lon="10.873484058638837"><ele>676.0</ele><time>2026-04-05T14:56:45.019Z</time></trkpt><trkpt lat="44.03859640617536" lon="10.873405351961939"><ele>676.0</ele><time>2026-04-05T14:56:48.019Z</time></trkpt><trkpt lat="44.038633488199515" lon="10.87332869467252"><ele>676.0</ele><time>2026-04-05T14:56:51.019Z</time></trkpt><trkpt lat="44.038682573022754" lon="10.87322841465975"><ele>676.0</ele><time>2026-04-05T14:56:54.019Z</time></trkpt><trkpt lat="44.038720945836836" lon="10.873151518278954"><ele>676.0</ele><time>2026-04-05T14:56:57.019Z</time></trkpt><trkpt lat="44.038736891359775" lon="10.87304857572877"><ele>676.0</ele><time>2026-04-05T14:57:00.02Z</time></trkpt><trkpt lat="44.038734374279834" lon="10.872935199998363"><ele>677.1999999999999</ele><time>2026-04-05T14:57:03.02Z</time></trkpt><trkpt lat="44.038712722903895" lon="10.872841139664674"><ele>678.4</ele><time>2026-04-05T14:57:06.02Z</time></trkpt><trkpt lat="44.03868682792306" lon="10.872744143385269"><ele>679.6</ele><time>2026-04-05T14:57:09.02Z</time></trkpt><trkpt lat="44.0386216033846" lon="10.872629765945758"><ele>680.8</ele><time>2026-04-05T14:57:12.02Z</time></trkpt><trkpt lat="44.038550502814275" lon="10.872500927750364"><ele>682.0</ele><time>2026-04-05T14:57:14.02Z</time></trkpt><trkpt lat="44.03844650823537" lon="10.872427568655095"><ele>682.5714285714286</ele><time>2026-04-05T14:57:15.02Z</time></trkpt><trkpt lat="44.038426672205354" lon="10.87234345469349"><ele>683.1428571428571</ele><time>2026-04-05T14:57:16.02Z</time></trkpt><trkpt lat="44.03839491107866" lon="10.872265126401231"><ele>683.7142857142858</ele><time>2026-04-05T14:57:17.02Z</time></trkpt><trkpt lat="44.03835938265179" lon="10.872190385029795"><ele>684.2857142857142</ele><time>2026-04-05T14:57:18.02Z</time></trkpt><trkpt lat="44.03832569925396" lon="10.872105959019443"><ele>684.8571428571429</ele><time>2026-04-05T14:57:19.02Z</time></trkpt><trkpt lat="44.038285285280224" lon="10.87202145920639"><ele>685.4285714285714</ele><time>2026-04-05T14:57:20.02Z</time></trkpt><trkpt lat="44.03825254922027" lon="10.871934146108991"><ele>686.0</ele><time>2026-04-05T14:57:21.02Z</time></trkpt><trkpt lat="44.03821138866298" lon="10.871830016258825"><ele>684.8571428571429</ele><time>2026-04-05T14:57:22.02Z</time></trkpt><trkpt lat="44.03818065417515" lon="10.87172493914302"><ele>683.7142857142858</ele><time>2026-04-05T14:57:23.02Z</time></trkpt><trkpt lat="44.038152967559974" lon="10.871637992235536"><ele>682.5714285714286</ele><time>2026-04-05T14:57:24.02Z</time></trkpt><trkpt lat="44.03814037649897" lon="10.871541094741563"><ele>681.4285714285714</ele><time>2026-04-05T14:57:25.02Z</time></trkpt><trkpt lat="44.038113660455544" lon="10.87142931509216"><ele>680.2857142857143</ele><time>2026-04-05T14:57:26.019Z</time></trkpt><trkpt lat="44.0380914666762" lon="10.871330467033"><ele>679.1428571428571</ele><time>2026-04-05T14:57:27.02Z</time></trkpt><trkpt lat="44.038080542211034" lon="10.871239556177434"><ele>678.0</ele><time>2026-04-05T14:57:28.02Z</time></trkpt><trkpt lat="44.03809434024422" lon="10.871149373487572"><ele>678.0</ele><time>2026-04-05T14:57:29.019Z</time></trkpt><trkpt lat="44.03810333916478" lon="10.87106231520074"><ele>678.0</ele><time>2026-04-05T14:57:30.02Z</time></trkpt><trkpt lat="44.03812895908825" lon="10.870914872193415"><ele>678.0</ele><time>2026-04-05T14:57:32.019Z</time></trkpt><trkpt lat="44.03814243511592" lon="10.87082148552277"><ele>678.0</ele><time>2026-04-05T14:57:34.019Z</time></trkpt><trkpt lat="44.038150287762576" lon="10.870715606122642"><ele>678.0</ele><time>2026-04-05T14:57:36.02Z</time></trkpt><trkpt lat="44.038157826178576" lon="10.870603237401982"><ele>678.0</ele><time>2026-04-05T14:57:38.02Z</time></trkpt><trkpt lat="44.03816902837822" lon="10.870490370460859"><ele>678.1666666666666</ele><time>2026-04-05T14:57:40.02Z</time></trkpt><trkpt lat="44.03818124590405" lon="10.870370276574818"><ele>678.3333333333334</ele><time>2026-04-05T14:57:42.02Z</time></trkpt><trkpt lat="44.03819036240085" lon="10.870256934660208"><ele>678.5</ele><time>2026-04-05T14:57:44.02Z</time></trkpt><trkpt lat="44.038200450359184" lon="10.870136308175923"><ele>678.6666666666667</ele><time>2026-04-05T14:57:46.02Z</time></trkpt><trkpt lat="44.03821693207092" lon="10.87002976178042"><ele>678.8333333333334</ele><time>2026-04-05T14:57:48.02Z</time></trkpt><trkpt lat="44.03822334246314" lon="10.869903394423556"><ele>679.0</ele><time>2026-04-05T14:57:50.02Z</time></trkpt><trkpt lat="44.03821543604997" lon="10.86977978574813"><ele>679.6666666666667</ele><time>2026-04-05T14:57:52.02Z</time></trkpt><trkpt lat="44.03819713409421" lon="10.86967729132967"><ele>680.3333333333334</ele><time>2026-04-05T14:57:54.02Z</time></trkpt><trkpt lat="44.03818730336497" lon="10.869574740535523"><ele>681.0</ele><time>2026-04-05T14:57:56.02Z</time></trkpt><trkpt lat="44.038182733281836" lon="10.86946386889706"><ele>681.6666666666666</ele><time>2026-04-05T14:57:58.02Z</time></trkpt><trkpt lat="44.03817375747953" lon="10.869337836966759"><ele>682.3333333333333</ele><time>2026-04-05T14:58:00.02Z</time></trkpt><trkpt lat="44.03816455528863" lon="10.869206620246826"><ele>683.0</ele><time>2026-04-05T14:58:02.02Z</time></trkpt><trkpt lat="44.03816474798234" lon="10.86909047143726"><ele>683.5</ele><time>2026-04-05T14:58:04.02Z</time></trkpt><trkpt lat="44.03816124160514" lon="10.868973159946602"><ele>684.0</ele><time>2026-04-05T14:58:06.02Z</time></trkpt><trkpt lat="44.038173734085696" lon="10.86885311637204"><ele>684.5</ele><time>2026-04-05T14:58:08.02Z</time></trkpt><trkpt lat="44.03819130466178" lon="10.868739670167795"><ele>685.0</ele><time>2026-04-05T14:58:10.02Z</time></trkpt><trkpt lat="44.03820229843233" lon="10.86863142258282"><ele>685.5</ele><time>2026-04-05T14:58:12.02Z</time></trkpt><trkpt lat="44.038207389187384" lon="10.868524043256924"><ele>686.0</ele><time>2026-04-05T14:58:14.02Z</time></trkpt><trkpt lat="44.03821426941105" lon="10.868426991765038"><ele>686.2857142857143</ele><time>2026-04-05T14:58:16.02Z</time></trkpt><trkpt lat="44.03821720663347" lon="10.868303363037766"><ele>686.5714285714286</ele><time>2026-04-05T14:58:19.02Z</time></trkpt><trkpt lat="44.03822513514261" lon="10.868207945065736"><ele>686.8571428571429</ele><time>2026-04-05T14:58:21.02Z</time></trkpt><trkpt lat="44.038247654045875" lon="10.868100126760437"><ele>687.1428571428571</ele><time>2026-04-05T14:58:24.02Z</time></trkpt><trkpt lat="44.038311524232086" lon="10.868104924412574"><ele>687.4285714285714</ele><time>2026-04-05T14:58:28.02Z</time></trkpt><trkpt lat="44.0383726862046" lon="10.868156693814685"><ele>687.7142857142858</ele><time>2026-04-05T14:58:32.02Z</time></trkpt><trkpt lat="44.03843356443013" lon="10.868186308175488"><ele>688.0</ele><time>2026-04-05T14:58:35.02Z</time></trkpt><trkpt lat="44.03840616355953" lon="10.868103907175511"><ele>688.0000000000001</ele><time>2026-04-05T14:58:47.021Z</time></trkpt><trkpt lat="44.03833814238894" lon="10.868087307151308"><ele>688.0</ele><time>2026-04-05T14:58:50.021Z</time></trkpt><trkpt lat="44.03827233283752" lon="10.868049839483842"><ele>688.0</ele><time>2026-04-05T14:58:54.021Z</time></trkpt><trkpt lat="44.03825423573694" lon="10.867941977330196"><ele>688.0</ele><time>2026-04-05T14:58:57.021Z</time></trkpt><trkpt lat="44.03827459373231" lon="10.86783434331364"><ele>688.0</ele><time>2026-04-05T14:58:59.021Z</time></trkpt><trkpt lat="44.038290546972725" lon="10.867732447202835"><ele>688.0000000000001</ele><time>2026-04-05T14:59:01.021Z</time></trkpt><trkpt lat="44.03831105006162" lon="10.86763809227127"><ele>688.0</ele><time>2026-04-05T14:59:03.021Z</time></trkpt><trkpt lat="44.03832070878569" lon="10.867542198489526"><ele>688.8571428571429</ele><time>2026-04-05T14:59:05.021Z</time></trkpt><trkpt lat="44.03833465551348" lon="10.867445725096655"><ele>689.7142857142858</ele><time>2026-04-05T14:59:07.021Z</time></trkpt><trkpt lat="44.03834434979175" lon="10.867335972115216"><ele>690.5714285714287</ele><time>2026-04-05T14:59:09.021Z</time></trkpt><trkpt lat="44.038350349690624" lon="10.86724268058181"><ele>691.4285714285714</ele><time>2026-04-05T14:59:11.021Z</time></trkpt><trkpt lat="44.0383742869279" lon="10.86713882140777"><ele>692.2857142857142</ele><time>2026-04-05T14:59:14.021Z</time></trkpt><trkpt lat="44.03837975444006" lon="10.867047449462905"><ele>693.1428571428572</ele><time>2026-04-05T14:59:17.021Z</time></trkpt><trkpt lat="44.038372683669586" lon="10.866932963872765"><ele>694.0</ele><time>2026-04-05T14:59:21.021Z</time></trkpt><trkpt lat="44.03836897565057" lon="10.86683403796931"><ele>694.8333333333334</ele><time>2026-04-05T14:59:23.021Z</time></trkpt><trkpt lat="44.03836628883661" lon="10.866710543341808"><ele>695.6666666666667</ele><time>2026-04-05T14:59:26.021Z</time></trkpt><trkpt lat="44.038367623926355" lon="10.866585787601347"><ele>696.5</ele><time>2026-04-05T14:59:29.021Z</time></trkpt><trkpt lat="44.038375215646525" lon="10.866450662546526"><ele>697.3333333333334</ele><time>2026-04-05T14:59:32.021Z</time></trkpt><trkpt lat="44.03838238945833" lon="10.866350184023505"><ele>698.1666666666666</ele><time>2026-04-05T14:59:34.021Z</time></trkpt><trkpt lat="44.03838914654277" lon="10.8662148884425"><ele>699.0</ele><time>2026-04-05T14:59:37.021Z</time></trkpt><trkpt lat="44.038404140290645" lon="10.866106953061575"><ele>699.0</ele><time>2026-04-05T14:59:39.02Z</time></trkpt><trkpt lat="44.038402663908606" lon="10.865999226311416"><ele>699.0</ele><time>2026-04-05T14:59:41.021Z</time></trkpt><trkpt lat="44.03840945365979" lon="10.865893236562984"><ele>699.0</ele><time>2026-04-05T14:59:43.021Z</time></trkpt><trkpt lat="44.03842328168298" lon="10.865791993435085"><ele>699.0</ele><time>2026-04-05T14:59:45.021Z</time></trkpt><trkpt lat="44.038448901984275" lon="10.865693867579202"><ele>699.0</ele><time>2026-04-05T14:59:47.021Z</time></trkpt><trkpt lat="44.03846958482558" lon="10.865602753166343"><ele>699.0</ele><time>2026-04-05T14:59:49.021Z</time></trkpt><trkpt lat="44.03845680107055" lon="10.865510467865587"><ele>699.0</ele><time>2026-04-05T14:59:52.021Z</time></trkpt><trkpt lat="44.03847860024537" lon="10.865385083505453"><ele>698.8333333333334</ele><time>2026-04-05T14:59:55.021Z</time></trkpt><trkpt lat="44.03849176091335" lon="10.865277584452574"><ele>698.6666666666666</ele><time>2026-04-05T14:59:57.021Z</time></trkpt><trkpt lat="44.03852910306376" lon="10.865173084227703"><ele>698.5</ele><time>2026-04-05T15:00:00.021Z</time></trkpt><trkpt lat="44.03853405945073" lon="10.865078980246492"><ele>698.3333333333333</ele><time>2026-04-05T15:00:02.021Z</time></trkpt><trkpt lat="44.03854720681339" lon="10.864987318298029"><ele>698.1666666666666</ele><time>2026-04-05T15:00:04.021Z</time></trkpt><trkpt lat="44.03856016353261" lon="10.864894242599695"><ele>698.0</ele><time>2026-04-05T15:00:06.021Z</time></trkpt><trkpt lat="44.03857885445601" lon="10.864765252296122"><ele>698.0</ele><time>2026-04-05T15:00:09.021Z</time></trkpt><trkpt lat="44.03858694173985" lon="10.864650137532795"><ele>698.0</ele><time>2026-04-05T15:00:12.021Z</time></trkpt><trkpt lat="44.03860616251254" lon="10.864553035839497"><ele>698.0</ele><time>2026-04-05T15:00:14.021Z</time></trkpt><trkpt lat="44.03863114981724" lon="10.864447041479227"><ele>698.0</ele><time>2026-04-05T15:00:16.021Z</time></trkpt><trkpt lat="44.03865649949968" lon="10.864354267507721"><ele>698.0</ele><time>2026-04-05T15:00:18.021Z</time></trkpt><trkpt lat="44.03867550313334" lon="10.864261550035645"><ele>698.0</ele><time>2026-04-05T15:00:20.021Z</time></trkpt><trkpt lat="44.03868929000705" lon="10.864126263651869"><ele>697.9999999999999</ele><time>2026-04-05T15:00:23.021Z</time></trkpt><trkpt lat="44.03870117896389" lon="10.864026464039137"><ele>698.0</ele><time>2026-04-05T15:00:25.021Z</time></trkpt><trkpt lat="44.038700688061226" lon="10.863921929803443"><ele>698.0</ele><time>2026-04-05T15:00:27.021Z</time></trkpt><trkpt lat="44.03870523338025" lon="10.863825395740022"><ele>698.0</ele><time>2026-04-05T15:00:29.021Z</time></trkpt><trkpt lat="44.03871395286047" lon="10.863725964356309"><ele>698.0</ele><time>2026-04-05T15:00:31.021Z</time></trkpt><trkpt lat="44.03873206202429" lon="10.863625849994326"><ele>697.9999999999999</ele><time>2026-04-05T15:00:33.021Z</time></trkpt><trkpt lat="44.03873365794247" lon="10.863515726387936"><ele>698.0</ele><time>2026-04-05T15:00:35.021Z</time></trkpt><trkpt lat="44.03873975394059" lon="10.863404463796043"><ele>697.5999999999999</ele><time>2026-04-05T15:00:37.021Z</time></trkpt><trkpt lat="44.03875047811529" lon="10.863278636660342"><ele>697.1999999999999</ele><time>2026-04-05T15:00:39.021Z</time></trkpt><trkpt lat="44.03876159361579" lon="10.863139237637236"><ele>696.8</ele><time>2026-04-05T15:00:41.021Z</time></trkpt><trkpt lat="44.03875489772216" lon="10.862996756772892"><ele>696.4</ele><time>2026-04-05T15:00:43.021Z</time></trkpt><trkpt lat="44.03875116553383" lon="10.862863751501422"><ele>696.0</ele><time>2026-04-05T15:00:45.022Z</time></trkpt><trkpt lat="44.03873505587922" lon="10.862720338055453"><ele>695.5999999999999</ele><time>2026-04-05T15:00:47.022Z</time></trkpt><trkpt lat="44.03872131760739" lon="10.862560781820086"><ele>695.2</ele><time>2026-04-05T15:00:49.022Z</time></trkpt><trkpt lat="44.03871161279805" lon="10.862395976825931"><ele>694.8</ele><time>2026-04-05T15:00:51.022Z</time></trkpt><trkpt lat="44.0387081386281" lon="10.86229304847096"><ele>694.4000000000001</ele><time>2026-04-05T15:00:52.022Z</time></trkpt><trkpt lat="44.038697858864516" lon="10.862205583379096"><ele>694.0</ele><time>2026-04-05T15:00:53.022Z</time></trkpt><trkpt lat="44.03867865293917" lon="10.862035403062844"><ele>694.0</ele><time>2026-04-05T15:00:55.022Z</time></trkpt><trkpt lat="44.03869026937563" lon="10.861868014208962"><ele>694.0</ele><time>2026-04-05T15:00:57.022Z</time></trkpt><trkpt lat="44.038706462106724" lon="10.861777443635082"><ele>694.0</ele><time>2026-04-05T15:00:58.022Z</time></trkpt><trkpt lat="44.03873422459934" lon="10.861680448543032"><ele>694.0</ele><time>2026-04-05T15:00:59.022Z</time></trkpt><trkpt lat="44.03875490698601" lon="10.861594978202376"><ele>694.0</ele><time>2026-04-05T15:01:00.022Z</time></trkpt><trkpt lat="44.038788292442526" lon="10.861500535652134"><ele>694.0</ele><time>2026-04-05T15:01:01.022Z</time></trkpt><trkpt lat="44.03881960800599" lon="10.861409702454804"><ele>693.8571428571429</ele><time>2026-04-05T15:01:02.022Z</time></trkpt><trkpt lat="44.03886142049154" lon="10.861325351823858"><ele>693.7142857142857</ele><time>2026-04-05T15:01:03.022Z</time></trkpt><trkpt lat="44.03889044303023" lon="10.861228716746451"><ele>693.5714285714286</ele><time>2026-04-05T15:01:04.022Z</time></trkpt><trkpt lat="44.038914286811654" lon="10.86112687335184"><ele>693.4285714285714</ele><time>2026-04-05T15:01:05.022Z</time></trkpt><trkpt lat="44.03894422678806" lon="10.86102774621832"><ele>693.2857142857142</ele><time>2026-04-05T15:01:06.022Z</time></trkpt><trkpt lat="44.03895421176645" lon="10.860918255251303"><ele>693.1428571428571</ele><time>2026-04-05T15:01:07.022Z</time></trkpt><trkpt lat="44.03894977490921" lon="10.860826673649827"><ele>693.0</ele><time>2026-04-05T15:01:08.022Z</time></trkpt><trkpt lat="44.038918572565734" lon="10.86072925180749"><ele>693.0</ele><time>2026-04-05T15:01:09.022Z</time></trkpt><trkpt lat="44.038896401317565" lon="10.860640181972906"><ele>693.0</ele><time>2026-04-05T15:01:10.022Z</time></trkpt><trkpt lat="44.03886238560066" lon="10.860478871478085"><ele>693.0</ele><time>2026-04-05T15:01:12.022Z</time></trkpt><trkpt lat="44.03884128131565" lon="10.860326643635181"><ele>693.0</ele><time>2026-04-05T15:01:14.022Z</time></trkpt><trkpt lat="44.03883312415506" lon="10.860196786209409"><ele>693.0</ele><time>2026-04-05T15:01:16.022Z</time></trkpt><trkpt lat="44.0388356395075" lon="10.860087200677592"><ele>694.1666666666666</ele><time>2026-04-05T15:01:18.022Z</time></trkpt><trkpt lat="44.03883478490662" lon="10.859972867574037"><ele>695.3333333333334</ele><time>2026-04-05T15:01:20.022Z</time></trkpt><trkpt lat="44.03884101346385" lon="10.859860451997845"><ele>696.5</ele><time>2026-04-05T15:01:22.022Z</time></trkpt><trkpt lat="44.03883695438454" lon="10.859747564318402"><ele>697.6666666666667</ele><time>2026-04-05T15:01:24.022Z</time></trkpt><trkpt lat="44.03883193815624" lon="10.859640568724407"><ele>698.8333333333334</ele><time>2026-04-05T15:01:26.022Z</time></trkpt><trkpt lat="44.03883456826183" lon="10.85954108989901"><ele>700.0</ele><time>2026-04-05T15:01:28.022Z</time></trkpt><trkpt lat="44.038821879004125" lon="10.85943540279902"><ele>700.0</ele><time>2026-04-05T15:01:30.022Z</time></trkpt><trkpt lat="44.03881686794229" lon="10.859291175148522"><ele>700.0</ele><time>2026-04-05T15:01:32.022Z</time></trkpt><trkpt lat="44.03879651249177" lon="10.859180248634404"><ele>700.0</ele><time>2026-04-05T15:01:34.021Z</time></trkpt><trkpt lat="44.03877065986667" lon="10.859064466873091"><ele>700.0</ele><time>2026-04-05T15:01:36.022Z</time></trkpt><trkpt lat="44.03874691300733" lon="10.858953152631116"><ele>700.0</ele><time>2026-04-05T15:01:38.021Z</time></trkpt><trkpt lat="44.03872920120274" lon="10.85885868550359"><ele>700.0</ele><time>2026-04-05T15:01:40.021Z</time></trkpt><trkpt lat="44.03870888920356" lon="10.858748005448595"><ele>701.3333333333334</ele><time>2026-04-05T15:01:42.021Z</time></trkpt><trkpt lat="44.03868729004751" lon="10.858656238685748"><ele>702.6666666666667</ele><time>2026-04-05T15:01:44.022Z</time></trkpt><trkpt lat="44.03866009641995" lon="10.858539682014277"><ele>704.0</ele><time>2026-04-05T15:01:46.021Z</time></trkpt><trkpt lat="44.038634019160455" lon="10.858410420496144"><ele>705.3333333333334</ele><time>2026-04-05T15:01:48.022Z</time></trkpt><trkpt lat="44.03860283167185" lon="10.858321924738648"><ele>706.6666666666666</ele><time>2026-04-05T15:01:50.022Z</time></trkpt><trkpt lat="44.03857674996366" lon="10.858216368328522"><ele>708.0</ele><time>2026-04-05T15:01:52.022Z</time></trkpt><trkpt lat="44.038552691889414" lon="10.858108825454963"><ele>708.0</ele><time>2026-04-05T15:01:54.022Z</time></trkpt><trkpt lat="44.038517647415496" lon="10.858011098656432"><ele>708.0</ele><time>2026-04-05T15:01:56.022Z</time></trkpt><trkpt lat="44.038495665924124" lon="10.857892276759832"><ele>708.0</ele><time>2026-04-05T15:01:58.022Z</time></trkpt><trkpt lat="44.03847201593948" lon="10.857807412076617"><ele>708.0</ele><time>2026-04-05T15:02:00.022Z</time></trkpt><trkpt lat="44.03843861811417" lon="10.857725683323041"><ele>708.0</ele><time>2026-04-05T15:02:02.022Z</time></trkpt><trkpt lat="44.03841530737939" lon="10.857608557962175"><ele>708.0</ele><time>2026-04-05T15:02:04.022Z</time></trkpt><trkpt lat="44.0383995548791" lon="10.857504663644978"><ele>707.1666666666666</ele><time>2026-04-05T15:02:06.022Z</time></trkpt><trkpt lat="44.03836192186264" lon="10.85741369237004"><ele>706.3333333333334</ele><time>2026-04-05T15:02:08.022Z</time></trkpt><trkpt lat="44.03830818639862" lon="10.857320578969775"><ele>705.5</ele><time>2026-04-05T15:02:10.022Z</time></trkpt><trkpt lat="44.038252955952096" lon="10.857249692741371"><ele>704.6666666666667</ele><time>2026-04-05T15:02:12.022Z</time></trkpt><trkpt lat="44.03819950372933" lon="10.85718288050561"><ele>703.8333333333334</ele><time>2026-04-05T15:02:14.022Z</time></trkpt><trkpt lat="44.03812176855041" lon="10.85710486976678"><ele>703.0</ele><time>2026-04-05T15:02:16.022Z</time></trkpt><trkpt lat="44.0380678831895" lon="10.857052088842508"><ele>705.0</ele><time>2026-04-05T15:02:18.022Z</time></trkpt><trkpt lat="44.03800452556066" lon="10.856956273931367"><ele>707.0</ele><time>2026-04-05T15:02:20.022Z</time></trkpt><trkpt lat="44.03795904399131" lon="10.856841469866534"><ele>709.0</ele><time>2026-04-05T15:02:22.022Z</time></trkpt><trkpt lat="44.03794201216523" lon="10.856737410563774"><ele>711.0</ele><time>2026-04-05T15:02:24.022Z</time></trkpt><trkpt lat="44.037920317384014" lon="10.856631840964631"><ele>713.0</ele><time>2026-04-05T15:02:26.022Z</time></trkpt><trkpt lat="44.03791890260225" lon="10.85651953129887"><ele>715.0</ele><time>2026-04-05T15:02:28.022Z</time></trkpt><trkpt lat="44.03790335553983" lon="10.856416955119839"><ele>715.0</ele><time>2026-04-05T15:02:30.022Z</time></trkpt><trkpt lat="44.03789560477042" lon="10.856319930503158"><ele>715.0</ele><time>2026-04-05T15:02:32.022Z</time></trkpt><trkpt lat="44.03788171301069" lon="10.856189658633168"><ele>715.0</ele><time>2026-04-05T15:02:35.022Z</time></trkpt><trkpt lat="44.037878218762586" lon="10.856078530797392"><ele>715.0</ele><time>2026-04-05T15:02:37.022Z</time></trkpt><trkpt lat="44.03788146446339" lon="10.855949435923588"><ele>715.0</ele><time>2026-04-05T15:02:39.022Z</time></trkpt><trkpt lat="44.03786392724876" lon="10.85584254571408"><ele>715.0</ele><time>2026-04-05T15:02:41.022Z</time></trkpt><trkpt lat="44.03785137686251" lon="10.855731343081478"><ele>715.0</ele><time>2026-04-05T15:02:43.022Z</time></trkpt><trkpt lat="44.03782996356166" lon="10.855591182254264"><ele>715.0</ele><time>2026-04-05T15:02:45.022Z</time></trkpt><trkpt lat="44.03782391197683" lon="10.8555034811883"><ele>715.0</ele><time>2026-04-05T15:02:47.022Z</time></trkpt><trkpt lat="44.037808717869616" lon="10.85535599530262"><ele>715.0</ele><time>2026-04-05T15:02:49.022Z</time></trkpt><trkpt lat="44.03778802883856" lon="10.855228342933765"><ele>715.0</ele><time>2026-04-05T15:02:51.022Z</time></trkpt><trkpt lat="44.03778574159968" lon="10.855084364283238"><ele>714.6</ele><time>2026-04-05T15:02:53.022Z</time></trkpt><trkpt lat="44.03775870403506" lon="10.854929217753416"><ele>714.2</ele><time>2026-04-05T15:02:55.022Z</time></trkpt><trkpt lat="44.03771125490078" lon="10.854798560234734"><ele>713.8</ele><time>2026-04-05T15:02:57.022Z</time></trkpt><trkpt lat="44.03765332681336" lon="10.854669007443958"><ele>713.4</ele><time>2026-04-05T15:02:59.022Z</time></trkpt><trkpt lat="44.03760148371639" lon="10.854567976589"><ele>713.0</ele><time>2026-04-05T15:03:01.022Z</time></trkpt><trkpt lat="44.03756081661838" lon="10.854475380247855"><ele>713.0</ele><time>2026-04-05T15:03:03.022Z</time></trkpt><trkpt lat="44.03752655879979" lon="10.854381815833314"><ele>713.0</ele><time>2026-04-05T15:03:05.022Z</time></trkpt><trkpt lat="44.03748645401175" lon="10.854293396882328"><ele>713.0</ele><time>2026-04-05T15:03:07.022Z</time></trkpt><trkpt lat="44.037444731964534" lon="10.854190811692849"><ele>713.0</ele><time>2026-04-05T15:03:09.022Z</time></trkpt><trkpt lat="44.03741080935722" lon="10.854068211797518"><ele>713.0</ele><time>2026-04-05T15:03:11.023Z</time></trkpt><trkpt lat="44.037404827358" lon="10.853921647283652"><ele>713.0</ele><time>2026-04-05T15:03:13.023Z</time></trkpt><trkpt lat="44.03741451385778" lon="10.853789850961368"><ele>714.0</ele><time>2026-04-05T15:03:15.023Z</time></trkpt><trkpt lat="44.03743885689135" lon="10.853668934211406"><ele>715.0</ele><time>2026-04-05T15:03:17.023Z</time></trkpt><trkpt lat="44.03748447400836" lon="10.853543886189145"><ele>716.0</ele><time>2026-04-05T15:03:19.023Z</time></trkpt><trkpt lat="44.037551640368044" lon="10.853461032379494"><ele>717.0</ele><time>2026-04-05T15:03:21.023Z</time></trkpt><trkpt lat="44.03762514361339" lon="10.853392313027742"><ele>718.0</ele><time>2026-04-05T15:03:23.023Z</time></trkpt><trkpt lat="44.037690511002296" lon="10.853313724952846"><ele>716.3333333333334</ele><time>2026-04-05T15:03:25.023Z</time></trkpt><trkpt lat="44.03774308418085" lon="10.853212947986398"><ele>714.6666666666667</ele><time>2026-04-05T15:03:27.023Z</time></trkpt><trkpt lat="44.03779227841586" lon="10.853100232516825"><ele>713.0</ele><time>2026-04-05T15:03:29.023Z</time></trkpt><trkpt lat="44.0378224131942" lon="10.852977838233727"><ele>711.3333333333334</ele><time>2026-04-05T15:03:31.023Z</time></trkpt><trkpt lat="44.03783778146352" lon="10.852886312151586"><ele>709.6666666666666</ele><time>2026-04-05T15:03:33.023Z</time></trkpt><trkpt lat="44.037832649384455" lon="10.85277762723801"><ele>708.0</ele><time>2026-04-05T15:03:35.023Z</time></trkpt><trkpt lat="44.037819237479354" lon="10.852663812044634"><ele>708.8</ele><time>2026-04-05T15:03:37.023Z</time></trkpt><trkpt lat="44.0378047245308" lon="10.852530532406995"><ele>709.5999999999999</ele><time>2026-04-05T15:03:39.023Z</time></trkpt><trkpt lat="44.03778419683209" lon="10.852405899051403"><ele>710.4000000000001</ele><time>2026-04-05T15:03:41.022Z</time></trkpt><trkpt lat="44.03775958220785" lon="10.852280784376237"><ele>711.2</ele><time>2026-04-05T15:03:43.023Z</time></trkpt><trkpt lat="44.03772406798748" lon="10.85215710897594"><ele>712.0</ele><time>2026-04-05T15:03:45.023Z</time></trkpt><trkpt lat="44.037700164083894" lon="10.85205133990034"><ele>712.0</ele><time>2026-04-05T15:03:47.022Z</time></trkpt><trkpt lat="44.03766305500821" lon="10.851933201870196"><ele>712.0</ele><time>2026-04-05T15:03:49.023Z</time></trkpt><trkpt lat="44.03763671083107" lon="10.851819073975266"><ele>712.0</ele><time>2026-04-05T15:03:51.023Z</time></trkpt><trkpt lat="44.03760991633904" lon="10.851708585400148"><ele>712.0</ele><time>2026-04-05T15:03:53.023Z</time></trkpt><trkpt lat="44.0375978426125" lon="10.85155833800897"><ele>712.0</ele><time>2026-04-05T15:03:55.023Z</time></trkpt><trkpt lat="44.03759150884819" lon="10.851413574731598"><ele>712.0</ele><time>2026-04-05T15:03:57.023Z</time></trkpt><trkpt lat="44.0376173631509" lon="10.851272752077591"><ele>712.0</ele><time>2026-04-05T15:03:59.023Z</time></trkpt><trkpt lat="44.037655455204046" lon="10.851139717997617"><ele>712.0</ele><time>2026-04-05T15:04:01.023Z</time></trkpt><trkpt lat="44.03768221454528" lon="10.851000701579787"><ele>712.0</ele><time>2026-04-05T15:04:03.023Z</time></trkpt><trkpt lat="44.03771581014481" lon="10.850862577839058"><ele>712.0</ele><time>2026-04-05T15:04:05.023Z</time></trkpt><trkpt lat="44.037737327585255" lon="10.850740507006387"><ele>712.1666666666667</ele><time>2026-04-05T15:04:07.023Z</time></trkpt><trkpt lat="44.03776359920311" lon="10.850616526546021"><ele>712.3333333333334</ele><time>2026-04-05T15:04:09.023Z</time></trkpt><trkpt lat="44.037795266486604" lon="10.850510451888162"><ele>712.5</ele><time>2026-04-05T15:04:11.023Z</time></trkpt><trkpt lat="44.03782082358726" lon="10.850403529121913"><ele>712.6666666666666</ele><time>2026-04-05T15:04:13.023Z</time></trkpt><trkpt lat="44.03784861557941" lon="10.850303481770805"><ele>712.8333333333333</ele><time>2026-04-05T15:04:15.023Z</time></trkpt><trkpt lat="44.03787439145599" lon="10.850201419487806"><ele>713.0</ele><time>2026-04-05T15:04:17.023Z</time></trkpt><trkpt lat="44.03790245803067" lon="10.850096332971912"><ele>713.0</ele><time>2026-04-05T15:04:19.023Z</time></trkpt><trkpt lat="44.037950991913384" lon="10.849980950791474"><ele>713.0</ele><time>2026-04-05T15:04:21.023Z</time></trkpt><trkpt lat="44.037999442225235" lon="10.849884133035275"><ele>713.0</ele><time>2026-04-05T15:04:23.023Z</time></trkpt><trkpt lat="44.038047746245915" lon="10.849784965164956"><ele>713.0</ele><time>2026-04-05T15:04:25.023Z</time></trkpt><trkpt lat="44.03810136011053" lon="10.849680122812275"><ele>713.0</ele><time>2026-04-05T15:04:27.023Z</time></trkpt><trkpt lat="44.03814314143587" lon="10.849602785855776"><ele>713.0</ele><time>2026-04-05T15:04:29.023Z</time></trkpt><trkpt lat="44.03817894516412" lon="10.849515016615875"><ele>713.0</ele><time>2026-04-05T15:04:31.023Z</time></trkpt><trkpt lat="44.038218318044926" lon="10.849411145488624"><ele>713.0</ele><time>2026-04-05T15:04:33.023Z</time></trkpt><trkpt lat="44.038266350360246" lon="10.849325831737131"><ele>713.0</ele><time>2026-04-05T15:04:35.023Z</time></trkpt><trkpt lat="44.03830518450293" lon="10.849237440813733"><ele>713.0</ele><time>2026-04-05T15:04:37.023Z</time></trkpt><trkpt lat="44.03834806329655" lon="10.849140751008752"><ele>713.0</ele><time>2026-04-05T15:04:39.023Z</time></trkpt><trkpt lat="44.03839198474324" lon="10.849049956916167"><ele>713.0</ele><time>2026-04-05T15:04:41.023Z</time></trkpt><trkpt lat="44.03843904513504" lon="10.848954245837184"><ele>714.0</ele><time>2026-04-05T15:04:43.023Z</time></trkpt><trkpt lat="44.0384911176587" lon="10.848867709249209"><ele>715.0</ele><time>2026-04-05T15:04:45.023Z</time></trkpt><trkpt lat="44.03854430071514" lon="10.848786563458894"><ele>716.0</ele><time>2026-04-05T15:04:47.023Z</time></trkpt><trkpt lat="44.03858773277987" lon="10.84869306790772"><ele>717.0</ele><time>2026-04-05T15:04:49.023Z</time></trkpt><trkpt lat="44.03862488505074" lon="10.848607739666845"><ele>718.0</ele><time>2026-04-05T15:04:51.023Z</time></trkpt><trkpt lat="44.03868047175807" lon="10.848525990421901"><ele>719.0</ele><time>2026-04-05T15:04:53.024Z</time></trkpt><trkpt lat="44.038723585134015" lon="10.848440883099952"><ele>719.0</ele><time>2026-04-05T15:04:55.024Z</time></trkpt><trkpt lat="44.038764264557614" lon="10.84835190154023"><ele>719.0</ele><time>2026-04-05T15:04:57.024Z</time></trkpt><trkpt lat="44.03880276041009" lon="10.84827761155079"><ele>719.0</ele><time>2026-04-05T15:04:59.024Z</time></trkpt><trkpt lat="44.038849142309445" lon="10.848191405042815"><ele>719.0</ele><time>2026-04-05T15:05:02.024Z</time></trkpt><trkpt lat="44.038889510316544" lon="10.848109301434912"><ele>719.0</ele><time>2026-04-05T15:05:05.024Z</time></trkpt><trkpt lat="44.03892521157144" lon="10.84802047138223"><ele>719.0</ele><time>2026-04-05T15:05:07.024Z</time></trkpt><trkpt lat="44.03896720125784" lon="10.847909082916166"><ele>718.9999999999999</ele><time>2026-04-05T15:05:10.024Z</time></trkpt><trkpt lat="44.039014882941785" lon="10.847816107111818"><ele>719.0</ele><time>2026-04-05T15:05:12.024Z</time></trkpt><trkpt lat="44.0390502901214" lon="10.847736177708166"><ele>719.0</ele><time>2026-04-05T15:05:14.024Z</time></trkpt><trkpt lat="44.03907969769954" lon="10.847657279095635"><ele>719.0</ele><time>2026-04-05T15:05:16.024Z</time></trkpt><trkpt lat="44.03910578516411" lon="10.847535529496964"><ele>719.0</ele><time>2026-04-05T15:05:19.024Z</time></trkpt><trkpt lat="44.03912738258666" lon="10.847449048889967"><ele>718.9999999999999</ele><time>2026-04-05T15:05:21.024Z</time></trkpt><trkpt lat="44.03915512311087" lon="10.847351282114596"><ele>719.0</ele><time>2026-04-05T15:05:23.024Z</time></trkpt><trkpt lat="44.03918399535739" lon="10.847270688058941"><ele>720.5</ele><time>2026-04-05T15:05:25.024Z</time></trkpt><trkpt lat="44.03922487587519" lon="10.847182115081589"><ele>722.0</ele><time>2026-04-05T15:05:27.024Z</time></trkpt><trkpt lat="44.0392692717359" lon="10.847108609489888"><ele>723.5</ele><time>2026-04-05T15:05:29.024Z</time></trkpt><trkpt lat="44.03932170139476" lon="10.84701839342906"><ele>725.0</ele><time>2026-04-05T15:05:31.024Z</time></trkpt><trkpt lat="44.03937747580657" lon="10.84694937441909"><ele>726.5</ele><time>2026-04-05T15:05:33.024Z</time></trkpt><trkpt lat="44.03943234528598" lon="10.846880513338672"><ele>728.0</ele><time>2026-04-05T15:05:35.024Z</time></trkpt><trkpt lat="44.039489050358554" lon="10.846812240664248"><ele>727.5714285714286</ele><time>2026-04-05T15:05:37.024Z</time></trkpt><trkpt lat="44.039543403138964" lon="10.846745757117477"><ele>727.1428571428571</ele><time>2026-04-05T15:05:39.024Z</time></trkpt><trkpt lat="44.03958954520409" lon="10.846677568621566"><ele>726.7142857142858</ele><time>2026-04-05T15:05:41.024Z</time></trkpt><trkpt lat="44.03963479919859" lon="10.846607874088392"><ele>726.2857142857142</ele><time>2026-04-05T15:05:43.024Z</time></trkpt><trkpt lat="44.03969575709307" lon="10.846519836066834"><ele>725.8571428571429</ele><time>2026-04-05T15:05:46.023Z</time></trkpt><trkpt lat="44.03974232237303" lon="10.84641816533742"><ele>725.4285714285714</ele><time>2026-04-05T15:05:50.024Z</time></trkpt><trkpt lat="44.03977408062743" lon="10.846336718609601"><ele>725.0</ele><time>2026-04-05T15:05:52.023Z</time></trkpt><trkpt lat="44.039815742181524" lon="10.846248405444408"><ele>725.0</ele><time>2026-04-05T15:05:54.023Z</time></trkpt><trkpt lat="44.03985154064277" lon="10.846161196237945"><ele>725.0</ele><time>2026-04-05T15:05:56.023Z</time></trkpt><trkpt lat="44.03988261692754" lon="10.846074568100573"><ele>725.0</ele><time>2026-04-05T15:05:58.023Z</time></trkpt><trkpt lat="44.03990862346034" lon="10.84599047290337"><ele>725.0</ele><time>2026-04-05T15:06:00.023Z</time></trkpt><trkpt lat="44.03994953303268" lon="10.84588757171751"><ele>725.0</ele><time>2026-04-05T15:06:03.023Z</time></trkpt><trkpt lat="44.039984484343684" lon="10.84580124141852"><ele>725.0</ele><time>2026-04-05T15:06:05.023Z</time></trkpt><trkpt lat="44.04002652700537" lon="10.845700902136514"><ele>725.0</ele><time>2026-04-05T15:06:07.023Z</time></trkpt><trkpt lat="44.040075517237085" lon="10.84561073034363"><ele>726.0</ele><time>2026-04-05T15:06:09.023Z</time></trkpt><trkpt lat="44.04013248113319" lon="10.845509579351814"><ele>727.0</ele><time>2026-04-05T15:06:11.023Z</time></trkpt><trkpt lat="44.04018415625702" lon="10.845415814723044"><ele>728.0</ele><time>2026-04-05T15:06:13.023Z</time></trkpt><trkpt lat="44.04024468205889" lon="10.84531595770269"><ele>729.0</ele><time>2026-04-05T15:06:15.023Z</time></trkpt><trkpt lat="44.04029021929355" lon="10.845221210403627"><ele>730.0</ele><time>2026-04-05T15:06:17.023Z</time></trkpt><trkpt lat="44.04033688941259" lon="10.84511227238156"><ele>731.0</ele><time>2026-04-05T15:06:19.023Z</time></trkpt><trkpt lat="44.04037170377163" lon="10.844990964122392"><ele>731.0</ele><time>2026-04-05T15:06:21.022Z</time></trkpt><trkpt lat="44.04040586075728" lon="10.844849761803863"><ele>731.0</ele><time>2026-04-05T15:06:23.017Z</time></trkpt><trkpt lat="44.040442677270136" lon="10.84469866781408"><ele>731.0</ele><time>2026-04-05T15:06:25.013Z</time></trkpt><trkpt lat="44.04045212743631" lon="10.844532186474177"><ele>731.0</ele><time>2026-04-05T15:06:27.009Z</time></trkpt><trkpt lat="44.04044984610099" lon="10.844376717205295"><ele>731.6666666666666</ele><time>2026-04-05T15:06:29.006Z</time></trkpt><trkpt lat="44.04043363881435" lon="10.844242238342783"><ele>732.3333333333333</ele><time>2026-04-05T15:06:31.003Z</time></trkpt><trkpt lat="44.04041657690604" lon="10.844152531022408"><ele>733.0</ele><time>2026-04-05T15:06:33Z</time></trkpt><trkpt lat="44.04037415643499" lon="10.844074244110724"><ele>733.6666666666666</ele><time>2026-04-05T15:06:35.996Z</time></trkpt><trkpt lat="44.04033296337253" lon="10.843969591597464"><ele>734.3333333333334</ele><time>2026-04-05T15:06:38.994Z</time></trkpt><trkpt lat="44.04030162441851" lon="10.843884843691686"><ele>735.0</ele><time>2026-04-05T15:06:40.992Z</time></trkpt><trkpt lat="44.04028905746533" lon="10.843779716356904"><ele>735.0</ele><time>2026-04-05T15:06:43.99Z</time></trkpt><trkpt lat="44.04029292466183" lon="10.843683548032262"><ele>735.0</ele><time>2026-04-05T15:06:45.989Z</time></trkpt><trkpt lat="44.04029615373424" lon="10.843592086287794"><ele>735.0</ele><time>2026-04-05T15:06:47.988Z</time></trkpt><trkpt lat="44.04025630136914" lon="10.843497287393664"><ele>735.0</ele><time>2026-04-05T15:06:50.987Z</time></trkpt><trkpt lat="44.040219483694806" lon="10.843416820253305"><ele>735.0</ele><time>2026-04-05T15:06:52.986Z</time></trkpt><trkpt lat="44.04017269879319" lon="10.843323886143729"><ele>735.0</ele><time>2026-04-05T15:06:55.985Z</time></trkpt><trkpt lat="44.040113059792546" lon="10.84323972753182"><ele>735.0</ele><time>2026-04-05T15:06:58.984Z</time></trkpt><trkpt lat="44.04007602800435" lon="10.843165178472907"><ele>735.2857142857143</ele><time>2026-04-05T15:07:00.984Z</time></trkpt><trkpt lat="44.0400382211714" lon="10.843087512395444"><ele>735.5714285714286</ele><time>2026-04-05T15:07:02.983Z</time></trkpt><trkpt lat="44.04000468524812" lon="10.843012728443759"><ele>735.8571428571429</ele><time>2026-04-05T15:07:04.983Z</time></trkpt><trkpt lat="44.04000532950194" lon="10.842918819116981"><ele>736.1428571428571</ele><time>2026-04-05T15:07:07.983Z</time></trkpt><trkpt lat="44.04001967087652" lon="10.842803143842826"><ele>736.4285714285714</ele><time>2026-04-05T15:07:10.982Z</time></trkpt><trkpt lat="44.0400356654763" lon="10.842690061783763"><ele>736.7142857142858</ele><time>2026-04-05T15:07:13.982Z</time></trkpt><trkpt lat="44.04004288557577" lon="10.84257724051061"><ele>737.0</ele><time>2026-04-05T15:07:16.982Z</time></trkpt><trkpt lat="44.040010828922576" lon="10.842466653850146"><ele>740.1666666666666</ele><time>2026-04-05T15:07:19.981Z</time></trkpt><trkpt lat="44.039953509524445" lon="10.842382307477855"><ele>743.3333333333333</ele><time>2026-04-05T15:07:22.981Z</time></trkpt><trkpt lat="44.03987233305438" lon="10.842329113770997"><ele>746.5</ele><time>2026-04-05T15:07:25.981Z</time></trkpt><trkpt lat="44.039813387860626" lon="10.84226734311073"><ele>749.6666666666666</ele><time>2026-04-05T15:07:28.981Z</time></trkpt><trkpt lat="44.03976773139624" lon="10.842199442945057"><ele>752.8333333333334</ele><time>2026-04-05T15:07:30.981Z</time></trkpt><trkpt lat="44.03971390010892" lon="10.842105979748442"><ele>756.0</ele><time>2026-04-05T15:07:33.981Z</time></trkpt><trkpt lat="44.039697008095175" lon="10.8419901562718"><ele>756.0</ele><time>2026-04-05T15:07:36.981Z</time></trkpt><trkpt lat="44.039688139121786" lon="10.841901444037635"><ele>756.0</ele><time>2026-04-05T15:07:38.981Z</time></trkpt><trkpt lat="44.0396758021264" lon="10.841790023030075"><ele>756.0</ele><time>2026-04-05T15:07:41.981Z</time></trkpt><trkpt lat="44.039669039401524" lon="10.841694873355454"><ele>756.0</ele><time>2026-04-05T15:07:43.981Z</time></trkpt><trkpt lat="44.03963973399233" lon="10.84157487832887"><ele>756.0</ele><time>2026-04-05T15:07:46.981Z</time></trkpt><trkpt lat="44.03959997248995" lon="10.841461920598903"><ele>756.0</ele><time>2026-04-05T15:07:49.981Z</time></trkpt><trkpt lat="44.039560441262175" lon="10.841354025607824"><ele>756.6666666666666</ele><time>2026-04-05T15:07:52.98Z</time></trkpt><trkpt lat="44.03952145849834" lon="10.841238985174735"><ele>757.3333333333334</ele><time>2026-04-05T15:07:55.98Z</time></trkpt><trkpt lat="44.03950039724303" lon="10.841117614585569"><ele>758.0</ele><time>2026-04-05T15:07:58.981Z</time></trkpt><trkpt lat="44.03948021833142" lon="10.841021592689374"><ele>758.6666666666667</ele><time>2026-04-05T15:08:00.981Z</time></trkpt><trkpt lat="44.03947066541703" lon="10.84093009373132"><ele>759.3333333333334</ele><time>2026-04-05T15:08:02.98Z</time></trkpt><trkpt lat="44.03944597718801" lon="10.840819812980317"><ele>760.0</ele><time>2026-04-05T15:08:05.981Z</time></trkpt><trkpt lat="44.039431969761964" lon="10.840725908275726"><ele>760.6666666666667</ele><time>2026-04-05T15:08:07.981Z</time></trkpt><trkpt lat="44.039426779206806" lon="10.840635458451386"><ele>761.3333333333334</ele><time>2026-04-05T15:08:09.981Z</time></trkpt><trkpt lat="44.03941273027066" lon="10.840515147218934"><ele>762.0</ele><time>2026-04-05T15:08:12.981Z</time></trkpt><trkpt lat="44.039394258311404" lon="10.840425662155445"><ele>762.6666666666666</ele><time>2026-04-05T15:08:14.981Z</time></trkpt><trkpt lat="44.03937552616403" lon="10.84032459006654"><ele>763.3333333333333</ele><time>2026-04-05T15:08:17.981Z</time></trkpt><trkpt lat="44.03935368489576" lon="10.84019457834553"><ele>764.0</ele><time>2026-04-05T15:08:21.981Z</time></trkpt><trkpt lat="44.039326518127325" lon="10.840075702896291"><ele>764.5</ele><time>2026-04-05T15:08:24.981Z</time></trkpt><trkpt lat="44.039307479513276" lon="10.839961605799731"><ele>765.0</ele><time>2026-04-05T15:08:27.981Z</time></trkpt><trkpt lat="44.03927961160709" lon="10.839844587204306"><ele>765.5</ele><time>2026-04-05T15:08:30.981Z</time></trkpt><trkpt lat="44.03924714639048" lon="10.839755660727585"><ele>766.0</ele><time>2026-04-05T15:08:33.98Z</time></trkpt><trkpt lat="44.0392025327754" lon="10.839673390010972"><ele>766.5</ele><time>2026-04-05T15:08:36.98Z</time></trkpt><trkpt lat="44.039129623041134" lon="10.839664934402608"><ele>767.0</ele><time>2026-04-05T15:08:39.98Z</time></trkpt><trkpt lat="44.03907948785197" lon="10.839769235828534"><ele>770.5</ele><time>2026-04-05T15:08:42.98Z</time></trkpt><trkpt lat="44.0390875874133" lon="10.83989528863102"><ele>774.0</ele><time>2026-04-05T15:08:46.98Z</time></trkpt><trkpt lat="44.03910283587404" lon="10.840005408696191"><ele>777.5</ele><time>2026-04-05T15:08:49.98Z</time></trkpt><trkpt lat="44.039123162175365" lon="10.840096249457847"><ele>781.0</ele><time>2026-04-05T15:08:51.98Z</time></trkpt><trkpt lat="44.03912944695538" lon="10.84022618833073"><ele>784.5000000000001</ele><time>2026-04-05T15:08:54.98Z</time></trkpt><trkpt lat="44.03912039681189" lon="10.84034850514597"><ele>788.0</ele><time>2026-04-05T15:08:57.98Z</time></trkpt><trkpt lat="44.03910941720671" lon="10.840467009356928"><ele>788.0000000000001</ele><time>2026-04-05T15:09:00.98Z</time></trkpt><trkpt lat="44.03909009359609" lon="10.840553731372188"><ele>788.0</ele><time>2026-04-05T15:09:02.98Z</time></trkpt><trkpt lat="44.03907786976005" lon="10.840641952504015"><ele>788.0</ele><time>2026-04-05T15:09:04.98Z</time></trkpt><trkpt lat="44.03905209551572" lon="10.84072750283327"><ele>788.0</ele><time>2026-04-05T15:09:06.98Z</time></trkpt><trkpt lat="44.03900494663535" lon="10.840840692325244"><ele>788.0000000000001</ele><time>2026-04-05T15:09:09.98Z</time></trkpt><trkpt lat="44.03895137267453" lon="10.840946106302471"><ele>788.0</ele><time>2026-04-05T15:09:12.98Z</time></trkpt><trkpt lat="44.038896259794996" lon="10.841029221974546"><ele>786.1666666666667</ele><time>2026-04-05T15:09:15.98Z</time></trkpt><trkpt lat="44.03884596701274" lon="10.841101560463786"><ele>784.3333333333334</ele><time>2026-04-05T15:09:18.98Z</time></trkpt><trkpt lat="44.038775024645794" lon="10.841183106862884"><ele>782.5</ele><time>2026-04-05T15:09:21.98Z</time></trkpt><trkpt lat="44.038726607674704" lon="10.841263782084786"><ele>780.6666666666667</ele><time>2026-04-05T15:09:24.98Z</time></trkpt><trkpt lat="44.038671113713995" lon="10.841309474889703"><ele>778.8333333333334</ele><time>2026-04-05T15:09:26.98Z</time></trkpt><trkpt lat="44.038592528078226" lon="10.841378551068393"><ele>777.0</ele><time>2026-04-05T15:09:29.98Z</time></trkpt><trkpt lat="44.03851976681396" lon="10.841447022060299"><ele>777.0</ele><time>2026-04-05T15:09:32.98Z</time></trkpt><trkpt lat="44.038449475516906" lon="10.841511340144066"><ele>777.0</ele><time>2026-04-05T15:09:35.98Z</time></trkpt><trkpt lat="44.038382153491455" lon="10.841568215206017"><ele>777.0</ele><time>2026-04-05T15:09:37.98Z</time></trkpt><trkpt lat="44.03832535917963" lon="10.841611291406881"><ele>777.0</ele><time>2026-04-05T15:09:39.98Z</time></trkpt><trkpt lat="44.03825377815678" lon="10.841678642884151"><ele>777.0</ele><time>2026-04-05T15:09:42.98Z</time></trkpt><trkpt lat="44.03818030235711" lon="10.841712784945459"><ele>777.0</ele><time>2026-04-05T15:09:44.98Z</time></trkpt><trkpt lat="44.03812172067622" lon="10.841763171265939"><ele>778.6666666666666</ele><time>2026-04-05T15:09:46.98Z</time></trkpt><trkpt lat="44.038032367127876" lon="10.841825694086474"><ele>780.3333333333333</ele><time>2026-04-05T15:09:49.98Z</time></trkpt><trkpt lat="44.037973224982416" lon="10.841887999605907"><ele>782.0</ele><time>2026-04-05T15:09:51.98Z</time></trkpt><trkpt lat="44.0379233500538" lon="10.841988020811652"><ele>783.6666666666666</ele><time>2026-04-05T15:09:54.98Z</time></trkpt><trkpt lat="44.03788990705049" lon="10.842063315945307"><ele>785.3333333333333</ele><time>2026-04-05T15:09:56.98Z</time></trkpt><trkpt lat="44.03786335675703" lon="10.842149137274127"><ele>787.0</ele><time>2026-04-05T15:09:58.98Z</time></trkpt><trkpt lat="44.03779884928291" lon="10.84223482557371"><ele>787.0</ele><time>2026-04-05T15:10:01.979Z</time></trkpt><trkpt lat="44.03774510423745" lon="10.842288904599288"><ele>787.0</ele><time>2026-04-05T15:10:04.98Z</time></trkpt><trkpt lat="44.037681830064294" lon="10.842318042994236"><ele>787.0</ele><time>2026-04-05T15:10:06.98Z</time></trkpt><trkpt lat="44.03761222897996" lon="10.842359363410345"><ele>787.0</ele><time>2026-04-05T15:10:09.98Z</time></trkpt><trkpt lat="44.03757455664576" lon="10.842449313022135"><ele>787.0</ele><time>2026-04-05T15:10:12.98Z</time></trkpt><trkpt lat="44.03755727134367" lon="10.842544734607745"><ele>787.0</ele><time>2026-04-05T15:10:15.98Z</time></trkpt><trkpt lat="44.03752042364085" lon="10.842623311617427"><ele>787.0</ele><time>2026-04-05T15:10:19.98Z</time></trkpt><trkpt lat="44.03755692293548" lon="10.842701938559303"><ele>783.0</ele><time>2026-04-05T15:10:34.98Z</time></trkpt><trkpt lat="44.03756869507762" lon="10.842791001497655"><ele>783.0</ele><time>2026-04-05T15:10:47.98Z</time></trkpt><trkpt lat="44.03749594004029" lon="10.84288194205031"><ele>783.0</ele><time>2026-04-05T15:11:48.98Z</time></trkpt><trkpt lat="44.037500136766056" lon="10.842784770444313"><ele>783.0</ele><time>2026-04-05T15:12:17.979Z</time></trkpt><trkpt lat="44.03743670174031" lon="10.84280789891004"><ele>796.0</ele><time>2026-04-05T15:16:35.977Z</time></trkpt><trkpt lat="44.037399596297256" lon="10.842978302055792"><ele>796.0</ele><time>2026-04-05T15:20:51.976Z</time></trkpt></trkseg></trk></gpx>